<?xml version='1.0' encoding='UTF-8'?><gpx version="1.1" creator="JPX - https://github.com/jenetics/jpx" xmlns="http://www.topografix.com/GPX/1/1"><trk><trkseg><trkpt lat="43.183945189994475" lon="10.714361420068322"><ele>430.0</ele><time>2026-04-19T09:34:51Z</time></trkpt><trkpt lat="43.18382623452627" lon="10.714360019457196"><ele>430.0</ele><time>2026-04-19T09:34:53Z</time></trkpt><trkpt lat="43.183746853701585" lon="10.714337434585898"><ele>430.0</ele><time>2026-04-19T09:34:54Z</time></trkpt><trkpt lat="43.18365252759212" lon="10.7142958897634"><ele>430.0</ele><time>2026-04-19T09:34:55Z</time></trkpt><trkpt lat="43.18353950534111" lon="10.714274093075254"><ele>430.0</ele><time>2026-04-19T09:34:56Z</time></trkpt><trkpt lat="43.18342301210605" lon="10.714235041318908"><ele>430.0</ele><time>2026-04-19T09:34:57Z</time></trkpt><trkpt lat="43.18329704073324" lon="10.714204029873924"><ele>430.0</ele><time>2026-04-19T09:34:58Z</time></trkpt><trkpt lat="43.183173509988265" lon="10.714141270319702"><ele>430.0</ele><time>2026-04-19T09:34:59Z</time></trkpt><trkpt lat="43.183060175471965" lon="10.71408440869973"><ele>430.0</ele><time>2026-04-19T09:35:00Z</time></trkpt><trkpt lat="43.18296008032607" lon="10.714018700075837"><ele>427.0</ele><time>2026-04-19T09:35:01Z</time></trkpt><trkpt lat="43.18287734235773" lon="10.71394231766295"><ele>424.0</ele><time>2026-04-19T09:35:02Z</time></trkpt><trkpt lat="43.182719155640775" lon="10.713789494815808"><ele>421.0</ele><time>2026-04-19T09:35:04Z</time></trkpt><trkpt lat="43.18263761737499" lon="10.713718841114469"><ele>418.0</ele><time>2026-04-19T09:35:05Z</time></trkpt><trkpt lat="43.1825501183654" lon="10.713672131525891"><ele>418.0</ele><time>2026-04-19T09:35:06Z</time></trkpt><trkpt lat="43.18245964679679" lon="10.71365518272084"><ele>418.0</ele><time>2026-04-19T09:35:07Z</time></trkpt><trkpt lat="43.18235649189652" lon="10.713659423808679"><ele>418.0</ele><time>2026-04-19T09:35:08Z</time></trkpt><trkpt lat="43.1822469766261" lon="10.713663548445204"><ele>418.0</ele><time>2026-04-19T09:35:09Z</time></trkpt><trkpt lat="43.18213623383465" lon="10.713660870374826"><ele>418.0</ele><time>2026-04-19T09:35:10Z</time></trkpt><trkpt lat="43.18201939519248" lon="10.71363270908651"><ele>417.5</ele><time>2026-04-19T09:35:11Z</time></trkpt><trkpt lat="43.18188654051372" lon="10.713623214799195"><ele>417.0</ele><time>2026-04-19T09:35:12Z</time></trkpt><trkpt lat="43.18175472632295" lon="10.713615356975197"><ele>416.5</ele><time>2026-04-19T09:35:13Z</time></trkpt><trkpt lat="43.18162909035269" lon="10.713611437795832"><ele>416.0</ele><time>2026-04-19T09:35:14Z</time></trkpt><trkpt lat="43.181512221911746" lon="10.713608910313186"><ele>416.0</ele><time>2026-04-19T09:35:15Z</time></trkpt><trkpt lat="43.18140130324643" lon="10.713606996698188"><ele>416.0</ele><time>2026-04-19T09:35:16Z</time></trkpt><trkpt lat="43.18129190463612" lon="10.713607935862992"><ele>416.0</ele><time>2026-04-19T09:35:17Z</time></trkpt><trkpt lat="43.1811925399952" lon="10.71362058368982"><ele>416.0</ele><time>2026-04-19T09:35:18Z</time></trkpt><trkpt lat="43.18111047802773" lon="10.713555797157515"><ele>416.0</ele><time>2026-04-19T09:35:19Z</time></trkpt><trkpt lat="43.18102799533872" lon="10.71350066816453"><ele>413.5</ele><time>2026-04-19T09:35:20Z</time></trkpt><trkpt lat="43.180929634234786" lon="10.713437572896838"><ele>411.0</ele><time>2026-04-19T09:35:21Z</time></trkpt><trkpt lat="43.18083536808812" lon="10.713385066626444"><ele>408.5</ele><time>2026-04-19T09:35:22Z</time></trkpt><trkpt lat="43.18072212611806" lon="10.71334363334109"><ele>406.0</ele><time>2026-04-19T09:35:23Z</time></trkpt><trkpt lat="43.18058948922431" lon="10.71334322478437"><ele>402.5</ele><time>2026-04-19T09:35:24Z</time></trkpt><trkpt lat="43.18044806985876" lon="10.713351726746769"><ele>399.0</ele><time>2026-04-19T09:35:25Z</time></trkpt><trkpt lat="43.18031596765154" lon="10.713345914642582"><ele>395.5</ele><time>2026-04-19T09:35:26Z</time></trkpt><trkpt lat="43.1802034514187" lon="10.713343358705893"><ele>392.0</ele><time>2026-04-19T09:35:27Z</time></trkpt><trkpt lat="43.18009167477075" lon="10.713338251430912"><ele>392.0</ele><time>2026-04-19T09:35:28Z</time></trkpt><trkpt lat="43.1799734222144" lon="10.713343311357841"><ele>392.0</ele><time>2026-04-19T09:35:29Z</time></trkpt><trkpt lat="43.179849109842266" lon="10.713380451331593"><ele>392.0</ele><time>2026-04-19T09:35:30Z</time></trkpt><trkpt lat="43.17970490558009" lon="10.713440260674558"><ele>392.0</ele><time>2026-04-19T09:35:31Z</time></trkpt><trkpt lat="43.17956163494969" lon="10.713528853000586"><ele>392.75</ele><time>2026-04-19T09:35:32Z</time></trkpt><trkpt lat="43.179425822551835" lon="10.713621432730754"><ele>393.5</ele><time>2026-04-19T09:35:33Z</time></trkpt><trkpt lat="43.179295580464576" lon="10.71369919057402"><ele>394.25</ele><time>2026-04-19T09:35:34Z</time></trkpt><trkpt lat="43.17916003255023" lon="10.713707983009625"><ele>395.0</ele><time>2026-04-19T09:35:35Z</time></trkpt><trkpt lat="43.17903119733495" lon="10.71375110167403"><ele>390.5</ele><time>2026-04-19T09:35:36Z</time></trkpt><trkpt lat="43.17890029628723" lon="10.71377508717653"><ele>386.0</ele><time>2026-04-19T09:35:37Z</time></trkpt><trkpt lat="43.17878235915341" lon="10.713814479297165"><ele>381.5</ele><time>2026-04-19T09:35:38Z</time></trkpt><trkpt lat="43.17868181492214" lon="10.71386039441096"><ele>377.0</ele><time>2026-04-19T09:35:39Z</time></trkpt><trkpt lat="43.17860053147028" lon="10.713915227686366"><ele>377.0</ele><time>2026-04-19T09:35:40Z</time></trkpt><trkpt lat="43.17851261746061" lon="10.713972679914527"><ele>377.0</ele><time>2026-04-19T09:35:41Z</time></trkpt><trkpt lat="43.17842587001815" lon="10.714037993919382"><ele>377.0</ele><time>2026-04-19T09:35:42Z</time></trkpt><trkpt lat="43.17834144138518" lon="10.714112114319335"><ele>377.0</ele><time>2026-04-19T09:35:43Z</time></trkpt><trkpt lat="43.17825558741306" lon="10.714198205210959"><ele>377.0</ele><time>2026-04-19T09:35:44Z</time></trkpt><trkpt lat="43.17816524733348" lon="10.714283440978763"><ele>374.8</ele><time>2026-04-19T09:35:45Z</time></trkpt><trkpt lat="43.17807564198825" lon="10.714347659196918"><ele>372.6</ele><time>2026-04-19T09:35:46Z</time></trkpt><trkpt lat="43.177995567415685" lon="10.714396886858355"><ele>370.40000000000003</ele><time>2026-04-19T09:35:47Z</time></trkpt><trkpt lat="43.177915384976956" lon="10.71440867607036"><ele>368.20000000000005</ele><time>2026-04-19T09:35:48Z</time></trkpt><trkpt lat="43.17783397126951" lon="10.714418137030865"><ele>366.0</ele><time>2026-04-19T09:35:49Z</time></trkpt><trkpt lat="43.177732640911664" lon="10.714428797196149"><ele>366.0</ele><time>2026-04-19T09:35:50Z</time></trkpt><trkpt lat="43.17765310497521" lon="10.714438966899316"><ele>366.0</ele><time>2026-04-19T09:35:51Z</time></trkpt><trkpt lat="43.17757434731551" lon="10.714454534659962"><ele>366.0</ele><time>2026-04-19T09:35:53Z</time></trkpt><trkpt lat="43.17750680337975" lon="10.714449925589348"><ele>366.0</ele><time>2026-04-19T09:35:57Z</time></trkpt><trkpt lat="43.177448707982485" lon="10.714493709951862"><ele>366.0</ele><time>2026-04-19T09:35:58Z</time></trkpt><trkpt lat="43.177385320452906" lon="10.714481586717023"><ele>366.0</ele><time>2026-04-19T09:35:59Z</time></trkpt><trkpt lat="43.17733741577317" lon="10.714645330996355"><ele>365.8333333333333</ele><time>2026-04-19T09:36:00Z</time></trkpt><trkpt lat="43.17728013739183" lon="10.714718311908523"><ele>365.6666666666667</ele><time>2026-04-19T09:36:01Z</time></trkpt><trkpt lat="43.17721763602621" lon="10.71479404050158"><ele>365.5</ele><time>2026-04-19T09:36:02Z</time></trkpt><trkpt lat="43.17715657195374" lon="10.714885642607074"><ele>365.33333333333337</ele><time>2026-04-19T09:36:03Z</time></trkpt><trkpt lat="43.17710004071553" lon="10.714978628432137"><ele>365.1666666666667</ele><time>2026-04-19T09:36:04Z</time></trkpt><trkpt lat="43.17705035141981" lon="10.715071227266192"><ele>365.0</ele><time>2026-04-19T09:36:05Z</time></trkpt><trkpt lat="43.17700700055176" lon="10.715146359306962"><ele>365.0</ele><time>2026-04-19T09:36:06Z</time></trkpt><trkpt lat="43.17697755014443" lon="10.715278804277586"><ele>365.0</ele><time>2026-04-19T09:36:08Z</time></trkpt><trkpt lat="43.177034341646674" lon="10.715343639036105"><ele>365.0</ele><time>2026-04-19T09:36:10Z</time></trkpt><trkpt lat="43.17715979838755" lon="10.715229016833117"><ele>365.0</ele><time>2026-04-19T09:36:11Z</time></trkpt><trkpt lat="43.17722453393112" lon="10.715159471136431"><ele>365.0</ele><time>2026-04-19T09:36:12Z</time></trkpt><trkpt lat="43.17729342023785" lon="10.715115238975676"><ele>365.2</ele><time>2026-04-19T09:36:13Z</time></trkpt><trkpt lat="43.17737282187005" lon="10.715097089618776"><ele>365.4</ele><time>2026-04-19T09:36:14Z</time></trkpt><trkpt lat="43.17746048793939" lon="10.715115354598018"><ele>365.6</ele><time>2026-04-19T09:36:15Z</time></trkpt><trkpt lat="43.17754561313652" lon="10.715149627668199"><ele>365.8</ele><time>2026-04-19T09:36:16Z</time></trkpt><trkpt lat="43.17764038425046" lon="10.71518746893568"><ele>366.0</ele><time>2026-04-19T09:36:17Z</time></trkpt><trkpt lat="43.177733374563914" lon="10.715232740405275"><ele>364.0</ele><time>2026-04-19T09:36:18Z</time></trkpt><trkpt lat="43.17782023055978" lon="10.715287762631194"><ele>362.0</ele><time>2026-04-19T09:36:19Z</time></trkpt><trkpt lat="43.17790161383475" lon="10.715369590693461"><ele>360.0</ele><time>2026-04-19T09:36:20Z</time></trkpt><trkpt lat="43.177942047291076" lon="10.7154959331128"><ele>358.0</ele><time>2026-04-19T09:36:21Z</time></trkpt><trkpt lat="43.17796087328544" lon="10.715634044899097"><ele>356.0</ele><time>2026-04-19T09:36:22Z</time></trkpt><trkpt lat="43.177965321561786" lon="10.715778859100613"><ele>356.0</ele><time>2026-04-19T09:36:23Z</time></trkpt><trkpt lat="43.177924639526516" lon="10.715919205613217"><ele>356.0</ele><time>2026-04-19T09:36:24Z</time></trkpt><trkpt lat="43.177871174441535" lon="10.716049581413039"><ele>356.0</ele><time>2026-04-19T09:36:25Z</time></trkpt><trkpt lat="43.17780788139966" lon="10.716177119172691"><ele>356.0</ele><time>2026-04-19T09:36:26Z</time></trkpt><trkpt lat="43.17774217552898" lon="10.716304585945286"><ele>356.0</ele><time>2026-04-19T09:36:27Z</time></trkpt><trkpt lat="43.177667396509186" lon="10.71643380980433"><ele>355.0</ele><time>2026-04-19T09:36:28Z</time></trkpt><trkpt lat="43.17760569473044" lon="10.71654711585694"><ele>354.0</ele><time>2026-04-19T09:36:29Z</time></trkpt><trkpt lat="43.177570838443145" lon="10.716663235737197"><ele>353.0</ele><time>2026-04-19T09:36:30Z</time></trkpt><trkpt lat="43.177582939085234" lon="10.716796754299097"><ele>352.0</ele><time>2026-04-19T09:36:31Z</time></trkpt><trkpt lat="43.17765108132468" lon="10.716930071697474"><ele>351.0</ele><time>2026-04-19T09:36:32Z</time></trkpt><trkpt lat="43.177761173562025" lon="10.717021458767206"><ele>351.5</ele><time>2026-04-19T09:36:33Z</time></trkpt><trkpt lat="43.17789049615339" lon="10.717048466611585"><ele>352.0</ele><time>2026-04-19T09:36:34Z</time></trkpt><trkpt lat="43.178007628827565" lon="10.717083911322108"><ele>352.5</ele><time>2026-04-19T09:36:35Z</time></trkpt><trkpt lat="43.17813379885397" lon="10.717147054809677"><ele>353.0</ele><time>2026-04-19T09:36:36Z</time></trkpt><trkpt lat="43.17819532946312" lon="10.717309396578734"><ele>353.0</ele><time>2026-04-19T09:36:37Z</time></trkpt><trkpt lat="43.178212993027884" lon="10.717493004709015"><ele>353.0</ele><time>2026-04-19T09:36:38Z</time></trkpt><trkpt lat="43.178258346513616" lon="10.717649932400237"><ele>353.0</ele><time>2026-04-19T09:36:39Z</time></trkpt><trkpt lat="43.178303300174704" lon="10.717787814765598"><ele>353.0</ele><time>2026-04-19T09:36:40Z</time></trkpt><trkpt lat="43.17840140570354" lon="10.717892470491057"><ele>348.75</ele><time>2026-04-19T09:36:41Z</time></trkpt><trkpt lat="43.17851808327475" lon="10.71795898600282"><ele>344.5</ele><time>2026-04-19T09:36:42Z</time></trkpt><trkpt lat="43.17865174203538" lon="10.71796121475051"><ele>340.25</ele><time>2026-04-19T09:36:43Z</time></trkpt><trkpt lat="43.178778692336394" lon="10.71793793383764"><ele>336.0</ele><time>2026-04-19T09:36:44Z</time></trkpt><trkpt lat="43.17889628025492" lon="10.717953895261493"><ele>336.0</ele><time>2026-04-19T09:36:45Z</time></trkpt><trkpt lat="43.1790013074134" lon="10.717997141979838"><ele>336.0</ele><time>2026-04-19T09:36:46Z</time></trkpt><trkpt lat="43.17909700344691" lon="10.718117257518195"><ele>336.0</ele><time>2026-04-19T09:36:47Z</time></trkpt><trkpt lat="43.17918839997326" lon="10.71824523114494"><ele>336.0</ele><time>2026-04-19T09:36:48Z</time></trkpt><trkpt lat="43.17924578130645" lon="10.718406482175482"><ele>339.0</ele><time>2026-04-19T09:36:49Z</time></trkpt><trkpt lat="43.17928824639439" lon="10.718585151871574"><ele>342.0</ele><time>2026-04-19T09:36:50Z</time></trkpt><trkpt lat="43.179281432849486" lon="10.718783861877137"><ele>345.0</ele><time>2026-04-19T09:36:51Z</time></trkpt><trkpt lat="43.17925728850178" lon="10.719013370858182"><ele>345.0</ele><time>2026-04-19T09:36:52Z</time></trkpt><trkpt lat="43.179223068753586" lon="10.719219456743325"><ele>345.0</ele><time>2026-04-19T09:36:53Z</time></trkpt><trkpt lat="43.17917703953485" lon="10.719403439132455"><ele>345.0</ele><time>2026-04-19T09:36:54Z</time></trkpt><trkpt lat="43.179110504743704" lon="10.719583717358171"><ele>345.0</ele><time>2026-04-19T09:36:55Z</time></trkpt><trkpt lat="43.17904864098408" lon="10.71974363366386"><ele>343.75</ele><time>2026-04-19T09:36:56Z</time></trkpt><trkpt lat="43.179024596062895" lon="10.719898808629488"><ele>342.5</ele><time>2026-04-19T09:36:57Z</time></trkpt><trkpt lat="43.17905302521521" lon="10.720046998360962"><ele>341.25</ele><time>2026-04-19T09:36:58Z</time></trkpt><trkpt lat="43.17913559988973" lon="10.720160636342918"><ele>340.0</ele><time>2026-04-19T09:36:59Z</time></trkpt><trkpt lat="43.17925777894859" lon="10.720231853035461"><ele>337.75</ele><time>2026-04-19T09:37:00Z</time></trkpt><trkpt lat="43.17937794815489" lon="10.720296566779403"><ele>335.5</ele><time>2026-04-19T09:37:01Z</time></trkpt><trkpt lat="43.17949346248599" lon="10.720381056807538"><ele>333.25</ele><time>2026-04-19T09:37:02Z</time></trkpt><trkpt lat="43.17960295761692" lon="10.720466968027377"><ele>331.0</ele><time>2026-04-19T09:37:03Z</time></trkpt><trkpt lat="43.17970965489517" lon="10.720557386166295"><ele>331.0</ele><time>2026-04-19T09:37:04Z</time></trkpt><trkpt lat="43.179788501721525" lon="10.72069347716066"><ele>331.0</ele><time>2026-04-19T09:37:05Z</time></trkpt><trkpt lat="43.17980867926044" lon="10.720867757361487"><ele>331.0</ele><time>2026-04-19T09:37:06Z</time></trkpt><trkpt lat="43.17983646171089" lon="10.72105708095521"><ele>331.0</ele><time>2026-04-19T09:37:07Z</time></trkpt><trkpt lat="43.17983336398928" lon="10.721256321706663"><ele>329.3333333333333</ele><time>2026-04-19T09:37:08Z</time></trkpt><trkpt lat="43.179835703270214" lon="10.721478105326945"><ele>327.6666666666667</ele><time>2026-04-19T09:37:09Z</time></trkpt><trkpt lat="43.17983859923674" lon="10.721702096316998"><ele>326.0</ele><time>2026-04-19T09:37:10Z</time></trkpt><trkpt lat="43.179852965909205" lon="10.721928731930307"><ele>331.6666666666667</ele><time>2026-04-19T09:37:11Z</time></trkpt><trkpt lat="43.17985209776255" lon="10.722157479490662"><ele>337.3333333333333</ele><time>2026-04-19T09:37:12Z</time></trkpt><trkpt lat="43.17985574911474" lon="10.722374703126649"><ele>343.0</ele><time>2026-04-19T09:37:13Z</time></trkpt><trkpt lat="43.17986843053167" lon="10.722586788794798"><ele>343.25</ele><time>2026-04-19T09:37:14Z</time></trkpt><trkpt lat="43.17985983901054" lon="10.72278091463844"><ele>343.5</ele><time>2026-04-19T09:37:15Z</time></trkpt><trkpt lat="43.179831814165304" lon="10.722959063661394"><ele>343.75</ele><time>2026-04-19T09:37:16Z</time></trkpt><trkpt lat="43.17976051079371" lon="10.723117736204337"><ele>344.0</ele><time>2026-04-19T09:37:17Z</time></trkpt><trkpt lat="43.17966121765043" lon="10.723285441495982"><ele>339.0</ele><time>2026-04-19T09:37:18Z</time></trkpt><trkpt lat="43.17954551085245" lon="10.723436874086532"><ele>334.0</ele><time>2026-04-19T09:37:19Z</time></trkpt><trkpt lat="43.1794314027032" lon="10.723606241745674"><ele>329.0</ele><time>2026-04-19T09:37:20Z</time></trkpt><trkpt lat="43.179306957231056" lon="10.723762511147052"><ele>329.0</ele><time>2026-04-19T09:37:21Z</time></trkpt><trkpt lat="43.179200528939475" lon="10.723911244837693"><ele>329.0</ele><time>2026-04-19T09:37:22Z</time></trkpt><trkpt lat="43.179111777771666" lon="10.72405856611127"><ele>329.0</ele><time>2026-04-19T09:37:23Z</time></trkpt><trkpt lat="43.17905412296874" lon="10.724219241598432"><ele>329.0</ele><time>2026-04-19T09:37:24Z</time></trkpt><trkpt lat="43.17902343203318" lon="10.72440918583667"><ele>328.5</ele><time>2026-04-19T09:37:25Z</time></trkpt><trkpt lat="43.17902503060838" lon="10.72462386209784"><ele>328.0</ele><time>2026-04-19T09:37:26Z</time></trkpt><trkpt lat="43.17905380982513" lon="10.724812289666373"><ele>327.5</ele><time>2026-04-19T09:37:27Z</time></trkpt><trkpt lat="43.17912017042475" lon="10.724977660216975"><ele>327.0</ele><time>2026-04-19T09:37:28Z</time></trkpt><trkpt lat="43.17923557178924" lon="10.725118950314476"><ele>327.0</ele><time>2026-04-19T09:37:29Z</time></trkpt><trkpt lat="43.179371009461946" lon="10.725228457505853"><ele>327.0</ele><time>2026-04-19T09:37:30Z</time></trkpt><trkpt lat="43.17952072691055" lon="10.7252924639434"><ele>327.0</ele><time>2026-04-19T09:37:31Z</time></trkpt><trkpt lat="43.1796868604597" lon="10.725313831039001"><ele>325.3333333333333</ele><time>2026-04-19T09:37:32Z</time></trkpt><trkpt lat="43.17984702322097" lon="10.725347815295649"><ele>323.66666666666663</ele><time>2026-04-19T09:37:33Z</time></trkpt><trkpt lat="43.18000224974971" lon="10.725399757016616"><ele>322.0</ele><time>2026-04-19T09:37:34Z</time></trkpt><trkpt lat="43.1801449529494" lon="10.725509741067698"><ele>322.0</ele><time>2026-04-19T09:37:35Z</time></trkpt><trkpt lat="43.18029042816387" lon="10.725621846350831"><ele>322.0</ele><time>2026-04-19T09:37:36Z</time></trkpt><trkpt lat="43.18040947532389" lon="10.725782831348607"><ele>322.0</ele><time>2026-04-19T09:37:37Z</time></trkpt><trkpt lat="43.18052679281228" lon="10.725953312209883"><ele>320.0</ele><time>2026-04-19T09:37:38Z</time></trkpt><trkpt lat="43.18063108791318" lon="10.726119872313843"><ele>318.0</ele><time>2026-04-19T09:37:39Z</time></trkpt><trkpt lat="43.18073060631639" lon="10.72626458863429"><ele>316.0</ele><time>2026-04-19T09:37:40Z</time></trkpt><trkpt lat="43.180830718083996" lon="10.726409379093251"><ele>316.0</ele><time>2026-04-19T09:37:41Z</time></trkpt><trkpt lat="43.18093521024193" lon="10.726538551569012"><ele>316.0</ele><time>2026-04-19T09:37:42Z</time></trkpt><trkpt lat="43.18103726059417" lon="10.726606770269264"><ele>316.0</ele><time>2026-04-19T09:37:43Z</time></trkpt><trkpt lat="43.18113502215171" lon="10.726584328197752"><ele>316.0</ele><time>2026-04-19T09:37:44.001Z</time></trkpt><trkpt lat="43.18121562098618" lon="10.726488011860669"><ele>316.0</ele><time>2026-04-19T09:37:45.001Z</time></trkpt><trkpt lat="43.181256843036195" lon="10.726332683700695"><ele>316.0</ele><time>2026-04-19T09:37:46.001Z</time></trkpt><trkpt lat="43.181258678776686" lon="10.72615265911148"><ele>316.0</ele><time>2026-04-19T09:37:47.001Z</time></trkpt><trkpt lat="43.18126823955768" lon="10.725979467831927"><ele>316.0</ele><time>2026-04-19T09:37:48.001Z</time></trkpt><trkpt lat="43.18130892752033" lon="10.725860503055218"><ele>315.40000000000003</ele><time>2026-04-19T09:37:49.001Z</time></trkpt><trkpt lat="43.181411070204376" lon="10.725842291639077"><ele>314.8</ele><time>2026-04-19T09:37:50.001Z</time></trkpt><trkpt lat="43.18150587406026" lon="10.725858481301158"><ele>314.20000000000005</ele><time>2026-04-19T09:37:51.001Z</time></trkpt><trkpt lat="43.18158785074455" lon="10.72596726952963"><ele>313.6</ele><time>2026-04-19T09:37:52.001Z</time></trkpt><trkpt lat="43.18167275456276" lon="10.726047540182737"><ele>313.0</ele><time>2026-04-19T09:37:53.001Z</time></trkpt><trkpt lat="43.18175440662497" lon="10.726165265452849"><ele>313.0</ele><time>2026-04-19T09:37:54.001Z</time></trkpt><trkpt lat="43.181864651043675" lon="10.726262326573307"><ele>313.0</ele><time>2026-04-19T09:37:55.001Z</time></trkpt><trkpt lat="43.18198421484082" lon="10.726306192280274"><ele>313.0</ele><time>2026-04-19T09:37:56.001Z</time></trkpt><trkpt lat="43.18211386871985" lon="10.726281617602252"><ele>313.0</ele><time>2026-04-19T09:37:57.001Z</time></trkpt><trkpt lat="43.1822451095253" lon="10.726255770256062"><ele>312.75</ele><time>2026-04-19T09:37:58.001Z</time></trkpt><trkpt lat="43.182375917726205" lon="10.726255414735636"><ele>312.5</ele><time>2026-04-19T09:37:59.001Z</time></trkpt><trkpt lat="43.18249666621783" lon="10.726249442897359"><ele>312.25</ele><time>2026-04-19T09:38:00.001Z</time></trkpt><trkpt lat="43.18259577343539" lon="10.726188339330987"><ele>312.0</ele><time>2026-04-19T09:38:01.001Z</time></trkpt><trkpt lat="43.18268041493621" lon="10.72611565373979"><ele>312.0</ele><time>2026-04-19T09:38:02.001Z</time></trkpt><trkpt lat="43.182772976029966" lon="10.726071001009235"><ele>312.0</ele><time>2026-04-19T09:38:03.001Z</time></trkpt><trkpt lat="43.18287533050428" lon="10.726101907113284"><ele>312.0</ele><time>2026-04-19T09:38:04.001Z</time></trkpt><trkpt lat="43.18295728396605" lon="10.726221485792937"><ele>312.0</ele><time>2026-04-19T09:38:05.001Z</time></trkpt><trkpt lat="43.18303200725688" lon="10.726383075622847"><ele>312.0</ele><time>2026-04-19T09:38:06.001Z</time></trkpt><trkpt lat="43.183095031267065" lon="10.726574312724894"><ele>312.0</ele><time>2026-04-19T09:38:07.001Z</time></trkpt><trkpt lat="43.183158112812386" lon="10.726775941624789"><ele>312.0</ele><time>2026-04-19T09:38:08.001Z</time></trkpt><trkpt lat="43.183224383627675" lon="10.726993737204419"><ele>311.3333333333333</ele><time>2026-04-19T09:38:09.001Z</time></trkpt><trkpt lat="43.18331214876332" lon="10.727195135661296"><ele>310.66666666666663</ele><time>2026-04-19T09:38:10.001Z</time></trkpt><trkpt lat="43.183422597371184" lon="10.727376934255949"><ele>310.0</ele><time>2026-04-19T09:38:11.001Z</time></trkpt><trkpt lat="43.183530012451726" lon="10.727541883552435"><ele>310.0</ele><time>2026-04-19T09:38:12.001Z</time></trkpt><trkpt lat="43.183627894353606" lon="10.727683827027512"><ele>310.0</ele><time>2026-04-19T09:38:13.001Z</time></trkpt><trkpt lat="43.18375968901527" lon="10.727794286263771"><ele>310.0</ele><time>2026-04-19T09:38:14.001Z</time></trkpt><trkpt lat="43.18390725842043" lon="10.727876640822187"><ele>307.75</ele><time>2026-04-19T09:38:15.001Z</time></trkpt><trkpt lat="43.18403685203884" lon="10.727922988516212"><ele>305.5</ele><time>2026-04-19T09:38:16.001Z</time></trkpt><trkpt lat="43.184140189259125" lon="10.727936032396011"><ele>303.25</ele><time>2026-04-19T09:38:17.001Z</time></trkpt><trkpt lat="43.18424293809865" lon="10.7278642633744"><ele>301.0</ele><time>2026-04-19T09:38:18.001Z</time></trkpt><trkpt lat="43.18434319664048" lon="10.72772128604869"><ele>305.75</ele><time>2026-04-19T09:38:19.001Z</time></trkpt><trkpt lat="43.184440166687416" lon="10.727553402219108"><ele>310.5</ele><time>2026-04-19T09:38:20.001Z</time></trkpt><trkpt lat="43.18456458567539" lon="10.727432253811875"><ele>315.25</ele><time>2026-04-19T09:38:21.001Z</time></trkpt><trkpt lat="43.184683615869574" lon="10.727362349762593"><ele>320.0</ele><time>2026-04-19T09:38:22.001Z</time></trkpt><trkpt lat="43.18479946141976" lon="10.727342154411671"><ele>317.33333333333337</ele><time>2026-04-19T09:38:23.001Z</time></trkpt><trkpt lat="43.184926379273044" lon="10.727461817580501"><ele>314.6666666666667</ele><time>2026-04-19T09:38:24.001Z</time></trkpt><trkpt lat="43.185084698245106" lon="10.727559019715052"><ele>312.0</ele><time>2026-04-19T09:38:25.001Z</time></trkpt><trkpt lat="43.185242550702824" lon="10.727650217348513"><ele>312.0</ele><time>2026-04-19T09:38:26.001Z</time></trkpt><trkpt lat="43.18538109970383" lon="10.727695991640688"><ele>312.0</ele><time>2026-04-19T09:38:27.001Z</time></trkpt><trkpt lat="43.18549933375193" lon="10.727698259233003"><ele>312.0</ele><time>2026-04-19T09:38:28.001Z</time></trkpt><trkpt lat="43.18560121863685" lon="10.727627166336063"><ele>312.0</ele><time>2026-04-19T09:38:29Z</time></trkpt><trkpt lat="43.18570419913582" lon="10.727480616790936"><ele>308.0</ele><time>2026-04-19T09:38:30Z</time></trkpt><trkpt lat="43.185819489648104" lon="10.72731686132484"><ele>304.0</ele><time>2026-04-19T09:38:31Z</time></trkpt><trkpt lat="43.185938037020165" lon="10.727161185907633"><ele>300.0</ele><time>2026-04-19T09:38:32Z</time></trkpt><trkpt lat="43.18604245682329" lon="10.72701331159579"><ele>303.6</ele><time>2026-04-19T09:38:33Z</time></trkpt><trkpt lat="43.18611053981368" lon="10.726870239927331"><ele>307.2</ele><time>2026-04-19T09:38:34Z</time></trkpt><trkpt lat="43.18615353170692" lon="10.726745679047854"><ele>310.8</ele><time>2026-04-19T09:38:35Z</time></trkpt><trkpt lat="43.186162814963204" lon="10.72662090607375"><ele>314.4</ele><time>2026-04-19T09:38:36Z</time></trkpt><trkpt lat="43.18616102546237" lon="10.726496610243187"><ele>318.0</ele><time>2026-04-19T09:38:37Z</time></trkpt><trkpt lat="43.18615254005732" lon="10.726373587776314"><ele>318.0</ele><time>2026-04-19T09:38:38Z</time></trkpt><trkpt lat="43.18615669161193" lon="10.72626726752287"><ele>318.0</ele><time>2026-04-19T09:38:39Z</time></trkpt><trkpt lat="43.18618470022002" lon="10.726157921757528"><ele>318.0</ele><time>2026-04-19T09:38:40Z</time></trkpt><trkpt lat="43.18622127056389" lon="10.72607241807591"><ele>318.0</ele><time>2026-04-19T09:38:41Z</time></trkpt><trkpt lat="43.18628151435512" lon="10.726013175116378"><ele>318.0</ele><time>2026-04-19T09:38:42Z</time></trkpt><trkpt lat="43.1863399383923" lon="10.72597564033953"><ele>318.0</ele><time>2026-04-19T09:38:43Z</time></trkpt><trkpt lat="43.18643540630041" lon="10.72591663562747"><ele>314.6</ele><time>2026-04-19T09:38:45Z</time></trkpt><trkpt lat="43.186516543547505" lon="10.725850529517299"><ele>311.20000000000005</ele><time>2026-04-19T09:38:47Z</time></trkpt><trkpt lat="43.18659556081688" lon="10.72579317982359"><ele>307.8</ele><time>2026-04-19T09:38:49Z</time></trkpt><trkpt lat="43.18668772226068" lon="10.725740342145434"><ele>304.40000000000003</ele><time>2026-04-19T09:38:51Z</time></trkpt><trkpt lat="43.18677974569454" lon="10.725689426016201"><ele>301.0</ele><time>2026-04-19T09:38:53Z</time></trkpt><trkpt lat="43.18687030949332" lon="10.72564701184912"><ele>301.0</ele><time>2026-04-19T09:38:55Z</time></trkpt><trkpt lat="43.18694900367755" lon="10.72562152222061"><ele>301.0</ele><time>2026-04-19T09:38:57Z</time></trkpt><trkpt lat="43.18701586769953" lon="10.725593583932428"><ele>301.0</ele><time>2026-04-19T09:38:59Z</time></trkpt><trkpt lat="43.187090539780776" lon="10.725560410827681"><ele>301.0</ele><time>2026-04-19T09:39:01Z</time></trkpt><trkpt lat="43.18717462900933" lon="10.725541648561764"><ele>301.0</ele><time>2026-04-19T09:39:03Z</time></trkpt><trkpt lat="43.18723910388375" lon="10.7255590385107"><ele>301.0</ele><time>2026-04-19T09:39:06Z</time></trkpt><trkpt lat="43.18730998938755" lon="10.725534702817576"><ele>299.6</ele><time>2026-04-19T09:41:25.001Z</time></trkpt><trkpt lat="43.18737635980859" lon="10.725468844276195"><ele>298.20000000000005</ele><time>2026-04-19T09:41:29.001Z</time></trkpt><trkpt lat="43.18744140317234" lon="10.725445005264685"><ele>296.79999999999995</ele><time>2026-04-19T09:41:30.001Z</time></trkpt><trkpt lat="43.187531842084006" lon="10.725419567289016"><ele>295.4</ele><time>2026-04-19T09:41:31.001Z</time></trkpt><trkpt lat="43.18764724134984" lon="10.725390384939818"><ele>294.0</ele><time>2026-04-19T09:41:32.001Z</time></trkpt><trkpt lat="43.18775936406414" lon="10.725388608710448"><ele>294.0</ele><time>2026-04-19T09:41:33Z</time></trkpt><trkpt lat="43.187859660938344" lon="10.725377719940516"><ele>294.0</ele><time>2026-04-19T09:41:34Z</time></trkpt><trkpt lat="43.18793745313527" lon="10.725413290102427"><ele>294.0</ele><time>2026-04-19T09:41:35Z</time></trkpt><trkpt lat="43.1880226965401" lon="10.725434102014386"><ele>294.0</ele><time>2026-04-19T09:41:36Z</time></trkpt><trkpt lat="43.18810543729632" lon="10.725482420028806"><ele>294.0</ele><time>2026-04-19T09:41:37Z</time></trkpt><trkpt lat="43.18817858791026" lon="10.725560191134585"><ele>293.5</ele><time>2026-04-19T09:41:38Z</time></trkpt><trkpt lat="43.18823200421648" lon="10.725676946805008"><ele>293.0</ele><time>2026-04-19T09:41:39Z</time></trkpt><trkpt lat="43.188283265869096" lon="10.725815577964307"><ele>292.5</ele><time>2026-04-19T09:41:40Z</time></trkpt><trkpt lat="43.18832619989897" lon="10.72598642496627"><ele>292.0</ele><time>2026-04-19T09:41:41Z</time></trkpt><trkpt lat="43.18835558632412" lon="10.726155682872665"><ele>292.0</ele><time>2026-04-19T09:41:42Z</time></trkpt><trkpt lat="43.18835937789117" lon="10.726340530335586"><ele>292.0</ele><time>2026-04-19T09:41:43Z</time></trkpt><trkpt lat="43.188352733476414" lon="10.726539814288195"><ele>292.0</ele><time>2026-04-19T09:41:44Z</time></trkpt><trkpt lat="43.18835218289993" lon="10.726759000191706"><ele>292.0</ele><time>2026-04-19T09:41:45Z</time></trkpt><trkpt lat="43.18835215732531" lon="10.726954836137834"><ele>289.8</ele><time>2026-04-19T09:41:46Z</time></trkpt><trkpt lat="43.18837644410289" lon="10.727119563360683"><ele>287.6</ele><time>2026-04-19T09:41:47Z</time></trkpt><trkpt lat="43.18842194934285" lon="10.727250262066741"><ele>285.40000000000003</ele><time>2026-04-19T09:41:48Z</time></trkpt><trkpt lat="43.188500966601595" lon="10.72731352932008"><ele>283.2</ele><time>2026-04-19T09:41:49Z</time></trkpt><trkpt lat="43.18860268580939" lon="10.727331666723913"><ele>281.0</ele><time>2026-04-19T09:41:50Z</time></trkpt><trkpt lat="43.18871981478857" lon="10.72728445172953"><ele>281.0</ele><time>2026-04-19T09:41:51Z</time></trkpt><trkpt lat="43.18884213218385" lon="10.727199591210958"><ele>281.0</ele><time>2026-04-19T09:41:52Z</time></trkpt><trkpt lat="43.188963630603396" lon="10.72716295942495"><ele>281.0</ele><time>2026-04-19T09:41:53Z</time></trkpt><trkpt lat="43.18907577363648" lon="10.727166237274472"><ele>281.0</ele><time>2026-04-19T09:41:54Z</time></trkpt><trkpt lat="43.18920091255095" lon="10.727190352427048"><ele>282.25</ele><time>2026-04-19T09:41:55Z</time></trkpt><trkpt lat="43.18928257410093" lon="10.727332852246596"><ele>283.5</ele><time>2026-04-19T09:41:56Z</time></trkpt><trkpt lat="43.18933786893103" lon="10.727489372590627"><ele>284.75</ele><time>2026-04-19T09:41:57Z</time></trkpt><trkpt lat="43.18938630218241" lon="10.727681670731034"><ele>286.0</ele><time>2026-04-19T09:41:58Z</time></trkpt><trkpt lat="43.18934767890554" lon="10.727878002015393"><ele>286.0</ele><time>2026-04-19T09:41:59Z</time></trkpt><trkpt lat="43.189314734699074" lon="10.728080559950921"><ele>286.0</ele><time>2026-04-19T09:42:00Z</time></trkpt><trkpt lat="43.189287961895644" lon="10.72824774880941"><ele>286.0</ele><time>2026-04-19T09:42:01Z</time></trkpt><trkpt lat="43.189294885326625" lon="10.728477437846454"><ele>286.0</ele><time>2026-04-19T09:42:02Z</time></trkpt><trkpt lat="43.189320182513384" lon="10.728644165977212"><ele>285.75</ele><time>2026-04-19T09:42:03Z</time></trkpt><trkpt lat="43.18939461650223" lon="10.728760638134087"><ele>285.5</ele><time>2026-04-19T09:42:04Z</time></trkpt><trkpt lat="43.189513949089935" lon="10.728835777600494"><ele>285.25</ele><time>2026-04-19T09:42:05Z</time></trkpt><trkpt lat="43.18966765308079" lon="10.728864698174178"><ele>285.0</ele><time>2026-04-19T09:42:06Z</time></trkpt><trkpt lat="43.18984239978027" lon="10.728854986367432"><ele>282.3333333333333</ele><time>2026-04-19T09:42:07Z</time></trkpt><trkpt lat="43.19002011509886" lon="10.72879082884737"><ele>279.66666666666663</ele><time>2026-04-19T09:42:08Z</time></trkpt><trkpt lat="43.19022125660491" lon="10.728687401286532"><ele>277.0</ele><time>2026-04-19T09:42:09Z</time></trkpt><trkpt lat="43.190422312622495" lon="10.728589350604146"><ele>277.66666666666663</ele><time>2026-04-19T09:42:10Z</time></trkpt><trkpt lat="43.190625942532726" lon="10.728497398656343"><ele>278.3333333333333</ele><time>2026-04-19T09:42:11Z</time></trkpt><trkpt lat="43.19084126716889" lon="10.728399484150895"><ele>279.0</ele><time>2026-04-19T09:42:12Z</time></trkpt><trkpt lat="43.191042713478474" lon="10.728324666480818"><ele>279.0</ele><time>2026-04-19T09:42:13Z</time></trkpt><trkpt lat="43.19121613792676" lon="10.728263656858001"><ele>279.0</ele><time>2026-04-19T09:42:14Z</time></trkpt><trkpt lat="43.1913596939054" lon="10.72822034691608"><ele>279.0</ele><time>2026-04-19T09:42:15Z</time></trkpt><trkpt lat="43.1914962620339" lon="10.728245889165333"><ele>277.6666666666667</ele><time>2026-04-19T09:42:16Z</time></trkpt><trkpt lat="43.19161849676165" lon="10.728335869194908"><ele>276.33333333333337</ele><time>2026-04-19T09:42:17Z</time></trkpt><trkpt lat="43.19173605499416" lon="10.728462254217035"><ele>275.0</ele><time>2026-04-19T09:42:18Z</time></trkpt><trkpt lat="43.19186346212332" lon="10.72860304757089"><ele>271.0</ele><time>2026-04-19T09:42:19Z</time></trkpt><trkpt lat="43.19198532291545" lon="10.728763252132135"><ele>267.0</ele><time>2026-04-19T09:42:20Z</time></trkpt><trkpt lat="43.19210040648574" lon="10.728944276658263"><ele>263.0</ele><time>2026-04-19T09:42:21Z</time></trkpt><trkpt lat="43.19220400809515" lon="10.729137766263058"><ele>263.0</ele><time>2026-04-19T09:42:22Z</time></trkpt><trkpt lat="43.192287391855054" lon="10.729360332048184"><ele>263.0</ele><time>2026-04-19T09:42:23Z</time></trkpt><trkpt lat="43.19240752702945" lon="10.729851686683917"><ele>264.0</ele><time>2026-04-19T09:42:25Z</time></trkpt><trkpt lat="43.192445808474204" lon="10.73012785667928"><ele>265.0</ele><time>2026-04-19T09:42:26Z</time></trkpt><trkpt lat="43.19249007396804" lon="10.73040338099167"><ele>266.0</ele><time>2026-04-19T09:42:27Z</time></trkpt><trkpt lat="43.192542173459074" lon="10.730686395183598"><ele>266.0</ele><time>2026-04-19T09:42:28Z</time></trkpt><trkpt lat="43.192608022182505" lon="10.730975160487056"><ele>266.0</ele><time>2026-04-19T09:42:29Z</time></trkpt><trkpt lat="43.19269207075216" lon="10.731272616733024"><ele>261.5</ele><time>2026-04-19T09:42:30Z</time></trkpt><trkpt lat="43.19279542097771" lon="10.731573347648387"><ele>257.0</ele><time>2026-04-19T09:42:31Z</time></trkpt><trkpt lat="43.19290208330349" lon="10.731845214729988"><ele>256.0</ele><time>2026-04-19T09:42:32Z</time></trkpt><trkpt lat="43.19300114447147" lon="10.732103266050155"><ele>255.0</ele><time>2026-04-19T09:42:33Z</time></trkpt><trkpt lat="43.19310325566397" lon="10.7323405141091"><ele>254.0</ele><time>2026-04-19T09:42:34Z</time></trkpt><trkpt lat="43.193226104991616" lon="10.732566425576746"><ele>255.0</ele><time>2026-04-19T09:42:35Z</time></trkpt><trkpt lat="43.193375755783606" lon="10.732786096968999"><ele>256.0</ele><time>2026-04-19T09:42:36Z</time></trkpt><trkpt lat="43.19353959499398" lon="10.732995946238114"><ele>257.0</ele><time>2026-04-19T09:42:37Z</time></trkpt><trkpt lat="43.19370607109168" lon="10.733213380483756"><ele>257.0</ele><time>2026-04-19T09:42:38Z</time></trkpt><trkpt lat="43.19386737341102" lon="10.733426735684613"><ele>257.0</ele><time>2026-04-19T09:42:39Z</time></trkpt><trkpt lat="43.19402964742441" lon="10.733630963493146"><ele>257.0</ele><time>2026-04-19T09:42:40Z</time></trkpt><trkpt lat="43.194209499445286" lon="10.73381962203692"><ele>260.0</ele><time>2026-04-19T09:42:41Z</time></trkpt><trkpt lat="43.19440858806326" lon="10.733983686272701"><ele>263.0</ele><time>2026-04-19T09:42:42Z</time></trkpt><trkpt lat="43.19460403456967" lon="10.734129004266226"><ele>263.0</ele><time>2026-04-19T09:42:43Z</time></trkpt><trkpt lat="43.19476561853954" lon="10.734261351611575"><ele>263.0</ele><time>2026-04-19T09:42:44Z</time></trkpt><trkpt lat="43.19488983658014" lon="10.734386305192517"><ele>263.0</ele><time>2026-04-19T09:42:45Z</time></trkpt><trkpt lat="43.19496277317626" lon="10.734508064614605"><ele>262.75</ele><time>2026-04-19T09:42:46Z</time></trkpt><trkpt lat="43.19498392483946" lon="10.734653863779453"><ele>262.5</ele><time>2026-04-19T09:42:47Z</time></trkpt><trkpt lat="43.194950609743714" lon="10.734819357171466"><ele>262.25</ele><time>2026-04-19T09:42:48Z</time></trkpt><trkpt lat="43.194868075452995" lon="10.734991680098767"><ele>262.0</ele><time>2026-04-19T09:42:49Z</time></trkpt><trkpt lat="43.1948232964707" lon="10.735212314011598"><ele>264.0</ele><time>2026-04-19T09:42:50Z</time></trkpt><trkpt lat="43.194851169588276" lon="10.735445228641522"><ele>266.0</ele><time>2026-04-19T09:42:51Z</time></trkpt><trkpt lat="43.19492576788443" lon="10.735675836470353"><ele>268.0</ele><time>2026-04-19T09:42:52Z</time></trkpt><trkpt lat="43.195016602999594" lon="10.735898641987516"><ele>270.0</ele><time>2026-04-19T09:42:53Z</time></trkpt><trkpt lat="43.1951145534635" lon="10.736100095675893"><ele>272.0</ele><time>2026-04-19T09:42:54Z</time></trkpt><trkpt lat="43.19520386734782" lon="10.736273694982424"><ele>274.0</ele><time>2026-04-19T09:42:55Z</time></trkpt><trkpt lat="43.19527763718" lon="10.736435909326516"><ele>274.0</ele><time>2026-04-19T09:42:56Z</time></trkpt><trkpt lat="43.195388933039744" lon="10.736563873693017"><ele>274.0</ele><time>2026-04-19T09:42:57Z</time></trkpt><trkpt lat="43.19554016149572" lon="10.736638676320082"><ele>274.0</ele><time>2026-04-19T09:42:58Z</time></trkpt><trkpt lat="43.19570367021284" lon="10.736688935703516"><ele>272.3333333333333</ele><time>2026-04-19T09:42:59Z</time></trkpt><trkpt lat="43.195864471413195" lon="10.736728526945583"><ele>270.6666666666667</ele><time>2026-04-19T09:43:00Z</time></trkpt><trkpt lat="43.19602626409701" lon="10.736791432735517"><ele>269.0</ele><time>2026-04-19T09:43:01Z</time></trkpt><trkpt lat="43.19618671588412" lon="10.736851641737763"><ele>270.5</ele><time>2026-04-19T09:43:02Z</time></trkpt><trkpt lat="43.19633844645315" lon="10.736917296811304"><ele>272.0</ele><time>2026-04-19T09:43:03Z</time></trkpt><trkpt lat="43.1964701507877" lon="10.736968996995481"><ele>273.5</ele><time>2026-04-19T09:43:04Z</time></trkpt><trkpt lat="43.19659120614899" lon="10.737014558454433"><ele>275.0</ele><time>2026-04-19T09:43:05Z</time></trkpt><trkpt lat="43.196681177045065" lon="10.737097107683086"><ele>275.0</ele><time>2026-04-19T09:43:06Z</time></trkpt><trkpt lat="43.19669951866813" lon="10.737246803825789"><ele>275.0</ele><time>2026-04-19T09:43:07Z</time></trkpt><trkpt lat="43.19671866782291" lon="10.737401800195768"><ele>275.0</ele><time>2026-04-19T09:43:08Z</time></trkpt><trkpt lat="43.19672396476213" lon="10.737560776719086"><ele>275.0</ele><time>2026-04-19T09:43:09Z</time></trkpt><trkpt lat="43.19675527854409" lon="10.737707351745165"><ele>276.0</ele><time>2026-04-19T09:43:10Z</time></trkpt><trkpt lat="43.19683485611201" lon="10.737828398201813"><ele>277.0</ele><time>2026-04-19T09:43:11Z</time></trkpt><trkpt lat="43.19695625304335" lon="10.737908422799945"><ele>278.0</ele><time>2026-04-19T09:43:12Z</time></trkpt><trkpt lat="43.19709626879224" lon="10.737934083429284"><ele>279.0</ele><time>2026-04-19T09:43:13Z</time></trkpt><trkpt lat="43.197245757672114" lon="10.737935483953239"><ele>279.0</ele><time>2026-04-19T09:43:14Z</time></trkpt><trkpt lat="43.19739673214816" lon="10.737936813016297"><ele>279.0</ele><time>2026-04-19T09:43:15Z</time></trkpt><trkpt lat="43.19755160494699" lon="10.737945747536685"><ele>279.0</ele><time>2026-04-19T09:43:16Z</time></trkpt><trkpt lat="43.197713067405104" lon="10.737944023336308"><ele>279.0</ele><time>2026-04-19T09:43:17Z</time></trkpt><trkpt lat="43.19786515612931" lon="10.73792501636142"><ele>279.0</ele><time>2026-04-19T09:43:18Z</time></trkpt><trkpt lat="43.19800912305404" lon="10.737890273381794"><ele>279.0</ele><time>2026-04-19T09:43:19Z</time></trkpt><trkpt lat="43.19814063672736" lon="10.737853253427561"><ele>279.0</ele><time>2026-04-19T09:43:20Z</time></trkpt><trkpt lat="43.19825374333526" lon="10.737866164080845"><ele>280.3333333333333</ele><time>2026-04-19T09:43:21Z</time></trkpt><trkpt lat="43.19835634444182" lon="10.73786429113276"><ele>281.66666666666663</ele><time>2026-04-19T09:43:22Z</time></trkpt><trkpt lat="43.19845482392578" lon="10.737735338758116"><ele>283.0</ele><time>2026-04-19T09:43:23Z</time></trkpt><trkpt lat="43.198674320620874" lon="10.737638360506072"><ele>282.75</ele><time>2026-04-19T09:43:25Z</time></trkpt><trkpt lat="43.198785534343294" lon="10.737594221836801"><ele>282.5</ele><time>2026-04-19T09:43:26Z</time></trkpt><trkpt lat="43.19889838779172" lon="10.737547697430085"><ele>282.25</ele><time>2026-04-19T09:43:27Z</time></trkpt><trkpt lat="43.19901223387053" lon="10.737493585672718"><ele>282.0</ele><time>2026-04-19T09:43:28Z</time></trkpt><trkpt lat="43.19913069286166" lon="10.737434049959687"><ele>282.0</ele><time>2026-04-19T09:43:29Z</time></trkpt><trkpt lat="43.199251099862686" lon="10.73737353141493"><ele>282.0</ele><time>2026-04-19T09:43:30Z</time></trkpt><trkpt lat="43.199365089403635" lon="10.737315343429474"><ele>282.0</ele><time>2026-04-19T09:43:31Z</time></trkpt><trkpt lat="43.19946926798882" lon="10.737265982637153"><ele>282.0</ele><time>2026-04-19T09:43:32Z</time></trkpt><trkpt lat="43.19955613017682" lon="10.737225274546736"><ele>282.0</ele><time>2026-04-19T09:43:33Z</time></trkpt><trkpt lat="43.19964469507312" lon="10.737186875908023"><ele>282.0</ele><time>2026-04-19T09:43:34Z</time></trkpt><trkpt lat="43.199736858024565" lon="10.7371711008774"><ele>282.0</ele><time>2026-04-19T09:43:35Z</time></trkpt><trkpt lat="43.19984074625192" lon="10.737183916023515"><ele>282.0</ele><time>2026-04-19T09:43:36Z</time></trkpt><trkpt lat="43.19995054908884" lon="10.73723391950102"><ele>282.0</ele><time>2026-04-19T09:43:37Z</time></trkpt><trkpt lat="43.200044478085495" lon="10.737316031766744"><ele>282.1666666666667</ele><time>2026-04-19T09:43:38Z</time></trkpt><trkpt lat="43.200127869844174" lon="10.737415821315452"><ele>282.3333333333333</ele><time>2026-04-19T09:43:39Z</time></trkpt><trkpt lat="43.20019383828186" lon="10.737508481522777"><ele>282.5</ele><time>2026-04-19T09:43:40Z</time></trkpt><trkpt lat="43.20023813758566" lon="10.737572357523108"><ele>282.66666666666663</ele><time>2026-04-19T09:43:41Z</time></trkpt><trkpt lat="43.200328871326874" lon="10.737632927190322"><ele>282.8333333333333</ele><time>2026-04-19T09:43:43Z</time></trkpt><trkpt lat="43.20039948900787" lon="10.737675949974804"><ele>283.0</ele><time>2026-04-19T09:43:44Z</time></trkpt><trkpt lat="43.20049280604776" lon="10.737702464983546"><ele>283.0</ele><time>2026-04-19T09:43:45Z</time></trkpt><trkpt lat="43.20059704624175" lon="10.73769706371782"><ele>283.0</ele><time>2026-04-19T09:43:46Z</time></trkpt><trkpt lat="43.20070411202808" lon="10.737683913215358"><ele>283.0</ele><time>2026-04-19T09:43:47Z</time></trkpt><trkpt lat="43.20080349949651" lon="10.737671118356907"><ele>283.0</ele><time>2026-04-19T09:43:48Z</time></trkpt><trkpt lat="43.20088753033458" lon="10.737684336767659"><ele>283.0</ele><time>2026-04-19T09:43:49Z</time></trkpt><trkpt lat="43.200949780857144" lon="10.737742122272625"><ele>283.8</ele><time>2026-04-19T09:43:50Z</time></trkpt><trkpt lat="43.20098663389753" lon="10.737855339610105"><ele>284.6</ele><time>2026-04-19T09:43:51Z</time></trkpt><trkpt lat="43.20103140158039" lon="10.737966134820924"><ele>285.4</ele><time>2026-04-19T09:43:52Z</time></trkpt><trkpt lat="43.201106769402585" lon="10.738074697291395"><ele>286.2</ele><time>2026-04-19T09:43:53Z</time></trkpt><trkpt lat="43.20119495793525" lon="10.738135449700659"><ele>287.0</ele><time>2026-04-19T09:43:54Z</time></trkpt><trkpt lat="43.201307285871955" lon="10.738147595224692"><ele>287.0</ele><time>2026-04-19T09:43:55Z</time></trkpt><trkpt lat="43.201415372553214" lon="10.738075312161275"><ele>287.0</ele><time>2026-04-19T09:43:56Z</time></trkpt><trkpt lat="43.20150935666459" lon="10.737934899906262"><ele>287.0</ele><time>2026-04-19T09:43:57Z</time></trkpt><trkpt lat="43.201563411204425" lon="10.737727237704496"><ele>287.0</ele><time>2026-04-19T09:43:58Z</time></trkpt><trkpt lat="43.20159965561433" lon="10.737464782491545"><ele>281.5</ele><time>2026-04-19T09:43:59Z</time></trkpt><trkpt lat="43.2016363163166" lon="10.737152610760718"><ele>276.0</ele><time>2026-04-19T09:44:00Z</time></trkpt><trkpt lat="43.20167707215943" lon="10.736823858007394"><ele>275.0</ele><time>2026-04-19T09:44:01Z</time></trkpt><trkpt lat="43.201715491397" lon="10.736511617636234"><ele>274.0</ele><time>2026-04-19T09:44:02Z</time></trkpt><trkpt lat="43.201746631845594" lon="10.736246283679373"><ele>273.0</ele><time>2026-04-19T09:44:03Z</time></trkpt><trkpt lat="43.201793478009165" lon="10.736009871714009"><ele>271.3333333333333</ele><time>2026-04-19T09:44:04Z</time></trkpt><trkpt lat="43.20184025552338" lon="10.735814477245693"><ele>269.66666666666663</ele><time>2026-04-19T09:44:05Z</time></trkpt><trkpt lat="43.20193499262658" lon="10.735654491147328"><ele>268.0</ele><time>2026-04-19T09:44:06Z</time></trkpt><trkpt lat="43.20206093176992" lon="10.735495122980442"><ele>268.0</ele><time>2026-04-19T09:44:07Z</time></trkpt><trkpt lat="43.20219475890576" lon="10.735307983478208"><ele>268.0</ele><time>2026-04-19T09:44:08Z</time></trkpt><trkpt lat="43.20233377438196" lon="10.73514794168615"><ele>268.0</ele><time>2026-04-19T09:44:09Z</time></trkpt><trkpt lat="43.20245954614301" lon="10.735024907305352"><ele>263.0</ele><time>2026-04-19T09:44:10Z</time></trkpt><trkpt lat="43.20259978824593" lon="10.734982563749151"><ele>258.0</ele><time>2026-04-19T09:44:11Z</time></trkpt><trkpt lat="43.20275224876301" lon="10.734924892992971"><ele>253.0</ele><time>2026-04-19T09:44:12Z</time></trkpt><trkpt lat="43.20291928778267" lon="10.734901433728535"><ele>253.0</ele><time>2026-04-19T09:44:13Z</time></trkpt><trkpt lat="43.20310422129609" lon="10.734863897664852"><ele>253.0</ele><time>2026-04-19T09:44:14Z</time></trkpt><trkpt lat="43.203287963659704" lon="10.734818398720945"><ele>253.0</ele><time>2026-04-19T09:44:15Z</time></trkpt><trkpt lat="43.20347443341204" lon="10.734773776634498"><ele>252.33333333333331</ele><time>2026-04-19T09:44:16Z</time></trkpt><trkpt lat="43.20367366536094" lon="10.734722940970551"><ele>251.66666666666669</ele><time>2026-04-19T09:44:17Z</time></trkpt><trkpt lat="43.20388103968" lon="10.734675304570702"><ele>251.0</ele><time>2026-04-19T09:44:18Z</time></trkpt><trkpt lat="43.204080182040535" lon="10.734630838107183"><ele>250.66666666666669</ele><time>2026-04-19T09:44:19Z</time></trkpt><trkpt lat="43.20426825367806" lon="10.734588565895976"><ele>250.33333333333331</ele><time>2026-04-19T09:44:20Z</time></trkpt><trkpt lat="43.20444774314164" lon="10.734539051851689"><ele>250.0</ele><time>2026-04-19T09:44:21Z</time></trkpt><trkpt lat="43.20462628121987" lon="10.734473525665386"><ele>246.0</ele><time>2026-04-19T09:44:22Z</time></trkpt><trkpt lat="43.20479677895923" lon="10.734369785315494"><ele>242.0</ele><time>2026-04-19T09:44:23Z</time></trkpt><trkpt lat="43.204960047196195" lon="10.734225629819795"><ele>238.0</ele><time>2026-04-19T09:44:24Z</time></trkpt><trkpt lat="43.20512708841406" lon="10.73406960822095"><ele>238.0</ele><time>2026-04-19T09:44:25Z</time></trkpt><trkpt lat="43.20528590092388" lon="10.733902644397846"><ele>238.0</ele><time>2026-04-19T09:44:26Z</time></trkpt><trkpt lat="43.20543289205164" lon="10.733729260382416"><ele>238.0</ele><time>2026-04-19T09:44:27Z</time></trkpt><trkpt lat="43.205583030191534" lon="10.733549476439967"><ele>236.0</ele><time>2026-04-19T09:44:28.001Z</time></trkpt><trkpt lat="43.20572389731298" lon="10.733369905835586"><ele>234.0</ele><time>2026-04-19T09:44:29.001Z</time></trkpt><trkpt lat="43.2058552033247" lon="10.73320120833306"><ele>232.0</ele><time>2026-04-19T09:44:30.001Z</time></trkpt><trkpt lat="43.20597396522642" lon="10.733053862714476"><ele>232.0</ele><time>2026-04-19T09:44:31.001Z</time></trkpt><trkpt lat="43.20608291806022" lon="10.732961213918244"><ele>232.0</ele><time>2026-04-19T09:44:32.001Z</time></trkpt><trkpt lat="43.206196539806385" lon="10.732949267125607"><ele>232.0</ele><time>2026-04-19T09:44:33.001Z</time></trkpt><trkpt lat="43.206306084600826" lon="10.73304016015309"><ele>232.0</ele><time>2026-04-19T09:44:34.001Z</time></trkpt><trkpt lat="43.20645041163527" lon="10.733129740778834"><ele>228.33333333333331</ele><time>2026-04-19T09:44:35.001Z</time></trkpt><trkpt lat="43.20657622844433" lon="10.733261706918666"><ele>224.66666666666669</ele><time>2026-04-19T09:44:36.001Z</time></trkpt><trkpt lat="43.206676362334015" lon="10.73342901084723"><ele>221.0</ele><time>2026-04-19T09:44:37.001Z</time></trkpt><trkpt lat="43.20675849287474" lon="10.733636590252285"><ele>226.5</ele><time>2026-04-19T09:44:38.001Z</time></trkpt><trkpt lat="43.206823865922225" lon="10.73382909638623"><ele>232.0</ele><time>2026-04-19T09:44:39.001Z</time></trkpt><trkpt lat="43.20688262358898" lon="10.733985062312618"><ele>237.5</ele><time>2026-04-19T09:44:40.001Z</time></trkpt><trkpt lat="43.2069441999861" lon="10.734087527794584"><ele>243.0</ele><time>2026-04-19T09:44:41.001Z</time></trkpt><trkpt lat="43.20704507205185" lon="10.73410624054885"><ele>243.0</ele><time>2026-04-19T09:44:42.001Z</time></trkpt><trkpt lat="43.20716122527206" lon="10.734070326984302"><ele>243.0</ele><time>2026-04-19T09:44:43.001Z</time></trkpt><trkpt lat="43.20725273636474" lon="10.733949538258873"><ele>243.0</ele><time>2026-04-19T09:44:44.001Z</time></trkpt><trkpt lat="43.20730555664012" lon="10.733756420622798"><ele>243.0</ele><time>2026-04-19T09:44:45.001Z</time></trkpt><trkpt lat="43.207327603787476" lon="10.733502723023188"><ele>237.0</ele><time>2026-04-19T09:44:46.001Z</time></trkpt><trkpt lat="43.207331989003414" lon="10.733270158174923"><ele>231.0</ele><time>2026-04-19T09:44:47Z</time></trkpt><trkpt lat="43.20733830485158" lon="10.733052253660452"><ele>225.0</ele><time>2026-04-19T09:44:48Z</time></trkpt><trkpt lat="43.20732946566163" lon="10.73285799511921"><ele>223.0</ele><time>2026-04-19T09:44:49Z</time></trkpt><trkpt lat="43.20731616986074" lon="10.732713063691397"><ele>221.0</ele><time>2026-04-19T09:44:50Z</time></trkpt><trkpt lat="43.20735364796382" lon="10.732611087380906"><ele>219.0</ele><time>2026-04-19T09:44:51Z</time></trkpt><trkpt lat="43.2074387599535" lon="10.732523872417259"><ele>217.0</ele><time>2026-04-19T09:44:52Z</time></trkpt><trkpt lat="43.20755712023097" lon="10.732469787162698"><ele>215.0</ele><time>2026-04-19T09:44:53Z</time></trkpt><trkpt lat="43.20768522539196" lon="10.732558726173055"><ele>215.0</ele><time>2026-04-19T09:44:54Z</time></trkpt><trkpt lat="43.20783407952995" lon="10.732629215962797"><ele>215.0</ele><time>2026-04-19T09:44:55Z</time></trkpt><trkpt lat="43.207997423663464" lon="10.732702805530014"><ele>215.0</ele><time>2026-04-19T09:44:56Z</time></trkpt><trkpt lat="43.20816545694259" lon="10.732788057148872"><ele>224.33333333333334</ele><time>2026-04-19T09:44:57Z</time></trkpt><trkpt lat="43.20834285729036" lon="10.732862922146799"><ele>233.66666666666669</ele><time>2026-04-19T09:44:58Z</time></trkpt><trkpt lat="43.2085270489518" lon="10.732924261365726"><ele>243.0</ele><time>2026-04-19T09:44:59Z</time></trkpt><trkpt lat="43.20871081612858" lon="10.732994016174278"><ele>243.0</ele><time>2026-04-19T09:45:00Z</time></trkpt><trkpt lat="43.208887054170766" lon="10.73300950056015"><ele>243.0</ele><time>2026-04-19T09:45:01Z</time></trkpt><trkpt lat="43.20907251292647" lon="10.73299276468934"><ele>243.0</ele><time>2026-04-19T09:45:02Z</time></trkpt><trkpt lat="43.20926002773102" lon="10.73291102935423"><ele>240.0</ele><time>2026-04-19T09:45:03Z</time></trkpt><trkpt lat="43.20945027015691" lon="10.732812998984327"><ele>237.0</ele><time>2026-04-19T09:45:04Z</time></trkpt><trkpt lat="43.209651316122525" lon="10.732730172878298"><ele>234.0</ele><time>2026-04-19T09:45:05Z</time></trkpt><trkpt lat="43.20984890994689" lon="10.732661665721654"><ele>229.0</ele><time>2026-04-19T09:45:06Z</time></trkpt><trkpt lat="43.2100416874454" lon="10.732585118216322"><ele>224.0</ele><time>2026-04-19T09:45:07Z</time></trkpt><trkpt lat="43.210227626018956" lon="10.732512738795947"><ele>219.0</ele><time>2026-04-19T09:45:08Z</time></trkpt><trkpt lat="43.21041248824805" lon="10.732436247634286"><ele>219.0</ele><time>2026-04-19T09:45:09Z</time></trkpt><trkpt lat="43.210587563125976" lon="10.732364418931772"><ele>219.0</ele><time>2026-04-19T09:45:10Z</time></trkpt><trkpt lat="43.210762840582746" lon="10.732303945108834"><ele>219.0</ele><time>2026-04-19T09:45:11Z</time></trkpt><trkpt lat="43.21094844122629" lon="10.732294758207031"><ele>219.33333333333331</ele><time>2026-04-19T09:45:12Z</time></trkpt><trkpt lat="43.21114297300843" lon="10.732245548287297"><ele>219.66666666666666</ele><time>2026-04-19T09:45:13Z</time></trkpt><trkpt lat="43.21134456346893" lon="10.732221712909888"><ele>220.0</ele><time>2026-04-19T09:45:14Z</time></trkpt><trkpt lat="43.21154796100395" lon="10.732187480808639"><ele>220.33333333333331</ele><time>2026-04-19T09:45:15Z</time></trkpt><trkpt lat="43.21176027934014" lon="10.732152001928863"><ele>220.66666666666669</ele><time>2026-04-19T09:45:16Z</time></trkpt><trkpt lat="43.21196680363828" lon="10.732122745000149"><ele>221.0</ele><time>2026-04-19T09:45:17Z</time></trkpt><trkpt lat="43.21216433587775" lon="10.732126168009247"><ele>219.0</ele><time>2026-04-19T09:45:18Z</time></trkpt><trkpt lat="43.21235587783706" lon="10.732149180065253"><ele>217.0</ele><time>2026-04-19T09:45:19Z</time></trkpt><trkpt lat="43.21252123044596" lon="10.732178054205352"><ele>215.0</ele><time>2026-04-19T09:45:20Z</time></trkpt><trkpt lat="43.21267859525892" lon="10.73223991459601"><ele>215.0</ele><time>2026-04-19T09:45:21Z</time></trkpt><trkpt lat="43.212813935215614" lon="10.732350129441892"><ele>215.0</ele><time>2026-04-19T09:45:22Z</time></trkpt><trkpt lat="43.21291914531573" lon="10.732517113115817"><ele>215.0</ele><time>2026-04-19T09:45:23Z</time></trkpt><trkpt lat="43.21305374542265" lon="10.73266813066223"><ele>216.0</ele><time>2026-04-19T09:45:24Z</time></trkpt><trkpt lat="43.213176507494445" lon="10.732812243733198"><ele>217.0</ele><time>2026-04-19T09:45:25Z</time></trkpt><trkpt lat="43.21334216398454" lon="10.73291512065578"><ele>218.0</ele><time>2026-04-19T09:45:26Z</time></trkpt><trkpt lat="43.2135108826255" lon="10.732947639416972"><ele>218.0</ele><time>2026-04-19T09:45:27Z</time></trkpt><trkpt lat="43.213673335880245" lon="10.732921631470607"><ele>218.0</ele><time>2026-04-19T09:45:28Z</time></trkpt><trkpt lat="43.21383083275656" lon="10.732822267479271"><ele>218.0</ele><time>2026-04-19T09:45:29Z</time></trkpt><trkpt lat="43.21397471263325" lon="10.732639854045273"><ele>216.33333333333334</ele><time>2026-04-19T09:45:30Z</time></trkpt><trkpt lat="43.214090324544664" lon="10.732425991113132"><ele>214.66666666666669</ele><time>2026-04-19T09:45:31Z</time></trkpt><trkpt lat="43.21417742867544" lon="10.73220289191809"><ele>213.0</ele><time>2026-04-19T09:45:32Z</time></trkpt><trkpt lat="43.214251354114495" lon="10.732002206900015"><ele>209.5</ele><time>2026-04-19T09:45:33Z</time></trkpt><trkpt lat="43.21435938316055" lon="10.731862953075543"><ele>206.0</ele><time>2026-04-19T09:45:34Z</time></trkpt><trkpt lat="43.21446778907636" lon="10.73175608494024"><ele>202.5</ele><time>2026-04-19T09:45:35Z</time></trkpt><trkpt lat="43.21461428020804" lon="10.731681605378055"><ele>199.0</ele><time>2026-04-19T09:45:36Z</time></trkpt><trkpt lat="43.214780492461465" lon="10.731633837452597"><ele>201.0</ele><time>2026-04-19T09:45:37Z</time></trkpt><trkpt lat="43.21495863368397" lon="10.731554815835334"><ele>203.0</ele><time>2026-04-19T09:45:38Z</time></trkpt><trkpt lat="43.21512867391556" lon="10.731486215350397"><ele>205.0</ele><time>2026-04-19T09:45:39Z</time></trkpt><trkpt lat="43.215279523480596" lon="10.73147026989585"><ele>205.0</ele><time>2026-04-19T09:45:40Z</time></trkpt><trkpt lat="43.21540991527157" lon="10.731482732320822"><ele>205.0</ele><time>2026-04-19T09:45:41Z</time></trkpt><trkpt lat="43.2155196980742" lon="10.731584840462302"><ele>205.0</ele><time>2026-04-19T09:45:42Z</time></trkpt><trkpt lat="43.215603231422186" lon="10.731741380635476"><ele>205.0</ele><time>2026-04-19T09:45:43Z</time></trkpt><trkpt lat="43.21569539138572" lon="10.731917051079343"><ele>205.0</ele><time>2026-04-19T09:45:44Z</time></trkpt><trkpt lat="43.21576766033437" lon="10.732096530427324"><ele>205.0</ele><time>2026-04-19T09:45:45Z</time></trkpt><trkpt lat="43.21588557092881" lon="10.732223725858537"><ele>205.0</ele><time>2026-04-19T09:45:46Z</time></trkpt><trkpt lat="43.21606152460519" lon="10.73228109509679"><ele>205.0</ele><time>2026-04-19T09:45:47Z</time></trkpt><trkpt lat="43.21624772590437" lon="10.732280386922797"><ele>205.0</ele><time>2026-04-19T09:45:48Z</time></trkpt><trkpt lat="43.21643453612975" lon="10.732233788948514"><ele>205.0</ele><time>2026-04-19T09:45:49Z</time></trkpt><trkpt lat="43.21661369190224" lon="10.73215538786004"><ele>206.66666666666666</ele><time>2026-04-19T09:45:50Z</time></trkpt><trkpt lat="43.21678027643374" lon="10.73208096130016"><ele>208.33333333333331</ele><time>2026-04-19T09:45:51Z</time></trkpt><trkpt lat="43.21694122542564" lon="10.732054722900955"><ele>210.0</ele><time>2026-04-19T09:45:52Z</time></trkpt><trkpt lat="43.2170883290782" lon="10.73211076856861"><ele>210.0</ele><time>2026-04-19T09:45:53Z</time></trkpt><trkpt lat="43.217233829106114" lon="10.732206409163107"><ele>210.0</ele><time>2026-04-19T09:45:54Z</time></trkpt><trkpt lat="43.217358804273175" lon="10.732342195660616"><ele>210.0</ele><time>2026-04-19T09:45:55Z</time></trkpt><trkpt lat="43.217465874455506" lon="10.732507193128303"><ele>208.66666666666669</ele><time>2026-04-19T09:45:56Z</time></trkpt><trkpt lat="43.21755187722228" lon="10.73268829438588"><ele>207.33333333333334</ele><time>2026-04-19T09:45:57Z</time></trkpt><trkpt lat="43.21755164840735" lon="10.732917121445034"><ele>206.0</ele><time>2026-04-19T09:45:58Z</time></trkpt><trkpt lat="43.217553374478406" lon="10.733151706191281"><ele>206.0</ele><time>2026-04-19T09:45:59Z</time></trkpt><trkpt lat="43.217537987801244" lon="10.73335312986873"><ele>206.0</ele><time>2026-04-19T09:46:00Z</time></trkpt><trkpt lat="43.21759632622881" lon="10.733498988925195"><ele>206.0</ele><time>2026-04-19T09:46:01Z</time></trkpt><trkpt lat="43.21770788767231" lon="10.73360927530312"><ele>206.0</ele><time>2026-04-19T09:46:02Z</time></trkpt><trkpt lat="43.21786492391393" lon="10.733665242228131"><ele>207.33333333333334</ele><time>2026-04-19T09:46:03Z</time></trkpt><trkpt lat="43.21801323458702" lon="10.733756340372237"><ele>208.66666666666669</ele><time>2026-04-19T09:46:04Z</time></trkpt><trkpt lat="43.21813070769519" lon="10.733929872798054"><ele>210.0</ele><time>2026-04-19T09:46:05Z</time></trkpt><trkpt lat="43.21825233202628" lon="10.734118875367328"><ele>210.33333333333331</ele><time>2026-04-19T09:46:06Z</time></trkpt><trkpt lat="43.21841209758087" lon="10.734257609892472"><ele>210.66666666666666</ele><time>2026-04-19T09:46:07Z</time></trkpt><trkpt lat="43.218595076383835" lon="10.734361341701502"><ele>211.0</ele><time>2026-04-19T09:46:08Z</time></trkpt><trkpt lat="43.2187788862449" lon="10.734438855459619"><ele>211.0</ele><time>2026-04-19T09:46:09Z</time></trkpt><trkpt lat="43.218970936388274" lon="10.734485054149678"><ele>211.0</ele><time>2026-04-19T09:46:10Z</time></trkpt><trkpt lat="43.21916545712656" lon="10.7345205996095"><ele>211.0</ele><time>2026-04-19T09:46:11Z</time></trkpt><trkpt lat="43.21934873279963" lon="10.734557678096168"><ele>208.0</ele><time>2026-04-19T09:46:12Z</time></trkpt><trkpt lat="43.219519407319176" lon="10.73460128584968"><ele>205.0</ele><time>2026-04-19T09:46:13Z</time></trkpt><trkpt lat="43.2196774620915" lon="10.734645780799383"><ele>202.0</ele><time>2026-04-19T09:46:14Z</time></trkpt><trkpt lat="43.219824806722514" lon="10.734714085736943"><ele>198.66666666666666</ele><time>2026-04-19T09:46:15Z</time></trkpt><trkpt lat="43.21994354079597" lon="10.734836931912758"><ele>195.33333333333331</ele><time>2026-04-19T09:46:16Z</time></trkpt><trkpt lat="43.2200270887134" lon="10.73502247667467"><ele>192.0</ele><time>2026-04-19T09:46:17Z</time></trkpt><trkpt lat="43.220114661255785" lon="10.735192810494764"><ele>192.8</ele><time>2026-04-19T09:46:18Z</time></trkpt><trkpt lat="43.22018412203861" lon="10.735347245126539"><ele>193.6</ele><time>2026-04-19T09:46:19Z</time></trkpt><trkpt lat="43.220246190599994" lon="10.735485120330221"><ele>194.4</ele><time>2026-04-19T09:46:20Z</time></trkpt><trkpt lat="43.22032361971631" lon="10.735567138961347"><ele>195.20000000000002</ele><time>2026-04-19T09:46:21Z</time></trkpt><trkpt lat="43.220407834420925" lon="10.735581536765215"><ele>196.0</ele><time>2026-04-19T09:46:22Z</time></trkpt><trkpt lat="43.22048450897117" lon="10.735540497507964"><ele>196.0</ele><time>2026-04-19T09:46:23Z</time></trkpt><trkpt lat="43.22053806464995" lon="10.73545153659098"><ele>196.0</ele><time>2026-04-19T09:46:24Z</time></trkpt><trkpt lat="43.22055419900675" lon="10.735350409124697"><ele>196.0</ele><time>2026-04-19T09:46:25Z</time></trkpt><trkpt lat="43.220553977078055" lon="10.735207220063339"><ele>196.0</ele><time>2026-04-19T09:46:27Z</time></trkpt><trkpt lat="43.2205568644761" lon="10.735023996982427"><ele>196.0</ele><time>2026-04-19T09:46:29Z</time></trkpt><trkpt lat="43.22060148479454" lon="10.734925297702896"><ele>195.8</ele><time>2026-04-19T09:46:30Z</time></trkpt><trkpt lat="43.22063542292948" lon="10.7348189850924"><ele>195.60000000000002</ele><time>2026-04-19T09:46:31Z</time></trkpt><trkpt lat="43.22066413814628" lon="10.734695456443754"><ele>195.4</ele><time>2026-04-19T09:46:32Z</time></trkpt><trkpt lat="43.22071522285555" lon="10.734558723828208"><ele>195.2</ele><time>2026-04-19T09:46:33Z</time></trkpt><trkpt lat="43.22074512481289" lon="10.734396064165699"><ele>195.0</ele><time>2026-04-19T09:46:34Z</time></trkpt><trkpt lat="43.22077070700875" lon="10.734212198726672"><ele>193.5</ele><time>2026-04-19T09:46:35Z</time></trkpt><trkpt lat="43.220807776641635" lon="10.734007985657545"><ele>192.0</ele><time>2026-04-19T09:46:36Z</time></trkpt><trkpt lat="43.220831979409105" lon="10.733798745038545"><ele>190.5</ele><time>2026-04-19T09:46:37Z</time></trkpt><trkpt lat="43.22087930727019" lon="10.733628264501483"><ele>189.0</ele><time>2026-04-19T09:46:38Z</time></trkpt><trkpt lat="43.22094782414863" lon="10.733494550803172"><ele>187.2</ele><time>2026-04-19T09:46:39Z</time></trkpt><trkpt lat="43.22104172841039" lon="10.733411829379346"><ele>185.39999999999998</ele><time>2026-04-19T09:46:40Z</time></trkpt><trkpt lat="43.22114257123399" lon="10.733337924625125"><ele>183.6</ele><time>2026-04-19T09:46:41Z</time></trkpt><trkpt lat="43.22120584493641" lon="10.73326529758838"><ele>181.8</ele><time>2026-04-19T09:46:42Z</time></trkpt><trkpt lat="43.22127040144055" lon="10.733179229939301"><ele>180.0</ele><time>2026-04-19T09:46:44Z</time></trkpt><trkpt lat="43.221266950864326" lon="10.73307414582472"><ele>180.0</ele><time>2026-04-19T09:46:48Z</time></trkpt><trkpt lat="43.221153459980975" lon="10.733213506345544"><ele>180.0</ele><time>2026-04-19T09:46:51Z</time></trkpt><trkpt lat="43.22107029258227" lon="10.73335097303802"><ele>180.0</ele><time>2026-04-19T09:46:52Z</time></trkpt><trkpt lat="43.220958043482646" lon="10.733452726016761"><ele>180.0</ele><time>2026-04-19T09:46:52.999Z</time></trkpt><trkpt lat="43.22085558117078" lon="10.73357017780468"><ele>183.0</ele><time>2026-04-19T09:46:53.999Z</time></trkpt><trkpt lat="43.22079662978633" lon="10.733739057709402"><ele>186.0</ele><time>2026-04-19T09:46:54.999Z</time></trkpt><trkpt lat="43.220764040631444" lon="10.733940297508035"><ele>189.0</ele><time>2026-04-19T09:46:55.999Z</time></trkpt><trkpt lat="43.22074912784599" lon="10.734171505300075"><ele>190.0</ele><time>2026-04-19T09:46:56.999Z</time></trkpt><trkpt lat="43.2207213164658" lon="10.734410052820323"><ele>191.0</ele><time>2026-04-19T09:46:57.999Z</time></trkpt><trkpt lat="43.220657211792336" lon="10.734654176578676"><ele>192.0</ele><time>2026-04-19T09:46:58.999Z</time></trkpt><trkpt lat="43.220581912226024" lon="10.734859452966843"><ele>192.0</ele><time>2026-04-19T09:46:59.999Z</time></trkpt><trkpt lat="43.22052555400956" lon="10.735026507887783"><ele>192.0</ele><time>2026-04-19T09:47:00.999Z</time></trkpt><trkpt lat="43.2205133370595" lon="10.73518843983374"><ele>192.0</ele><time>2026-04-19T09:47:01.999Z</time></trkpt><trkpt lat="43.22051198184907" lon="10.735327446271345"><ele>192.0</ele><time>2026-04-19T09:47:02.999Z</time></trkpt><trkpt lat="43.220501986049555" lon="10.735433071531954"><ele>192.0</ele><time>2026-04-19T09:47:03.999Z</time></trkpt><trkpt lat="43.22044473218565" lon="10.735532096709072"><ele>192.66666666666666</ele><time>2026-04-19T09:47:05.999Z</time></trkpt><trkpt lat="43.2204767004878" lon="10.735700214563394"><ele>193.33333333333331</ele><time>2026-04-19T09:47:08Z</time></trkpt><trkpt lat="43.22049535179939" lon="10.735794500964909"><ele>194.0</ele><time>2026-04-19T09:47:09Z</time></trkpt><trkpt lat="43.22051014276789" lon="10.735898990466941"><ele>194.66666666666666</ele><time>2026-04-19T09:47:10Z</time></trkpt><trkpt lat="43.22051788612358" lon="10.735996563774577"><ele>195.33333333333331</ele><time>2026-04-19T09:47:11Z</time></trkpt><trkpt lat="43.220527399152026" lon="10.736100102081144"><ele>196.0</ele><time>2026-04-19T09:47:12Z</time></trkpt><trkpt lat="43.22054213260546" lon="10.73621798497804"><ele>195.99999999999997</ele><time>2026-04-19T09:47:13Z</time></trkpt><trkpt lat="43.2205546049803" lon="10.736329094419368"><ele>196.0</ele><time>2026-04-19T09:47:14Z</time></trkpt><trkpt lat="43.220566795909384" lon="10.736418394382026"><ele>196.0</ele><time>2026-04-19T09:47:15Z</time></trkpt><trkpt lat="43.22058377462003" lon="10.736512492569089"><ele>196.0</ele><time>2026-04-19T09:47:16Z</time></trkpt><trkpt lat="43.22062781362584" lon="10.736693175603632"><ele>195.99999999999997</ele><time>2026-04-19T09:47:18Z</time></trkpt><trkpt lat="43.22065387473363" lon="10.736795287910422"><ele>196.0</ele><time>2026-04-19T09:47:19Z</time></trkpt><trkpt lat="43.22067783099705" lon="10.736891297900566"><ele>195.33333333333331</ele><time>2026-04-19T09:47:20Z</time></trkpt><trkpt lat="43.220704968460836" lon="10.73699750008928"><ele>194.66666666666666</ele><time>2026-04-19T09:47:21Z</time></trkpt><trkpt lat="43.22071435763729" lon="10.737094736799627"><ele>194.0</ele><time>2026-04-19T09:47:22Z</time></trkpt><trkpt lat="43.22072288698963" lon="10.73718527277061"><ele>193.33333333333331</ele><time>2026-04-19T09:47:23Z</time></trkpt><trkpt lat="43.22074496318452" lon="10.73735048088765"><ele>192.66666666666666</ele><time>2026-04-19T09:47:25Z</time></trkpt><trkpt lat="43.220744180544024" lon="10.73745153216253"><ele>192.0</ele><time>2026-04-19T09:47:26Z</time></trkpt><trkpt lat="43.22077423839029" lon="10.737560133519898"><ele>192.0</ele><time>2026-04-19T09:47:27Z</time></trkpt><trkpt lat="43.22083945614076" lon="10.737648212366539"><ele>192.0</ele><time>2026-04-19T09:47:28Z</time></trkpt><trkpt lat="43.22092379565295" lon="10.737717030813707"><ele>192.0</ele><time>2026-04-19T09:47:29Z</time></trkpt><trkpt lat="43.220987467518796" lon="10.737826771295476"><ele>192.0</ele><time>2026-04-19T09:47:30Z</time></trkpt><trkpt lat="43.22104106305454" lon="10.737939580106383"><ele>192.0</ele><time>2026-04-19T09:47:31Z</time></trkpt><trkpt lat="43.22108416472928" lon="10.738060533545134"><ele>190.2</ele><time>2026-04-19T09:47:32Z</time></trkpt><trkpt lat="43.22113099894392" lon="10.738182468482607"><ele>188.39999999999998</ele><time>2026-04-19T09:47:33Z</time></trkpt><trkpt lat="43.22118988516376" lon="10.738296085978645"><ele>186.60000000000002</ele><time>2026-04-19T09:47:34Z</time></trkpt><trkpt lat="43.22125915004527" lon="10.738399842006586"><ele>184.8</ele><time>2026-04-19T09:47:35Z</time></trkpt><trkpt lat="43.22133119480158" lon="10.738494930767962"><ele>183.0</ele><time>2026-04-19T09:47:36Z</time></trkpt><trkpt lat="43.221391920537556" lon="10.738607113544699"><ele>182.4</ele><time>2026-04-19T09:47:37Z</time></trkpt><trkpt lat="43.22144345447217" lon="10.738731357426452"><ele>181.8</ele><time>2026-04-19T09:47:38Z</time></trkpt><trkpt lat="43.221496749056186" lon="10.738866425646316"><ele>181.2</ele><time>2026-04-19T09:47:39Z</time></trkpt><trkpt lat="43.221557835431405" lon="10.738994717914759"><ele>180.6</ele><time>2026-04-19T09:47:40Z</time></trkpt><trkpt lat="43.22161160282518" lon="10.739111687842838"><ele>180.0</ele><time>2026-04-19T09:47:41Z</time></trkpt><trkpt lat="43.22165728416289" lon="10.739227215699687"><ele>180.0</ele><time>2026-04-19T09:47:42Z</time></trkpt><trkpt lat="43.22169110236179" lon="10.73934867924456"><ele>180.0</ele><time>2026-04-19T09:47:43Z</time></trkpt><trkpt lat="43.22172496461258" lon="10.739481519134085"><ele>180.0</ele><time>2026-04-19T09:47:44Z</time></trkpt><trkpt lat="43.22175749772506" lon="10.739607926217769"><ele>180.0</ele><time>2026-04-19T09:47:45Z</time></trkpt><trkpt lat="43.22179301393302" lon="10.739750227529694"><ele>180.0</ele><time>2026-04-19T09:47:46Z</time></trkpt><trkpt lat="43.221831884518686" lon="10.73987118740349"><ele>178.66666666666666</ele><time>2026-04-19T09:47:47Z</time></trkpt><trkpt lat="43.221872439893495" lon="10.739978816883207"><ele>177.33333333333334</ele><time>2026-04-19T09:47:48Z</time></trkpt><trkpt lat="43.22191201683616" lon="10.740084085264519"><ele>176.0</ele><time>2026-04-19T09:47:49Z</time></trkpt><trkpt lat="43.22193734893748" lon="10.740182281914237"><ele>174.66666666666669</ele><time>2026-04-19T09:47:50Z</time></trkpt><trkpt lat="43.22195239838985" lon="10.740283192682462"><ele>173.33333333333334</ele><time>2026-04-19T09:47:51Z</time></trkpt><trkpt lat="43.2219590321567" lon="10.740381798012914"><ele>172.0</ele><time>2026-04-19T09:47:52Z</time></trkpt><trkpt lat="43.221955126249284" lon="10.740478295880587"><ele>171.16666666666669</ele><time>2026-04-19T09:47:53Z</time></trkpt><trkpt lat="43.22193340946746" lon="10.74056794102132"><ele>170.33333333333334</ele><time>2026-04-19T09:47:54Z</time></trkpt><trkpt lat="43.22189265747956" lon="10.74064951094852"><ele>169.5</ele><time>2026-04-19T09:47:55Z</time></trkpt><trkpt lat="43.22184908351625" lon="10.740718955723219"><ele>168.66666666666666</ele><time>2026-04-19T09:47:56Z</time></trkpt><trkpt lat="43.22179606044026" lon="10.74079478843472"><ele>167.83333333333331</ele><time>2026-04-19T09:47:57Z</time></trkpt><trkpt lat="43.22171911139833" lon="10.740858291230419"><ele>167.0</ele><time>2026-04-19T09:47:58Z</time></trkpt><trkpt lat="43.221643850039925" lon="10.740925201212312"><ele>167.0</ele><time>2026-04-19T09:47:59Z</time></trkpt><trkpt lat="43.221579182866755" lon="10.740996164387143"><ele>167.0</ele><time>2026-04-19T09:48:00Z</time></trkpt><trkpt lat="43.221519120890676" lon="10.741055521252486"><ele>167.0</ele><time>2026-04-19T09:48:01Z</time></trkpt><trkpt lat="43.22147693176116" lon="10.741149857154515"><ele>167.0</ele><time>2026-04-19T09:48:02Z</time></trkpt><trkpt lat="43.22145783003968" lon="10.741254565076424"><ele>167.0</ele><time>2026-04-19T09:48:03Z</time></trkpt><trkpt lat="43.22147698040553" lon="10.74136898078366"><ele>167.0</ele><time>2026-04-19T09:48:04Z</time></trkpt><trkpt lat="43.22148042749066" lon="10.741482627382739"><ele>166.6</ele><time>2026-04-19T09:48:05Z</time></trkpt><trkpt lat="43.22148244301189" lon="10.741603879784641"><ele>166.2</ele><time>2026-04-19T09:48:06Z</time></trkpt><trkpt lat="43.22148484448329" lon="10.741745355171751"><ele>165.8</ele><time>2026-04-19T09:48:07Z</time></trkpt><trkpt lat="43.22147827381391" lon="10.741916188773962"><ele>165.4</ele><time>2026-04-19T09:48:08Z</time></trkpt><trkpt lat="43.22148498876225" lon="10.742098623057496"><ele>165.0</ele><time>2026-04-19T09:48:09Z</time></trkpt><trkpt lat="43.2214839492507" lon="10.742247762528756"><ele>165.0</ele><time>2026-04-19T09:48:10Z</time></trkpt><trkpt lat="43.22147815447031" lon="10.742373219385932"><ele>165.0</ele><time>2026-04-19T09:48:11Z</time></trkpt><trkpt lat="43.22146700032882" lon="10.742504299369536"><ele>165.0</ele><time>2026-04-19T09:48:12Z</time></trkpt><trkpt lat="43.22144033118092" lon="10.742634764753243"><ele>165.0</ele><time>2026-04-19T09:48:13Z</time></trkpt><trkpt lat="43.221424331683316" lon="10.742756923180238"><ele>165.0</ele><time>2026-04-19T09:48:14Z</time></trkpt><trkpt lat="43.221403594383226" lon="10.742871565591678"><ele>165.0</ele><time>2026-04-19T09:48:15Z</time></trkpt><trkpt lat="43.22139883800686" lon="10.74296916154538"><ele>165.0</ele><time>2026-04-19T09:48:16Z</time></trkpt><trkpt lat="43.2213865025475" lon="10.743069255599115"><ele>165.0</ele><time>2026-04-19T09:48:18Z</time></trkpt><trkpt lat="43.221391192941965" lon="10.743192477004737"><ele>165.0</ele><time>2026-04-19T09:49:58Z</time></trkpt><trkpt lat="43.22139435576866" lon="10.743302058679593"><ele>165.0</ele><time>2026-04-19T09:49:59Z</time></trkpt><trkpt lat="43.22140406108867" lon="10.743390992099426"><ele>165.0</ele><time>2026-04-19T09:50:00Z</time></trkpt><trkpt lat="43.221421036478084" lon="10.743519865634013"><ele>164.83333333333334</ele><time>2026-04-19T09:50:01Z</time></trkpt><trkpt lat="43.2214520095984" lon="10.743658302029894"><ele>164.66666666666666</ele><time>2026-04-19T09:50:02Z</time></trkpt><trkpt lat="43.22148202831485" lon="10.743773875831948"><ele>164.5</ele><time>2026-04-19T09:50:03Z</time></trkpt><trkpt lat="43.22150523688683" lon="10.743866289899636"><ele>164.33333333333331</ele><time>2026-04-19T09:50:04Z</time></trkpt><trkpt lat="43.221519541423326" lon="10.743952702327768"><ele>164.16666666666666</ele><time>2026-04-19T09:50:05Z</time></trkpt><trkpt lat="43.221517032825375" lon="10.744115410827106"><ele>164.0</ele><time>2026-04-19T09:50:07Z</time></trkpt><trkpt lat="43.22149734326772" lon="10.744202154218414"><ele>164.0</ele><time>2026-04-19T09:50:08Z</time></trkpt><trkpt lat="43.22147890440297" lon="10.744291830819675"><ele>164.0</ele><time>2026-04-19T09:50:09Z</time></trkpt><trkpt lat="43.221448250525405" lon="10.744384635467963"><ele>164.0</ele><time>2026-04-19T09:50:10Z</time></trkpt><trkpt lat="43.22139950193446" lon="10.744472092551637"><ele>164.0</ele><time>2026-04-19T09:50:11Z</time></trkpt><trkpt lat="43.22132845786181" lon="10.744560333664225"><ele>164.0</ele><time>2026-04-19T09:50:12Z</time></trkpt><trkpt lat="43.22128032607501" lon="10.744681402070674"><ele>164.0</ele><time>2026-04-19T09:50:13Z</time></trkpt><trkpt lat="43.22117867038412" lon="10.74474860603028"><ele>164.33333333333331</ele><time>2026-04-19T09:50:14Z</time></trkpt><trkpt lat="43.22112341425024" lon="10.744829333251941"><ele>164.66666666666666</ele><time>2026-04-19T09:50:15Z</time></trkpt><trkpt lat="43.221076592458054" lon="10.74489101069932"><ele>165.0</ele><time>2026-04-19T09:50:16Z</time></trkpt><trkpt lat="43.22103682581439" lon="10.74495803699941"><ele>165.33333333333334</ele><time>2026-04-19T09:50:17Z</time></trkpt><trkpt lat="43.22097928078438" lon="10.745035724036923"><ele>165.66666666666669</ele><time>2026-04-19T09:50:18Z</time></trkpt><trkpt lat="43.22091249615305" lon="10.745122020584713"><ele>166.0</ele><time>2026-04-19T09:50:19Z</time></trkpt><trkpt lat="43.220833581839045" lon="10.745228733112114"><ele>166.20000000000002</ele><time>2026-04-19T09:50:20Z</time></trkpt><trkpt lat="43.22074946101908" lon="10.745346615756759"><ele>166.4</ele><time>2026-04-19T09:50:21Z</time></trkpt><trkpt lat="43.22067019020698" lon="10.745464748457172"><ele>166.6</ele><time>2026-04-19T09:50:22Z</time></trkpt><trkpt lat="43.2205965979862" lon="10.745560211061669"><ele>166.8</ele><time>2026-04-19T09:50:23Z</time></trkpt><trkpt lat="43.220540533876644" lon="10.745646679767034"><ele>167.0</ele><time>2026-04-19T09:50:24Z</time></trkpt><trkpt lat="43.22049598466436" lon="10.745743755926068"><ele>167.0</ele><time>2026-04-19T09:50:25Z</time></trkpt><trkpt lat="43.220466722946064" lon="10.745850250896098"><ele>167.0</ele><time>2026-04-19T09:50:26Z</time></trkpt><trkpt lat="43.220447701265314" lon="10.745966357153053"><ele>167.0</ele><time>2026-04-19T09:50:27Z</time></trkpt><trkpt lat="43.22044239621216" lon="10.746098489711228"><ele>167.0</ele><time>2026-04-19T09:50:28Z</time></trkpt><trkpt lat="43.22045618601385" lon="10.746255436807514"><ele>167.0</ele><time>2026-04-19T09:50:29Z</time></trkpt><trkpt lat="43.220472490482436" lon="10.746444887501976"><ele>167.25</ele><time>2026-04-19T09:50:30Z</time></trkpt><trkpt lat="43.22047200224462" lon="10.746650075253955"><ele>167.5</ele><time>2026-04-19T09:50:31Z</time></trkpt><trkpt lat="43.22046871131786" lon="10.746810638142033"><ele>167.75</ele><time>2026-04-19T09:50:32Z</time></trkpt><trkpt lat="43.220463593882606" lon="10.746924662807047"><ele>168.0</ele><time>2026-04-19T09:50:33Z</time></trkpt><trkpt lat="43.22043957525737" lon="10.747099860323585"><ele>168.2</ele><time>2026-04-19T09:50:35Z</time></trkpt><trkpt lat="43.22042571451245" lon="10.74718710912447"><ele>168.4</ele><time>2026-04-19T09:50:36Z</time></trkpt><trkpt lat="43.22041359467029" lon="10.747337599683371"><ele>168.6</ele><time>2026-04-19T09:50:38Z</time></trkpt><trkpt lat="43.220405162021564" lon="10.747508807835406"><ele>168.79999999999998</ele><time>2026-04-19T09:50:40Z</time></trkpt><trkpt lat="43.22039352624624" lon="10.747634216625388"><ele>169.0</ele><time>2026-04-19T09:50:41Z</time></trkpt><trkpt lat="43.22037451013187" lon="10.747780883037633"><ele>169.75</ele><time>2026-04-19T09:50:42Z</time></trkpt><trkpt lat="43.22035858753677" lon="10.747930334698422"><ele>170.5</ele><time>2026-04-19T09:50:43Z</time></trkpt><trkpt lat="43.22034243193044" lon="10.748099676097732"><ele>171.25</ele><time>2026-04-19T09:50:44Z</time></trkpt><trkpt lat="43.22033085912015" lon="10.748268430047855"><ele>172.0</ele><time>2026-04-19T09:50:45Z</time></trkpt><trkpt lat="43.22031855742135" lon="10.748436847052286"><ele>172.25</ele><time>2026-04-19T09:50:46Z</time></trkpt><trkpt lat="43.220304230166995" lon="10.748594769505901"><ele>172.5</ele><time>2026-04-19T09:50:47Z</time></trkpt><trkpt lat="43.2203012135353" lon="10.748773746589606"><ele>172.75</ele><time>2026-04-19T09:50:48Z</time></trkpt><trkpt lat="43.220305969657254" lon="10.749013675360288"><ele>173.0</ele><time>2026-04-19T09:50:49Z</time></trkpt><trkpt lat="43.22031199984425" lon="10.749304678008157"><ele>172.66666666666666</ele><time>2026-04-19T09:50:50Z</time></trkpt><trkpt lat="43.220312572389865" lon="10.749563354501941"><ele>172.33333333333334</ele><time>2026-04-19T09:50:51.001Z</time></trkpt><trkpt lat="43.220316764657035" lon="10.74976626155323"><ele>172.0</ele><time>2026-04-19T09:50:52.001Z</time></trkpt><trkpt lat="43.22032413320063" lon="10.749922531281769"><ele>172.0</ele><time>2026-04-19T09:50:53.001Z</time></trkpt><trkpt lat="43.22032323967399" lon="10.75007750318958"><ele>172.0</ele><time>2026-04-19T09:50:54.001Z</time></trkpt><trkpt lat="43.22031903621055" lon="10.750228942157857"><ele>172.0</ele><time>2026-04-19T09:50:55.001Z</time></trkpt><trkpt lat="43.22030366247212" lon="10.750375597962789"><ele>172.0</ele><time>2026-04-19T09:50:56.001Z</time></trkpt><trkpt lat="43.220283737126486" lon="10.750538778715804"><ele>172.0</ele><time>2026-04-19T09:50:57.001Z</time></trkpt><trkpt lat="43.22024187850488" lon="10.750710852449497"><ele>172.0</ele><time>2026-04-19T09:50:58.001Z</time></trkpt><trkpt lat="43.22020034402554" lon="10.750880322620985"><ele>172.0</ele><time>2026-04-19T09:50:59.001Z</time></trkpt><trkpt lat="43.220157437040434" lon="10.75104686978259"><ele>172.0</ele><time>2026-04-19T09:51:00.001Z</time></trkpt><trkpt lat="43.22012581382627" lon="10.751205065177693"><ele>172.25</ele><time>2026-04-19T09:51:01.001Z</time></trkpt><trkpt lat="43.220092604423144" lon="10.751372958685034"><ele>172.5</ele><time>2026-04-19T09:51:02.001Z</time></trkpt><trkpt lat="43.22005870464649" lon="10.751536520391685"><ele>172.75</ele><time>2026-04-19T09:51:03.001Z</time></trkpt><trkpt lat="43.22002442798767" lon="10.751696010509114"><ele>173.0</ele><time>2026-04-19T09:51:04Z</time></trkpt><trkpt lat="43.219985504963795" lon="10.751863511610674"><ele>173.4</ele><time>2026-04-19T09:51:05Z</time></trkpt><trkpt lat="43.219952260548915" lon="10.752016990429043"><ele>173.8</ele><time>2026-04-19T09:51:06Z</time></trkpt><trkpt lat="43.21991165164075" lon="10.752148116714334"><ele>174.2</ele><time>2026-04-19T09:51:07Z</time></trkpt><trkpt lat="43.21985974641144" lon="10.75227113057414"><ele>174.6</ele><time>2026-04-19T09:51:08Z</time></trkpt><trkpt lat="43.219778616113246" lon="10.752399233452635"><ele>175.0</ele><time>2026-04-19T09:51:09Z</time></trkpt><trkpt lat="43.2196714345708" lon="10.75253463329341"><ele>175.33333333333334</ele><time>2026-04-19T09:51:10Z</time></trkpt><trkpt lat="43.219532758275015" lon="10.752684859479734"><ele>175.66666666666666</ele><time>2026-04-19T09:51:11Z</time></trkpt><trkpt lat="43.21939449628483" lon="10.752852203915904"><ele>176.0</ele><time>2026-04-19T09:51:12Z</time></trkpt><trkpt lat="43.219264774357654" lon="10.753012800738182"><ele>176.25</ele><time>2026-04-19T09:51:13Z</time></trkpt><trkpt lat="43.21915687373514" lon="10.753141709218275"><ele>176.5</ele><time>2026-04-19T09:51:14Z</time></trkpt><trkpt lat="43.21905385897163" lon="10.753273144414853"><ele>176.75</ele><time>2026-04-19T09:51:15Z</time></trkpt><trkpt lat="43.218947342190994" lon="10.753403272455667"><ele>177.0</ele><time>2026-04-19T09:51:16Z</time></trkpt><trkpt lat="43.21884707594288" lon="10.75351964647398"><ele>177.25</ele><time>2026-04-19T09:51:17Z</time></trkpt><trkpt lat="43.21875165420013" lon="10.753647691544465"><ele>177.5</ele><time>2026-04-19T09:51:18Z</time></trkpt><trkpt lat="43.218655142529975" lon="10.753778159061781"><ele>177.75</ele><time>2026-04-19T09:51:19Z</time></trkpt><trkpt lat="43.21856332204907" lon="10.753921310332338"><ele>178.0</ele><time>2026-04-19T09:51:20Z</time></trkpt><trkpt lat="43.21846302427567" lon="10.75406464322321"><ele>178.0</ele><time>2026-04-19T09:51:21Z</time></trkpt><trkpt lat="43.218381887771066" lon="10.754234858272094"><ele>178.0</ele><time>2026-04-19T09:51:22Z</time></trkpt><trkpt lat="43.218300080571886" lon="10.754384571432755"><ele>178.0</ele><time>2026-04-19T09:51:23Z</time></trkpt><trkpt lat="43.218219169075965" lon="10.75452264200073"><ele>178.0</ele><time>2026-04-19T09:51:24Z</time></trkpt><trkpt lat="43.21814247063793" lon="10.754649161262256"><ele>178.8</ele><time>2026-04-19T09:51:25Z</time></trkpt><trkpt lat="43.21807482405446" lon="10.754769585806299"><ele>179.60000000000002</ele><time>2026-04-19T09:51:26Z</time></trkpt><trkpt lat="43.21803217634727" lon="10.754875433467193"><ele>180.39999999999998</ele><time>2026-04-19T09:51:27Z</time></trkpt><trkpt lat="43.21800063835978" lon="10.754979004882626"><ele>181.2</ele><time>2026-04-19T09:51:28Z</time></trkpt><trkpt lat="43.217988194170225" lon="10.755089250193114"><ele>182.0</ele><time>2026-04-19T09:51:29Z</time></trkpt><trkpt lat="43.21799786760958" lon="10.755209128883129"><ele>182.0</ele><time>2026-04-19T09:51:30Z</time></trkpt><trkpt lat="43.218027127791764" lon="10.75532773930321"><ele>182.0</ele><time>2026-04-19T09:51:31Z</time></trkpt><trkpt lat="43.218089349347196" lon="10.75547468884401"><ele>182.0</ele><time>2026-04-19T09:51:32Z</time></trkpt><trkpt lat="43.21816320944152" lon="10.755650322171666"><ele>182.0</ele><time>2026-04-19T09:51:33Z</time></trkpt><trkpt lat="43.21822676444734" lon="10.75580690322818"><ele>181.6</ele><time>2026-04-19T09:51:34Z</time></trkpt><trkpt lat="43.21826833079816" lon="10.755937468645573"><ele>181.2</ele><time>2026-04-19T09:51:35Z</time></trkpt><trkpt lat="43.218314616733664" lon="10.75606975963754"><ele>180.8</ele><time>2026-04-19T09:51:36Z</time></trkpt><trkpt lat="43.218355110508504" lon="10.75620393327293"><ele>180.4</ele><time>2026-04-19T09:51:37Z</time></trkpt><trkpt lat="43.218387058348014" lon="10.756339896282844"><ele>180.0</ele><time>2026-04-19T09:51:38Z</time></trkpt><trkpt lat="43.21838814061667" lon="10.756488648583993"><ele>180.8</ele><time>2026-04-19T09:51:39Z</time></trkpt><trkpt lat="43.218400497333725" lon="10.756630707842179"><ele>181.6</ele><time>2026-04-19T09:51:40Z</time></trkpt><trkpt lat="43.21842058986155" lon="10.756767470400499"><ele>182.39999999999998</ele><time>2026-04-19T09:51:41Z</time></trkpt><trkpt lat="43.218419553461885" lon="10.756891972708551"><ele>183.2</ele><time>2026-04-19T09:51:42Z</time></trkpt><trkpt lat="43.21842673368592" lon="10.757014755890383"><ele>184.0</ele><time>2026-04-19T09:51:43Z</time></trkpt><trkpt lat="43.218435698607074" lon="10.75713706697625"><ele>184.5</ele><time>2026-04-19T09:51:44Z</time></trkpt><trkpt lat="43.218457053049434" lon="10.757250100892742"><ele>185.0</ele><time>2026-04-19T09:51:45Z</time></trkpt><trkpt lat="43.21849518479824" lon="10.757351027876252"><ele>185.5</ele><time>2026-04-19T09:51:46Z</time></trkpt><trkpt lat="43.218551469573384" lon="10.757439321801728"><ele>186.0</ele><time>2026-04-19T09:51:47Z</time></trkpt><trkpt lat="43.21860493708702" lon="10.7575064149692"><ele>186.5</ele><time>2026-04-19T09:51:48Z</time></trkpt><trkpt lat="43.21870442041577" lon="10.757576563434162"><ele>187.0</ele><time>2026-04-19T09:51:49Z</time></trkpt><trkpt lat="43.2187891940166" lon="10.7576098780177"><ele>187.0</ele><time>2026-04-19T09:51:50Z</time></trkpt><trkpt lat="43.218886210326346" lon="10.757625470671737"><ele>187.0</ele><time>2026-04-19T09:51:51Z</time></trkpt><trkpt lat="43.21898105008172" lon="10.757610930521986"><ele>187.0</ele><time>2026-04-19T09:51:52Z</time></trkpt><trkpt lat="43.219055447303084" lon="10.757633111997785"><ele>187.0</ele><time>2026-04-19T09:51:53Z</time></trkpt><trkpt lat="43.219125865271785" lon="10.757654143275062"><ele>187.0</ele><time>2026-04-19T09:51:54Z</time></trkpt><trkpt lat="43.219187559398115" lon="10.757686752289116"><ele>187.0</ele><time>2026-04-19T09:51:55Z</time></trkpt><trkpt lat="43.21922144734018" lon="10.757772518538202"><ele>188.0</ele><time>2026-04-19T09:51:56Z</time></trkpt><trkpt lat="43.21924200787896" lon="10.757880053679154"><ele>189.0</ele><time>2026-04-19T09:51:57Z</time></trkpt><trkpt lat="43.219262968823045" lon="10.75800794546555"><ele>190.0</ele><time>2026-04-19T09:51:58Z</time></trkpt><trkpt lat="43.21929122365629" lon="10.758152945539859"><ele>191.0</ele><time>2026-04-19T09:51:59Z</time></trkpt><trkpt lat="43.21932967521305" lon="10.758305830889515"><ele>192.0</ele><time>2026-04-19T09:52:00Z</time></trkpt><trkpt lat="43.21937140550359" lon="10.75847111087775"><ele>193.5</ele><time>2026-04-19T09:52:01Z</time></trkpt><trkpt lat="43.219418068371816" lon="10.75863970291504"><ele>195.0</ele><time>2026-04-19T09:52:02Z</time></trkpt><trkpt lat="43.219450526790304" lon="10.75880302921763"><ele>196.5</ele><time>2026-04-19T09:52:03Z</time></trkpt><trkpt lat="43.21948854014119" lon="10.758972047127576"><ele>198.0</ele><time>2026-04-19T09:52:04Z</time></trkpt><trkpt lat="43.21952378680042" lon="10.75911024651935"><ele>198.0</ele><time>2026-04-19T09:52:05Z</time></trkpt><trkpt lat="43.219555264318736" lon="10.759212180268417"><ele>198.0</ele><time>2026-04-19T09:52:06Z</time></trkpt><trkpt lat="43.21959262168653" lon="10.759294618135684"><ele>198.0</ele><time>2026-04-19T09:52:07Z</time></trkpt><trkpt lat="43.21965035500916" lon="10.75937482164229"><ele>198.0</ele><time>2026-04-19T09:52:08Z</time></trkpt><trkpt lat="43.219698211151545" lon="10.759461866140057"><ele>198.0</ele><time>2026-04-19T09:52:09Z</time></trkpt><trkpt lat="43.21977711820199" lon="10.75950565992539"><ele>198.0</ele><time>2026-04-19T09:52:10Z</time></trkpt><trkpt lat="43.21986535345153" lon="10.759509306463766"><ele>199.4</ele><time>2026-04-19T09:52:11Z</time></trkpt><trkpt lat="43.21996613800604" lon="10.759522502333265"><ele>200.8</ele><time>2026-04-19T09:52:12Z</time></trkpt><trkpt lat="43.22006293828509" lon="10.759527165807153"><ele>202.2</ele><time>2026-04-19T09:52:13Z</time></trkpt><trkpt lat="43.220158029319094" lon="10.759517966991575"><ele>203.6</ele><time>2026-04-19T09:52:14Z</time></trkpt><trkpt lat="43.220258514805586" lon="10.75953438611704"><ele>205.0</ele><time>2026-04-19T09:52:15Z</time></trkpt><trkpt lat="43.22036608694221" lon="10.759526678833433"><ele>205.0</ele><time>2026-04-19T09:52:16Z</time></trkpt><trkpt lat="43.220475033814516" lon="10.759518873039273"><ele>205.0</ele><time>2026-04-19T09:52:17Z</time></trkpt><trkpt lat="43.22058509108216" lon="10.759516579361012"><ele>205.0</ele><time>2026-04-19T09:52:18Z</time></trkpt><trkpt lat="43.2206943363866" lon="10.759515312143025"><ele>205.0</ele><time>2026-04-19T09:52:19Z</time></trkpt><trkpt lat="43.220793903405514" lon="10.759514157192292"><ele>205.0</ele><time>2026-04-19T09:52:20Z</time></trkpt><trkpt lat="43.22089164451951" lon="10.759513023420588"><ele>205.49999999999997</ele><time>2026-04-19T09:52:21Z</time></trkpt><trkpt lat="43.22098461936115" lon="10.759511944938351"><ele>206.0</ele><time>2026-04-19T09:52:22.001Z</time></trkpt><trkpt lat="43.22106105165551" lon="10.759488842238683"><ele>206.5</ele><time>2026-04-19T09:52:23.001Z</time></trkpt><trkpt lat="43.221173970056284" lon="10.759512279428266"><ele>207.0</ele><time>2026-04-19T09:52:25.001Z</time></trkpt><trkpt lat="43.22125101866148" lon="10.759523382892711"><ele>207.49999999999997</ele><time>2026-04-19T09:52:27.001Z</time></trkpt><trkpt lat="43.221315786134554" lon="10.759558993679217"><ele>208.0</ele><time>2026-04-19T09:52:30.001Z</time></trkpt><trkpt lat="43.22134165012161" lon="10.759688601772691"><ele>208.0</ele><time>2026-04-19T09:52:44.001Z</time></trkpt><trkpt lat="43.22127610360623" lon="10.759791185361472"><ele>208.0</ele><time>2026-04-19T09:52:46.001Z</time></trkpt><trkpt lat="43.221162310963265" lon="10.759830072768615"><ele>208.0</ele><time>2026-04-19T09:52:48.001Z</time></trkpt><trkpt lat="43.221100526875276" lon="10.75985752864612"><ele>208.0</ele><time>2026-04-19T09:52:49.001Z</time></trkpt><trkpt lat="43.22102141023681" lon="10.759871147879796"><ele>208.0</ele><time>2026-04-19T09:52:50.001Z</time></trkpt><trkpt lat="43.22093028795234" lon="10.759896491984234"><ele>208.0</ele><time>2026-04-19T09:52:51.001Z</time></trkpt><trkpt lat="43.220845399145134" lon="10.759923521031247"><ele>208.0</ele><time>2026-04-19T09:52:52.001Z</time></trkpt><trkpt lat="43.22076613315113" lon="10.759939738573603"><ele>208.0</ele><time>2026-04-19T09:52:53.001Z</time></trkpt><trkpt lat="43.22068156614244" lon="10.760002255974275"><ele>208.0</ele><time>2026-04-19T09:52:55.001Z</time></trkpt><trkpt lat="43.22058458438582" lon="10.76008706791578"><ele>208.0</ele><time>2026-04-19T09:52:57.001Z</time></trkpt><trkpt lat="43.2205372834808" lon="10.760228168840435"><ele>208.8</ele><time>2026-04-19T09:52:59.001Z</time></trkpt><trkpt lat="43.220508659914195" lon="10.76040774257715"><ele>209.60000000000002</ele><time>2026-04-19T09:53:01.001Z</time></trkpt><trkpt lat="43.22049695609751" lon="10.7605418836996"><ele>210.39999999999998</ele><time>2026-04-19T09:53:02.001Z</time></trkpt><trkpt lat="43.220487472619496" lon="10.760667072847886"><ele>211.2</ele><time>2026-04-19T09:53:03.001Z</time></trkpt><trkpt lat="43.22048684682144" lon="10.760806269880693"><ele>212.0</ele><time>2026-04-19T09:53:04.001Z</time></trkpt><trkpt lat="43.22048331226342" lon="10.760945094259052"><ele>214.0</ele><time>2026-04-19T09:53:05.001Z</time></trkpt><trkpt lat="43.220479507001826" lon="10.761077139916155"><ele>216.0</ele><time>2026-04-19T09:53:06.001Z</time></trkpt><trkpt lat="43.22048201006668" lon="10.761196079818442"><ele>218.0</ele><time>2026-04-19T09:53:07.001Z</time></trkpt><trkpt lat="43.22048780852334" lon="10.76133218156922"><ele>220.0</ele><time>2026-04-19T09:53:08.001Z</time></trkpt><trkpt lat="43.2204960265966" lon="10.761463951366673"><ele>222.0</ele><time>2026-04-19T09:53:09.001Z</time></trkpt><trkpt lat="43.22050004120209" lon="10.761593930034554"><ele>222.0</ele><time>2026-04-19T09:53:10Z</time></trkpt><trkpt lat="43.22049395969909" lon="10.761701410510112"><ele>222.0</ele><time>2026-04-19T09:53:11Z</time></trkpt><trkpt lat="43.22047094796873" lon="10.761787998819278"><ele>222.0</ele><time>2026-04-19T09:53:12Z</time></trkpt><trkpt lat="43.22043073786864" lon="10.761868731443212"><ele>222.0</ele><time>2026-04-19T09:53:13Z</time></trkpt><trkpt lat="43.22036105407556" lon="10.761906732690068"><ele>222.0</ele><time>2026-04-19T09:53:14Z</time></trkpt><trkpt lat="43.22029771480371" lon="10.761937620523963"><ele>222.0</ele><time>2026-04-19T09:53:15Z</time></trkpt><trkpt lat="43.22021916891181" lon="10.761979670875865"><ele>222.0</ele><time>2026-04-19T09:53:16Z</time></trkpt><trkpt lat="43.22013706374097" lon="10.762017152146525"><ele>221.8</ele><time>2026-04-19T09:53:17Z</time></trkpt><trkpt lat="43.22005765383825" lon="10.762072324663395"><ele>221.6</ele><time>2026-04-19T09:53:18Z</time></trkpt><trkpt lat="43.21997367722897" lon="10.762107532261052"><ele>221.40000000000003</ele><time>2026-04-19T09:53:19Z</time></trkpt><trkpt lat="43.21989236624567" lon="10.76214134573255"><ele>221.20000000000002</ele><time>2026-04-19T09:53:20Z</time></trkpt><trkpt lat="43.21978249183865" lon="10.762238107071116"><ele>221.0</ele><time>2026-04-19T09:53:22Z</time></trkpt><trkpt lat="43.21974113476476" lon="10.762313052276761"><ele>221.00000000000003</ele><time>2026-04-19T09:53:23Z</time></trkpt><trkpt lat="43.21969289495204" lon="10.762387191235659"><ele>221.0</ele><time>2026-04-19T09:53:24Z</time></trkpt><trkpt lat="43.21968682490598" lon="10.76250660639431"><ele>221.0</ele><time>2026-04-19T09:53:25Z</time></trkpt><trkpt lat="43.219656475787566" lon="10.762619064553007"><ele>221.0</ele><time>2026-04-19T09:53:26Z</time></trkpt><trkpt lat="43.219670312212415" lon="10.762735528581198"><ele>221.00000000000003</ele><time>2026-04-19T09:53:27Z</time></trkpt><trkpt lat="43.21969439321487" lon="10.762853484206953"><ele>221.0</ele><time>2026-04-19T09:53:28Z</time></trkpt><trkpt lat="43.21974336618578" lon="10.76295418279024"><ele>221.00000000000003</ele><time>2026-04-19T09:53:29Z</time></trkpt><trkpt lat="43.219769301269864" lon="10.76305452374167"><ele>221.0</ele><time>2026-04-19T09:53:30Z</time></trkpt><trkpt lat="43.219829936293394" lon="10.763144102333614"><ele>221.0</ele><time>2026-04-19T09:53:31Z</time></trkpt><trkpt lat="43.21990136423144" lon="10.76320215745237"><ele>221.0</ele><time>2026-04-19T09:53:32Z</time></trkpt><trkpt lat="43.2199980756856" lon="10.763231833218391"><ele>221.00000000000003</ele><time>2026-04-19T09:53:33Z</time></trkpt><trkpt lat="43.22009773406553" lon="10.76322808846439"><ele>221.0</ele><time>2026-04-19T09:53:34Z</time></trkpt><trkpt lat="43.22019977771992" lon="10.763258274437112"><ele>223.4</ele><time>2026-04-19T09:53:35Z</time></trkpt><trkpt lat="43.220313151589984" lon="10.763266619056939"><ele>225.8</ele><time>2026-04-19T09:53:36Z</time></trkpt><trkpt lat="43.22042085057165" lon="10.763274546003911"><ele>228.20000000000002</ele><time>2026-04-19T09:53:37Z</time></trkpt><trkpt lat="43.22053797235687" lon="10.763283166492457"><ele>230.60000000000002</ele><time>2026-04-19T09:53:38Z</time></trkpt><trkpt lat="43.22064335717192" lon="10.763291924558093"><ele>233.0</ele><time>2026-04-19T09:53:39Z</time></trkpt><trkpt lat="43.220742010753334" lon="10.763300131050848"><ele>235.2</ele><time>2026-04-19T09:53:40Z</time></trkpt><trkpt lat="43.22083913217054" lon="10.763311291930647"><ele>237.4</ele><time>2026-04-19T09:53:41Z</time></trkpt><trkpt lat="43.220940587855765" lon="10.763323857081655"><ele>239.59999999999997</ele><time>2026-04-19T09:53:42Z</time></trkpt><trkpt lat="43.221032547791516" lon="10.763332724208789"><ele>241.79999999999998</ele><time>2026-04-19T09:53:43Z</time></trkpt><trkpt lat="43.22113142052792" lon="10.763340328817966"><ele>244.0</ele><time>2026-04-19T09:53:44Z</time></trkpt><trkpt lat="43.22122915792508" lon="10.763340822968287"><ele>244.0</ele><time>2026-04-19T09:53:45Z</time></trkpt><trkpt lat="43.22132255047063" lon="10.763330606544669"><ele>243.99999999999997</ele><time>2026-04-19T09:53:46Z</time></trkpt><trkpt lat="43.221412617136096" lon="10.763329212146035"><ele>243.99999999999997</ele><time>2026-04-19T09:53:47Z</time></trkpt><trkpt lat="43.22150100473792" lon="10.763351870112075"><ele>244.0</ele><time>2026-04-19T09:53:48Z</time></trkpt><trkpt lat="43.2216044499113" lon="10.763336467287443"><ele>244.0</ele><time>2026-04-19T09:53:49Z</time></trkpt><trkpt lat="43.221697360397876" lon="10.763348250125707"><ele>245.6</ele><time>2026-04-19T09:53:50Z</time></trkpt><trkpt lat="43.22178903716639" lon="10.763344471456834"><ele>247.2</ele><time>2026-04-19T09:53:51Z</time></trkpt><trkpt lat="43.22187260250319" lon="10.763353626082347"><ele>248.79999999999998</ele><time>2026-04-19T09:53:52Z</time></trkpt><trkpt lat="43.2219525295127" lon="10.763362090504973"><ele>250.39999999999998</ele><time>2026-04-19T09:53:53Z</time></trkpt><trkpt lat="43.222026256043875" lon="10.763398814722109"><ele>252.0</ele><time>2026-04-19T09:53:54Z</time></trkpt><trkpt lat="43.2221599781192" lon="10.763455404361547"><ele>252.0</ele><time>2026-04-19T09:53:56Z</time></trkpt><trkpt lat="43.22223779964212" lon="10.763494267168895"><ele>252.0</ele><time>2026-04-19T09:53:57Z</time></trkpt><trkpt lat="43.22232774148279" lon="10.763528201383483"><ele>252.0</ele><time>2026-04-19T09:53:58Z</time></trkpt><trkpt lat="43.2224030738257" lon="10.763581313826904"><ele>252.0</ele><time>2026-04-19T09:53:59Z</time></trkpt><trkpt lat="43.22247414917197" lon="10.76363240269015"><ele>252.0</ele><time>2026-04-19T09:54:00Z</time></trkpt><trkpt lat="43.22254795917956" lon="10.763650409756476"><ele>252.0</ele><time>2026-04-19T09:54:01Z</time></trkpt><trkpt lat="43.22261680903881" lon="10.763677572601367"><ele>253.0</ele><time>2026-04-19T09:54:02Z</time></trkpt><trkpt lat="43.22269416513412" lon="10.763635898011545"><ele>254.0</ele><time>2026-04-19T09:54:03Z</time></trkpt><trkpt lat="43.22276793651878" lon="10.76356673947943"><ele>255.0</ele><time>2026-04-19T09:54:04Z</time></trkpt><trkpt lat="43.22284094409291" lon="10.763485950118675"><ele>256.0</ele><time>2026-04-19T09:54:05Z</time></trkpt><trkpt lat="43.22291878190908" lon="10.763395995929024"><ele>257.0</ele><time>2026-04-19T09:54:06Z</time></trkpt><trkpt lat="43.223000185533955" lon="10.76332037627982"><ele>257.0</ele><time>2026-04-19T09:54:07Z</time></trkpt><trkpt lat="43.223078924652064" lon="10.763247991587553"><ele>257.0</ele><time>2026-04-19T09:54:08Z</time></trkpt><trkpt lat="43.22315637405556" lon="10.763173641593422"><ele>257.0</ele><time>2026-04-19T09:54:09Z</time></trkpt><trkpt lat="43.223228523604874" lon="10.763100154515486"><ele>257.0</ele><time>2026-04-19T09:54:10Z</time></trkpt><trkpt lat="43.22329011949943" lon="10.763014971328925"><ele>257.0</ele><time>2026-04-19T09:54:11Z</time></trkpt><trkpt lat="43.22332946980589" lon="10.762920106137438"><ele>257.0</ele><time>2026-04-19T09:54:12Z</time></trkpt><trkpt lat="43.22338198613271" lon="10.762832388988821"><ele>260.6</ele><time>2026-04-19T09:54:13Z</time></trkpt><trkpt lat="43.22349985738708" lon="10.762739078174315"><ele>264.2</ele><time>2026-04-19T09:54:15Z</time></trkpt><trkpt lat="43.223617409944396" lon="10.762721627962234"><ele>267.8</ele><time>2026-04-19T09:54:17.001Z</time></trkpt><trkpt lat="43.22373146410417" lon="10.762740505224984"><ele>271.4</ele><time>2026-04-19T09:54:19.001Z</time></trkpt><trkpt lat="43.22379992959145" lon="10.762767614133402"><ele>275.0</ele><time>2026-04-19T09:54:20.001Z</time></trkpt><trkpt lat="43.223911055511735" lon="10.762791365624196"><ele>277.83333333333337</ele><time>2026-04-19T09:54:22.001Z</time></trkpt><trkpt lat="43.22398423184092" lon="10.76277607761318"><ele>280.6666666666667</ele><time>2026-04-19T09:54:23.001Z</time></trkpt><trkpt lat="43.2240645922062" lon="10.762807931021449"><ele>283.5</ele><time>2026-04-19T09:54:24.001Z</time></trkpt><trkpt lat="43.2241337061436" lon="10.762844448066023"><ele>286.3333333333333</ele><time>2026-04-19T09:54:25.001Z</time></trkpt><trkpt lat="43.22420210719364" lon="10.762864842317322"><ele>289.16666666666663</ele><time>2026-04-19T09:54:26.001Z</time></trkpt><trkpt lat="43.22427030886592" lon="10.762879908117652"><ele>292.0</ele><time>2026-04-19T09:54:27.001Z</time></trkpt><trkpt lat="43.2243590383002" lon="10.762906094879638"><ele>292.0</ele><time>2026-04-19T09:54:28.001Z</time></trkpt><trkpt lat="43.22444676256373" lon="10.762929890824227"><ele>292.0</ele><time>2026-04-19T09:54:29.001Z</time></trkpt><trkpt lat="43.22453239799534" lon="10.762943680780012"><ele>292.0</ele><time>2026-04-19T09:54:30.001Z</time></trkpt><trkpt lat="43.224610761450975" lon="10.76295140496399"><ele>292.0</ele><time>2026-04-19T09:54:31.001Z</time></trkpt><trkpt lat="43.22468638325466" lon="10.762956537340392"><ele>292.0</ele><time>2026-04-19T09:54:32.001Z</time></trkpt><trkpt lat="43.224815966588515" lon="10.763004238664504"><ele>293.16666666666663</ele><time>2026-04-19T09:54:34.001Z</time></trkpt><trkpt lat="43.22488999962879" lon="10.763023089670556"><ele>294.3333333333333</ele><time>2026-04-19T09:54:35.001Z</time></trkpt><trkpt lat="43.22497591757395" lon="10.763039456573425"><ele>295.5</ele><time>2026-04-19T09:54:36.001Z</time></trkpt><trkpt lat="43.22505767363022" lon="10.763073900537114"><ele>296.6666666666667</ele><time>2026-04-19T09:54:37.001Z</time></trkpt><trkpt lat="43.22512452147636" lon="10.763103610379542"><ele>297.83333333333337</ele><time>2026-04-19T09:54:38.001Z</time></trkpt><trkpt lat="43.225207341697036" lon="10.763118071632551"><ele>299.0</ele><time>2026-04-19T09:54:39.001Z</time></trkpt><trkpt lat="43.22528447261596" lon="10.763138344196372"><ele>299.0</ele><time>2026-04-19T09:54:40.001Z</time></trkpt><trkpt lat="43.22535820326413" lon="10.763158289651308"><ele>299.0</ele><time>2026-04-19T09:54:41.001Z</time></trkpt><trkpt lat="43.225425237298715" lon="10.763188813389235"><ele>299.0</ele><time>2026-04-19T09:54:42.001Z</time></trkpt><trkpt lat="43.22549718677002" lon="10.763240874790318"><ele>299.0</ele><time>2026-04-19T09:54:43.001Z</time></trkpt><trkpt lat="43.225583143950566" lon="10.763264854837212"><ele>299.0</ele><time>2026-04-19T09:54:44.001Z</time></trkpt><trkpt lat="43.225655242960926" lon="10.763316729129455"><ele>299.0</ele><time>2026-04-19T09:54:45.001Z</time></trkpt><trkpt lat="43.22572802752649" lon="10.763381885597175"><ele>298.0</ele><time>2026-04-19T09:54:46.001Z</time></trkpt><trkpt lat="43.22578899684696" lon="10.763439479113035"><ele>297.0</ele><time>2026-04-19T09:54:47.001Z</time></trkpt><trkpt lat="43.22586104574021" lon="10.763518766695507"><ele>296.0</ele><time>2026-04-19T09:54:49.001Z</time></trkpt><trkpt lat="43.22586152705027" lon="10.763651128460472"><ele>295.0</ele><time>2026-04-19T09:54:51.001Z</time></trkpt><trkpt lat="43.22573470961328" lon="10.763654764817062"><ele>294.0</ele><time>2026-04-19T09:54:53.001Z</time></trkpt><trkpt lat="43.22568596772937" lon="10.763579841927244"><ele>295.0</ele><time>2026-04-19T09:54:54.001Z</time></trkpt><trkpt lat="43.225607591551814" lon="10.763523011501336"><ele>296.0</ele><time>2026-04-19T09:54:55.001Z</time></trkpt><trkpt lat="43.22551942471494" lon="10.763438757082804"><ele>297.0</ele><time>2026-04-19T09:54:56.001Z</time></trkpt><trkpt lat="43.22540802722839" lon="10.763373089523997"><ele>298.0</ele><time>2026-04-19T09:54:57.001Z</time></trkpt><trkpt lat="43.22529684245977" lon="10.763344277438964"><ele>299.0</ele><time>2026-04-19T09:54:58.001Z</time></trkpt><trkpt lat="43.225207599031506" lon="10.763318055721749"><ele>299.0</ele><time>2026-04-19T09:54:59.001Z</time></trkpt><trkpt lat="43.225127444587436" lon="10.763293208988074"><ele>299.0</ele><time>2026-04-19T09:55:00.001Z</time></trkpt><trkpt lat="43.22504188259635" lon="10.76328664916304"><ele>299.0</ele><time>2026-04-19T09:55:01.001Z</time></trkpt><trkpt lat="43.22496426647796" lon="10.76330988071942"><ele>299.0</ele><time>2026-04-19T09:55:02.001Z</time></trkpt><trkpt lat="43.224885469929376" lon="10.763373362177996"><ele>299.0</ele><time>2026-04-19T09:55:03.001Z</time></trkpt><trkpt lat="43.224778521815324" lon="10.763407935955131"><ele>299.0</ele><time>2026-04-19T09:55:04.001Z</time></trkpt><trkpt lat="43.22467795556702" lon="10.763432534868382"><ele>297.59999999999997</ele><time>2026-04-19T09:55:05.001Z</time></trkpt><trkpt lat="43.22459991120525" lon="10.76344342402605"><ele>296.2</ele><time>2026-04-19T09:55:06.001Z</time></trkpt><trkpt lat="43.224487835220366" lon="10.763482975266362"><ele>294.79999999999995</ele><time>2026-04-19T09:55:08.001Z</time></trkpt><trkpt lat="43.224422739751795" lon="10.76363893432001"><ele>293.4</ele><time>2026-04-19T09:55:10.001Z</time></trkpt><trkpt lat="43.22442498789661" lon="10.763735036318822"><ele>292.0</ele><time>2026-04-19T09:55:11.001Z</time></trkpt><trkpt lat="43.224422263609426" lon="10.763840078835216"><ele>294.8</ele><time>2026-04-19T09:55:12.001Z</time></trkpt><trkpt lat="43.22439916019951" lon="10.764003995622096"><ele>297.6</ele><time>2026-04-19T09:55:14.001Z</time></trkpt><trkpt lat="43.22437760450318" lon="10.764088586848818"><ele>300.40000000000003</ele><time>2026-04-19T09:55:15.001Z</time></trkpt><trkpt lat="43.22433161254291" lon="10.764237114912696"><ele>303.2</ele><time>2026-04-19T09:55:17.001Z</time></trkpt><trkpt lat="43.22424529005045" lon="10.764336045444745"><ele>306.0</ele><time>2026-04-19T09:55:19.001Z</time></trkpt><trkpt lat="43.2241516347058" lon="10.76442996484862"><ele>305.0</ele><time>2026-04-19T09:55:21.001Z</time></trkpt><trkpt lat="43.22405829679923" lon="10.76448690988114"><ele>304.0</ele><time>2026-04-19T09:55:23Z</time></trkpt><trkpt lat="43.2239808346613" lon="10.764596055778263"><ele>303.0</ele><time>2026-04-19T09:55:25Z</time></trkpt><trkpt lat="43.22396446128044" lon="10.76468111056578"><ele>302.0</ele><time>2026-04-19T09:55:26Z</time></trkpt><trkpt lat="43.22395392434733" lon="10.76477857570782"><ele>301.0</ele><time>2026-04-19T09:55:27Z</time></trkpt><trkpt lat="43.22397082975005" lon="10.764888743705782"><ele>300.0</ele><time>2026-04-19T09:55:28Z</time></trkpt><trkpt lat="43.22399863999394" lon="10.765001973235709"><ele>302.1666666666667</ele><time>2026-04-19T09:55:29Z</time></trkpt><trkpt lat="43.22404517273658" lon="10.76508572928133"><ele>304.3333333333333</ele><time>2026-04-19T09:55:30Z</time></trkpt><trkpt lat="43.224078308872485" lon="10.765172220849472"><ele>306.5</ele><time>2026-04-19T09:55:31Z</time></trkpt><trkpt lat="43.22411422134476" lon="10.765257911777542"><ele>308.66666666666663</ele><time>2026-04-19T09:55:32Z</time></trkpt><trkpt lat="43.22414079563347" lon="10.765342447080593"><ele>310.8333333333333</ele><time>2026-04-19T09:55:33Z</time></trkpt><trkpt lat="43.224161264824765" lon="10.765505963118352"><ele>313.0</ele><time>2026-04-19T09:55:35Z</time></trkpt><trkpt lat="43.22412850842576" lon="10.765670397125673"><ele>312.5</ele><time>2026-04-19T09:55:37Z</time></trkpt><trkpt lat="43.224039112925766" lon="10.76576325491327"><ele>312.0</ele><time>2026-04-19T09:55:39Z</time></trkpt><trkpt lat="43.22397746195586" lon="10.765807445796353"><ele>311.5</ele><time>2026-04-19T09:55:40Z</time></trkpt><trkpt lat="43.223925761259146" lon="10.765869390174764"><ele>311.0</ele><time>2026-04-19T09:55:41Z</time></trkpt><trkpt lat="43.22387139840182" lon="10.765932521259078"><ele>310.5</ele><time>2026-04-19T09:55:42Z</time></trkpt><trkpt lat="43.22382228444736" lon="10.765994254438342"><ele>310.0</ele><time>2026-04-19T09:55:43Z</time></trkpt><trkpt lat="43.223791583640555" lon="10.766085244202609"><ele>312.4</ele><time>2026-04-19T09:55:44Z</time></trkpt><trkpt lat="43.223740848158585" lon="10.76614727807821"><ele>314.8</ele><time>2026-04-19T09:55:45Z</time></trkpt><trkpt lat="43.22361260017847" lon="10.766200376583996"><ele>317.20000000000005</ele><time>2026-04-19T09:55:47.001Z</time></trkpt><trkpt lat="43.22351564857502" lon="10.766206355990242"><ele>319.6</ele><time>2026-04-19T09:55:48.001Z</time></trkpt><trkpt lat="43.22344570198666" lon="10.76624148667705"><ele>322.0</ele><time>2026-04-19T09:55:49.001Z</time></trkpt><trkpt lat="43.22336771811443" lon="10.766296217417777"><ele>322.0</ele><time>2026-04-19T09:55:50.001Z</time></trkpt><trkpt lat="43.22329057040696" lon="10.766383973624286"><ele>322.0</ele><time>2026-04-19T09:55:51.001Z</time></trkpt><trkpt lat="43.22320965738579" lon="10.766486796580898"><ele>322.0</ele><time>2026-04-19T09:55:52.001Z</time></trkpt><trkpt lat="43.223129431946525" lon="10.766601649627622"><ele>322.0</ele><time>2026-04-19T09:55:53.001Z</time></trkpt><trkpt lat="43.223072731288" lon="10.7666960274048"><ele>322.0</ele><time>2026-04-19T09:55:54.001Z</time></trkpt><trkpt lat="43.2230313448086" lon="10.766780313904372"><ele>322.66666666666663</ele><time>2026-04-19T09:55:55.001Z</time></trkpt><trkpt lat="43.22297285736201" lon="10.766914641525306"><ele>323.3333333333333</ele><time>2026-04-19T09:55:57.001Z</time></trkpt><trkpt lat="43.22296585949471" lon="10.767049092913224"><ele>324.0</ele><time>2026-04-19T09:55:59.001Z</time></trkpt><trkpt lat="43.22301849040728" lon="10.767113444018735"><ele>324.6666666666667</ele><time>2026-04-19T09:56:54.001Z</time></trkpt><trkpt lat="43.223094703693434" lon="10.767090518355692"><ele>325.33333333333337</ele><time>2026-04-19T09:56:56.001Z</time></trkpt><trkpt lat="43.223155862219535" lon="10.767069546265025"><ele>326.0</ele><time>2026-04-19T09:56:57.001Z</time></trkpt><trkpt lat="43.223249746461725" lon="10.76701367413892"><ele>326.0</ele><time>2026-04-19T09:56:59.001Z</time></trkpt><trkpt lat="43.22335445442862" lon="10.76705940036044"><ele>326.0</ele><time>2026-04-19T09:57:01.001Z</time></trkpt><trkpt lat="43.223443888363896" lon="10.767177326330463"><ele>326.0</ele><time>2026-04-19T09:57:03.001Z</time></trkpt><trkpt lat="43.223490882255135" lon="10.767253280378965"><ele>326.0</ele><time>2026-04-19T09:57:04.001Z</time></trkpt><trkpt lat="43.22354019593501" lon="10.767332766460632"><ele>326.0</ele><time>2026-04-19T09:57:05.001Z</time></trkpt><trkpt lat="43.22358659576788" lon="10.767404506704194"><ele>326.0</ele><time>2026-04-19T09:57:06.001Z</time></trkpt><trkpt lat="43.2236366237572" lon="10.76748549378969"><ele>326.0</ele><time>2026-04-19T09:57:07.001Z</time></trkpt><trkpt lat="43.223691861535286" lon="10.767564190086027"><ele>326.0</ele><time>2026-04-19T09:57:08.001Z</time></trkpt><trkpt lat="43.22375013122282" lon="10.767637268711319"><ele>326.0</ele><time>2026-04-19T09:57:09.001Z</time></trkpt><trkpt lat="43.22380319182119" lon="10.767708652846565"><ele>326.0</ele><time>2026-04-19T09:57:10.001Z</time></trkpt><trkpt lat="43.22385787774339" lon="10.767784726988173"><ele>326.0</ele><time>2026-04-19T09:57:11.001Z</time></trkpt><trkpt lat="43.223897905531665" lon="10.767856739905875"><ele>326.0</ele><time>2026-04-19T09:57:12.001Z</time></trkpt><trkpt lat="43.22392823918483" lon="10.767934627247838"><ele>326.0</ele><time>2026-04-19T09:57:13.001Z</time></trkpt><trkpt lat="43.22395296635292" lon="10.768032758671259"><ele>326.0</ele><time>2026-04-19T09:57:14.001Z</time></trkpt><trkpt lat="43.223962782425744" lon="10.76813980572646"><ele>326.0</ele><time>2026-04-19T09:57:15.001Z</time></trkpt><trkpt lat="43.22396756216931" lon="10.768250140773189"><ele>326.0</ele><time>2026-04-19T09:57:16.001Z</time></trkpt><trkpt lat="43.22397656348062" lon="10.76835103785522"><ele>326.0</ele><time>2026-04-19T09:57:17.001Z</time></trkpt><trkpt lat="43.223979289024975" lon="10.768456920664873"><ele>327.1666666666667</ele><time>2026-04-19T09:57:18.001Z</time></trkpt><trkpt lat="43.22398805781642" lon="10.768569984316974"><ele>328.33333333333337</ele><time>2026-04-19T09:57:19.001Z</time></trkpt><trkpt lat="43.22398844117711" lon="10.768669072529057"><ele>329.5</ele><time>2026-04-19T09:57:20.001Z</time></trkpt><trkpt lat="43.22397557906335" lon="10.768803495742942"><ele>330.6666666666667</ele><time>2026-04-19T09:57:22.001Z</time></trkpt><trkpt lat="43.22396467821415" lon="10.76892121898763"><ele>331.8333333333333</ele><time>2026-04-19T09:57:25.001Z</time></trkpt><trkpt lat="43.22392049860522" lon="10.769054946946776"><ele>333.0</ele><time>2026-04-19T09:57:27.001Z</time></trkpt><trkpt lat="43.22390394577755" lon="10.769145627772257"><ele>333.0</ele><time>2026-04-19T09:57:28.001Z</time></trkpt><trkpt lat="43.22385404697273" lon="10.76927839968015"><ele>333.0</ele><time>2026-04-19T09:57:30.001Z</time></trkpt><trkpt lat="43.22383739604564" lon="10.769377484722167"><ele>333.0</ele><time>2026-04-19T09:57:32.001Z</time></trkpt><trkpt lat="43.22390903919867" lon="10.76944163664967"><ele>333.0</ele><time>2026-04-19T09:57:34.001Z</time></trkpt><trkpt lat="43.223976803603314" lon="10.769332509136758"><ele>333.0</ele><time>2026-04-19T09:57:36.001Z</time></trkpt><trkpt lat="43.22404529925829" lon="10.769219613428527"><ele>336.59999999999997</ele><time>2026-04-19T09:57:38.001Z</time></trkpt><trkpt lat="43.224111252462215" lon="10.769097224456889"><ele>340.2</ele><time>2026-04-19T09:57:40.001Z</time></trkpt><trkpt lat="43.22420745326684" lon="10.76903812790938"><ele>343.8</ele><time>2026-04-19T09:57:42.001Z</time></trkpt><trkpt lat="43.2243105450715" lon="10.769000494854563"><ele>347.4</ele><time>2026-04-19T09:57:44.001Z</time></trkpt><trkpt lat="43.224408101927374" lon="10.76904341778222"><ele>351.0</ele><time>2026-04-19T09:57:46.001Z</time></trkpt><trkpt lat="43.224506633426394" lon="10.76904422138587"><ele>351.0</ele><time>2026-04-19T09:57:48.001Z</time></trkpt><trkpt lat="43.22459574234231" lon="10.76908890807153"><ele>351.0</ele><time>2026-04-19T09:57:50.001Z</time></trkpt><trkpt lat="43.22465974100601" lon="10.769099189718874"><ele>351.0</ele><time>2026-04-19T09:57:52.001Z</time></trkpt><trkpt lat="43.22464723578191" lon="10.769203153890162"><ele>351.0</ele><time>2026-04-19T09:57:55.001Z</time></trkpt><trkpt lat="43.22455864603533" lon="10.76920737631922"><ele>351.0</ele><time>2026-04-19T09:57:57.001Z</time></trkpt><trkpt lat="43.224496133279324" lon="10.769229279151649"><ele>351.0</ele><time>2026-04-19T09:57:58.001Z</time></trkpt><trkpt lat="43.22440160123403" lon="10.769278439661669"><ele>351.0</ele><time>2026-04-19T09:58:00.001Z</time></trkpt><trkpt lat="43.22430167935362" lon="10.769353422946184"><ele>351.0</ele><time>2026-04-19T09:58:02.001Z</time></trkpt><trkpt lat="43.22427356007565" lon="10.769509036750302"><ele>351.0</ele><time>2026-04-19T09:58:04.001Z</time></trkpt><trkpt lat="43.22427393470983" lon="10.769596532753395"><ele>351.0</ele><time>2026-04-19T09:58:05.001Z</time></trkpt><trkpt lat="43.224316164432025" lon="10.769738339576953"><ele>351.0</ele><time>2026-04-19T09:58:07.001Z</time></trkpt><trkpt lat="43.22437233417752" lon="10.769864682801305"><ele>353.0</ele><time>2026-04-19T09:58:09.001Z</time></trkpt><trkpt lat="43.22445602493035" lon="10.769928885632057"><ele>355.0</ele><time>2026-04-19T09:58:11.001Z</time></trkpt><trkpt lat="43.22454984259532" lon="10.769972916900787"><ele>357.0</ele><time>2026-04-19T09:58:13.001Z</time></trkpt><trkpt lat="43.2246516801557" lon="10.769966073258285"><ele>359.0</ele><time>2026-04-19T09:58:15.001Z</time></trkpt><trkpt lat="43.22473053032153" lon="10.769874220874623"><ele>361.0</ele><time>2026-04-19T09:58:17.001Z</time></trkpt><trkpt lat="43.2247858873681" lon="10.76982467751439"><ele>363.3333333333333</ele><time>2026-04-19T09:58:18.001Z</time></trkpt><trkpt lat="43.22483622199132" lon="10.769746963143813"><ele>365.66666666666663</ele><time>2026-04-19T09:58:19.001Z</time></trkpt><trkpt lat="43.224881025290784" lon="10.769662935742005"><ele>368.0</ele><time>2026-04-19T09:58:20.001Z</time></trkpt><trkpt lat="43.224928040866125" lon="10.769516597567106"><ele>370.3333333333333</ele><time>2026-04-19T09:58:22.001Z</time></trkpt><trkpt lat="43.22498615526646" lon="10.76946654147313"><ele>372.6666666666667</ele><time>2026-04-19T09:58:24.001Z</time></trkpt><trkpt lat="43.22505145220465" lon="10.769495399799522"><ele>375.0</ele><time>2026-04-19T09:58:27.001Z</time></trkpt><trkpt lat="43.225029734507714" lon="10.769576851816527"><ele>375.0</ele><time>2026-04-19T09:58:28.001Z</time></trkpt><trkpt lat="43.22496951863715" lon="10.769715657744953"><ele>375.0</ele><time>2026-04-19T09:58:30.001Z</time></trkpt><trkpt lat="43.224948723328644" lon="10.769848622199461"><ele>375.0</ele><time>2026-04-19T09:58:32.001Z</time></trkpt><trkpt lat="43.2249486672592" lon="10.769950585293644"><ele>375.0</ele><time>2026-04-19T09:58:34.001Z</time></trkpt><trkpt lat="43.22501493320738" lon="10.769985452460379"><ele>375.0</ele><time>2026-04-19T09:58:36.001Z</time></trkpt><trkpt lat="43.2250742208841" lon="10.76994188587218"><ele>375.0</ele><time>2026-04-19T09:58:38.001Z</time></trkpt><trkpt lat="43.22507113677944" lon="10.769838608394418"><ele>375.0</ele><time>2026-04-19T09:58:39.001Z</time></trkpt><trkpt lat="43.22508032794948" lon="10.769744285751251"><ele>375.0</ele><time>2026-04-19T09:58:40.001Z</time></trkpt><trkpt lat="43.22511115814788" lon="10.769668468579754"><ele>375.0</ele><time>2026-04-19T09:58:41.001Z</time></trkpt><trkpt lat="43.22517940535447" lon="10.769600172657315"><ele>375.0</ele><time>2026-04-19T09:58:43.001Z</time></trkpt><trkpt lat="43.2252549189911" lon="10.769489479116542"><ele>375.0</ele><time>2026-04-19T09:58:45.001Z</time></trkpt><trkpt lat="43.22530798800139" lon="10.769347366373218"><ele>375.0</ele><time>2026-04-19T09:58:47.001Z</time></trkpt><trkpt lat="43.22531851362312" lon="10.76925816506245"><ele>373.8333333333333</ele><time>2026-04-19T09:58:48.001Z</time></trkpt><trkpt lat="43.22534074924035" lon="10.769171222725726"><ele>372.6666666666667</ele><time>2026-04-19T09:58:49.001Z</time></trkpt><trkpt lat="43.225349392045445" lon="10.7690088010465"><ele>371.5</ele><time>2026-04-19T09:58:51.001Z</time></trkpt><trkpt lat="43.22537337021816" lon="10.768924681402885"><ele>370.33333333333337</ele><time>2026-04-19T09:58:52.001Z</time></trkpt><trkpt lat="43.22544179850476" lon="10.768799105715896"><ele>369.1666666666667</ele><time>2026-04-19T09:58:54.001Z</time></trkpt><trkpt lat="43.22549171184842" lon="10.76874581049259"><ele>368.0</ele><time>2026-04-19T09:58:55.001Z</time></trkpt><trkpt lat="43.22559331258098" lon="10.768698771331685"><ele>371.2</ele><time>2026-04-19T09:58:57.001Z</time></trkpt><trkpt lat="43.2256898437532" lon="10.768749664987205"><ele>374.4</ele><time>2026-04-19T09:58:59.001Z</time></trkpt><trkpt lat="43.22574839253356" lon="10.76886848862366"><ele>377.59999999999997</ele><time>2026-04-19T09:59:01.001Z</time></trkpt><trkpt lat="43.22577368732963" lon="10.769025490447667"><ele>380.79999999999995</ele><time>2026-04-19T09:59:03.001Z</time></trkpt><trkpt lat="43.22577760052035" lon="10.769184189658077"><ele>384.0</ele><time>2026-04-19T09:59:05.001Z</time></trkpt><trkpt lat="43.225780943081624" lon="10.76935440294347"><ele>385.4</ele><time>2026-04-19T09:59:07.001Z</time></trkpt><trkpt lat="43.2257976148912" lon="10.76950998093375"><ele>386.79999999999995</ele><time>2026-04-19T09:59:09.001Z</time></trkpt><trkpt lat="43.22581706404842" lon="10.769679059313184"><ele>388.20000000000005</ele><time>2026-04-19T09:59:11.001Z</time></trkpt><trkpt lat="43.225852914618315" lon="10.769761454965773"><ele>389.6</ele><time>2026-04-19T09:59:12.001Z</time></trkpt><trkpt lat="43.225876817882934" lon="10.769925670101184"><ele>391.0</ele><time>2026-04-19T09:59:14.001Z</time></trkpt><trkpt lat="43.22590415701707" lon="10.770083945187455"><ele>391.0</ele><time>2026-04-19T09:59:16.001Z</time></trkpt><trkpt lat="43.22590876285449" lon="10.770173752208526"><ele>391.0</ele><time>2026-04-19T09:59:17.001Z</time></trkpt><trkpt lat="43.22589617755405" lon="10.770346548161752"><ele>391.0</ele><time>2026-04-19T09:59:19.001Z</time></trkpt><trkpt lat="43.22583520020221" lon="10.770483599259983"><ele>391.0</ele><time>2026-04-19T09:59:21.001Z</time></trkpt><trkpt lat="43.22580113053013" lon="10.770556886386869"><ele>391.0</ele><time>2026-04-19T09:59:22.001Z</time></trkpt><trkpt lat="43.22572863265177" lon="10.770705995707496"><ele>389.75</ele><time>2026-04-19T09:59:24.001Z</time></trkpt><trkpt lat="43.2256450883615" lon="10.770837885359787"><ele>388.5</ele><time>2026-04-19T09:59:26.001Z</time></trkpt><trkpt lat="43.22556767760494" lon="10.770960933678403"><ele>387.25</ele><time>2026-04-19T09:59:28.001Z</time></trkpt><trkpt lat="43.225521700627844" lon="10.771108823868877"><ele>386.0</ele><time>2026-04-19T09:59:30.001Z</time></trkpt><trkpt lat="43.225493714881424" lon="10.771283806048931"><ele>387.42857142857144</ele><time>2026-04-19T09:59:32.001Z</time></trkpt><trkpt lat="43.22548906379867" lon="10.771378810345205"><ele>388.8571428571429</ele><time>2026-04-19T09:59:33.001Z</time></trkpt><trkpt lat="43.22549177436934" lon="10.771468279625402"><ele>390.28571428571433</ele><time>2026-04-19T09:59:34.001Z</time></trkpt><trkpt lat="43.22548678083095" lon="10.771555930726555"><ele>391.7142857142857</ele><time>2026-04-19T09:59:35.001Z</time></trkpt><trkpt lat="43.22545459011427" lon="10.771637281198341"><ele>393.1428571428571</ele><time>2026-04-19T09:59:36.001Z</time></trkpt><trkpt lat="43.225402967271215" lon="10.77171816442403"><ele>394.5714285714286</ele><time>2026-04-19T09:59:37.001Z</time></trkpt><trkpt lat="43.22530863839167" lon="10.771756630868392"><ele>396.0</ele><time>2026-04-19T09:59:38.001Z</time></trkpt><trkpt lat="43.22522389908443" lon="10.771959893184027"><ele>397.6666666666667</ele><time>2026-04-19T09:59:41.001Z</time></trkpt><trkpt lat="43.22521043425907" lon="10.772100910796384"><ele>399.33333333333337</ele><time>2026-04-19T09:59:43.001Z</time></trkpt><trkpt lat="43.22520969066121" lon="10.77220686144782"><ele>401.0</ele><time>2026-04-19T09:59:45.001Z</time></trkpt><trkpt lat="43.22523451689391" lon="10.77231309123817"><ele>402.6666666666667</ele><time>2026-04-19T09:59:47Z</time></trkpt><trkpt lat="43.22524197114553" lon="10.772399126073452"><ele>404.33333333333337</ele><time>2026-04-19T09:59:48Z</time></trkpt><trkpt lat="43.22521205913608" lon="10.77251767286874"><ele>406.0</ele><time>2026-04-19T09:59:50Z</time></trkpt><trkpt lat="43.22515889131198" lon="10.77265247956447"><ele>407.50000000000006</ele><time>2026-04-19T09:59:52Z</time></trkpt><trkpt lat="43.22510275868389" lon="10.77269330320868"><ele>409.0</ele><time>2026-04-19T09:59:53Z</time></trkpt><trkpt lat="43.225042496748834" lon="10.772754375740131"><ele>410.5</ele><time>2026-04-19T09:59:54Z</time></trkpt><trkpt lat="43.22498800149547" lon="10.772826865342337"><ele>412.0</ele><time>2026-04-19T09:59:55Z</time></trkpt><trkpt lat="43.224919666546626" lon="10.772900872983566"><ele>413.50000000000006</ele><time>2026-04-19T09:59:56Z</time></trkpt><trkpt lat="43.22486537098399" lon="10.77297676105758"><ele>415.0</ele><time>2026-04-19T09:59:57Z</time></trkpt><trkpt lat="43.22482514992309" lon="10.773058487225635"><ele>415.33333333333337</ele><time>2026-04-19T09:59:58Z</time></trkpt><trkpt lat="43.22477338373966" lon="10.773128064496934"><ele>415.6666666666667</ele><time>2026-04-19T09:59:59Z</time></trkpt><trkpt lat="43.22472550454569" lon="10.77320328552616"><ele>416.0</ele><time>2026-04-19T10:00:00Z</time></trkpt><trkpt lat="43.2246606617298" lon="10.773366471597626"><ele>416.33333333333337</ele><time>2026-04-19T10:00:02Z</time></trkpt><trkpt lat="43.2246588267975" lon="10.773462010447812"><ele>416.6666666666667</ele><time>2026-04-19T10:00:03Z</time></trkpt><trkpt lat="43.22467226208815" lon="10.773562891900218"><ele>417.0</ele><time>2026-04-19T10:00:04Z</time></trkpt><trkpt lat="43.22469071992138" lon="10.773663985979669"><ele>417.0</ele><time>2026-04-19T10:00:05Z</time></trkpt><trkpt lat="43.22472301711699" lon="10.773799785057136"><ele>417.0</ele><time>2026-04-19T10:00:07Z</time></trkpt><trkpt lat="43.22476058644342" lon="10.773872371595052"><ele>417.0</ele><time>2026-04-19T10:00:09Z</time></trkpt><trkpt lat="43.22484696402473" lon="10.77381896218754"><ele>417.0</ele><time>2026-04-19T10:00:12Z</time></trkpt><trkpt lat="43.22481368069141" lon="10.7736806255236"><ele>417.0</ele><time>2026-04-19T10:00:14Z</time></trkpt><trkpt lat="43.224788280905244" lon="10.773558412704785"><ele>416.6</ele><time>2026-04-19T10:00:16Z</time></trkpt><trkpt lat="43.22485260111008" lon="10.773477539499321"><ele>416.20000000000005</ele><time>2026-04-19T10:00:18Z</time></trkpt><trkpt lat="43.22496192537621" lon="10.77346558519747"><ele>415.8</ele><time>2026-04-19T10:00:20Z</time></trkpt><trkpt lat="43.225062219835145" lon="10.773512727923801"><ele>415.4</ele><time>2026-04-19T10:00:22Z</time></trkpt><trkpt lat="43.22507121589408" lon="10.77360750507665"><ele>415.0</ele><time>2026-04-19T10:00:24Z</time></trkpt><trkpt lat="43.22501058352197" lon="10.773728731674538"><ele>416.1666666666667</ele><time>2026-04-19T10:00:26Z</time></trkpt><trkpt lat="43.22498199268565" lon="10.773809716891908"><ele>417.33333333333337</ele><time>2026-04-19T10:00:27Z</time></trkpt><trkpt lat="43.22496006828498" lon="10.773892480116572"><ele>418.5</ele><time>2026-04-19T10:00:28Z</time></trkpt><trkpt lat="43.22494964555984" lon="10.774055593332612"><ele>419.66666666666663</ele><time>2026-04-19T10:00:30Z</time></trkpt><trkpt lat="43.224957236720876" lon="10.774197569151116"><ele>420.8333333333333</ele><time>2026-04-19T10:00:32Z</time></trkpt><trkpt lat="43.22501439780752" lon="10.774238403353166"><ele>422.0</ele><time>2026-04-19T10:00:33Z</time></trkpt><trkpt lat="43.22508706458465" lon="10.774173858914098"><ele>422.0</ele><time>2026-04-19T10:00:34Z</time></trkpt><trkpt lat="43.225161470253134" lon="10.774207627429792"><ele>422.0</ele><time>2026-04-19T10:00:36Z</time></trkpt><trkpt lat="43.22513912183326" lon="10.774344485603786"><ele>422.0</ele><time>2026-04-19T10:00:39Z</time></trkpt><trkpt lat="43.22505310282535" lon="10.774412927050829"><ele>422.0</ele><time>2026-04-19T10:00:41.001Z</time></trkpt><trkpt lat="43.225020678457206" lon="10.774531750191247"><ele>422.0</ele><time>2026-04-19T10:00:43.001Z</time></trkpt><trkpt lat="43.22502535462527" lon="10.77466407766344"><ele>423.40000000000003</ele><time>2026-04-19T10:00:45.001Z</time></trkpt><trkpt lat="43.22503785163488" lon="10.774812072566982"><ele>424.8</ele><time>2026-04-19T10:00:47.001Z</time></trkpt><trkpt lat="43.22501364847277" lon="10.77495769918338"><ele>426.2</ele><time>2026-04-19T10:00:49.001Z</time></trkpt><trkpt lat="43.2249723437355" lon="10.77508037120634"><ele>427.6</ele><time>2026-04-19T10:00:51.001Z</time></trkpt><trkpt lat="43.22491043552768" lon="10.775187668213032"><ele>429.0</ele><time>2026-04-19T10:00:53.001Z</time></trkpt><trkpt lat="43.22482930464608" lon="10.775287730376514"><ele>430.1666666666667</ele><time>2026-04-19T10:00:55.001Z</time></trkpt><trkpt lat="43.224797504851374" lon="10.7753766155705"><ele>431.33333333333337</ele><time>2026-04-19T10:00:57.001Z</time></trkpt><trkpt lat="43.224867773433715" lon="10.77545965901521"><ele>432.5</ele><time>2026-04-19T10:01:00.001Z</time></trkpt><trkpt lat="43.2249720047358" lon="10.775463698478639"><ele>433.6666666666667</ele><time>2026-04-19T10:01:02.001Z</time></trkpt><trkpt lat="43.225058334782524" lon="10.775456761333698"><ele>434.83333333333337</ele><time>2026-04-19T10:01:04.001Z</time></trkpt><trkpt lat="43.225107934054016" lon="10.775510609376475"><ele>436.0</ele><time>2026-04-19T10:01:06.001Z</time></trkpt><trkpt lat="43.22505946977601" lon="10.775607979515568"><ele>436.00000000000006</ele><time>2026-04-19T10:01:08.001Z</time></trkpt><trkpt lat="43.22499259147414" lon="10.775634826908284"><ele>436.0</ele><time>2026-04-19T10:01:09.001Z</time></trkpt><trkpt lat="43.224940956031475" lon="10.775713554096146"><ele>436.0</ele><time>2026-04-19T10:01:10.001Z</time></trkpt><trkpt lat="43.22488489106426" lon="10.775775182352177"><ele>436.0</ele><time>2026-04-19T10:01:11.001Z</time></trkpt><trkpt lat="43.22481613525524" lon="10.775871446993575"><ele>436.00000000000006</ele><time>2026-04-19T10:01:13.001Z</time></trkpt><trkpt lat="43.224802504983444" lon="10.775964996349028"><ele>436.0</ele><time>2026-04-19T10:01:15.001Z</time></trkpt><trkpt lat="43.22488924967602" lon="10.776021535085142"><ele>436.00000000000006</ele><time>2026-04-19T10:01:17.001Z</time></trkpt><trkpt lat="43.22500200557326" lon="10.775959014167876"><ele>436.0</ele><time>2026-04-19T10:01:19.001Z</time></trkpt><trkpt lat="43.225063624091256" lon="10.775932902460468"><ele>436.0</ele><time>2026-04-19T10:01:20.001Z</time></trkpt><trkpt lat="43.225135125683096" lon="10.775901819071983"><ele>436.0</ele><time>2026-04-19T10:01:21.001Z</time></trkpt><trkpt lat="43.22519566986167" lon="10.775875142499407"><ele>436.00000000000006</ele><time>2026-04-19T10:01:22.001Z</time></trkpt><trkpt lat="43.225282558927354" lon="10.775836857972907"><ele>436.0</ele><time>2026-04-19T10:01:24.001Z</time></trkpt><trkpt lat="43.22535327578381" lon="10.775891197829543"><ele>436.00000000000006</ele><time>2026-04-19T10:01:27.001Z</time></trkpt><trkpt lat="43.2253217276204" lon="10.77598270069443"><ele>436.0</ele><time>2026-04-19T10:01:29.001Z</time></trkpt><trkpt lat="43.225234252496996" lon="10.776081742675427"><ele>436.0</ele><time>2026-04-19T10:01:31.001Z</time></trkpt><trkpt lat="43.22518385654475" lon="10.776137284048"><ele>436.0</ele><time>2026-04-19T10:01:32.001Z</time></trkpt><trkpt lat="43.22513553191609" lon="10.776221084119484"><ele>436.00000000000006</ele><time>2026-04-19T10:01:33Z</time></trkpt><trkpt lat="43.2250849077095" lon="10.776301665957533"><ele>436.0</ele><time>2026-04-19T10:01:34Z</time></trkpt><trkpt lat="43.2250346540161" lon="10.776356435262239"><ele>437.6666666666667</ele><time>2026-04-19T10:01:35Z</time></trkpt><trkpt lat="43.22497131570297" lon="10.776442046265235"><ele>439.33333333333337</ele><time>2026-04-19T10:01:37Z</time></trkpt><trkpt lat="43.22496845468129" lon="10.776555003865973"><ele>441.0</ele><time>2026-04-19T10:01:39Z</time></trkpt><trkpt lat="43.22504843215629" lon="10.776598356339084"><ele>442.66666666666663</ele><time>2026-04-19T10:01:40Z</time></trkpt><trkpt lat="43.22511998918683" lon="10.77657164773318"><ele>444.3333333333333</ele><time>2026-04-19T10:01:41Z</time></trkpt><trkpt lat="43.2251839260041" lon="10.776534863554598"><ele>446.0</ele><time>2026-04-19T10:01:42Z</time></trkpt><trkpt lat="43.22529599239449" lon="10.776453519006141"><ele>445.99999999999994</ele><time>2026-04-19T10:01:44Z</time></trkpt><trkpt lat="43.225352034174534" lon="10.77638764843257"><ele>446.0</ele><time>2026-04-19T10:01:45Z</time></trkpt><trkpt lat="43.22539435194805" lon="10.7762936202392"><ele>446.0</ele><time>2026-04-19T10:01:46Z</time></trkpt><trkpt lat="43.22543737286133" lon="10.776207266538112"><ele>446.0</ele><time>2026-04-19T10:01:47Z</time></trkpt><trkpt lat="43.22549280739811" lon="10.776089765893131"><ele>445.99999999999994</ele><time>2026-04-19T10:01:49Z</time></trkpt><trkpt lat="43.2255722124525" lon="10.776120367168344"><ele>446.0</ele><time>2026-04-19T10:01:52Z</time></trkpt><trkpt lat="43.225558156781815" lon="10.776223646991808"><ele>445.99999999999994</ele><time>2026-04-19T10:01:54Z</time></trkpt><trkpt lat="43.22549426323133" lon="10.77633253104997"><ele>446.0</ele><time>2026-04-19T10:01:56Z</time></trkpt><trkpt lat="43.22544391884738" lon="10.776424837120299"><ele>446.0</ele><time>2026-04-19T10:01:58Z</time></trkpt><trkpt lat="43.225399358176226" lon="10.776518480970283"><ele>446.0</ele><time>2026-04-19T10:02:00Z</time></trkpt><trkpt lat="43.22535802612862" lon="10.776616229418922"><ele>445.99999999999994</ele><time>2026-04-19T10:02:02Z</time></trkpt><trkpt lat="43.22531014408706" lon="10.776719672790023"><ele>446.0</ele><time>2026-04-19T10:02:04Z</time></trkpt><trkpt lat="43.22529737275659" lon="10.776813959285596"><ele>446.0</ele><time>2026-04-19T10:02:30Z</time></trkpt><trkpt lat="43.2252416527012" lon="10.776875131215021"><ele>446.0</ele><time>2026-04-19T10:03:56Z</time></trkpt><trkpt lat="43.22534769802426" lon="10.776962114862826"><ele>446.0</ele><time>2026-04-19T10:04:01Z</time></trkpt><trkpt lat="43.22544621859951" lon="10.776877538728797"><ele>446.0</ele><time>2026-04-19T10:04:03Z</time></trkpt><trkpt lat="43.225548703076335" lon="10.776825257973274"><ele>446.0</ele><time>2026-04-19T10:04:05Z</time></trkpt><trkpt lat="43.22562325893688" lon="10.776868706874579"><ele>446.4</ele><time>2026-04-19T10:04:07Z</time></trkpt><trkpt lat="43.22575767725053" lon="10.776923673717858"><ele>446.8</ele><time>2026-04-19T10:04:09Z</time></trkpt><trkpt lat="43.22582770407837" lon="10.776980660199078"><ele>447.19999999999993</ele><time>2026-04-19T10:04:10Z</time></trkpt><trkpt lat="43.22589470325879" lon="10.777040454307276"><ele>447.59999999999997</ele><time>2026-04-19T10:04:11Z</time></trkpt><trkpt lat="43.22594905253116" lon="10.777117923474057"><ele>448.0</ele><time>2026-04-19T10:04:12Z</time></trkpt><trkpt lat="43.226014240345684" lon="10.7771591860555"><ele>448.00000000000006</ele><time>2026-04-19T10:04:13Z</time></trkpt><trkpt lat="43.226084256489656" lon="10.7771563506787"><ele>448.0</ele><time>2026-04-19T10:04:14Z</time></trkpt><trkpt lat="43.22614683807725" lon="10.777169077777526"><ele>448.0</ele><time>2026-04-19T10:04:15Z</time></trkpt><trkpt lat="43.226231541910394" lon="10.777131676862838"><ele>448.0</ele><time>2026-04-19T10:04:16Z</time></trkpt><trkpt lat="43.22630175053702" lon="10.77705894791139"><ele>448.00000000000006</ele><time>2026-04-19T10:04:17Z</time></trkpt><trkpt lat="43.22635887214354" lon="10.776961778552712"><ele>448.0</ele><time>2026-04-19T10:04:18Z</time></trkpt><trkpt lat="43.22639152158702" lon="10.776848060605603"><ele>449.2</ele><time>2026-04-19T10:04:19Z</time></trkpt><trkpt lat="43.22642805254307" lon="10.776722626322181"><ele>450.4</ele><time>2026-04-19T10:04:20Z</time></trkpt><trkpt lat="43.226475777741925" lon="10.77662101005981"><ele>451.59999999999997</ele><time>2026-04-19T10:04:21Z</time></trkpt><trkpt lat="43.22652959537926" lon="10.776546366396168"><ele>452.79999999999995</ele><time>2026-04-19T10:04:22Z</time></trkpt><trkpt lat="43.226598341767534" lon="10.776475957441745"><ele>454.0</ele><time>2026-04-19T10:04:23Z</time></trkpt><trkpt lat="43.226681529383285" lon="10.776398041799018"><ele>454.79999999999995</ele><time>2026-04-19T10:04:24Z</time></trkpt><trkpt lat="43.22676594851929" lon="10.77632266204731"><ele>455.59999999999997</ele><time>2026-04-19T10:04:25Z</time></trkpt><trkpt lat="43.226850361221345" lon="10.776243952938058"><ele>456.4</ele><time>2026-04-19T10:04:26Z</time></trkpt><trkpt lat="43.226939620372306" lon="10.776159626765844"><ele>457.2</ele><time>2026-04-19T10:04:27Z</time></trkpt><trkpt lat="43.22702914877173" lon="10.77606110926774"><ele>458.0</ele><time>2026-04-19T10:04:28Z</time></trkpt><trkpt lat="43.227106227971625" lon="10.775957284650827"><ele>458.4</ele><time>2026-04-19T10:04:29Z</time></trkpt><trkpt lat="43.22717612292127" lon="10.775841416432696"><ele>458.79999999999995</ele><time>2026-04-19T10:04:30Z</time></trkpt><trkpt lat="43.22723555274681" lon="10.775728157885322"><ele>459.2</ele><time>2026-04-19T10:04:31Z</time></trkpt><trkpt lat="43.227285418961394" lon="10.775617275604796"><ele>459.6</ele><time>2026-04-19T10:04:32Z</time></trkpt><trkpt lat="43.227321071640915" lon="10.775493080629436"><ele>460.0</ele><time>2026-04-19T10:04:33Z</time></trkpt><trkpt lat="43.22734683344825" lon="10.77536686500312"><ele>460.0</ele><time>2026-04-19T10:04:34Z</time></trkpt><trkpt lat="43.22736915541378" lon="10.775251774838807"><ele>460.0</ele><time>2026-04-19T10:04:35Z</time></trkpt><trkpt lat="43.227381033914206" lon="10.775134607116982"><ele>460.0</ele><time>2026-04-19T10:04:36Z</time></trkpt><trkpt lat="43.227429716482895" lon="10.774996601992305"><ele>460.0</ele><time>2026-04-19T10:04:38Z</time></trkpt><trkpt lat="43.22749463696615" lon="10.774958298592658"><ele>460.0</ele><time>2026-04-19T10:04:39Z</time></trkpt><trkpt lat="43.22759156467456" lon="10.77496089545467"><ele>461.8</ele><time>2026-04-19T10:04:40Z</time></trkpt><trkpt lat="43.22768385097248" lon="10.774921762774355"><ele>463.6</ele><time>2026-04-19T10:04:41Z</time></trkpt><trkpt lat="43.227782572398006" lon="10.774876409247009"><ele>465.4</ele><time>2026-04-19T10:04:42Z</time></trkpt><trkpt lat="43.22788206413984" lon="10.77483453050487"><ele>467.2</ele><time>2026-04-19T10:04:43Z</time></trkpt><trkpt lat="43.227983421984554" lon="10.774766836646396"><ele>469.0</ele><time>2026-04-19T10:04:44Z</time></trkpt><trkpt lat="43.22808226998201" lon="10.774689727559794"><ele>469.79999999999995</ele><time>2026-04-19T10:04:45Z</time></trkpt><trkpt lat="43.22817697155025" lon="10.774604516715257"><ele>470.59999999999997</ele><time>2026-04-19T10:04:46Z</time></trkpt><trkpt lat="43.22825435816495" lon="10.774522972211733"><ele>471.4</ele><time>2026-04-19T10:04:47Z</time></trkpt><trkpt lat="43.22832540096958" lon="10.774431830355516"><ele>472.2</ele><time>2026-04-19T10:04:48Z</time></trkpt><trkpt lat="43.22838175123516" lon="10.77432152963532"><ele>473.0</ele><time>2026-04-19T10:04:49Z</time></trkpt><trkpt lat="43.22843578915381" lon="10.774217159181772"><ele>473.0</ele><time>2026-04-19T10:04:50Z</time></trkpt><trkpt lat="43.228496207269416" lon="10.77410132292016"><ele>472.99999999999994</ele><time>2026-04-19T10:04:51Z</time></trkpt><trkpt lat="43.228533354005435" lon="10.773957346257784"><ele>472.99999999999994</ele><time>2026-04-19T10:04:52Z</time></trkpt><trkpt lat="43.228565281172465" lon="10.773811521750904"><ele>473.0</ele><time>2026-04-19T10:04:53Z</time></trkpt><trkpt lat="43.22859070479739" lon="10.773648043531626"><ele>473.0</ele><time>2026-04-19T10:04:54Z</time></trkpt><trkpt lat="43.228608592938755" lon="10.77348965656912"><ele>472.8333333333333</ele><time>2026-04-19T10:04:55Z</time></trkpt><trkpt lat="43.22861835400219" lon="10.773360007984332"><ele>472.66666666666663</ele><time>2026-04-19T10:04:56Z</time></trkpt><trkpt lat="43.228633707345054" lon="10.773275559453838"><ele>472.5</ele><time>2026-04-19T10:04:57Z</time></trkpt><trkpt lat="43.228661099636476" lon="10.773169548100503"><ele>472.33333333333337</ele><time>2026-04-19T10:04:58Z</time></trkpt><trkpt lat="43.22872880022423" lon="10.773119680039251"><ele>472.1666666666667</ele><time>2026-04-19T10:04:59Z</time></trkpt><trkpt lat="43.228817512323275" lon="10.773112652605342"><ele>472.0</ele><time>2026-04-19T10:05:00Z</time></trkpt><trkpt lat="43.2289055522455" lon="10.773110260773915"><ele>470.8</ele><time>2026-04-19T10:05:01Z</time></trkpt><trkpt lat="43.229014871264965" lon="10.773103310292319"><ele>469.6</ele><time>2026-04-19T10:05:02Z</time></trkpt><trkpt lat="43.22910777172223" lon="10.773083374289984"><ele>468.40000000000003</ele><time>2026-04-19T10:05:03Z</time></trkpt><trkpt lat="43.22920425917897" lon="10.77308235660129"><ele>467.20000000000005</ele><time>2026-04-19T10:05:04Z</time></trkpt><trkpt lat="43.22929711423367" lon="10.77308450802921"><ele>466.0</ele><time>2026-04-19T10:05:05Z</time></trkpt><trkpt lat="43.22940875149972" lon="10.773086487019173"><ele>466.0</ele><time>2026-04-19T10:05:06Z</time></trkpt><trkpt lat="43.22951280576612" lon="10.773097716688984"><ele>466.0</ele><time>2026-04-19T10:05:07Z</time></trkpt><trkpt lat="43.22963092956984" lon="10.773092869429943"><ele>466.0</ele><time>2026-04-19T10:05:08Z</time></trkpt><trkpt lat="43.2297605310777" lon="10.773082502099667"><ele>466.0</ele><time>2026-04-19T10:05:09Z</time></trkpt><trkpt lat="43.22988032057385" lon="10.77308613054634"><ele>466.0</ele><time>2026-04-19T10:05:10Z</time></trkpt><trkpt lat="43.229997361872734" lon="10.773075979246078"><ele>466.0</ele><time>2026-04-19T10:05:11Z</time></trkpt><trkpt lat="43.230118486322425" lon="10.77306955104913"><ele>466.0</ele><time>2026-04-19T10:05:12Z</time></trkpt><trkpt lat="43.23022844892551" lon="10.773067939115528"><ele>466.0</ele><time>2026-04-19T10:05:13Z</time></trkpt><trkpt lat="43.23033328060844" lon="10.773081748790776"><ele>466.0</ele><time>2026-04-19T10:05:14Z</time></trkpt><trkpt lat="43.230439005858834" lon="10.773111317457666"><ele>466.0</ele><time>2026-04-19T10:05:15Z</time></trkpt><trkpt lat="43.230550026317054" lon="10.773167425625292"><ele>466.0</ele><time>2026-04-19T10:05:16Z</time></trkpt><trkpt lat="43.2306587112441" lon="10.773243384654783"><ele>466.0</ele><time>2026-04-19T10:05:17Z</time></trkpt><trkpt lat="43.230767641856026" lon="10.773318458219734"><ele>465.25</ele><time>2026-04-19T10:05:18Z</time></trkpt><trkpt lat="43.23088071412217" lon="10.773375414010989"><ele>464.5</ele><time>2026-04-19T10:05:19Z</time></trkpt><trkpt lat="43.23099030660145" lon="10.773436610811645"><ele>463.75</ele><time>2026-04-19T10:05:20Z</time></trkpt><trkpt lat="43.23109085539104" lon="10.77351782604462"><ele>463.0</ele><time>2026-04-19T10:05:21Z</time></trkpt><trkpt lat="43.23119278777097" lon="10.773616003589892"><ele>463.0</ele><time>2026-04-19T10:05:22Z</time></trkpt><trkpt lat="43.231283963950425" lon="10.773727771460194"><ele>463.0</ele><time>2026-04-19T10:05:23Z</time></trkpt><trkpt lat="43.23136586036779" lon="10.77385775930132"><ele>463.0</ele><time>2026-04-19T10:05:24Z</time></trkpt><trkpt lat="43.23143272546905" lon="10.773989677085368"><ele>463.0</ele><time>2026-04-19T10:05:25Z</time></trkpt><trkpt lat="43.23149424827752" lon="10.774122447869523"><ele>465.0</ele><time>2026-04-19T10:05:26Z</time></trkpt><trkpt lat="43.23156599049691" lon="10.774245717737966"><ele>467.0</ele><time>2026-04-19T10:05:27Z</time></trkpt><trkpt lat="43.23164924656425" lon="10.774361457819696"><ele>469.0</ele><time>2026-04-19T10:05:28Z</time></trkpt><trkpt lat="43.23173981929721" lon="10.774471732871346"><ele>471.0</ele><time>2026-04-19T10:05:29Z</time></trkpt><trkpt lat="43.23183271929744" lon="10.774571104392702"><ele>471.0</ele><time>2026-04-19T10:05:30Z</time></trkpt><trkpt lat="43.231929212577114" lon="10.77467745664443"><ele>471.0</ele><time>2026-04-19T10:05:31Z</time></trkpt><trkpt lat="43.232026599854734" lon="10.774763293117594"><ele>471.0</ele><time>2026-04-19T10:05:32Z</time></trkpt><trkpt lat="43.232124546710956" lon="10.774849052141338"><ele>471.0</ele><time>2026-04-19T10:05:33Z</time></trkpt><trkpt lat="43.23222243576827" lon="10.774923964754183"><ele>472.25</ele><time>2026-04-19T10:05:34Z</time></trkpt><trkpt lat="43.232331061134175" lon="10.774991249607213"><ele>473.5</ele><time>2026-04-19T10:05:35Z</time></trkpt><trkpt lat="43.23244108601079" lon="10.77505707157267"><ele>474.75</ele><time>2026-04-19T10:05:36Z</time></trkpt><trkpt lat="43.23255205438198" lon="10.775111450949712"><ele>476.0</ele><time>2026-04-19T10:05:37Z</time></trkpt><trkpt lat="43.23266619018135" lon="10.775148837746324"><ele>476.0</ele><time>2026-04-19T10:05:38Z</time></trkpt><trkpt lat="43.2327773287881" lon="10.77517047498274"><ele>476.0</ele><time>2026-04-19T10:05:39Z</time></trkpt><trkpt lat="43.23290037123372" lon="10.77516382995354"><ele>476.0</ele><time>2026-04-19T10:05:40Z</time></trkpt><trkpt lat="43.23302389041153" lon="10.775179029853671"><ele>476.0</ele><time>2026-04-19T10:05:41Z</time></trkpt><trkpt lat="43.2331455805311" lon="10.775183480774396"><ele>475.0</ele><time>2026-04-19T10:05:42Z</time></trkpt><trkpt lat="43.23326991267899" lon="10.775175750506948"><ele>474.0</ele><time>2026-04-19T10:05:43Z</time></trkpt><trkpt lat="43.23338271750694" lon="10.77519947108312"><ele>473.0</ele><time>2026-04-19T10:05:44Z</time></trkpt><trkpt lat="43.23349554034066" lon="10.775212341464727"><ele>472.0</ele><time>2026-04-19T10:05:45Z</time></trkpt><trkpt lat="43.23359028660615" lon="10.775239547483011"><ele>471.0</ele><time>2026-04-19T10:05:46Z</time></trkpt><trkpt lat="43.233690513518866" lon="10.775289053528606"><ele>471.75</ele><time>2026-04-19T10:05:47Z</time></trkpt><trkpt lat="43.233790846567686" lon="10.775345258784908"><ele>472.5</ele><time>2026-04-19T10:05:48Z</time></trkpt><trkpt lat="43.233879927324345" lon="10.775439223238989"><ele>473.25</ele><time>2026-04-19T10:05:49Z</time></trkpt><trkpt lat="43.23399068117571" lon="10.775537258216875"><ele>474.0</ele><time>2026-04-19T10:05:50Z</time></trkpt><trkpt lat="43.23409248212459" lon="10.77562423142575"><ele>474.0</ele><time>2026-04-19T10:05:51Z</time></trkpt><trkpt lat="43.23418997421649" lon="10.775723050357161"><ele>474.0</ele><time>2026-04-19T10:05:52Z</time></trkpt><trkpt lat="43.23428602940742" lon="10.77582620093784"><ele>474.0</ele><time>2026-04-19T10:05:53Z</time></trkpt><trkpt lat="43.23438220510071" lon="10.775921816439217"><ele>474.0</ele><time>2026-04-19T10:05:54Z</time></trkpt><trkpt lat="43.23446614721125" lon="10.776010692985563"><ele>474.4</ele><time>2026-04-19T10:05:55Z</time></trkpt><trkpt lat="43.234536505607025" lon="10.776095497118465"><ele>474.79999999999995</ele><time>2026-04-19T10:05:56Z</time></trkpt><trkpt lat="43.23459648343948" lon="10.776164566374165"><ele>475.20000000000005</ele><time>2026-04-19T10:05:57Z</time></trkpt><trkpt lat="43.23465373443742" lon="10.77620310415924"><ele>475.6</ele><time>2026-04-19T10:05:58Z</time></trkpt><trkpt lat="43.23478576376456" lon="10.77617364933657"><ele>476.0</ele><time>2026-04-19T10:06:00Z</time></trkpt><trkpt lat="43.23486006854862" lon="10.77612798391264"><ele>473.8</ele><time>2026-04-19T10:06:01Z</time></trkpt><trkpt lat="43.234916516713504" lon="10.776037696631686"><ele>471.6</ele><time>2026-04-19T10:06:02Z</time></trkpt><trkpt lat="43.23496348306167" lon="10.775926857536913"><ele>469.4</ele><time>2026-04-19T10:06:03Z</time></trkpt><trkpt lat="43.23500890840336" lon="10.775808812345135"><ele>467.2</ele><time>2026-04-19T10:06:04Z</time></trkpt><trkpt lat="43.23504918031317" lon="10.775690148354899"><ele>465.0</ele><time>2026-04-19T10:06:05Z</time></trkpt><trkpt lat="43.23509044290136" lon="10.775563370019235"><ele>465.0</ele><time>2026-04-19T10:06:06Z</time></trkpt><trkpt lat="43.23512998203375" lon="10.775433516747205"><ele>465.0</ele><time>2026-04-19T10:06:07Z</time></trkpt><trkpt lat="43.23515803136482" lon="10.775284438741076"><ele>465.0</ele><time>2026-04-19T10:06:08Z</time></trkpt><trkpt lat="43.23520669975699" lon="10.775142972778694"><ele>465.0</ele><time>2026-04-19T10:06:09Z</time></trkpt><trkpt lat="43.23526647856363" lon="10.775002867016628"><ele>465.0</ele><time>2026-04-19T10:06:10Z</time></trkpt><trkpt lat="43.23531795600391" lon="10.774843992975267"><ele>464.25</ele><time>2026-04-19T10:06:11Z</time></trkpt><trkpt lat="43.2353695042943" lon="10.774683442262065"><ele>463.5</ele><time>2026-04-19T10:06:12Z</time></trkpt><trkpt lat="43.23542052610754" lon="10.774518304015762"><ele>462.75</ele><time>2026-04-19T10:06:13Z</time></trkpt><trkpt lat="43.235471109402496" lon="10.774346010189472"><ele>462.0</ele><time>2026-04-19T10:06:14Z</time></trkpt><trkpt lat="43.23552056777479" lon="10.774178782583917"><ele>463.25</ele><time>2026-04-19T10:06:15Z</time></trkpt><trkpt lat="43.23557518291226" lon="10.774003977061286"><ele>464.5</ele><time>2026-04-19T10:06:16Z</time></trkpt><trkpt lat="43.2356307923366" lon="10.773825989174908"><ele>465.75</ele><time>2026-04-19T10:06:17Z</time></trkpt><trkpt lat="43.23568328407021" lon="10.77365519620223"><ele>467.0</ele><time>2026-04-19T10:06:18Z</time></trkpt><trkpt lat="43.235736448059136" lon="10.773478902008206"><ele>467.0</ele><time>2026-04-19T10:06:19Z</time></trkpt><trkpt lat="43.23578904525136" lon="10.77330448727225"><ele>467.0</ele><time>2026-04-19T10:06:20Z</time></trkpt><trkpt lat="43.23584246553118" lon="10.773127343397947"><ele>467.0</ele><time>2026-04-19T10:06:21Z</time></trkpt><trkpt lat="43.23589614968673" lon="10.772949324323436"><ele>467.0</ele><time>2026-04-19T10:06:22Z</time></trkpt><trkpt lat="43.235947474728775" lon="10.772779027870927"><ele>465.0</ele><time>2026-04-19T10:06:23Z</time></trkpt><trkpt lat="43.23598471076868" lon="10.772608947137686"><ele>463.0</ele><time>2026-04-19T10:06:24Z</time></trkpt><trkpt lat="43.23603932551315" lon="10.772457423721175"><ele>461.0</ele><time>2026-04-19T10:06:25Z</time></trkpt><trkpt lat="43.23610142183398" lon="10.772328898599593"><ele>459.0</ele><time>2026-04-19T10:06:26Z</time></trkpt><trkpt lat="43.23614501296827" lon="10.772196245113374"><ele>459.0</ele><time>2026-04-19T10:06:27Z</time></trkpt><trkpt lat="43.23617426516572" lon="10.772081835104848"><ele>459.0</ele><time>2026-04-19T10:06:28Z</time></trkpt><trkpt lat="43.23623127739818" lon="10.771980738430235"><ele>459.0</ele><time>2026-04-19T10:06:29Z</time></trkpt><trkpt lat="43.23630787094555" lon="10.77191660248101"><ele>459.0</ele><time>2026-04-19T10:06:30Z</time></trkpt><trkpt lat="43.23638199719853" lon="10.77183984374596"><ele>459.0</ele><time>2026-04-19T10:06:31Z</time></trkpt><trkpt lat="43.23648000575756" lon="10.771807741490893"><ele>458.79999999999995</ele><time>2026-04-19T10:06:32Z</time></trkpt><trkpt lat="43.23658729912252" lon="10.771793621622995"><ele>458.59999999999997</ele><time>2026-04-19T10:06:33Z</time></trkpt><trkpt lat="43.23670224549187" lon="10.771796256648189"><ele>458.4</ele><time>2026-04-19T10:06:34Z</time></trkpt><trkpt lat="43.236813088171544" lon="10.771803501643237"><ele>458.2</ele><time>2026-04-19T10:06:35Z</time></trkpt><trkpt lat="43.23691139470786" lon="10.771820148142911"><ele>458.0</ele><time>2026-04-19T10:06:36Z</time></trkpt><trkpt lat="43.23699963606447" lon="10.771844117962194"><ele>458.0</ele><time>2026-04-19T10:06:37Z</time></trkpt><trkpt lat="43.23707209612623" lon="10.771844916589526"><ele>457.99999999999994</ele><time>2026-04-19T10:06:38Z</time></trkpt><trkpt lat="43.237168644533014" lon="10.771759379321088"><ele>457.99999999999994</ele><time>2026-04-19T10:06:40Z</time></trkpt><trkpt lat="43.237218443943455" lon="10.771689743347764"><ele>458.0</ele><time>2026-04-19T10:06:41Z</time></trkpt><trkpt lat="43.23723174549283" lon="10.771568417828977"><ele>458.0</ele><time>2026-04-19T10:06:42Z</time></trkpt><trkpt lat="43.237213969499514" lon="10.77140147341032"><ele>457.99999999999994</ele><time>2026-04-19T10:06:43Z</time></trkpt><trkpt lat="43.23724205555583" lon="10.771233845267139"><ele>458.0</ele><time>2026-04-19T10:06:44Z</time></trkpt><trkpt lat="43.23725352936911" lon="10.771114219786757"><ele>458.0</ele><time>2026-04-19T10:06:45Z</time></trkpt><trkpt lat="43.23726048302707" lon="10.771013643051548"><ele>458.0</ele><time>2026-04-19T10:06:46Z</time></trkpt><trkpt lat="43.237249443427025" lon="10.770923316001815"><ele>457.99999999999994</ele><time>2026-04-19T10:06:47Z</time></trkpt><trkpt lat="43.23720119687805" lon="10.770851153210367"><ele>458.0</ele><time>2026-04-19T10:06:48Z</time></trkpt><trkpt lat="43.23711115330124" lon="10.770832369437548"><ele>455.4</ele><time>2026-04-19T10:06:49Z</time></trkpt><trkpt lat="43.2370464298273" lon="10.770796505878145"><ele>452.79999999999995</ele><time>2026-04-19T10:06:50Z</time></trkpt><trkpt lat="43.23695482929541" lon="10.77070937034993"><ele>450.2</ele><time>2026-04-19T10:06:52Z</time></trkpt><trkpt lat="43.23689226591894" lon="10.770605393670607"><ele>447.6</ele><time>2026-04-19T10:06:54Z</time></trkpt><trkpt lat="43.23689576945214" lon="10.77043725767127"><ele>445.0</ele><time>2026-04-19T10:06:56Z</time></trkpt><trkpt lat="43.236931314743536" lon="10.770307190160892"><ele>445.00000000000006</ele><time>2026-04-19T10:06:58Z</time></trkpt><trkpt lat="43.23696219095435" lon="10.770193816600713"><ele>445.0</ele><time>2026-04-19T10:07:00Z</time></trkpt><trkpt lat="43.23701144311629" lon="10.770050038195757"><ele>445.0</ele><time>2026-04-19T10:07:02Z</time></trkpt><trkpt lat="43.23706780455207" lon="10.770003946289478"><ele>445.0</ele><time>2026-04-19T10:07:03Z</time></trkpt><trkpt lat="43.237131954961825" lon="10.7699699134657"><ele>445.00000000000006</ele><time>2026-04-19T10:07:04Z</time></trkpt><trkpt lat="43.23720280051161" lon="10.769925073681076"><ele>445.0</ele><time>2026-04-19T10:07:05Z</time></trkpt><trkpt lat="43.23727686171988" lon="10.769875010432989"><ele>444.6</ele><time>2026-04-19T10:07:06Z</time></trkpt><trkpt lat="43.23738714219468" lon="10.769840358879712"><ele>444.2</ele><time>2026-04-19T10:07:07Z</time></trkpt><trkpt lat="43.237488895687186" lon="10.769788003106834"><ele>443.79999999999995</ele><time>2026-04-19T10:07:08Z</time></trkpt><trkpt lat="43.23756069242369" lon="10.769713765585951"><ele>443.4</ele><time>2026-04-19T10:07:09Z</time></trkpt><trkpt lat="43.23762314009349" lon="10.769656605926919"><ele>443.0</ele><time>2026-04-19T10:07:10Z</time></trkpt><trkpt lat="43.237693775976346" lon="10.769593338771134"><ele>443.0</ele><time>2026-04-19T10:07:11Z</time></trkpt><trkpt lat="43.2377414803261" lon="10.769500565111649"><ele>442.99999999999994</ele><time>2026-04-19T10:07:12Z</time></trkpt><trkpt lat="43.237742661031184" lon="10.76935302625961"><ele>442.99999999999994</ele><time>2026-04-19T10:07:13Z</time></trkpt><trkpt lat="43.23777129060243" lon="10.769216565115943"><ele>443.0</ele><time>2026-04-19T10:07:14Z</time></trkpt><trkpt lat="43.2377735460805" lon="10.76907371736976"><ele>443.0</ele><time>2026-04-19T10:07:15Z</time></trkpt><trkpt lat="43.237776832847295" lon="10.768892995664352"><ele>443.4</ele><time>2026-04-19T10:07:16Z</time></trkpt><trkpt lat="43.23778421305271" lon="10.768711831593455"><ele>443.79999999999995</ele><time>2026-04-19T10:07:17Z</time></trkpt><trkpt lat="43.237793215664816" lon="10.768572823604396"><ele>444.2</ele><time>2026-04-19T10:07:18Z</time></trkpt><trkpt lat="43.237804361523544" lon="10.768456560185115"><ele>444.6</ele><time>2026-04-19T10:07:19Z</time></trkpt><trkpt lat="43.237817303656634" lon="10.768362391756252"><ele>445.0</ele><time>2026-04-19T10:07:20Z</time></trkpt><trkpt lat="43.237836181675334" lon="10.768272725154054"><ele>445.1666666666667</ele><time>2026-04-19T10:07:21Z</time></trkpt><trkpt lat="43.23787257928095" lon="10.768190513710797"><ele>445.33333333333337</ele><time>2026-04-19T10:07:22Z</time></trkpt><trkpt lat="43.23792126810115" lon="10.768101681758958"><ele>445.5</ele><time>2026-04-19T10:07:23Z</time></trkpt><trkpt lat="43.23799297088604" lon="10.768084950774417"><ele>445.66666666666663</ele><time>2026-04-19T10:07:24Z</time></trkpt><trkpt lat="43.23805852970565" lon="10.768073337116657"><ele>445.8333333333333</ele><time>2026-04-19T10:07:25Z</time></trkpt><trkpt lat="43.238159901336644" lon="10.768087984025556"><ele>446.0</ele><time>2026-04-19T10:07:27Z</time></trkpt><trkpt lat="43.23822796401535" lon="10.768078264806368"><ele>446.66666666666663</ele><time>2026-04-19T10:07:39Z</time></trkpt><trkpt lat="43.23832770662914" lon="10.768056802119453"><ele>447.3333333333333</ele><time>2026-04-19T10:17:53.001Z</time></trkpt><trkpt lat="43.23839277423949" lon="10.768058124161064"><ele>448.0</ele><time>2026-04-19T10:17:54.001Z</time></trkpt><trkpt lat="43.23846315504711" lon="10.76806163652062"><ele>448.66666666666663</ele><time>2026-04-19T10:17:55.001Z</time></trkpt><trkpt lat="43.23854562051634" lon="10.768059400577425"><ele>449.3333333333333</ele><time>2026-04-19T10:17:56.001Z</time></trkpt><trkpt lat="43.2386275154582" lon="10.768054682352252"><ele>450.0</ele><time>2026-04-19T10:17:57.001Z</time></trkpt><trkpt lat="43.23871615113407" lon="10.76807385926505"><ele>450.0</ele><time>2026-04-19T10:17:58.001Z</time></trkpt><trkpt lat="43.23879186552836" lon="10.768073342691313"><ele>450.0</ele><time>2026-04-19T10:17:59.001Z</time></trkpt><trkpt lat="43.2388911376226" lon="10.76807206622651"><ele>450.0</ele><time>2026-04-19T10:18:00.001Z</time></trkpt><trkpt lat="43.238979909545186" lon="10.768069307798367"><ele>450.0</ele><time>2026-04-19T10:18:01.001Z</time></trkpt><trkpt lat="43.23906974857767" lon="10.768042340839497"><ele>450.0</ele><time>2026-04-19T10:18:02.001Z</time></trkpt><trkpt lat="43.23916430958605" lon="10.768037938334421"><ele>450.6666666666667</ele><time>2026-04-19T10:18:03.001Z</time></trkpt><trkpt lat="43.23925909646557" lon="10.768041193831015"><ele>451.33333333333337</ele><time>2026-04-19T10:18:04.001Z</time></trkpt><trkpt lat="43.23934957255585" lon="10.768040760628498"><ele>452.0</ele><time>2026-04-19T10:18:05.001Z</time></trkpt><trkpt lat="43.23943119462138" lon="10.768071382725605"><ele>452.6666666666667</ele><time>2026-04-19T10:18:06.001Z</time></trkpt><trkpt lat="43.23950947419939" lon="10.768146793726666"><ele>453.33333333333337</ele><time>2026-04-19T10:18:07.001Z</time></trkpt><trkpt lat="43.23958439198951" lon="10.768167193200767"><ele>454.0</ele><time>2026-04-19T10:18:08.001Z</time></trkpt><trkpt lat="43.23971890244788" lon="10.76819497767321"><ele>454.00000000000006</ele><time>2026-04-19T10:18:10.001Z</time></trkpt><trkpt lat="43.239796549010656" lon="10.768154120865802"><ele>454.0</ele><time>2026-04-19T10:18:11.001Z</time></trkpt><trkpt lat="43.239887125903095" lon="10.768143470014953"><ele>454.0</ele><time>2026-04-19T10:18:12.001Z</time></trkpt><trkpt lat="43.23998177898831" lon="10.768129989008866"><ele>454.0</ele><time>2026-04-19T10:18:13.001Z</time></trkpt><trkpt lat="43.24006193664905" lon="10.768136366132998"><ele>454.00000000000006</ele><time>2026-04-19T10:18:14.001Z</time></trkpt><trkpt lat="43.24014574079828" lon="10.768164582756981"><ele>454.0</ele><time>2026-04-19T10:18:15.001Z</time></trkpt><trkpt lat="43.24022542758985" lon="10.768209259613489"><ele>454.79999999999995</ele><time>2026-04-19T10:18:16.001Z</time></trkpt><trkpt lat="43.24031029238139" lon="10.768267818423483"><ele>455.59999999999997</ele><time>2026-04-19T10:18:17.001Z</time></trkpt><trkpt lat="43.24040297900581" lon="10.76832614470003"><ele>456.4</ele><time>2026-04-19T10:18:18Z</time></trkpt><trkpt lat="43.24049029639277" lon="10.768381104149565"><ele>457.2</ele><time>2026-04-19T10:18:19Z</time></trkpt><trkpt lat="43.24057731871765" lon="10.768429169971757"><ele>458.0</ele><time>2026-04-19T10:18:20Z</time></trkpt><trkpt lat="43.24067175175419" lon="10.768480726128791"><ele>458.66666666666663</ele><time>2026-04-19T10:18:21Z</time></trkpt><trkpt lat="43.24075142542512" lon="10.768524494110455"><ele>459.3333333333333</ele><time>2026-04-19T10:18:22Z</time></trkpt><trkpt lat="43.24083624508205" lon="10.76855049994232"><ele>460.0</ele><time>2026-04-19T10:18:24Z</time></trkpt><trkpt lat="43.24091987903811" lon="10.768621284654145"><ele>460.66666666666663</ele><time>2026-04-19T10:18:48Z</time></trkpt><trkpt lat="43.24097833603966" lon="10.768655577560107"><ele>461.3333333333333</ele><time>2026-04-19T10:18:49Z</time></trkpt><trkpt lat="43.24105828210912" lon="10.768676823280996"><ele>462.0</ele><time>2026-04-19T10:18:50Z</time></trkpt><trkpt lat="43.2411353268748" lon="10.768743252922203"><ele>463.6666666666667</ele><time>2026-04-19T10:18:51Z</time></trkpt><trkpt lat="43.24122392487976" lon="10.768786277969252"><ele>465.33333333333337</ele><time>2026-04-19T10:18:52Z</time></trkpt><trkpt lat="43.2413196161828" lon="10.768798372173846"><ele>467.0</ele><time>2026-04-19T10:18:53Z</time></trkpt><trkpt lat="43.24140338334514" lon="10.768807725615108"><ele>468.6666666666667</ele><time>2026-04-19T10:18:54Z</time></trkpt><trkpt lat="43.24148062469393" lon="10.768806459518125"><ele>470.33333333333337</ele><time>2026-04-19T10:18:55Z</time></trkpt><trkpt lat="43.24156316206759" lon="10.76879191024701"><ele>472.0</ele><time>2026-04-19T10:18:56Z</time></trkpt><trkpt lat="43.2416352183317" lon="10.768778709233937"><ele>473.8</ele><time>2026-04-19T10:18:57Z</time></trkpt><trkpt lat="43.24172387447432" lon="10.7688016764743"><ele>475.6</ele><time>2026-04-19T10:18:58Z</time></trkpt><trkpt lat="43.24183220546323" lon="10.76885309491629"><ele>477.40000000000003</ele><time>2026-04-19T10:18:59Z</time></trkpt><trkpt lat="43.24194499138129" lon="10.768910277470876"><ele>479.20000000000005</ele><time>2026-04-19T10:19:00Z</time></trkpt><trkpt lat="43.24206316893914" lon="10.768961354545809"><ele>481.0</ele><time>2026-04-19T10:19:01Z</time></trkpt><trkpt lat="43.24217441253444" lon="10.769008768999836"><ele>481.00000000000006</ele><time>2026-04-19T10:19:02Z</time></trkpt><trkpt lat="43.242280697476495" lon="10.7690424343516"><ele>481.0</ele><time>2026-04-19T10:19:03Z</time></trkpt><trkpt lat="43.242373600625086" lon="10.769076579336337"><ele>481.0</ele><time>2026-04-19T10:19:04Z</time></trkpt><trkpt lat="43.24245585412466" lon="10.76911643938639"><ele>481.0</ele><time>2026-04-19T10:19:05Z</time></trkpt><trkpt lat="43.24252214499241" lon="10.769164932913036"><ele>481.00000000000006</ele><time>2026-04-19T10:19:06Z</time></trkpt><trkpt lat="43.24256912210364" lon="10.769242014520877"><ele>481.0</ele><time>2026-04-19T10:19:07Z</time></trkpt><trkpt lat="43.242591573089314" lon="10.769345297488153"><ele>483.75</ele><time>2026-04-19T10:19:08Z</time></trkpt><trkpt lat="43.24260924480961" lon="10.769487862047237"><ele>486.5</ele><time>2026-04-19T10:19:09Z</time></trkpt><trkpt lat="43.24261152624651" lon="10.769672206664124"><ele>489.25</ele><time>2026-04-19T10:19:10Z</time></trkpt><trkpt lat="43.242637157122665" lon="10.76984136161802"><ele>492.0</ele><time>2026-04-19T10:19:11Z</time></trkpt><trkpt lat="43.24267590085526" lon="10.769975013652516"><ele>492.0</ele><time>2026-04-19T10:19:12Z</time></trkpt><trkpt lat="43.24274990970004" lon="10.77010147371556"><ele>492.0</ele><time>2026-04-19T10:19:13Z</time></trkpt><trkpt lat="43.24281535451616" lon="10.770252649382009"><ele>492.0</ele><time>2026-04-19T10:19:14Z</time></trkpt><trkpt lat="43.24288075040691" lon="10.77040597253693"><ele>492.0</ele><time>2026-04-19T10:19:15Z</time></trkpt><trkpt lat="43.24292549622125" lon="10.770527574755244"><ele>495.5</ele><time>2026-04-19T10:19:16Z</time></trkpt><trkpt lat="43.2429656819572" lon="10.770666688471422"><ele>499.0</ele><time>2026-04-19T10:19:17Z</time></trkpt><trkpt lat="43.24299055727422" lon="10.770845865104018"><ele>502.5</ele><time>2026-04-19T10:19:18Z</time></trkpt><trkpt lat="43.24300981919321" lon="10.771033845069057"><ele>506.0</ele><time>2026-04-19T10:19:19Z</time></trkpt><trkpt lat="43.243031729765576" lon="10.771173518339616"><ele>505.49999999999994</ele><time>2026-04-19T10:19:20Z</time></trkpt><trkpt lat="43.243058121895835" lon="10.771274868409387"><ele>505.0</ele><time>2026-04-19T10:19:21Z</time></trkpt><trkpt lat="43.24308982458271" lon="10.77137034612728"><ele>504.5</ele><time>2026-04-19T10:19:22Z</time></trkpt><trkpt lat="43.24313801884521" lon="10.771440437099848"><ele>504.0</ele><time>2026-04-19T10:19:23Z</time></trkpt><trkpt lat="43.24320014700453" lon="10.771473966342992"><ele>503.49999999999994</ele><time>2026-04-19T10:19:24Z</time></trkpt><trkpt lat="43.243272918086284" lon="10.771486680121328"><ele>503.0</ele><time>2026-04-19T10:19:25Z</time></trkpt><trkpt lat="43.24336212641036" lon="10.771486736675943"><ele>502.99999999999994</ele><time>2026-04-19T10:19:26Z</time></trkpt><trkpt lat="43.24345343100524" lon="10.77147518289626"><ele>503.0</ele><time>2026-04-19T10:19:27Z</time></trkpt><trkpt lat="43.24352853412818" lon="10.771498639829789"><ele>503.0</ele><time>2026-04-19T10:19:28Z</time></trkpt><trkpt lat="43.24358984577389" lon="10.771570136457399"><ele>503.0</ele><time>2026-04-19T10:19:29Z</time></trkpt><trkpt lat="43.24363287635591" lon="10.771659363284076"><ele>502.99999999999994</ele><time>2026-04-19T10:19:30Z</time></trkpt><trkpt lat="43.24363839011822" lon="10.771781908115843"><ele>503.0</ele><time>2026-04-19T10:19:31Z</time></trkpt><trkpt lat="43.2436200355521" lon="10.771936925693614"><ele>504.0</ele><time>2026-04-19T10:19:32Z</time></trkpt><trkpt lat="43.24360993937036" lon="10.772090773518293"><ele>505.0</ele><time>2026-04-19T10:19:33Z</time></trkpt><trkpt lat="43.2436097729826" lon="10.772261745327624"><ele>506.0</ele><time>2026-04-19T10:19:34Z</time></trkpt><trkpt lat="43.24359942204423" lon="10.772434271128612"><ele>507.0</ele><time>2026-04-19T10:19:35Z</time></trkpt><trkpt lat="43.24360120278108" lon="10.772593776159116"><ele>506.20000000000005</ele><time>2026-04-19T10:19:36Z</time></trkpt><trkpt lat="43.24359969370589" lon="10.772738205587844"><ele>505.40000000000003</ele><time>2026-04-19T10:19:37Z</time></trkpt><trkpt lat="43.243609514171744" lon="10.772873231263274"><ele>504.59999999999997</ele><time>2026-04-19T10:19:38Z</time></trkpt><trkpt lat="43.243638430582315" lon="10.772993886752182"><ele>503.79999999999995</ele><time>2026-04-19T10:19:39Z</time></trkpt><trkpt lat="43.243689815796934" lon="10.77310032193553"><ele>503.0</ele><time>2026-04-19T10:19:40Z</time></trkpt><trkpt lat="43.24377225308165" lon="10.77318909769782"><ele>502.99999999999994</ele><time>2026-04-19T10:19:41Z</time></trkpt><trkpt lat="43.243848738404814" lon="10.773267189778071"><ele>503.0</ele><time>2026-04-19T10:19:42Z</time></trkpt><trkpt lat="43.243894819986785" lon="10.773350925452936"><ele>503.0</ele><time>2026-04-19T10:19:43Z</time></trkpt><trkpt lat="43.24393279123274" lon="10.773448977841733"><ele>503.0</ele><time>2026-04-19T10:19:44Z</time></trkpt><trkpt lat="43.24396242848214" lon="10.77357060951447"><ele>502.99999999999994</ele><time>2026-04-19T10:19:45Z</time></trkpt><trkpt lat="43.24397734139499" lon="10.773702194329674"><ele>503.0</ele><time>2026-04-19T10:19:46Z</time></trkpt><trkpt lat="43.24399301215326" lon="10.773839483748437"><ele>502.59999999999997</ele><time>2026-04-19T10:19:47Z</time></trkpt><trkpt lat="43.24401901754254" lon="10.773962423377714"><ele>502.19999999999993</ele><time>2026-04-19T10:19:48Z</time></trkpt><trkpt lat="43.24405719717278" lon="10.77406135528403"><ele>501.8</ele><time>2026-04-19T10:19:49Z</time></trkpt><trkpt lat="43.2441042515373" lon="10.774174680678048"><ele>501.4</ele><time>2026-04-19T10:19:50Z</time></trkpt><trkpt lat="43.24419173924844" lon="10.774275573206745"><ele>501.0</ele><time>2026-04-19T10:19:51Z</time></trkpt><trkpt lat="43.2443040464358" lon="10.774328802425849"><ele>500.0</ele><time>2026-04-19T10:19:52.001Z</time></trkpt><trkpt lat="43.24440627073993" lon="10.77439820992919"><ele>499.0</ele><time>2026-04-19T10:19:53.001Z</time></trkpt><trkpt lat="43.24451158484845" lon="10.774490117770565"><ele>498.0</ele><time>2026-04-19T10:19:54.001Z</time></trkpt><trkpt lat="43.24461430191789" lon="10.774560309308002"><ele>497.0</ele><time>2026-04-19T10:19:55.001Z</time></trkpt><trkpt lat="43.24472083659233" lon="10.774633109559284"><ele>498.5</ele><time>2026-04-19T10:19:56.001Z</time></trkpt><trkpt lat="43.244847038920454" lon="10.774705994739035"><ele>500.0</ele><time>2026-04-19T10:19:57.001Z</time></trkpt><trkpt lat="43.244968474583985" lon="10.774807253346227"><ele>501.5</ele><time>2026-04-19T10:19:58.001Z</time></trkpt><trkpt lat="43.245099863921205" lon="10.774896541905488"><ele>503.0</ele><time>2026-04-19T10:19:59.001Z</time></trkpt><trkpt lat="43.245210599189534" lon="10.774972990840899"><ele>503.0</ele><time>2026-04-19T10:20:00.001Z</time></trkpt><trkpt lat="43.24530555827255" lon="10.775036791361797"><ele>502.99999999999994</ele><time>2026-04-19T10:20:01.001Z</time></trkpt><trkpt lat="43.24538799876921" lon="10.77508657827216"><ele>502.99999999999994</ele><time>2026-04-19T10:20:02.001Z</time></trkpt><trkpt lat="43.24548917944906" lon="10.775130500128656"><ele>503.0</ele><time>2026-04-19T10:20:04.001Z</time></trkpt><trkpt lat="43.24556352521122" lon="10.77514665226489"><ele>503.0</ele><time>2026-04-19T10:20:13.001Z</time></trkpt><trkpt lat="43.245688475077614" lon="10.775149173345511"><ele>503.4</ele><time>2026-04-19T10:20:15.001Z</time></trkpt><trkpt lat="43.24576711964729" lon="10.775117591606607"><ele>503.79999999999995</ele><time>2026-04-19T10:20:16.001Z</time></trkpt><trkpt lat="43.24586529865947" lon="10.775068748172762"><ele>504.2</ele><time>2026-04-19T10:20:17.001Z</time></trkpt><trkpt lat="43.24593334679306" lon="10.775042260811443"><ele>504.6</ele><time>2026-04-19T10:20:18.001Z</time></trkpt><trkpt lat="43.24603069136537" lon="10.775086872791109"><ele>505.0</ele><time>2026-04-19T10:20:21.001Z</time></trkpt><trkpt lat="43.246113899078644" lon="10.775198725290673"><ele>506.0</ele><time>2026-04-19T10:20:23.001Z</time></trkpt><trkpt lat="43.24617587360058" lon="10.775328728647784"><ele>507.0</ele><time>2026-04-19T10:20:24Z</time></trkpt><trkpt lat="43.24623927447092" lon="10.775435260354211"><ele>508.0</ele><time>2026-04-19T10:20:25Z</time></trkpt><trkpt lat="43.24629239667036" lon="10.77555706556411"><ele>509.0</ele><time>2026-04-19T10:20:26Z</time></trkpt><trkpt lat="43.24636609913154" lon="10.775646674967044"><ele>510.0</ele><time>2026-04-19T10:20:27Z</time></trkpt><trkpt lat="43.24647122143187" lon="10.775747441539712"><ele>510.0</ele><time>2026-04-19T10:20:27.999Z</time></trkpt><trkpt lat="43.24657308751402" lon="10.775846714397565"><ele>510.0</ele><time>2026-04-19T10:20:29Z</time></trkpt><trkpt lat="43.24664363489452" lon="10.775946384400996"><ele>510.0</ele><time>2026-04-19T10:20:30Z</time></trkpt><trkpt lat="43.2467066650186" lon="10.776034967069926"><ele>510.0</ele><time>2026-04-19T10:20:31Z</time></trkpt><trkpt lat="43.24677119109946" lon="10.776109246474185"><ele>510.0</ele><time>2026-04-19T10:20:32Z</time></trkpt><trkpt lat="43.24683098170788" lon="10.776157189770117"><ele>513.2</ele><time>2026-04-19T10:20:33Z</time></trkpt><trkpt lat="43.246908482310204" lon="10.776187953437184"><ele>516.4</ele><time>2026-04-19T10:20:34Z</time></trkpt><trkpt lat="43.24698977426211" lon="10.77618157781121"><ele>519.6</ele><time>2026-04-19T10:20:35Z</time></trkpt><trkpt lat="43.24708098842351" lon="10.776185350429273"><ele>522.8</ele><time>2026-04-19T10:20:36Z</time></trkpt><trkpt lat="43.24720508836886" lon="10.776133157207273"><ele>526.0</ele><time>2026-04-19T10:20:37Z</time></trkpt><trkpt lat="43.24733834571802" lon="10.776035462498099"><ele>521.8</ele><time>2026-04-19T10:20:38Z</time></trkpt><trkpt lat="43.24745662239745" lon="10.77593196673559"><ele>517.6</ele><time>2026-04-19T10:20:39Z</time></trkpt><trkpt lat="43.24757078917328" lon="10.775909316817534"><ele>513.4</ele><time>2026-04-19T10:20:40Z</time></trkpt><trkpt lat="43.24766068828057" lon="10.775896967021504"><ele>509.2</ele><time>2026-04-19T10:20:41Z</time></trkpt><trkpt lat="43.24774024592411" lon="10.775955030883196"><ele>505.0</ele><time>2026-04-19T10:20:42Z</time></trkpt><trkpt lat="43.24785105102101" lon="10.776012161359734"><ele>505.00000000000006</ele><time>2026-04-19T10:20:43Z</time></trkpt><trkpt lat="43.24795685407044" lon="10.776028331206223"><ele>505.0</ele><time>2026-04-19T10:20:44Z</time></trkpt><trkpt lat="43.24804038905571" lon="10.775987232087893"><ele>505.0</ele><time>2026-04-19T10:20:45Z</time></trkpt><trkpt lat="43.248125581199616" lon="10.775972720677407"><ele>505.0</ele><time>2026-04-19T10:20:46Z</time></trkpt><trkpt lat="43.24819979741198" lon="10.775932596921379"><ele>505.00000000000006</ele><time>2026-04-19T10:20:47Z</time></trkpt><trkpt lat="43.248264556182264" lon="10.775864386545202"><ele>505.0</ele><time>2026-04-19T10:20:48Z</time></trkpt><trkpt lat="43.248336065625914" lon="10.775817231413175"><ele>504.6666666666667</ele><time>2026-04-19T10:20:49Z</time></trkpt><trkpt lat="43.248417798972255" lon="10.775786030785639"><ele>504.33333333333337</ele><time>2026-04-19T10:20:50Z</time></trkpt><trkpt lat="43.24848978067676" lon="10.775801295113173"><ele>504.0</ele><time>2026-04-19T10:20:51Z</time></trkpt><trkpt lat="43.24854752585597" lon="10.775856695915692"><ele>503.66666666666663</ele><time>2026-04-19T10:20:52Z</time></trkpt><trkpt lat="43.248574571336114" lon="10.775937406386193"><ele>503.3333333333333</ele><time>2026-04-19T10:20:53Z</time></trkpt><trkpt lat="43.24863167130974" lon="10.776031846744504"><ele>503.0</ele><time>2026-04-19T10:20:54Z</time></trkpt><trkpt lat="43.248686722648735" lon="10.776137466500964"><ele>501.0</ele><time>2026-04-19T10:20:55Z</time></trkpt><trkpt lat="43.248751207295705" lon="10.776265461946787"><ele>498.99999999999994</ele><time>2026-04-19T10:20:56Z</time></trkpt><trkpt lat="43.24883211043077" lon="10.77637966270866"><ele>496.99999999999994</ele><time>2026-04-19T10:20:57Z</time></trkpt><trkpt lat="43.248925779960246" lon="10.776458805730284"><ele>495.0</ele><time>2026-04-19T10:20:58Z</time></trkpt><trkpt lat="43.24899559206401" lon="10.776532671083903"><ele>493.0</ele><time>2026-04-19T10:20:59Z</time></trkpt><trkpt lat="43.24903625758471" lon="10.776613609498018"><ele>493.0</ele><time>2026-04-19T10:21:00Z</time></trkpt><trkpt lat="43.24907530530238" lon="10.77671910663495"><ele>492.99999999999994</ele><time>2026-04-19T10:21:01Z</time></trkpt><trkpt lat="43.24911951344518" lon="10.776846599530405"><ele>492.99999999999994</ele><time>2026-04-19T10:21:02Z</time></trkpt><trkpt lat="43.24915908846826" lon="10.776995206666802"><ele>493.0</ele><time>2026-04-19T10:21:03Z</time></trkpt><trkpt lat="43.24918179924363" lon="10.777134284632254"><ele>493.0</ele><time>2026-04-19T10:21:04Z</time></trkpt><trkpt lat="43.24922500171043" lon="10.777239361309327"><ele>494.0</ele><time>2026-04-19T10:21:05Z</time></trkpt><trkpt lat="43.24928408142926" lon="10.77733997342206"><ele>494.99999999999994</ele><time>2026-04-19T10:21:06Z</time></trkpt><trkpt lat="43.249355646998865" lon="10.777439919115"><ele>495.99999999999994</ele><time>2026-04-19T10:21:07Z</time></trkpt><trkpt lat="43.24943381161179" lon="10.777533947296542"><ele>497.0</ele><time>2026-04-19T10:21:08Z</time></trkpt><trkpt lat="43.24950857836957" lon="10.777640464011046"><ele>498.0</ele><time>2026-04-19T10:21:09Z</time></trkpt><trkpt lat="43.249584244453565" lon="10.77773213020603"><ele>498.1666666666667</ele><time>2026-04-19T10:21:10Z</time></trkpt><trkpt lat="43.24965471490184" lon="10.777823845962283"><ele>498.33333333333337</ele><time>2026-04-19T10:21:11Z</time></trkpt><trkpt lat="43.24971369503802" lon="10.777904795926037"><ele>498.5</ele><time>2026-04-19T10:21:12Z</time></trkpt><trkpt lat="43.24976265590825" lon="10.777971761549459"><ele>498.6666666666667</ele><time>2026-04-19T10:21:13Z</time></trkpt><trkpt lat="43.24981361785392" lon="10.778024004455094"><ele>498.83333333333337</ele><time>2026-04-19T10:21:14Z</time></trkpt><trkpt lat="43.24987951364063" lon="10.778070593237201"><ele>499.0</ele><time>2026-04-19T10:21:15Z</time></trkpt><trkpt lat="43.2499523178027" lon="10.778104038766237"><ele>494.4</ele><time>2026-04-19T10:21:16Z</time></trkpt><trkpt lat="43.25003105546394" lon="10.778103828033144"><ele>489.79999999999995</ele><time>2026-04-19T10:21:17Z</time></trkpt><trkpt lat="43.250115342651256" lon="10.778144155584117"><ele>485.20000000000005</ele><time>2026-04-19T10:21:18Z</time></trkpt><trkpt lat="43.25022876544901" lon="10.778153687487341"><ele>480.6</ele><time>2026-04-19T10:21:19Z</time></trkpt><trkpt lat="43.25035159072883" lon="10.77815201292385"><ele>476.0</ele><time>2026-04-19T10:21:20Z</time></trkpt><trkpt lat="43.25046484093267" lon="10.778137528788271"><ele>476.0</ele><time>2026-04-19T10:21:21Z</time></trkpt><trkpt lat="43.250571245387256" lon="10.778103689044649"><ele>476.0</ele><time>2026-04-19T10:21:22Z</time></trkpt><trkpt lat="43.2506739410625" lon="10.778044489183186"><ele>476.0</ele><time>2026-04-19T10:21:23Z</time></trkpt><trkpt lat="43.25076691174063" lon="10.777984970211362"><ele>476.0</ele><time>2026-04-19T10:21:24Z</time></trkpt><trkpt lat="43.250849173656995" lon="10.77797594655931"><ele>476.0</ele><time>2026-04-19T10:21:25Z</time></trkpt><trkpt lat="43.250923926550826" lon="10.777995313596291"><ele>475.0</ele><time>2026-04-19T10:21:26Z</time></trkpt><trkpt lat="43.251009707390956" lon="10.778042896763132"><ele>474.0</ele><time>2026-04-19T10:21:27Z</time></trkpt><trkpt lat="43.25111821809623" lon="10.778119399919722"><ele>473.0</ele><time>2026-04-19T10:21:28Z</time></trkpt><trkpt lat="43.251255530481025" lon="10.778201545284066"><ele>472.0</ele><time>2026-04-19T10:21:29Z</time></trkpt><trkpt lat="43.25139926435434" lon="10.778295088020254"><ele>471.33333333333337</ele><time>2026-04-19T10:21:30Z</time></trkpt><trkpt lat="43.25154492711784" lon="10.778402399609567"><ele>470.66666666666663</ele><time>2026-04-19T10:21:31Z</time></trkpt><trkpt lat="43.25168852143154" lon="10.77850762244953"><ele>470.0</ele><time>2026-04-19T10:21:32Z</time></trkpt><trkpt lat="43.251826033931906" lon="10.778605710603902"><ele>469.0</ele><time>2026-04-19T10:21:33Z</time></trkpt><trkpt lat="43.25193818041477" lon="10.77868644002234"><ele>468.0</ele><time>2026-04-19T10:21:34Z</time></trkpt><trkpt lat="43.252037710698" lon="10.7787657265479"><ele>467.0</ele><time>2026-04-19T10:21:35Z</time></trkpt><trkpt lat="43.25214580228325" lon="10.778864749539945"><ele>466.0</ele><time>2026-04-19T10:21:36Z</time></trkpt><trkpt lat="43.25226977706266" lon="10.778968012471287"><ele>469.0</ele><time>2026-04-19T10:21:37Z</time></trkpt><trkpt lat="43.252397343366766" lon="10.779080791930806"><ele>472.0</ele><time>2026-04-19T10:21:38Z</time></trkpt><trkpt lat="43.2525316841735" lon="10.779200118465846"><ele>475.0</ele><time>2026-04-19T10:21:39Z</time></trkpt><trkpt lat="43.252677507962" lon="10.779322880563742"><ele>470.0</ele><time>2026-04-19T10:21:40Z</time></trkpt><trkpt lat="43.25280910667385" lon="10.779457486286784"><ele>465.0</ele><time>2026-04-19T10:21:41Z</time></trkpt><trkpt lat="43.252932407309906" lon="10.77957927790826"><ele>460.0</ele><time>2026-04-19T10:21:42Z</time></trkpt><trkpt lat="43.253069003794344" lon="10.779707599725478"><ele>460.5</ele><time>2026-04-19T10:21:43Z</time></trkpt><trkpt lat="43.25318921088867" lon="10.779847966741047"><ele>461.0</ele><time>2026-04-19T10:21:44Z</time></trkpt><trkpt lat="43.253290796658554" lon="10.779975294515337"><ele>461.5</ele><time>2026-04-19T10:21:45Z</time></trkpt><trkpt lat="43.25337299160816" lon="10.78009564396372"><ele>462.0</ele><time>2026-04-19T10:21:46Z</time></trkpt><trkpt lat="43.25344244952747" lon="10.780223749020054"><ele>462.0</ele><time>2026-04-19T10:21:47Z</time></trkpt><trkpt lat="43.25350940383352" lon="10.780372761125054"><ele>462.00000000000006</ele><time>2026-04-19T10:21:48Z</time></trkpt><trkpt lat="43.25356358396849" lon="10.780521763636555"><ele>462.00000000000006</ele><time>2026-04-19T10:21:49Z</time></trkpt><trkpt lat="43.25359724551888" lon="10.780647236568026"><ele>462.0</ele><time>2026-04-19T10:21:50Z</time></trkpt><trkpt lat="43.25363220899336" lon="10.780744658050223"><ele>462.0</ele><time>2026-04-19T10:21:51Z</time></trkpt><trkpt lat="43.2536901999975" lon="10.780828275667742"><ele>462.0</ele><time>2026-04-19T10:21:52Z</time></trkpt><trkpt lat="43.25377030792017" lon="10.780922157530458"><ele>462.00000000000006</ele><time>2026-04-19T10:21:53Z</time></trkpt><trkpt lat="43.253854944283816" lon="10.781035333657695"><ele>462.00000000000006</ele><time>2026-04-19T10:21:54Z</time></trkpt><trkpt lat="43.25394887743316" lon="10.78112498081557"><ele>462.0</ele><time>2026-04-19T10:21:55Z</time></trkpt><trkpt lat="43.254028754346514" lon="10.78119593467956"><ele>462.0</ele><time>2026-04-19T10:21:56Z</time></trkpt><trkpt lat="43.254105167874805" lon="10.781256557521534"><ele>461.20000000000005</ele><time>2026-04-19T10:21:57Z</time></trkpt><trkpt lat="43.25419156258136" lon="10.781291759046018"><ele>460.40000000000003</ele><time>2026-04-19T10:21:58Z</time></trkpt><trkpt lat="43.25427720472387" lon="10.78129730086953"><ele>459.59999999999997</ele><time>2026-04-19T10:21:59Z</time></trkpt><trkpt lat="43.25436452222969" lon="10.781270968366368"><ele>458.79999999999995</ele><time>2026-04-19T10:22:00Z</time></trkpt><trkpt lat="43.2544487434309" lon="10.781210574814121"><ele>458.0</ele><time>2026-04-19T10:22:01Z</time></trkpt><trkpt lat="43.25454866413298" lon="10.781161214777383"><ele>458.0</ele><time>2026-04-19T10:22:02Z</time></trkpt><trkpt lat="43.25463766449016" lon="10.781113891751932"><ele>457.99999999999994</ele><time>2026-04-19T10:22:03Z</time></trkpt><trkpt lat="43.25471948057692" lon="10.781122667179131"><ele>457.99999999999994</ele><time>2026-04-19T10:22:04Z</time></trkpt><trkpt lat="43.25478611407091" lon="10.781155199880324"><ele>458.0</ele><time>2026-04-19T10:22:05Z</time></trkpt><trkpt lat="43.254863516815135" lon="10.781232737353873"><ele>458.0</ele><time>2026-04-19T10:22:06Z</time></trkpt><trkpt lat="43.25496472379082" lon="10.781321042697774"><ele>459.25</ele><time>2026-04-19T10:22:07Z</time></trkpt><trkpt lat="43.255080860747576" lon="10.781455652127828"><ele>460.5</ele><time>2026-04-19T10:22:08Z</time></trkpt><trkpt lat="43.25516044185493" lon="10.78159963441025"><ele>461.75</ele><time>2026-04-19T10:22:09Z</time></trkpt><trkpt lat="43.255224719880026" lon="10.781743271487011"><ele>463.0</ele><time>2026-04-19T10:22:10Z</time></trkpt><trkpt lat="43.25527618647599" lon="10.781868694918074"><ele>461.00000000000006</ele><time>2026-04-19T10:22:11Z</time></trkpt><trkpt lat="43.25529683624378" lon="10.78199702775341"><ele>459.0</ele><time>2026-04-19T10:22:12Z</time></trkpt><trkpt lat="43.255310194078106" lon="10.782122714476126"><ele>457.0</ele><time>2026-04-19T10:22:13Z</time></trkpt><trkpt lat="43.255334123363106" lon="10.782231457547656"><ele>455.0</ele><time>2026-04-19T10:22:14Z</time></trkpt><trkpt lat="43.25533648226324" lon="10.78233974226828"><ele>453.00000000000006</ele><time>2026-04-19T10:22:15Z</time></trkpt><trkpt lat="43.255358461073094" lon="10.782435656798919"><ele>451.0</ele><time>2026-04-19T10:22:16Z</time></trkpt><trkpt lat="43.25540221020672" lon="10.782515159261152"><ele>451.0</ele><time>2026-04-19T10:22:17Z</time></trkpt><trkpt lat="43.255478105603906" lon="10.782602261642017"><ele>451.0</ele><time>2026-04-19T10:22:18Z</time></trkpt><trkpt lat="43.2555759971147" lon="10.782722206286197"><ele>451.0</ele><time>2026-04-19T10:22:19Z</time></trkpt><trkpt lat="43.25564810412161" lon="10.782827930443732"><ele>451.0</ele><time>2026-04-19T10:22:20Z</time></trkpt><trkpt lat="43.2557127080909" lon="10.782903973896818"><ele>451.0</ele><time>2026-04-19T10:22:21Z</time></trkpt><trkpt lat="43.255770409556675" lon="10.782976166107753"><ele>451.0</ele><time>2026-04-19T10:22:22Z</time></trkpt><trkpt lat="43.255826606777696" lon="10.783029654257573"><ele>451.0</ele><time>2026-04-19T10:22:23Z</time></trkpt><trkpt lat="43.25589363967339" lon="10.783063290300133"><ele>451.0</ele><time>2026-04-19T10:22:24Z</time></trkpt><trkpt lat="43.255997938480895" lon="10.783084096835216"><ele>451.0</ele><time>2026-04-19T10:22:25Z</time></trkpt><trkpt lat="43.25611785926728" lon="10.783082700374155"><ele>451.0</ele><time>2026-04-19T10:22:26Z</time></trkpt><trkpt lat="43.2562499505526" lon="10.783067491712787"><ele>451.00000000000006</ele><time>2026-04-19T10:22:27Z</time></trkpt><trkpt lat="43.256342434529266" lon="10.783063035890859"><ele>451.0</ele><time>2026-04-19T10:22:28Z</time></trkpt><trkpt lat="43.25641326008843" lon="10.783064020382042"><ele>451.0</ele><time>2026-04-19T10:22:28.999Z</time></trkpt><trkpt lat="43.25648868171095" lon="10.783077311948476"><ele>451.0</ele><time>2026-04-19T10:22:29.999Z</time></trkpt><trkpt lat="43.25655899670096" lon="10.783097514900112"><ele>451.00000000000006</ele><time>2026-04-19T10:22:30.999Z</time></trkpt><trkpt lat="43.25662918231247" lon="10.783151879514957"><ele>451.0</ele><time>2026-04-19T10:22:31.999Z</time></trkpt><trkpt lat="43.25667944663889" lon="10.783254718698329"><ele>450.5</ele><time>2026-04-19T10:22:32.999Z</time></trkpt><trkpt lat="43.256713530081804" lon="10.783387467969504"><ele>450.0</ele><time>2026-04-19T10:22:33.999Z</time></trkpt><trkpt lat="43.256721783041336" lon="10.783529918756493"><ele>449.5</ele><time>2026-04-19T10:22:34.999Z</time></trkpt><trkpt lat="43.25672583391261" lon="10.783706266818768"><ele>449.0</ele><time>2026-04-19T10:22:35.999Z</time></trkpt><trkpt lat="43.25673533121942" lon="10.783901708251394"><ele>447.75</ele><time>2026-04-19T10:22:36.999Z</time></trkpt><trkpt lat="43.256761221043405" lon="10.784099705259656"><ele>446.5</ele><time>2026-04-19T10:22:37.999Z</time></trkpt><trkpt lat="43.256801215348816" lon="10.784292755421978"><ele>445.25</ele><time>2026-04-19T10:22:38.999Z</time></trkpt><trkpt lat="43.25683589234106" lon="10.784460157865697"><ele>444.0</ele><time>2026-04-19T10:22:39.999Z</time></trkpt><trkpt lat="43.25685478425192" lon="10.784593614446022"><ele>443.2</ele><time>2026-04-19T10:22:40.999Z</time></trkpt><trkpt lat="43.25688972271377" lon="10.784691733283232"><ele>442.4</ele><time>2026-04-19T10:22:41.999Z</time></trkpt><trkpt lat="43.256920847568075" lon="10.784789795588614"><ele>441.6</ele><time>2026-04-19T10:22:42.999Z</time></trkpt><trkpt lat="43.25696273773515" lon="10.78487215183703"><ele>440.8</ele><time>2026-04-19T10:22:43.999Z</time></trkpt><trkpt lat="43.257020540240006" lon="10.78498548573991"><ele>440.0</ele><time>2026-04-19T10:22:44.999Z</time></trkpt><trkpt lat="43.25710030843687" lon="10.785124356583893"><ele>439.0</ele><time>2026-04-19T10:22:45.999Z</time></trkpt><trkpt lat="43.257165922683456" lon="10.785247473105462"><ele>438.0</ele><time>2026-04-19T10:22:46.999Z</time></trkpt><trkpt lat="43.257171529664454" lon="10.785393076988665"><ele>437.0</ele><time>2026-04-19T10:22:47.999Z</time></trkpt><trkpt lat="43.257172863217" lon="10.785540455203124"><ele>436.0</ele><time>2026-04-19T10:22:48.999Z</time></trkpt><trkpt lat="43.25714027592113" lon="10.785707383038233"><ele>436.0</ele><time>2026-04-19T10:22:49.999Z</time></trkpt><trkpt lat="43.25714107320626" lon="10.785840721261032"><ele>436.0</ele><time>2026-04-19T10:22:51Z</time></trkpt><trkpt lat="43.25714359895562" lon="10.785947937493827"><ele>436.0</ele><time>2026-04-19T10:22:52Z</time></trkpt><trkpt lat="43.25716064032938" lon="10.786042449958881"><ele>436.0</ele><time>2026-04-19T10:22:53Z</time></trkpt><trkpt lat="43.25719539578645" lon="10.7861471998205"><ele>436.0</ele><time>2026-04-19T10:22:54Z</time></trkpt><trkpt lat="43.257289877198254" lon="10.786248189132209"><ele>439.0</ele><time>2026-04-19T10:22:55Z</time></trkpt><trkpt lat="43.25737802464805" lon="10.786401943056436"><ele>442.0</ele><time>2026-04-19T10:22:56Z</time></trkpt><trkpt lat="43.257498661132104" lon="10.78653318334144"><ele>445.0</ele><time>2026-04-19T10:22:57Z</time></trkpt><trkpt lat="43.257607343457394" lon="10.786653059606374"><ele>448.0</ele><time>2026-04-19T10:22:58Z</time></trkpt><trkpt lat="43.25769094371454" lon="10.786753090454967"><ele>446.25</ele><time>2026-04-19T10:22:59Z</time></trkpt><trkpt lat="43.257785849337466" lon="10.786853206286809"><ele>444.5</ele><time>2026-04-19T10:23:00Z</time></trkpt><trkpt lat="43.25788929067325" lon="10.786953654702948"><ele>442.75</ele><time>2026-04-19T10:23:01Z</time></trkpt><trkpt lat="43.25799194422031" lon="10.787050488494085"><ele>441.0</ele><time>2026-04-19T10:23:02Z</time></trkpt><trkpt lat="43.25809458373093" lon="10.787137495917177"><ele>444.20000000000005</ele><time>2026-04-19T10:23:03Z</time></trkpt><trkpt lat="43.258182110293106" lon="10.787211449201758"><ele>447.40000000000003</ele><time>2026-04-19T10:23:04Z</time></trkpt><trkpt lat="43.2582527164187" lon="10.78727137709086"><ele>450.6</ele><time>2026-04-19T10:23:05Z</time></trkpt><trkpt lat="43.25831340073911" lon="10.787343895739536"><ele>453.8</ele><time>2026-04-19T10:23:06Z</time></trkpt><trkpt lat="43.25835300808381" lon="10.787461418742465"><ele>457.0</ele><time>2026-04-19T10:23:07Z</time></trkpt><trkpt lat="43.25838069301702" lon="10.787603039188085"><ele>456.33333333333337</ele><time>2026-04-19T10:23:08Z</time></trkpt><trkpt lat="43.258381688047415" lon="10.787756860390646"><ele>455.66666666666663</ele><time>2026-04-19T10:23:09Z</time></trkpt><trkpt lat="43.258382699196176" lon="10.7879728483105"><ele>455.0</ele><time>2026-04-19T10:23:10Z</time></trkpt><trkpt lat="43.25838155630962" lon="10.788222148886426"><ele>455.0</ele><time>2026-04-19T10:23:11Z</time></trkpt><trkpt lat="43.25838794433825" lon="10.78843455536871"><ele>455.0</ele><time>2026-04-19T10:23:12Z</time></trkpt><trkpt lat="43.25839862438307" lon="10.788619758987657"><ele>455.0</ele><time>2026-04-19T10:23:13Z</time></trkpt><trkpt lat="43.25841602526669" lon="10.788815855332734"><ele>455.0</ele><time>2026-04-19T10:23:14Z</time></trkpt><trkpt lat="43.2584413871842" lon="10.789026060517092"><ele>455.0</ele><time>2026-04-19T10:23:15Z</time></trkpt><trkpt lat="43.25846983675748" lon="10.789204234583226"><ele>455.0</ele><time>2026-04-19T10:23:16Z</time></trkpt><trkpt lat="43.25850333122132" lon="10.789355283067541"><ele>455.0</ele><time>2026-04-19T10:23:17Z</time></trkpt><trkpt lat="43.25854104862704" lon="10.789483882389776"><ele>455.0</ele><time>2026-04-19T10:23:18Z</time></trkpt><trkpt lat="43.25857864964067" lon="10.789608014635599"><ele>455.0</ele><time>2026-04-19T10:23:19Z</time></trkpt><trkpt lat="43.258614631933504" lon="10.789759905402091"><ele>455.4</ele><time>2026-04-19T10:23:20Z</time></trkpt><trkpt lat="43.25864971067615" lon="10.789901112658509"><ele>455.8</ele><time>2026-04-19T10:23:21Z</time></trkpt><trkpt lat="43.258689819370574" lon="10.790024326304708"><ele>456.20000000000005</ele><time>2026-04-19T10:23:22Z</time></trkpt><trkpt lat="43.25874420920047" lon="10.790148162215594"><ele>456.6</ele><time>2026-04-19T10:23:23Z</time></trkpt><trkpt lat="43.25879911072705" lon="10.790282797304993"><ele>457.0</ele><time>2026-04-19T10:23:24Z</time></trkpt><trkpt lat="43.25885549343703" lon="10.79042044985748"><ele>457.25</ele><time>2026-04-19T10:23:25Z</time></trkpt><trkpt lat="43.25891089531035" lon="10.79054572023548"><ele>457.5</ele><time>2026-04-19T10:23:26Z</time></trkpt><trkpt lat="43.25896574974858" lon="10.790675939018184"><ele>457.75</ele><time>2026-04-19T10:23:27Z</time></trkpt><trkpt lat="43.259032995971054" lon="10.790826017288554"><ele>458.0</ele><time>2026-04-19T10:23:28Z</time></trkpt><trkpt lat="43.259104281891936" lon="10.790984970953055"><ele>458.0</ele><time>2026-04-19T10:23:29Z</time></trkpt><trkpt lat="43.259181394159576" lon="10.791152373113698"><ele>458.0</ele><time>2026-04-19T10:23:30Z</time></trkpt><trkpt lat="43.25926081684426" lon="10.79129443298428"><ele>458.0</ele><time>2026-04-19T10:23:31Z</time></trkpt><trkpt lat="43.25933788380773" lon="10.791441758938438"><ele>458.0</ele><time>2026-04-19T10:23:32Z</time></trkpt><trkpt lat="43.25942210134029" lon="10.791596899138085"><ele>458.0</ele><time>2026-04-19T10:23:33Z</time></trkpt><trkpt lat="43.25951054500323" lon="10.791737932833014"><ele>458.0</ele><time>2026-04-19T10:23:34Z</time></trkpt><trkpt lat="43.25960508300769" lon="10.791865978954794"><ele>458.0</ele><time>2026-04-19T10:23:35Z</time></trkpt><trkpt lat="43.25970165232246" lon="10.792009268309926"><ele>458.0</ele><time>2026-04-19T10:23:36Z</time></trkpt><trkpt lat="43.259802729029424" lon="10.792175073123092"><ele>458.25</ele><time>2026-04-19T10:23:37Z</time></trkpt><trkpt lat="43.25989681726576" lon="10.792349832993713"><ele>458.5</ele><time>2026-04-19T10:23:38Z</time></trkpt><trkpt lat="43.25998167891178" lon="10.792505362122956"><ele>458.75</ele><time>2026-04-19T10:23:39Z</time></trkpt><trkpt lat="43.2600634336416" lon="10.792653673659204"><ele>459.0</ele><time>2026-04-19T10:23:40Z</time></trkpt><trkpt lat="43.26014154570513" lon="10.792815939409"><ele>459.0</ele><time>2026-04-19T10:23:41Z</time></trkpt><trkpt lat="43.26021469596486" lon="10.792982620492985"><ele>459.0</ele><time>2026-04-19T10:23:42Z</time></trkpt><trkpt lat="43.260278324321774" lon="10.793144930551431"><ele>459.0</ele><time>2026-04-19T10:23:43Z</time></trkpt><trkpt lat="43.26032528958905" lon="10.793325677544676"><ele>459.0</ele><time>2026-04-19T10:23:44Z</time></trkpt><trkpt lat="43.26039954577642" lon="10.793503687975885"><ele>458.5</ele><time>2026-04-19T10:23:45Z</time></trkpt><trkpt lat="43.26043609998808" lon="10.793685995501198"><ele>458.0</ele><time>2026-04-19T10:23:46Z</time></trkpt><trkpt lat="43.26046793219555" lon="10.793851864754979"><ele>457.5</ele><time>2026-04-19T10:23:47Z</time></trkpt><trkpt lat="43.2605390785703" lon="10.793998003271165"><ele>457.0</ele><time>2026-04-19T10:23:48Z</time></trkpt><trkpt lat="43.26060403944361" lon="10.794153962014201"><ele>459.0</ele><time>2026-04-19T10:23:49Z</time></trkpt><trkpt lat="43.260680604492855" lon="10.794330402236152"><ele>461.0</ele><time>2026-04-19T10:23:50Z</time></trkpt><trkpt lat="43.26079517730748" lon="10.79452964274895"><ele>463.0</ele><time>2026-04-19T10:23:51Z</time></trkpt><trkpt lat="43.260922017243615" lon="10.79476964604571"><ele>464.5</ele><time>2026-04-19T10:23:52Z</time></trkpt><trkpt lat="43.26101937592704" lon="10.794969650434128"><ele>466.0</ele><time>2026-04-19T10:23:53Z</time></trkpt><trkpt lat="43.261082700009155" lon="10.795128617403"><ele>467.5</ele><time>2026-04-19T10:23:54Z</time></trkpt><trkpt lat="43.261155107328065" lon="10.795272000434844"><ele>469.0</ele><time>2026-04-19T10:23:55Z</time></trkpt><trkpt lat="43.26122343176846" lon="10.795410591019655"><ele>471.0</ele><time>2026-04-19T10:23:56Z</time></trkpt><trkpt lat="43.261292933681474" lon="10.79556032031814"><ele>473.0</ele><time>2026-04-19T10:23:57Z</time></trkpt><trkpt lat="43.26137652310968" lon="10.795720192558417"><ele>475.0</ele><time>2026-04-19T10:23:58Z</time></trkpt><trkpt lat="43.26143244528091" lon="10.795915541656921"><ele>477.0</ele><time>2026-04-19T10:23:59Z</time></trkpt><trkpt lat="43.261480981568134" lon="10.796101053917821"><ele>477.75</ele><time>2026-04-19T10:24:00Z</time></trkpt><trkpt lat="43.26153092433276" lon="10.796276018017782"><ele>478.5</ele><time>2026-04-19T10:24:01Z</time></trkpt><trkpt lat="43.26158179128458" lon="10.796434980602216"><ele>479.25</ele><time>2026-04-19T10:24:02Z</time></trkpt><trkpt lat="43.26164439242739" lon="10.79658870564458"><ele>480.0</ele><time>2026-04-19T10:24:03Z</time></trkpt><trkpt lat="43.261709628099325" lon="10.796742100427585"><ele>481.75</ele><time>2026-04-19T10:24:04Z</time></trkpt><trkpt lat="43.261761174867914" lon="10.796891668864573"><ele>483.5</ele><time>2026-04-19T10:24:05Z</time></trkpt><trkpt lat="43.26179255950198" lon="10.79705652316258"><ele>485.25</ele><time>2026-04-19T10:24:06Z</time></trkpt><trkpt lat="43.26182995863141" lon="10.797256917171648"><ele>487.0</ele><time>2026-04-19T10:24:07Z</time></trkpt><trkpt lat="43.26188286157249" lon="10.7974408729103"><ele>487.0</ele><time>2026-04-19T10:24:08Z</time></trkpt><trkpt lat="43.261942385349585" lon="10.797610694014017"><ele>487.0</ele><time>2026-04-19T10:24:09Z</time></trkpt><trkpt lat="43.26199281298964" lon="10.797797664857741"><ele>487.0</ele><time>2026-04-19T10:24:10Z</time></trkpt><trkpt lat="43.26203216825844" lon="10.797984407858692"><ele>487.0</ele><time>2026-04-19T10:24:11Z</time></trkpt><trkpt lat="43.26207046650702" lon="10.798174023345313"><ele>487.5</ele><time>2026-04-19T10:24:12Z</time></trkpt><trkpt lat="43.26210853881651" lon="10.798353188971351"><ele>488.0</ele><time>2026-04-19T10:24:13Z</time></trkpt><trkpt lat="43.262147311058534" lon="10.798516637664267"><ele>488.5</ele><time>2026-04-19T10:24:14Z</time></trkpt><trkpt lat="43.2621860924957" lon="10.79867734926442"><ele>489.0</ele><time>2026-04-19T10:24:15Z</time></trkpt><trkpt lat="43.26222245121611" lon="10.798840146648882"><ele>487.79999999999995</ele><time>2026-04-19T10:24:16Z</time></trkpt><trkpt lat="43.262258413241945" lon="10.799001110315029"><ele>486.59999999999997</ele><time>2026-04-19T10:24:17Z</time></trkpt><trkpt lat="43.262298755287134" lon="10.799147522730681"><ele>485.4</ele><time>2026-04-19T10:24:18Z</time></trkpt><trkpt lat="43.262340758677766" lon="10.79926755977144"><ele>484.2</ele><time>2026-04-19T10:24:19Z</time></trkpt><trkpt lat="43.26239039328489" lon="10.799367940596746"><ele>483.0</ele><time>2026-04-19T10:24:20Z</time></trkpt><trkpt lat="43.262452982362966" lon="10.799448837804603"><ele>479.5</ele><time>2026-04-19T10:24:21Z</time></trkpt><trkpt lat="43.26252431208231" lon="10.799509386698416"><ele>476.0</ele><time>2026-04-19T10:24:22Z</time></trkpt><trkpt lat="43.26262091532825" lon="10.799578137963822"><ele>472.5</ele><time>2026-04-19T10:24:23Z</time></trkpt><trkpt lat="43.26271174651896" lon="10.799695860020961"><ele>469.0</ele><time>2026-04-19T10:24:24Z</time></trkpt><trkpt lat="43.26282702419004" lon="10.799809170500945"><ele>469.0</ele><time>2026-04-19T10:24:25Z</time></trkpt><trkpt lat="43.26296502463946" lon="10.799932215731882"><ele>469.0</ele><time>2026-04-19T10:24:26Z</time></trkpt><trkpt lat="43.263099058391795" lon="10.800062061996226"><ele>469.0</ele><time>2026-04-19T10:24:27Z</time></trkpt><trkpt lat="43.26321386169032" lon="10.800179763645897"><ele>467.79999999999995</ele><time>2026-04-19T10:24:28Z</time></trkpt><trkpt lat="43.26331389544741" lon="10.800281821344253"><ele>466.59999999999997</ele><time>2026-04-19T10:24:29Z</time></trkpt><trkpt lat="43.263395042028854" lon="10.800364910095128"><ele>465.4</ele><time>2026-04-19T10:24:30Z</time></trkpt><trkpt lat="43.26348357946013" lon="10.800450150919707"><ele>464.2</ele><time>2026-04-19T10:24:31Z</time></trkpt><trkpt lat="43.26356027927049" lon="10.8005148748335"><ele>463.0</ele><time>2026-04-19T10:24:32Z</time></trkpt><trkpt lat="43.26364732917331" lon="10.800587207152736"><ele>463.00000000000006</ele><time>2026-04-19T10:24:33Z</time></trkpt><trkpt lat="43.26372454726267" lon="10.80066227981067"><ele>463.0</ele><time>2026-04-19T10:24:34Z</time></trkpt><trkpt lat="43.26378771581567" lon="10.80074888874901"><ele>463.0</ele><time>2026-04-19T10:24:35Z</time></trkpt><trkpt lat="43.263843406946116" lon="10.800850148599288"><ele>463.0</ele><time>2026-04-19T10:24:35.999Z</time></trkpt><trkpt lat="43.26386816952304" lon="10.800952161118957"><ele>463.00000000000006</ele><time>2026-04-19T10:24:37Z</time></trkpt><trkpt lat="43.26386638763369" lon="10.801054820603582"><ele>463.0</ele><time>2026-04-19T10:24:38Z</time></trkpt><trkpt lat="43.26386176505679" lon="10.80117077516653"><ele>463.59999999999997</ele><time>2026-04-19T10:24:38.999Z</time></trkpt><trkpt lat="43.263804832194865" lon="10.801288633849458"><ele>464.19999999999993</ele><time>2026-04-19T10:24:40Z</time></trkpt><trkpt lat="43.26375724856313" lon="10.801395728691352"><ele>464.8</ele><time>2026-04-19T10:24:41Z</time></trkpt><trkpt lat="43.26371125057393" lon="10.801519966680246"><ele>465.4</ele><time>2026-04-19T10:24:42Z</time></trkpt><trkpt lat="43.263671430059716" lon="10.801664904864168"><ele>466.0</ele><time>2026-04-19T10:24:43Z</time></trkpt><trkpt lat="43.263639941575484" lon="10.801838931405012"><ele>466.0</ele><time>2026-04-19T10:24:44Z</time></trkpt><trkpt lat="43.26361891708323" lon="10.801989200319978"><ele>466.0</ele><time>2026-04-19T10:24:45Z</time></trkpt><trkpt lat="43.263589232711354" lon="10.802126097267292"><ele>466.0</ele><time>2026-04-19T10:24:46Z</time></trkpt><trkpt lat="43.26356564523879" lon="10.802255971863607"><ele>466.0</ele><time>2026-04-19T10:24:47Z</time></trkpt><trkpt lat="43.26354430883527" lon="10.802386571590215"><ele>466.0</ele><time>2026-04-19T10:24:48Z</time></trkpt><trkpt lat="43.263534951367966" lon="10.802510489382426"><ele>466.0</ele><time>2026-04-19T10:24:49Z</time></trkpt><trkpt lat="43.26353986019571" lon="10.802638542052009"><ele>466.0</ele><time>2026-04-19T10:24:50Z</time></trkpt><trkpt lat="43.26356013930263" lon="10.802762710599993"><ele>466.0</ele><time>2026-04-19T10:24:51Z</time></trkpt><trkpt lat="43.263597508390575" lon="10.802877578991898"><ele>466.0</ele><time>2026-04-19T10:24:52Z</time></trkpt><trkpt lat="43.26364566059596" lon="10.802987456857865"><ele>466.0</ele><time>2026-04-19T10:24:53Z</time></trkpt><trkpt lat="43.26370328274096" lon="10.803088094744902"><ele>465.8</ele><time>2026-04-19T10:24:54Z</time></trkpt><trkpt lat="43.26377453893888" lon="10.8031752913621"><ele>465.6</ele><time>2026-04-19T10:24:55Z</time></trkpt><trkpt lat="43.26385908375626" lon="10.803261896471732"><ele>465.4</ele><time>2026-04-19T10:24:56Z</time></trkpt><trkpt lat="43.26394615790407" lon="10.803349858904015"><ele>465.2</ele><time>2026-04-19T10:24:57Z</time></trkpt><trkpt lat="43.264013848631826" lon="10.80342380562287"><ele>465.0</ele><time>2026-04-19T10:24:58Z</time></trkpt><trkpt lat="43.264074011425045" lon="10.803485864040084"><ele>467.6</ele><time>2026-04-19T10:24:59Z</time></trkpt><trkpt lat="43.26414208070044" lon="10.803532789038846"><ele>470.2</ele><time>2026-04-19T10:25:00Z</time></trkpt><trkpt lat="43.264221865291475" lon="10.803559441094906"><ele>472.79999999999995</ele><time>2026-04-19T10:25:01Z</time></trkpt><trkpt lat="43.264317685666924" lon="10.803564779700778"><ele>475.4</ele><time>2026-04-19T10:25:02Z</time></trkpt><trkpt lat="43.264426613805014" lon="10.803566050281509"><ele>478.0</ele><time>2026-04-19T10:25:03Z</time></trkpt><trkpt lat="43.26454227990998" lon="10.803547243650335"><ele>478.0</ele><time>2026-04-19T10:25:04Z</time></trkpt><trkpt lat="43.26465817892645" lon="10.803534001602742"><ele>478.0</ele><time>2026-04-19T10:25:05Z</time></trkpt><trkpt lat="43.26478288250333" lon="10.803508012229033"><ele>478.0</ele><time>2026-04-19T10:25:06Z</time></trkpt><trkpt lat="43.264916172246444" lon="10.803508739298277"><ele>478.0</ele><time>2026-04-19T10:25:07Z</time></trkpt><trkpt lat="43.265036299332515" lon="10.80352059398757"><ele>477.1666666666667</ele><time>2026-04-19T10:25:08Z</time></trkpt><trkpt lat="43.265132108758415" lon="10.803523909989112"><ele>476.33333333333337</ele><time>2026-04-19T10:25:09Z</time></trkpt><trkpt lat="43.26521322349711" lon="10.803525766959133"><ele>475.5</ele><time>2026-04-19T10:25:10Z</time></trkpt><trkpt lat="43.265275169912655" lon="10.803567946949187"><ele>474.66666666666663</ele><time>2026-04-19T10:25:11Z</time></trkpt><trkpt lat="43.26533691550392" lon="10.803596184669223"><ele>473.8333333333333</ele><time>2026-04-19T10:25:12Z</time></trkpt><trkpt lat="43.26537948027791" lon="10.803674857595004"><ele>473.0</ele><time>2026-04-19T10:25:13Z</time></trkpt><trkpt lat="43.265408614351045" lon="10.80379291136897"><ele>473.0</ele><time>2026-04-19T10:25:14Z</time></trkpt><trkpt lat="43.26543103774585" lon="10.80391246365858"><ele>472.99999999999994</ele><time>2026-04-19T10:25:15Z</time></trkpt><trkpt lat="43.265480283208746" lon="10.804028591698316"><ele>472.99999999999994</ele><time>2026-04-19T10:25:16Z</time></trkpt><trkpt lat="43.26555159331444" lon="10.804119138710714"><ele>473.0</ele><time>2026-04-19T10:25:17Z</time></trkpt><trkpt lat="43.26564433556149" lon="10.804188326763734"><ele>473.0</ele><time>2026-04-19T10:25:18Z</time></trkpt><trkpt lat="43.26575532069377" lon="10.804309792997104"><ele>472.0</ele><time>2026-04-19T10:25:19Z</time></trkpt><trkpt lat="43.26589313494461" lon="10.804427441380144"><ele>471.0</ele><time>2026-04-19T10:25:20Z</time></trkpt><trkpt lat="43.26603877880405" lon="10.80455444147785"><ele>470.0</ele><time>2026-04-19T10:25:21Z</time></trkpt><trkpt lat="43.26618861683217" lon="10.804669170720885"><ele>470.0</ele><time>2026-04-19T10:25:22Z</time></trkpt><trkpt lat="43.26630975476493" lon="10.80480693318561"><ele>470.0</ele><time>2026-04-19T10:25:23Z</time></trkpt><trkpt lat="43.26645821630284" lon="10.804930448085639"><ele>470.0</ele><time>2026-04-19T10:25:24Z</time></trkpt><trkpt lat="43.26661168233555" lon="10.80504702878774"><ele>468.5</ele><time>2026-04-19T10:25:25Z</time></trkpt><trkpt lat="43.26674087680757" lon="10.805136401931238"><ele>467.0</ele><time>2026-04-19T10:25:26Z</time></trkpt><trkpt lat="43.26687016772781" lon="10.805210141688173"><ele>465.5</ele><time>2026-04-19T10:25:27Z</time></trkpt><trkpt lat="43.26699922719198" lon="10.805262442936195"><ele>464.0</ele><time>2026-04-19T10:25:28Z</time></trkpt><trkpt lat="43.267131281634605" lon="10.805323505520033"><ele>464.0</ele><time>2026-04-19T10:25:29Z</time></trkpt><trkpt lat="43.26726218746455" lon="10.805370875109075"><ele>464.0</ele><time>2026-04-19T10:25:30Z</time></trkpt><trkpt lat="43.267381578955224" lon="10.805414078115096"><ele>464.0</ele><time>2026-04-19T10:25:31Z</time></trkpt><trkpt lat="43.26750857444611" lon="10.805466207881107"><ele>464.0</ele><time>2026-04-19T10:25:32Z</time></trkpt><trkpt lat="43.267656963118135" lon="10.805515458099562"><ele>462.5</ele><time>2026-04-19T10:25:33Z</time></trkpt><trkpt lat="43.267818297529146" lon="10.80559961523908"><ele>461.0</ele><time>2026-04-19T10:25:34Z</time></trkpt><trkpt lat="43.267951779857626" lon="10.805648877090965"><ele>459.5</ele><time>2026-04-19T10:25:35Z</time></trkpt><trkpt lat="43.26806725742854" lon="10.805676557985812"><ele>458.0</ele><time>2026-04-19T10:25:36Z</time></trkpt><trkpt lat="43.26818491133505" lon="10.805689416049878"><ele>457.75</ele><time>2026-04-19T10:25:37Z</time></trkpt><trkpt lat="43.268310459312346" lon="10.805689923496011"><ele>457.5</ele><time>2026-04-19T10:25:38Z</time></trkpt><trkpt lat="43.26844634031598" lon="10.805678347804676"><ele>457.25</ele><time>2026-04-19T10:25:39Z</time></trkpt><trkpt lat="43.26858143689767" lon="10.805647831947638"><ele>457.0</ele><time>2026-04-19T10:25:40Z</time></trkpt><trkpt lat="43.26870646866579" lon="10.80564796549582"><ele>457.0</ele><time>2026-04-19T10:25:41Z</time></trkpt><trkpt lat="43.268820605525704" lon="10.805632131504922"><ele>457.00000000000006</ele><time>2026-04-19T10:25:42Z</time></trkpt><trkpt lat="43.26892218727534" lon="10.805625786008468"><ele>457.00000000000006</ele><time>2026-04-19T10:25:43Z</time></trkpt><trkpt lat="43.26901578256476" lon="10.805643388954204"><ele>457.0</ele><time>2026-04-19T10:25:44Z</time></trkpt><trkpt lat="43.2691103090702" lon="10.805698893560809"><ele>457.0</ele><time>2026-04-19T10:25:45Z</time></trkpt><trkpt lat="43.269216781028184" lon="10.80576813311728"><ele>457.0</ele><time>2026-04-19T10:25:46Z</time></trkpt><trkpt lat="43.26934057293819" lon="10.805871473563789"><ele>457.0</ele><time>2026-04-19T10:25:47Z</time></trkpt><trkpt lat="43.269447667041995" lon="10.805922960276858"><ele>457.0</ele><time>2026-04-19T10:25:48Z</time></trkpt><trkpt lat="43.26953279843461" lon="10.805962015608474"><ele>457.0</ele><time>2026-04-19T10:25:49Z</time></trkpt><trkpt lat="43.26963551574476" lon="10.805977829382343"><ele>457.0</ele><time>2026-04-19T10:25:50Z</time></trkpt><trkpt lat="43.269743814327825" lon="10.805970316631019"><ele>457.0</ele><time>2026-04-19T10:25:51Z</time></trkpt><trkpt lat="43.26985245971217" lon="10.805965599642612"><ele>457.0</ele><time>2026-04-19T10:25:52Z</time></trkpt><trkpt lat="43.269962160220075" lon="10.805947605038192"><ele>457.0</ele><time>2026-04-19T10:25:53Z</time></trkpt><trkpt lat="43.27009086001048" lon="10.80595364538847"><ele>455.75</ele><time>2026-04-19T10:25:54Z</time></trkpt><trkpt lat="43.2702294494289" lon="10.805917266851907"><ele>454.5</ele><time>2026-04-19T10:25:55Z</time></trkpt><trkpt lat="43.270373564122146" lon="10.805895208792473"><ele>453.25</ele><time>2026-04-19T10:25:56Z</time></trkpt><trkpt lat="43.27051805808515" lon="10.80590179624318"><ele>452.0</ele><time>2026-04-19T10:25:57Z</time></trkpt><trkpt lat="43.27066627922241" lon="10.805895770413702"><ele>451.75</ele><time>2026-04-19T10:25:58Z</time></trkpt><trkpt lat="43.27080538949364" lon="10.805881448649679"><ele>451.5</ele><time>2026-04-19T10:25:59Z</time></trkpt><trkpt lat="43.270955690334866" lon="10.805834652363524"><ele>451.25</ele><time>2026-04-19T10:26:00Z</time></trkpt><trkpt lat="43.271106265042576" lon="10.805831019554864"><ele>451.0</ele><time>2026-04-19T10:26:01Z</time></trkpt><trkpt lat="43.271240696477726" lon="10.805821680439497"><ele>451.0</ele><time>2026-04-19T10:26:02Z</time></trkpt><trkpt lat="43.271391822509976" lon="10.805822375373642"><ele>451.0</ele><time>2026-04-19T10:26:03Z</time></trkpt><trkpt lat="43.27154000340044" lon="10.805820422820704"><ele>451.0</ele><time>2026-04-19T10:26:04Z</time></trkpt><trkpt lat="43.271663372312084" lon="10.805808300844584"><ele>451.0</ele><time>2026-04-19T10:26:05Z</time></trkpt><trkpt lat="43.27177580379622" lon="10.805762234105618"><ele>450.75</ele><time>2026-04-19T10:26:06Z</time></trkpt><trkpt lat="43.27188225473424" lon="10.805726847677217"><ele>450.5</ele><time>2026-04-19T10:26:07Z</time></trkpt><trkpt lat="43.27200598432627" lon="10.805666209537007"><ele>450.25</ele><time>2026-04-19T10:26:08Z</time></trkpt><trkpt lat="43.27216382949038" lon="10.805598616656376"><ele>450.0</ele><time>2026-04-19T10:26:09Z</time></trkpt><trkpt lat="43.272339885625215" lon="10.805519939909823"><ele>450.0</ele><time>2026-04-19T10:26:10Z</time></trkpt><trkpt lat="43.27250518489477" lon="10.805462005266376"><ele>450.0</ele><time>2026-04-19T10:26:11Z</time></trkpt><trkpt lat="43.272651955952995" lon="10.805414853927394"><ele>450.0</ele><time>2026-04-19T10:26:12Z</time></trkpt><trkpt lat="43.27277870932882" lon="10.805368955938448"><ele>450.0</ele><time>2026-04-19T10:26:13Z</time></trkpt><trkpt lat="43.2728743201536" lon="10.805357154697452"><ele>450.0</ele><time>2026-04-19T10:26:14Z</time></trkpt><trkpt lat="43.27295761105737" lon="10.805348627474896"><ele>450.0</ele><time>2026-04-19T10:26:15Z</time></trkpt><trkpt lat="43.27303772529625" lon="10.805340872230527"><ele>450.0</ele><time>2026-04-19T10:26:16Z</time></trkpt><trkpt lat="43.27312966517319" lon="10.805333980282528"><ele>450.0</ele><time>2026-04-19T10:26:17Z</time></trkpt><trkpt lat="43.273222487853964" lon="10.805331007468222"><ele>450.0</ele><time>2026-04-19T10:26:18Z</time></trkpt><trkpt lat="43.27331704993998" lon="10.805327099716832"><ele>450.2</ele><time>2026-04-19T10:26:19.001Z</time></trkpt><trkpt lat="43.273407605038756" lon="10.805318665785181"><ele>450.4</ele><time>2026-04-19T10:26:20.001Z</time></trkpt><trkpt lat="43.27349568796899" lon="10.805306115446049"><ele>450.6</ele><time>2026-04-19T10:26:21.001Z</time></trkpt><trkpt lat="43.27358490634916" lon="10.805294130621261"><ele>450.8</ele><time>2026-04-19T10:26:22.001Z</time></trkpt><trkpt lat="43.273685490479906" lon="10.805281612435866"><ele>451.0</ele><time>2026-04-19T10:26:23.001Z</time></trkpt><trkpt lat="43.273784422839725" lon="10.805272828170216"><ele>451.0</ele><time>2026-04-19T10:26:24.001Z</time></trkpt><trkpt lat="43.27388818215708" lon="10.805263485768293"><ele>451.0</ele><time>2026-04-19T10:26:25.001Z</time></trkpt><trkpt lat="43.273989987590255" lon="10.805251067888518"><ele>451.0</ele><time>2026-04-19T10:26:26.001Z</time></trkpt><trkpt lat="43.27408527206943" lon="10.805234060158966"><ele>451.0</ele><time>2026-04-19T10:26:27.001Z</time></trkpt><trkpt lat="43.27418113491302" lon="10.805220064953364"><ele>451.0</ele><time>2026-04-19T10:26:28.001Z</time></trkpt><trkpt lat="43.27428022995422" lon="10.805196776693833"><ele>450.8</ele><time>2026-04-19T10:26:29.001Z</time></trkpt><trkpt lat="43.27437127520481" lon="10.805171512104982"><ele>450.6</ele><time>2026-04-19T10:26:30.001Z</time></trkpt><trkpt lat="43.27448348992549" lon="10.805141006272464"><ele>450.4</ele><time>2026-04-19T10:26:31.001Z</time></trkpt><trkpt lat="43.2745926447715" lon="10.805097234017392"><ele>450.2</ele><time>2026-04-19T10:26:32.001Z</time></trkpt><trkpt lat="43.274709195467366" lon="10.805071861040009"><ele>450.0</ele><time>2026-04-19T10:26:33.001Z</time></trkpt><trkpt lat="43.274835459670335" lon="10.805006156652423"><ele>453.0</ele><time>2026-04-19T10:26:34.001Z</time></trkpt><trkpt lat="43.274960711559444" lon="10.804968341616355"><ele>456.0</ele><time>2026-04-19T10:26:35.001Z</time></trkpt><trkpt lat="43.27506476994856" lon="10.804953420578691"><ele>459.0</ele><time>2026-04-19T10:26:36.001Z</time></trkpt><trkpt lat="43.27516816440062" lon="10.804907519331886"><ele>462.0</ele><time>2026-04-19T10:26:37.001Z</time></trkpt><trkpt lat="43.27526175559978" lon="10.804875270539794"><ele>465.0</ele><time>2026-04-19T10:26:38.001Z</time></trkpt><trkpt lat="43.275357382820175" lon="10.804878435315256"><ele>465.0</ele><time>2026-04-19T10:26:39.001Z</time></trkpt><trkpt lat="43.27545475365405" lon="10.804918558491536"><ele>465.0</ele><time>2026-04-19T10:26:40.001Z</time></trkpt><trkpt lat="43.275564435605226" lon="10.804932669919316"><ele>465.0</ele><time>2026-04-19T10:26:41Z</time></trkpt><trkpt lat="43.27566235534673" lon="10.804982867975458"><ele>465.0</ele><time>2026-04-19T10:26:42Z</time></trkpt><trkpt lat="43.275731897100336" lon="10.805032357181794"><ele>465.0</ele><time>2026-04-19T10:26:43Z</time></trkpt><trkpt lat="43.27579294722287" lon="10.805099634033471"><ele>465.0</ele><time>2026-04-19T10:26:44Z</time></trkpt><trkpt lat="43.27583767275839" lon="10.805205389913917"><ele>465.0</ele><time>2026-04-19T10:26:45Z</time></trkpt><trkpt lat="43.27588888079603" lon="10.805311260077245"><ele>465.0</ele><time>2026-04-19T10:26:46Z</time></trkpt><trkpt lat="43.27593110076259" lon="10.80537756116996"><ele>465.0</ele><time>2026-04-19T10:26:47Z</time></trkpt><trkpt lat="43.27601170105117" lon="10.805492919851506"><ele>465.0</ele><time>2026-04-19T10:26:49Z</time></trkpt><trkpt lat="43.27606095604987" lon="10.80555299803391"><ele>465.0</ele><time>2026-04-19T10:26:50Z</time></trkpt><trkpt lat="43.27613683160544" lon="10.805597510028086"><ele>465.0</ele><time>2026-04-19T10:26:51Z</time></trkpt><trkpt lat="43.27619985342779" lon="10.805627475178827"><ele>465.0</ele><time>2026-04-19T10:26:52Z</time></trkpt><trkpt lat="43.27632148182467" lon="10.805668870039872"><ele>465.0</ele><time>2026-04-19T10:26:54Z</time></trkpt><trkpt lat="43.2764057800729" lon="10.805661573832182"><ele>465.0</ele><time>2026-04-19T10:26:55Z</time></trkpt><trkpt lat="43.27649689598534" lon="10.805634928182211"><ele>465.0</ele><time>2026-04-19T10:26:56Z</time></trkpt><trkpt lat="43.27658670851808" lon="10.805604107728973"><ele>466.0</ele><time>2026-04-19T10:26:57Z</time></trkpt><trkpt lat="43.276675675901096" lon="10.805557568323817"><ele>467.0</ele><time>2026-04-19T10:26:58Z</time></trkpt><trkpt lat="43.27676443128168" lon="10.80550659452576"><ele>468.0</ele><time>2026-04-19T10:26:59Z</time></trkpt><trkpt lat="43.27687564926158" lon="10.805486754683157"><ele>469.0</ele><time>2026-04-19T10:27:01Z</time></trkpt><trkpt lat="43.27694252736145" lon="10.805506872499858"><ele>470.0</ele><time>2026-04-19T10:27:02Z</time></trkpt><trkpt lat="43.27702375362132" lon="10.805602672887732"><ele>470.0</ele><time>2026-04-19T10:27:03Z</time></trkpt><trkpt lat="43.27707179878754" lon="10.805746731844945"><ele>470.0</ele><time>2026-04-19T10:27:04Z</time></trkpt><trkpt lat="43.277138727025026" lon="10.805900343021454"><ele>470.0</ele><time>2026-04-19T10:27:05Z</time></trkpt><trkpt lat="43.277202123864456" lon="10.806033129330899"><ele>470.0</ele><time>2026-04-19T10:27:06Z</time></trkpt><trkpt lat="43.277243662379774" lon="10.806148159043541"><ele>469.49999999999994</ele><time>2026-04-19T10:27:07Z</time></trkpt><trkpt lat="43.27728189970703" lon="10.806238351302714"><ele>469.0</ele><time>2026-04-19T10:27:08Z</time></trkpt><trkpt lat="43.277322756810214" lon="10.806325144113066"><ele>468.5</ele><time>2026-04-19T10:27:09Z</time></trkpt><trkpt lat="43.277363502575405" lon="10.806395144967047"><ele>468.0</ele><time>2026-04-19T10:27:10Z</time></trkpt><trkpt lat="43.277429628419114" lon="10.80647788396504"><ele>467.49999999999994</ele><time>2026-04-19T10:27:11Z</time></trkpt><trkpt lat="43.277480564776084" lon="10.806549845420072"><ele>467.0</ele><time>2026-04-19T10:27:12Z</time></trkpt><trkpt lat="43.27753167279169" lon="10.806622383638746"><ele>466.99999999999994</ele><time>2026-04-19T10:27:13Z</time></trkpt><trkpt lat="43.27763416725513" lon="10.806707392755994"><ele>467.0</ele><time>2026-04-19T10:27:15Z</time></trkpt><trkpt lat="43.277725249195726" lon="10.806789143853038"><ele>467.0</ele><time>2026-04-19T10:27:17Z</time></trkpt><trkpt lat="43.27778671267696" lon="10.80681191847556"><ele>467.0</ele><time>2026-04-19T10:27:18Z</time></trkpt><trkpt lat="43.27786094809097" lon="10.806817554336664"><ele>466.99999999999994</ele><time>2026-04-19T10:27:19Z</time></trkpt><trkpt lat="43.2779404021164" lon="10.806808306109373"><ele>467.0</ele><time>2026-04-19T10:27:20Z</time></trkpt><trkpt lat="43.27806425074942" lon="10.806826520899241"><ele>466.0</ele><time>2026-04-19T10:27:22Z</time></trkpt><trkpt lat="43.27812349762041" lon="10.806857157985887"><ele>465.00000000000006</ele><time>2026-04-19T10:27:23Z</time></trkpt><trkpt lat="43.278236778926114" lon="10.806961853328158"><ele>464.00000000000006</ele><time>2026-04-19T10:27:25Z</time></trkpt><trkpt lat="43.278262274544154" lon="10.807091987406237"><ele>463.0</ele><time>2026-04-19T10:27:26Z</time></trkpt><trkpt lat="43.27830073364583" lon="10.807235623799446"><ele>462.0</ele><time>2026-04-19T10:27:27Z</time></trkpt><trkpt lat="43.278348696151376" lon="10.807344983840347"><ele>462.0</ele><time>2026-04-19T10:27:28Z</time></trkpt><trkpt lat="43.278389190537034" lon="10.807440283096918"><ele>462.0</ele><time>2026-04-19T10:27:29Z</time></trkpt><trkpt lat="43.27842478799457" lon="10.807516150827905"><ele>462.0</ele><time>2026-04-19T10:27:30Z</time></trkpt><trkpt lat="43.2784596594684" lon="10.807594907935558"><ele>462.0</ele><time>2026-04-19T10:27:31Z</time></trkpt><trkpt lat="43.278525136799026" lon="10.807641936504746"><ele>462.0</ele><time>2026-04-19T10:27:32Z</time></trkpt><trkpt lat="43.278598667758786" lon="10.807689941340973"><ele>462.0</ele><time>2026-04-19T10:27:33Z</time></trkpt><trkpt lat="43.278668954415096" lon="10.807730201120878"><ele>462.0</ele><time>2026-04-19T10:27:34Z</time></trkpt><trkpt lat="43.27878950159104" lon="10.807791131279183"><ele>461.8</ele><time>2026-04-19T10:27:36Z</time></trkpt><trkpt lat="43.27885619065702" lon="10.807846166617946"><ele>461.6</ele><time>2026-04-19T10:27:37Z</time></trkpt><trkpt lat="43.278939093858" lon="10.807899593038345"><ele>461.40000000000003</ele><time>2026-04-19T10:27:38Z</time></trkpt><trkpt lat="43.278973513734634" lon="10.808036938095437"><ele>461.20000000000005</ele><time>2026-04-19T10:27:39Z</time></trkpt><trkpt lat="43.27901629383925" lon="10.808153527142125"><ele>461.0</ele><time>2026-04-19T10:27:40Z</time></trkpt><trkpt lat="43.27903168634317" lon="10.808270428565661"><ele>460.99999999999994</ele><time>2026-04-19T10:27:41Z</time></trkpt><trkpt lat="43.27902736937863" lon="10.808386311531548"><ele>461.0</ele><time>2026-04-19T10:27:42Z</time></trkpt><trkpt lat="43.27904114814922" lon="10.808497131494416"><ele>461.0</ele><time>2026-04-19T10:27:43Z</time></trkpt><trkpt lat="43.27904402276653" lon="10.808604168163056"><ele>461.0</ele><time>2026-04-19T10:27:44Z</time></trkpt><trkpt lat="43.27905068651112" lon="10.808770807542126"><ele>460.99999999999994</ele><time>2026-04-19T10:27:46Z</time></trkpt><trkpt lat="43.279053791683964" lon="10.808858451079953"><ele>461.0</ele><time>2026-04-19T10:27:47Z</time></trkpt><trkpt lat="43.27909268499637" lon="10.808937606533393"><ele>458.8333333333333</ele><time>2026-04-19T10:27:48Z</time></trkpt><trkpt lat="43.27915087013866" lon="10.808998493281148"><ele>456.66666666666663</ele><time>2026-04-19T10:27:49Z</time></trkpt><trkpt lat="43.27921045596244" lon="10.809044068802002"><ele>454.5</ele><time>2026-04-19T10:27:50Z</time></trkpt><trkpt lat="43.279287723582215" lon="10.809104163148044"><ele>452.33333333333337</ele><time>2026-04-19T10:27:52Z</time></trkpt><trkpt lat="43.27936409341675" lon="10.809101333797281"><ele>450.1666666666667</ele><time>2026-04-19T10:27:54Z</time></trkpt><trkpt lat="43.279453612369444" lon="10.809030648661052"><ele>448.0</ele><time>2026-04-19T10:27:56Z</time></trkpt><trkpt lat="43.279541397921626" lon="10.808933796608667"><ele>448.0</ele><time>2026-04-19T10:27:58.001Z</time></trkpt><trkpt lat="43.27964418595541" lon="10.808829690826641"><ele>447.99999999999994</ele><time>2026-04-19T10:28:00.001Z</time></trkpt><trkpt lat="43.279697485178886" lon="10.808777498825"><ele>447.99999999999994</ele><time>2026-04-19T10:28:01.001Z</time></trkpt><trkpt lat="43.27979331092882" lon="10.80868767610181"><ele>448.0</ele><time>2026-04-19T10:28:03.001Z</time></trkpt><trkpt lat="43.2798934634144" lon="10.808605543625749"><ele>448.0</ele><time>2026-04-19T10:28:05.001Z</time></trkpt><trkpt lat="43.27999736666524" lon="10.80854302443781"><ele>446.0</ele><time>2026-04-19T10:28:07.001Z</time></trkpt><trkpt lat="43.2800605221411" lon="10.808524999984611"><ele>443.99999999999994</ele><time>2026-04-19T10:28:08.001Z</time></trkpt><trkpt lat="43.28018059348384" lon="10.808489756021466"><ele>441.99999999999994</ele><time>2026-04-19T10:28:10.001Z</time></trkpt><trkpt lat="43.280280663072254" lon="10.808491982272427"><ele>440.0</ele><time>2026-04-19T10:28:12.001Z</time></trkpt><trkpt lat="43.28034732214097" lon="10.80846688538709"><ele>438.0</ele><time>2026-04-19T10:28:14.001Z</time></trkpt><trkpt lat="43.28042186669987" lon="10.80838747741336"><ele>438.0</ele><time>2026-04-19T10:28:16.001Z</time></trkpt><trkpt lat="43.28047940822122" lon="10.808344373677526"><ele>438.0</ele><time>2026-04-19T10:28:17.001Z</time></trkpt><trkpt lat="43.280545600875456" lon="10.808310051199852"><ele>438.0</ele><time>2026-04-19T10:28:18.001Z</time></trkpt><trkpt lat="43.28061109642727" lon="10.808287720296288"><ele>438.0</ele><time>2026-04-19T10:28:19.001Z</time></trkpt><trkpt lat="43.28067787982589" lon="10.808253153291998"><ele>438.0</ele><time>2026-04-19T10:28:20.001Z</time></trkpt><trkpt lat="43.280759579401355" lon="10.808257114914564"><ele>438.0</ele><time>2026-04-19T10:28:22.001Z</time></trkpt><trkpt lat="43.280841224257756" lon="10.808264906606379"><ele>438.0</ele><time>2026-04-19T10:28:24.001Z</time></trkpt><trkpt lat="43.280958782787806" lon="10.808268015362126"><ele>437.5</ele><time>2026-04-19T10:28:26.001Z</time></trkpt><trkpt lat="43.28102215614757" lon="10.808260827266611"><ele>437.0</ele><time>2026-04-19T10:28:27.001Z</time></trkpt><trkpt lat="43.281140827217655" lon="10.808280552386254"><ele>436.5</ele><time>2026-04-19T10:28:29.001Z</time></trkpt><trkpt lat="43.281206359260686" lon="10.808293119742771"><ele>436.0</ele><time>2026-04-19T10:28:30.001Z</time></trkpt><trkpt lat="43.281278054488205" lon="10.808310787880774"><ele>435.5</ele><time>2026-04-19T10:28:31.001Z</time></trkpt><trkpt lat="43.281359499292826" lon="10.80835951267343"><ele>435.0</ele><time>2026-04-19T10:28:32.001Z</time></trkpt><trkpt lat="43.281431623171756" lon="10.808444823637734"><ele>433.8333333333333</ele><time>2026-04-19T10:28:33.001Z</time></trkpt><trkpt lat="43.28150930801551" lon="10.808505219938153"><ele>432.66666666666663</ele><time>2026-04-19T10:28:34.001Z</time></trkpt><trkpt lat="43.281570795714764" lon="10.80857082621365"><ele>431.5</ele><time>2026-04-19T10:28:35.001Z</time></trkpt><trkpt lat="43.28163951763291" lon="10.80868611008539"><ele>430.3333333333333</ele><time>2026-04-19T10:28:37.001Z</time></trkpt><trkpt lat="43.28170754018719" lon="10.808728485191741"><ele>429.16666666666663</ele><time>2026-04-19T10:28:39.001Z</time></trkpt><trkpt lat="43.28176474545281" lon="10.808786477881846"><ele>428.0</ele><time>2026-04-19T10:28:41.001Z</time></trkpt><trkpt lat="43.2818632320447" lon="10.808778280478208"><ele>428.0</ele><time>2026-04-19T10:28:43.001Z</time></trkpt><trkpt lat="43.282005033077176" lon="10.808804304769476"><ele>427.99999999999994</ele><time>2026-04-19T10:28:45.001Z</time></trkpt><trkpt lat="43.28208810739298" lon="10.808801691434661"><ele>427.99999999999994</ele><time>2026-04-19T10:28:46.001Z</time></trkpt><trkpt lat="43.28218402606447" lon="10.808840763285989"><ele>428.0</ele><time>2026-04-19T10:28:47Z</time></trkpt><trkpt lat="43.28228450605879" lon="10.808847224590231"><ele>428.0</ele><time>2026-04-19T10:28:48Z</time></trkpt><trkpt lat="43.282377962196826" lon="10.808861368371137"><ele>428.16666666666663</ele><time>2026-04-19T10:28:49Z</time></trkpt><trkpt lat="43.28246152757684" lon="10.808850150488727"><ele>428.3333333333333</ele><time>2026-04-19T10:28:50Z</time></trkpt><trkpt lat="43.28254042820545" lon="10.808858608684636"><ele>428.5</ele><time>2026-04-19T10:28:51Z</time></trkpt><trkpt lat="43.28261591287034" lon="10.80885050839479"><ele>428.66666666666663</ele><time>2026-04-19T10:28:52Z</time></trkpt><trkpt lat="43.28269011739962" lon="10.808828893844275"><ele>428.8333333333333</ele><time>2026-04-19T10:28:53Z</time></trkpt><trkpt lat="43.28275874270696" lon="10.808773472866799"><ele>429.0</ele><time>2026-04-19T10:28:54Z</time></trkpt><trkpt lat="43.2828118846014" lon="10.808724276837744"><ele>429.0</ele><time>2026-04-19T10:28:55Z</time></trkpt><trkpt lat="43.282924281111136" lon="10.808782032674143"><ele>429.0</ele><time>2026-04-19T10:28:57Z</time></trkpt><trkpt lat="43.282970101290154" lon="10.808863713144254"><ele>429.0</ele><time>2026-04-19T10:28:58Z</time></trkpt><trkpt lat="43.2830104485314" lon="10.808951138243376"><ele>429.0</ele><time>2026-04-19T10:28:59Z</time></trkpt><trkpt lat="43.283043553992556" lon="10.809035298189361"><ele>429.0</ele><time>2026-04-19T10:29:00Z</time></trkpt><trkpt lat="43.28307507466003" lon="10.80913557952216"><ele>429.0</ele><time>2026-04-19T10:29:01Z</time></trkpt><trkpt lat="43.28310518234165" lon="10.809222840778048"><ele>426.6666666666667</ele><time>2026-04-19T10:29:02Z</time></trkpt><trkpt lat="43.28313581537404" lon="10.809306110010958"><ele>424.33333333333337</ele><time>2026-04-19T10:29:03Z</time></trkpt><trkpt lat="43.28316198581526" lon="10.809387609950614"><ele>422.0</ele><time>2026-04-19T10:29:04Z</time></trkpt><trkpt lat="43.283150626019584" lon="10.809546750416606"><ele>419.6666666666667</ele><time>2026-04-19T10:29:06Z</time></trkpt><trkpt lat="43.283088568624805" lon="10.809591138040068"><ele>417.33333333333337</ele><time>2026-04-19T10:29:07Z</time></trkpt><trkpt lat="43.28301854768194" lon="10.80957432149758"><ele>415.0</ele><time>2026-04-19T10:29:08Z</time></trkpt><trkpt lat="43.28295380649175" lon="10.809541273063155"><ele>413.8</ele><time>2026-04-19T10:29:09Z</time></trkpt><trkpt lat="43.28281739257775" lon="10.809506589559048"><ele>412.6</ele><time>2026-04-19T10:29:11Z</time></trkpt><trkpt lat="43.28272698066075" lon="10.809487003946968"><ele>411.4</ele><time>2026-04-19T10:29:12Z</time></trkpt><trkpt lat="43.28264616735887" lon="10.809456014526317"><ele>410.2</ele><time>2026-04-19T10:29:13Z</time></trkpt><trkpt lat="43.28256872357211" lon="10.809416955326634"><ele>409.0</ele><time>2026-04-19T10:29:14Z</time></trkpt><trkpt lat="43.282476731546566" lon="10.809395439388451"><ele>409.0</ele><time>2026-04-19T10:29:15Z</time></trkpt><trkpt lat="43.28237913717871" lon="10.809429264383663"><ele>409.0</ele><time>2026-04-19T10:29:16Z</time></trkpt><trkpt lat="43.282286470149906" lon="10.809463872600354"><ele>409.0</ele><time>2026-04-19T10:29:17Z</time></trkpt><trkpt lat="43.28220459416041" lon="10.809521240533089"><ele>409.0</ele><time>2026-04-19T10:29:18Z</time></trkpt><trkpt lat="43.28215024061859" lon="10.809581114027946"><ele>409.0</ele><time>2026-04-19T10:29:19Z</time></trkpt><trkpt lat="43.282132758415834" lon="10.809733540357664"><ele>409.00000000000006</ele><time>2026-04-19T10:29:21Z</time></trkpt><trkpt lat="43.28219457209121" lon="10.809786817872395"><ele>409.0</ele><time>2026-04-19T10:29:22Z</time></trkpt><trkpt lat="43.28227139145021" lon="10.809772809987109"><ele>409.0</ele><time>2026-04-19T10:29:23Z</time></trkpt><trkpt lat="43.28234046047668" lon="10.809707709029498"><ele>409.0</ele><time>2026-04-19T10:29:24Z</time></trkpt><trkpt lat="43.282420743282714" lon="10.809657453162721"><ele>409.00000000000006</ele><time>2026-04-19T10:29:25Z</time></trkpt><trkpt lat="43.28252607236024" lon="10.809654889769098"><ele>409.0</ele><time>2026-04-19T10:29:26Z</time></trkpt><trkpt lat="43.2826257150082" lon="10.809674443122598"><ele>409.0</ele><time>2026-04-19T10:29:27Z</time></trkpt><trkpt lat="43.2827172094199" lon="10.809725816846331"><ele>409.0</ele><time>2026-04-19T10:29:28Z</time></trkpt><trkpt lat="43.28280328885925" lon="10.80983109934712"><ele>409.0</ele><time>2026-04-19T10:29:29Z</time></trkpt><trkpt lat="43.28287572353069" lon="10.809976344650181"><ele>409.0</ele><time>2026-04-19T10:29:30Z</time></trkpt><trkpt lat="43.28294711014536" lon="10.810130109960367"><ele>406.6</ele><time>2026-04-19T10:29:31Z</time></trkpt><trkpt lat="43.28303575560643" lon="10.810256144989511"><ele>404.2</ele><time>2026-04-19T10:29:32Z</time></trkpt><trkpt lat="43.28313386221732" lon="10.810322585725135"><ele>401.8</ele><time>2026-04-19T10:29:33Z</time></trkpt><trkpt lat="43.28321228250974" lon="10.810373048870389"><ele>399.40000000000003</ele><time>2026-04-19T10:29:34Z</time></trkpt><trkpt lat="43.28329641333673" lon="10.81040511514125"><ele>397.0</ele><time>2026-04-19T10:29:35Z</time></trkpt><trkpt lat="43.283389212808366" lon="10.810393868046425"><ele>397.0</ele><time>2026-04-19T10:29:36Z</time></trkpt><trkpt lat="43.28349561983571" lon="10.810364074162644"><ele>397.0</ele><time>2026-04-19T10:29:37Z</time></trkpt><trkpt lat="43.28362159136846" lon="10.810340537112637"><ele>397.0</ele><time>2026-04-19T10:29:38Z</time></trkpt><trkpt lat="43.283739780088794" lon="10.810277493415697"><ele>397.0</ele><time>2026-04-19T10:29:39Z</time></trkpt><trkpt lat="43.28383909399241" lon="10.8102325258447"><ele>395.6</ele><time>2026-04-19T10:29:40Z</time></trkpt><trkpt lat="43.283917604922586" lon="10.810153280409923"><ele>394.20000000000005</ele><time>2026-04-19T10:29:41Z</time></trkpt><trkpt lat="43.28396608745864" lon="10.81005129855463"><ele>392.8</ele><time>2026-04-19T10:29:42Z</time></trkpt><trkpt lat="43.28400208528713" lon="10.809925109958026"><ele>391.4</ele><time>2026-04-19T10:29:43Z</time></trkpt><trkpt lat="43.284011354805585" lon="10.80979492819988"><ele>390.0</ele><time>2026-04-19T10:29:44Z</time></trkpt><trkpt lat="43.28398712848391" lon="10.809678095403546"><ele>394.2</ele><time>2026-04-19T10:29:45Z</time></trkpt><trkpt lat="43.28391964112793" lon="10.809571305318729"><ele>398.4</ele><time>2026-04-19T10:29:46Z</time></trkpt><trkpt lat="43.28383592686198" lon="10.809468920503653"><ele>402.6</ele><time>2026-04-19T10:29:47Z</time></trkpt><trkpt lat="43.28377512838504" lon="10.809347130878287"><ele>406.8</ele><time>2026-04-19T10:29:48Z</time></trkpt><trkpt lat="43.28373451635519" lon="10.80924124711601"><ele>411.0</ele><time>2026-04-19T10:29:49Z</time></trkpt><trkpt lat="43.283711848653255" lon="10.809126703856993"><ele>410.4</ele><time>2026-04-19T10:29:50Z</time></trkpt><trkpt lat="43.283724150900795" lon="10.80900665844905"><ele>409.8</ele><time>2026-04-19T10:29:51Z</time></trkpt><trkpt lat="43.28375670045471" lon="10.808870022638562"><ele>409.2</ele><time>2026-04-19T10:29:52Z</time></trkpt><trkpt lat="43.2837800283229" lon="10.80871846723876"><ele>408.59999999999997</ele><time>2026-04-19T10:29:53Z</time></trkpt><trkpt lat="43.28378189354113" lon="10.808587928230262"><ele>408.0</ele><time>2026-04-19T10:29:54Z</time></trkpt><trkpt lat="43.28376233089281" lon="10.808455613045373"><ele>408.0</ele><time>2026-04-19T10:29:55Z</time></trkpt><trkpt lat="43.28372776264829" lon="10.808305255938"><ele>408.0</ele><time>2026-04-19T10:29:56Z</time></trkpt><trkpt lat="43.28366623257627" lon="10.808154555143071"><ele>408.0</ele><time>2026-04-19T10:29:57Z</time></trkpt><trkpt lat="43.28359680650943" lon="10.808010736725217"><ele>408.0</ele><time>2026-04-19T10:29:58Z</time></trkpt><trkpt lat="43.283510560603546" lon="10.807899420266088"><ele>408.0</ele><time>2026-04-19T10:29:59Z</time></trkpt><trkpt lat="43.283468071256024" lon="10.807775334060464"><ele>408.0</ele><time>2026-04-19T10:30:00Z</time></trkpt><trkpt lat="43.28343637402012" lon="10.807676794934835"><ele>408.0</ele><time>2026-04-19T10:30:01Z</time></trkpt><trkpt lat="43.283415930924974" lon="10.807584750014875"><ele>408.0</ele><time>2026-04-19T10:30:02Z</time></trkpt><trkpt lat="43.28347173197803" lon="10.807464306027995"><ele>408.0</ele><time>2026-04-19T10:30:04Z</time></trkpt><trkpt lat="43.28354773950262" lon="10.807456813810026"><ele>408.0</ele><time>2026-04-19T10:30:05Z</time></trkpt><trkpt lat="43.283646529913746" lon="10.80745244823234"><ele>406.0</ele><time>2026-04-19T10:30:06Z</time></trkpt><trkpt lat="43.283758179091805" lon="10.807497317403051"><ele>404.0</ele><time>2026-04-19T10:30:07Z</time></trkpt><trkpt lat="43.28386522745489" lon="10.807517848642247"><ele>402.0</ele><time>2026-04-19T10:30:08Z</time></trkpt><trkpt lat="43.28394819481254" lon="10.807505063415219"><ele>400.0</ele><time>2026-04-19T10:30:09Z</time></trkpt><trkpt lat="43.28400046679169" lon="10.807451468142542"><ele>398.0</ele><time>2026-04-19T10:30:10Z</time></trkpt><trkpt lat="43.284036238124536" lon="10.80735851184033"><ele>397.0</ele><time>2026-04-19T10:30:11Z</time></trkpt><trkpt lat="43.28403191529067" lon="10.807236402701962"><ele>396.0</ele><time>2026-04-19T10:30:12Z</time></trkpt><trkpt lat="43.283993891600346" lon="10.80710033694003"><ele>395.0</ele><time>2026-04-19T10:30:13.001Z</time></trkpt><trkpt lat="43.283945088575194" lon="10.806948021479704"><ele>394.0</ele><time>2026-04-19T10:30:14.001Z</time></trkpt><trkpt lat="43.28387144543664" lon="10.806806729450118"><ele>393.0</ele><time>2026-04-19T10:30:15.001Z</time></trkpt><trkpt lat="43.2837803828788" lon="10.806681731763524"><ele>393.0</ele><time>2026-04-19T10:30:16.001Z</time></trkpt><trkpt lat="43.2837198279808" lon="10.806543060909906"><ele>393.0</ele><time>2026-04-19T10:30:17.001Z</time></trkpt><trkpt lat="43.2836458361803" lon="10.806430146262478"><ele>393.0</ele><time>2026-04-19T10:30:18.001Z</time></trkpt><trkpt lat="43.28359064125978" lon="10.806327140267653"><ele>393.0</ele><time>2026-04-19T10:30:19.001Z</time></trkpt><trkpt lat="43.283566923230126" lon="10.80621779406808"><ele>393.0</ele><time>2026-04-19T10:30:20.001Z</time></trkpt><trkpt lat="43.2835796968484" lon="10.80609466410507"><ele>391.0</ele><time>2026-04-19T10:30:21.001Z</time></trkpt><trkpt lat="43.28362881979932" lon="10.805964413341307"><ele>389.0</ele><time>2026-04-19T10:30:22.001Z</time></trkpt><trkpt lat="43.283698631221924" lon="10.805835042759403"><ele>387.0</ele><time>2026-04-19T10:30:23.001Z</time></trkpt><trkpt lat="43.28379944485525" lon="10.80572315662658"><ele>385.0</ele><time>2026-04-19T10:30:24.001Z</time></trkpt><trkpt lat="43.28389221718702" lon="10.805604505818566"><ele>381.0</ele><time>2026-04-19T10:30:25.001Z</time></trkpt><trkpt lat="43.28398810695813" lon="10.805495355191715"><ele>377.0</ele><time>2026-04-19T10:30:26.001Z</time></trkpt><trkpt lat="43.2840745901655" lon="10.805390063759825"><ele>373.0</ele><time>2026-04-19T10:30:27.001Z</time></trkpt><trkpt lat="43.28408350374725" lon="10.80520090698246"><ele>369.0</ele><time>2026-04-19T10:30:28.001Z</time></trkpt><trkpt lat="43.28414488771747" lon="10.805062912473101"><ele>369.0</ele><time>2026-04-19T10:30:29.001Z</time></trkpt><trkpt lat="43.28422930941143" lon="10.804978743840364"><ele>369.0</ele><time>2026-04-19T10:30:30.001Z</time></trkpt><trkpt lat="43.28430885691367" lon="10.804882000991725"><ele>369.0</ele><time>2026-04-19T10:30:31.001Z</time></trkpt><trkpt lat="43.28439226672979" lon="10.804835491497666"><ele>369.0</ele><time>2026-04-19T10:30:32.001Z</time></trkpt><trkpt lat="43.28447013351798" lon="10.804780605797696"><ele>369.0</ele><time>2026-04-19T10:30:33.001Z</time></trkpt><trkpt lat="43.28453052416187" lon="10.804685574150621"><ele>369.0</ele><time>2026-04-19T10:30:34.001Z</time></trkpt><trkpt lat="43.28457052623328" lon="10.804533221539742"><ele>369.0</ele><time>2026-04-19T10:30:35.001Z</time></trkpt><trkpt lat="43.28460394492617" lon="10.804390810005954"><ele>369.0</ele><time>2026-04-19T10:30:36.001Z</time></trkpt><trkpt lat="43.28463699479943" lon="10.804249892047569"><ele>369.0</ele><time>2026-04-19T10:30:37.001Z</time></trkpt><trkpt lat="43.28465842214141" lon="10.804131099539495"><ele>369.0</ele><time>2026-04-19T10:30:38.001Z</time></trkpt><trkpt lat="43.28471743862073" lon="10.804039529074283"><ele>369.8333333333333</ele><time>2026-04-19T10:30:39.001Z</time></trkpt><trkpt lat="43.2847605625139" lon="10.803954091488382"><ele>370.6666666666667</ele><time>2026-04-19T10:30:40.001Z</time></trkpt><trkpt lat="43.28479370585277" lon="10.803868847706157"><ele>371.5</ele><time>2026-04-19T10:30:41.001Z</time></trkpt><trkpt lat="43.28480287590942" lon="10.803778166784625"><ele>372.33333333333337</ele><time>2026-04-19T10:30:42.001Z</time></trkpt><trkpt lat="43.28479076701843" lon="10.803675891827126"><ele>373.1666666666667</ele><time>2026-04-19T10:30:43.001Z</time></trkpt><trkpt lat="43.28473263394639" lon="10.803580324879011"><ele>374.0</ele><time>2026-04-19T10:30:44.001Z</time></trkpt><trkpt lat="43.28463316306003" lon="10.80354594614646"><ele>370.25</ele><time>2026-04-19T10:30:45.001Z</time></trkpt><trkpt lat="43.28452933675142" lon="10.803416528225009"><ele>366.5</ele><time>2026-04-19T10:30:47.001Z</time></trkpt><trkpt lat="43.28459722938218" lon="10.803336363724686"><ele>362.75</ele><time>2026-04-19T10:30:48.001Z</time></trkpt><trkpt lat="43.284728419600484" lon="10.803346669443448"><ele>359.0</ele><time>2026-04-19T10:30:50.001Z</time></trkpt><trkpt lat="43.28479818488695" lon="10.803461207234287"><ele>356.0</ele><time>2026-04-19T10:30:51.001Z</time></trkpt><trkpt lat="43.28487073070607" lon="10.803583115770179"><ele>353.0</ele><time>2026-04-19T10:30:52.001Z</time></trkpt><trkpt lat="43.2849565842425" lon="10.803689517324448"><ele>350.0</ele><time>2026-04-19T10:30:52.999Z</time></trkpt><trkpt lat="43.285039684913116" lon="10.803796049343061"><ele>347.0</ele><time>2026-04-19T10:30:53.999Z</time></trkpt><trkpt lat="43.28508649812722" lon="10.80388992723284"><ele>344.0</ele><time>2026-04-19T10:30:54.999Z</time></trkpt><trkpt lat="43.285083371048444" lon="10.804010915166662"><ele>344.0</ele><time>2026-04-19T10:30:55.999Z</time></trkpt><trkpt lat="43.285028434721596" lon="10.804155149426578"><ele>344.0</ele><time>2026-04-19T10:30:56.999Z</time></trkpt><trkpt lat="43.28494538954848" lon="10.804288334747682"><ele>344.0</ele><time>2026-04-19T10:30:57.999Z</time></trkpt><trkpt lat="43.284877004870644" lon="10.80439485148888"><ele>344.0</ele><time>2026-04-19T10:30:58.999Z</time></trkpt><trkpt lat="43.284840767958244" lon="10.804531871492658"><ele>342.5</ele><time>2026-04-19T10:30:59.999Z</time></trkpt><trkpt lat="43.2848428094881" lon="10.804724327676437"><ele>341.0</ele><time>2026-04-19T10:31:00.999Z</time></trkpt><trkpt lat="43.28482384891259" lon="10.80493620888733"><ele>339.5</ele><time>2026-04-19T10:31:01.999Z</time></trkpt><trkpt lat="43.284804759909576" lon="10.805133566340327"><ele>338.0</ele><time>2026-04-19T10:31:03Z</time></trkpt><trkpt lat="43.284816836845714" lon="10.805319519542278"><ele>336.5</ele><time>2026-04-19T10:31:04Z</time></trkpt><trkpt lat="43.28482010193216" lon="10.805481034506071"><ele>335.0</ele><time>2026-04-19T10:31:05Z</time></trkpt><trkpt lat="43.28484571928674" lon="10.805664841223775"><ele>333.5</ele><time>2026-04-19T10:31:06Z</time></trkpt><trkpt lat="43.284855820738066" lon="10.80582455688465"><ele>332.0</ele><time>2026-04-19T10:31:07Z</time></trkpt><trkpt lat="43.28483464854486" lon="10.805987040790988"><ele>330.5</ele><time>2026-04-19T10:31:08Z</time></trkpt><trkpt lat="43.284796428788404" lon="10.806141175576245"><ele>329.0</ele><time>2026-04-19T10:31:09Z</time></trkpt><trkpt lat="43.2847462667282" lon="10.80628932612942"><ele>327.5</ele><time>2026-04-19T10:31:10Z</time></trkpt><trkpt lat="43.28470553887465" lon="10.806431480042884"><ele>326.0</ele><time>2026-04-19T10:31:11Z</time></trkpt><trkpt lat="43.28469288914154" lon="10.806570344953213"><ele>326.0</ele><time>2026-04-19T10:31:12Z</time></trkpt><trkpt lat="43.28472101151231" lon="10.8067227915722"><ele>326.0</ele><time>2026-04-19T10:31:13Z</time></trkpt><trkpt lat="43.28475058127115" lon="10.806901624875238"><ele>326.0</ele><time>2026-04-19T10:31:14Z</time></trkpt><trkpt lat="43.284802672896376" lon="10.80707517454532"><ele>326.0</ele><time>2026-04-19T10:31:15Z</time></trkpt><trkpt lat="43.28484672504337" lon="10.807218096311143"><ele>326.0</ele><time>2026-04-19T10:31:16Z</time></trkpt><trkpt lat="43.284881236943036" lon="10.807341966533313"><ele>326.0</ele><time>2026-04-19T10:31:17Z</time></trkpt><trkpt lat="43.284854536683284" lon="10.807477572495301"><ele>326.0</ele><time>2026-04-19T10:31:18Z</time></trkpt><trkpt lat="43.28484263263322" lon="10.807638439724943"><ele>326.0</ele><time>2026-04-19T10:31:19Z</time></trkpt><trkpt lat="43.28480417520978" lon="10.80781028701078"><ele>326.0</ele><time>2026-04-19T10:31:20Z</time></trkpt><trkpt lat="43.28476279600799" lon="10.807986457985042"><ele>327.20000000000005</ele><time>2026-04-19T10:31:21Z</time></trkpt><trkpt lat="43.284706409414305" lon="10.808132530225494"><ele>328.40000000000003</ele><time>2026-04-19T10:31:22Z</time></trkpt><trkpt lat="43.28469213293216" lon="10.80825871770795"><ele>329.6</ele><time>2026-04-19T10:31:23Z</time></trkpt><trkpt lat="43.28473868700951" lon="10.808387761486747"><ele>330.8</ele><time>2026-04-19T10:31:24Z</time></trkpt><trkpt lat="43.284803102610915" lon="10.808528746039899"><ele>332.0</ele><time>2026-04-19T10:31:25Z</time></trkpt><trkpt lat="43.2848687494053" lon="10.808687918318098"><ele>332.0</ele><time>2026-04-19T10:31:26Z</time></trkpt><trkpt lat="43.28494304635079" lon="10.808869596143177"><ele>332.0</ele><time>2026-04-19T10:31:27Z</time></trkpt><trkpt lat="43.28501974618468" lon="10.809059948600787"><ele>332.0</ele><time>2026-04-19T10:31:28Z</time></trkpt><trkpt lat="43.28508086329677" lon="10.809240502477355"><ele>332.25</ele><time>2026-04-19T10:31:29Z</time></trkpt><trkpt lat="43.28514380723849" lon="10.809411568689828"><ele>332.5</ele><time>2026-04-19T10:31:30Z</time></trkpt><trkpt lat="43.285156334934776" lon="10.809564417382195"><ele>332.75</ele><time>2026-04-19T10:31:31Z</time></trkpt><trkpt lat="43.28517091123645" lon="10.809708911295191"><ele>333.0</ele><time>2026-04-19T10:31:32Z</time></trkpt><trkpt lat="43.285164607622185" lon="10.809845646895054"><ele>333.0</ele><time>2026-04-19T10:31:33Z</time></trkpt><trkpt lat="43.28514735448414" lon="10.809994057208081"><ele>333.0</ele><time>2026-04-19T10:31:34Z</time></trkpt><trkpt lat="43.28511737989298" lon="10.810154614371738"><ele>333.0</ele><time>2026-04-19T10:31:35Z</time></trkpt><trkpt lat="43.2850679291217" lon="10.810306067467122"><ele>333.0</ele><time>2026-04-19T10:31:36Z</time></trkpt><trkpt lat="43.28500487005784" lon="10.810444776611801"><ele>329.0</ele><time>2026-04-19T10:31:37Z</time></trkpt><trkpt lat="43.284937542732806" lon="10.810579518317327"><ele>325.0</ele><time>2026-04-19T10:31:38Z</time></trkpt><trkpt lat="43.28487820593329" lon="10.810727527673942"><ele>321.0</ele><time>2026-04-19T10:31:39Z</time></trkpt><trkpt lat="43.28481483478585" lon="10.810874060035674"><ele>317.0</ele><time>2026-04-19T10:31:40Z</time></trkpt><trkpt lat="43.28477079935371" lon="10.81105059140105"><ele>327.33333333333337</ele><time>2026-04-19T10:31:41Z</time></trkpt><trkpt lat="43.28472327739787" lon="10.811248116379579"><ele>337.6666666666667</ele><time>2026-04-19T10:31:42Z</time></trkpt><trkpt lat="43.2846797364632" lon="10.81144250852584"><ele>348.0</ele><time>2026-04-19T10:31:43Z</time></trkpt><trkpt lat="43.284631069140076" lon="10.811648308088968"><ele>342.25</ele><time>2026-04-19T10:31:44Z</time></trkpt><trkpt lat="43.284597991429116" lon="10.81183874120021"><ele>336.5</ele><time>2026-04-19T10:31:45Z</time></trkpt><trkpt lat="43.284593539982815" lon="10.812017664229744"><ele>330.75</ele><time>2026-04-19T10:31:46Z</time></trkpt><trkpt lat="43.284572365204106" lon="10.812176054304732"><ele>325.0</ele><time>2026-04-19T10:31:47Z</time></trkpt><trkpt lat="43.28453964405457" lon="10.812318087020358"><ele>325.0</ele><time>2026-04-19T10:31:48Z</time></trkpt><trkpt lat="43.28447621877674" lon="10.812441625535321"><ele>325.0</ele><time>2026-04-19T10:31:49Z</time></trkpt><trkpt lat="43.28442200586448" lon="10.812578824393828"><ele>325.0</ele><time>2026-04-19T10:31:50Z</time></trkpt><trkpt lat="43.28438449678273" lon="10.812726516128073"><ele>325.0</ele><time>2026-04-19T10:31:51Z</time></trkpt><trkpt lat="43.28438281694444" lon="10.81289115990194"><ele>320.5</ele><time>2026-04-19T10:31:52Z</time></trkpt><trkpt lat="43.28438845920655" lon="10.813071709622207"><ele>316.0</ele><time>2026-04-19T10:31:53Z</time></trkpt><trkpt lat="43.284403713787455" lon="10.813267754586931"><ele>311.5</ele><time>2026-04-19T10:31:54Z</time></trkpt><trkpt lat="43.28439538414862" lon="10.81345260241324"><ele>307.0</ele><time>2026-04-19T10:31:55Z</time></trkpt><trkpt lat="43.28440573055982" lon="10.813608666980063"><ele>305.0</ele><time>2026-04-19T10:31:56Z</time></trkpt><trkpt lat="43.284371891813365" lon="10.813749287758316"><ele>303.0</ele><time>2026-04-19T10:31:57Z</time></trkpt><trkpt lat="43.28430268244462" lon="10.81386616123894"><ele>301.0</ele><time>2026-04-19T10:31:58Z</time></trkpt><trkpt lat="43.28425897073493" lon="10.814006638983722"><ele>299.0</ele><time>2026-04-19T10:31:59Z</time></trkpt><trkpt lat="43.28419284674472" lon="10.814132219410277"><ele>297.0</ele><time>2026-04-19T10:32:00Z</time></trkpt><trkpt lat="43.28411843187707" lon="10.814244352868412"><ele>297.0</ele><time>2026-04-19T10:32:01Z</time></trkpt><trkpt lat="43.28401021278801" lon="10.81430197634651"><ele>297.0</ele><time>2026-04-19T10:32:02Z</time></trkpt><trkpt lat="43.28390397410797" lon="10.81437001627355"><ele>297.0</ele><time>2026-04-19T10:32:03Z</time></trkpt><trkpt lat="43.283790352436114" lon="10.814470717845431"><ele>297.0</ele><time>2026-04-19T10:32:04Z</time></trkpt><trkpt lat="43.283670114038046" lon="10.814580009051678"><ele>295.75</ele><time>2026-04-19T10:32:05Z</time></trkpt><trkpt lat="43.283553559548494" lon="10.814703997653817"><ele>294.5</ele><time>2026-04-19T10:32:06Z</time></trkpt><trkpt lat="43.283433962251124" lon="10.814827145709803"><ele>293.25</ele><time>2026-04-19T10:32:07Z</time></trkpt><trkpt lat="43.28332855554136" lon="10.814928121056255"><ele>292.0</ele><time>2026-04-19T10:32:08Z</time></trkpt><trkpt lat="43.28324998753071" lon="10.815005247227745"><ele>292.0</ele><time>2026-04-19T10:32:09Z</time></trkpt><trkpt lat="43.28318447418302" lon="10.81507071510895"><ele>292.0</ele><time>2026-04-19T10:32:10.001Z</time></trkpt><trkpt lat="43.28313859373847" lon="10.815139876906946"><ele>292.0</ele><time>2026-04-19T10:32:11.001Z</time></trkpt><trkpt lat="43.28312560299524" lon="10.815232443613327"><ele>292.0</ele><time>2026-04-19T10:32:12.001Z</time></trkpt><trkpt lat="43.283131348833486" lon="10.815319595610104"><ele>292.0</ele><time>2026-04-19T10:32:13.001Z</time></trkpt><trkpt lat="43.28322116593392" lon="10.815386810157184"><ele>292.0</ele><time>2026-04-19T10:32:14.001Z</time></trkpt><trkpt lat="43.28334632625208" lon="10.815334347198167"><ele>288.75</ele><time>2026-04-19T10:32:15.001Z</time></trkpt><trkpt lat="43.283447175160546" lon="10.815283460090692"><ele>285.5</ele><time>2026-04-19T10:32:16.001Z</time></trkpt><trkpt lat="43.283560831265994" lon="10.815226159554934"><ele>282.25</ele><time>2026-04-19T10:32:17.001Z</time></trkpt><trkpt lat="43.28368741145282" lon="10.815182647603423"><ele>279.0</ele><time>2026-04-19T10:32:18.001Z</time></trkpt><trkpt lat="43.28381103883839" lon="10.815182170276875"><ele>279.0</ele><time>2026-04-19T10:32:19.001Z</time></trkpt><trkpt lat="43.28391556324043" lon="10.815273477343977"><ele>279.0</ele><time>2026-04-19T10:32:20.001Z</time></trkpt><trkpt lat="43.284005105550094" lon="10.815410110083391"><ele>279.0</ele><time>2026-04-19T10:32:21.001Z</time></trkpt><trkpt lat="43.28412664310949" lon="10.815555812142943"><ele>279.0</ele><time>2026-04-19T10:32:22.001Z</time></trkpt><trkpt lat="43.284200088862505" lon="10.815730562928536"><ele>279.5</ele><time>2026-04-19T10:32:23.001Z</time></trkpt><trkpt lat="43.28427447794741" lon="10.815841139120067"><ele>280.0</ele><time>2026-04-19T10:32:24.001Z</time></trkpt><trkpt lat="43.28434125149836" lon="10.815918733788152"><ele>280.5</ele><time>2026-04-19T10:32:25.001Z</time></trkpt><trkpt lat="43.28448266307179" lon="10.815971379879791"><ele>281.0</ele><time>2026-04-19T10:32:27.001Z</time></trkpt><trkpt lat="43.284582181402385" lon="10.815907131280634"><ele>281.0</ele><time>2026-04-19T10:32:28.001Z</time></trkpt><trkpt lat="43.284694656432734" lon="10.815822846449256"><ele>281.0</ele><time>2026-04-19T10:32:29.001Z</time></trkpt><trkpt lat="43.2848052719533" lon="10.815706014378819"><ele>281.0</ele><time>2026-04-19T10:32:30.001Z</time></trkpt><trkpt lat="43.284908130331004" lon="10.815579190313425"><ele>281.0</ele><time>2026-04-19T10:32:31.001Z</time></trkpt><trkpt lat="43.285015132147116" lon="10.815447959282443"><ele>280.25</ele><time>2026-04-19T10:32:32.001Z</time></trkpt><trkpt lat="43.285128747144114" lon="10.815310990655693"><ele>279.5</ele><time>2026-04-19T10:32:33.001Z</time></trkpt><trkpt lat="43.28524618733279" lon="10.815178874216308"><ele>278.75</ele><time>2026-04-19T10:32:34.001Z</time></trkpt><trkpt lat="43.28535514419783" lon="10.81505804950082"><ele>278.0</ele><time>2026-04-19T10:32:35.001Z</time></trkpt><trkpt lat="43.285467312319426" lon="10.814961136524087"><ele>278.0</ele><time>2026-04-19T10:32:36.001Z</time></trkpt><trkpt lat="43.28558897373815" lon="10.814898352718915"><ele>278.0</ele><time>2026-04-19T10:32:37.001Z</time></trkpt><trkpt lat="43.28571917514003" lon="10.814859191959895"><ele>278.0</ele><time>2026-04-19T10:32:38.001Z</time></trkpt><trkpt lat="43.28584801524674" lon="10.814800547063118"><ele>278.0</ele><time>2026-04-19T10:32:39.001Z</time></trkpt><trkpt lat="43.28596943000258" lon="10.8147656991665"><ele>275.0</ele><time>2026-04-19T10:32:40.001Z</time></trkpt><trkpt lat="43.28607409433955" lon="10.814716182089303"><ele>272.0</ele><time>2026-04-19T10:32:41.001Z</time></trkpt><trkpt lat="43.28616387157085" lon="10.814633773629842"><ele>269.0</ele><time>2026-04-19T10:32:42.001Z</time></trkpt><trkpt lat="43.28622922994642" lon="10.814494375790026"><ele>266.0</ele><time>2026-04-19T10:32:43.001Z</time></trkpt><trkpt lat="43.28626672788749" lon="10.814322812234684"><ele>267.25</ele><time>2026-04-19T10:32:44.001Z</time></trkpt><trkpt lat="43.28632385872695" lon="10.814161325262766"><ele>268.5</ele><time>2026-04-19T10:32:45.001Z</time></trkpt><trkpt lat="43.286399711588345" lon="10.814020388093228"><ele>269.75</ele><time>2026-04-19T10:32:46.001Z</time></trkpt><trkpt lat="43.28653160851727" lon="10.813921382716133"><ele>271.0</ele><time>2026-04-19T10:32:47.001Z</time></trkpt><trkpt lat="43.286670311054024" lon="10.81379692610274"><ele>268.5</ele><time>2026-04-19T10:32:48.001Z</time></trkpt><trkpt lat="43.286797530290215" lon="10.81364404298047"><ele>266.0</ele><time>2026-04-19T10:32:49.001Z</time></trkpt><trkpt lat="43.286905754670116" lon="10.81351385991961"><ele>263.5</ele><time>2026-04-19T10:32:50.001Z</time></trkpt><trkpt lat="43.28698995408459" lon="10.813398631715613"><ele>261.0</ele><time>2026-04-19T10:32:51.001Z</time></trkpt><trkpt lat="43.28704407406076" lon="10.81328754753208"><ele>261.0</ele><time>2026-04-19T10:32:52.001Z</time></trkpt><trkpt lat="43.287048941992225" lon="10.813144284896714"><ele>261.0</ele><time>2026-04-19T10:32:53.001Z</time></trkpt><trkpt lat="43.28700146907179" lon="10.812963294578319"><ele>261.0</ele><time>2026-04-19T10:32:54.001Z</time></trkpt><trkpt lat="43.286928474898666" lon="10.812769995138485"><ele>261.0</ele><time>2026-04-19T10:32:55.001Z</time></trkpt><trkpt lat="43.286899130729054" lon="10.812581345350017"><ele>261.75</ele><time>2026-04-19T10:32:56.001Z</time></trkpt><trkpt lat="43.286886543018774" lon="10.812422532428723"><ele>262.5</ele><time>2026-04-19T10:32:57.001Z</time></trkpt><trkpt lat="43.28688456981705" lon="10.812277328042288"><ele>263.25</ele><time>2026-04-19T10:32:58.001Z</time></trkpt><trkpt lat="43.286966406659964" lon="10.812155927782019"><ele>264.0</ele><time>2026-04-19T10:32:59Z</time></trkpt><trkpt lat="43.287057728361056" lon="10.812041036616423"><ele>264.0</ele><time>2026-04-19T10:33:00Z</time></trkpt><trkpt lat="43.28717648013208" lon="10.811933933379423"><ele>264.0</ele><time>2026-04-19T10:33:01Z</time></trkpt><trkpt lat="43.287303780164656" lon="10.811840800915855"><ele>264.0</ele><time>2026-04-19T10:33:02Z</time></trkpt><trkpt lat="43.287450232911695" lon="10.811781702485284"><ele>264.0</ele><time>2026-04-19T10:33:03Z</time></trkpt><trkpt lat="43.28761987594964" lon="10.811737260235773"><ele>259.3333333333333</ele><time>2026-04-19T10:33:04Z</time></trkpt><trkpt lat="43.28777484103412" lon="10.811636927860507"><ele>254.66666666666666</ele><time>2026-04-19T10:33:05Z</time></trkpt><trkpt lat="43.28792473074265" lon="10.811503457514158"><ele>250.0</ele><time>2026-04-19T10:33:06Z</time></trkpt><trkpt lat="43.28804987418431" lon="10.811383113228217"><ele>248.0</ele><time>2026-04-19T10:33:07Z</time></trkpt><trkpt lat="43.28815028970602" lon="10.81125724459685"><ele>246.0</ele><time>2026-04-19T10:33:08Z</time></trkpt><trkpt lat="43.28822791898127" lon="10.811107269645902"><ele>244.0</ele><time>2026-04-19T10:33:09Z</time></trkpt><trkpt lat="43.28827880008752" lon="10.81094693419988"><ele>242.0</ele><time>2026-04-19T10:33:10Z</time></trkpt><trkpt lat="43.28830529582351" lon="10.810784131250694"><ele>242.0</ele><time>2026-04-19T10:33:11Z</time></trkpt><trkpt lat="43.288308416662446" lon="10.810605425086676"><ele>242.0</ele><time>2026-04-19T10:33:12Z</time></trkpt><trkpt lat="43.288306694557875" lon="10.810404563106667"><ele>242.0</ele><time>2026-04-19T10:33:13Z</time></trkpt><trkpt lat="43.288321450437785" lon="10.810178500913667"><ele>242.0</ele><time>2026-04-19T10:33:14Z</time></trkpt><trkpt lat="43.2883716339913" lon="10.809909164222239"><ele>243.66666666666669</ele><time>2026-04-19T10:33:15Z</time></trkpt><trkpt lat="43.28844136103918" lon="10.809599305212151"><ele>245.33333333333331</ele><time>2026-04-19T10:33:16Z</time></trkpt><trkpt lat="43.28848996236887" lon="10.809345377378671"><ele>247.0</ele><time>2026-04-19T10:33:17Z</time></trkpt><trkpt lat="43.2885275382105" lon="10.809220607456847"><ele>248.0</ele><time>2026-04-19T10:33:18Z</time></trkpt><trkpt lat="43.288556230000765" lon="10.809096099985208"><ele>249.0</ele><time>2026-04-19T10:33:19Z</time></trkpt><trkpt lat="43.288613082748974" lon="10.808989839498604"><ele>250.0</ele><time>2026-04-19T10:33:20Z</time></trkpt><trkpt lat="43.28871680181321" lon="10.808997651438922"><ele>251.0</ele><time>2026-04-19T10:33:22Z</time></trkpt><trkpt lat="43.28876391670108" lon="10.809066531056072"><ele>252.0</ele><time>2026-04-19T10:33:23Z</time></trkpt><trkpt lat="43.28876882256504" lon="10.809206755986297"><ele>250.75</ele><time>2026-04-19T10:33:24Z</time></trkpt><trkpt lat="43.288768057539755" lon="10.80934109525708"><ele>249.5</ele><time>2026-04-19T10:33:25Z</time></trkpt><trkpt lat="43.28877281460714" lon="10.809497700401158"><ele>248.25</ele><time>2026-04-19T10:33:26Z</time></trkpt><trkpt lat="43.288752776137976" lon="10.809665764559846"><ele>247.0</ele><time>2026-04-19T10:33:27Z</time></trkpt><trkpt lat="43.28872358817305" lon="10.809829092321948"><ele>247.0</ele><time>2026-04-19T10:33:28Z</time></trkpt><trkpt lat="43.28869842936898" lon="10.809995334246272"><ele>247.0</ele><time>2026-04-19T10:33:29Z</time></trkpt><trkpt lat="43.28869496759129" lon="10.810177041047185"><ele>247.0</ele><time>2026-04-19T10:33:30Z</time></trkpt><trkpt lat="43.28873196856008" lon="10.810368965985418"><ele>247.0</ele><time>2026-04-19T10:33:31Z</time></trkpt><trkpt lat="43.288791624783656" lon="10.810556700071443"><ele>245.75</ele><time>2026-04-19T10:33:32Z</time></trkpt><trkpt lat="43.28883080503125" lon="10.810766836629691"><ele>244.5</ele><time>2026-04-19T10:33:33Z</time></trkpt><trkpt lat="43.28889373213258" lon="10.810961765873804"><ele>243.25</ele><time>2026-04-19T10:33:34Z</time></trkpt><trkpt lat="43.288901639067035" lon="10.811133482881024"><ele>242.0</ele><time>2026-04-19T10:33:35Z</time></trkpt><trkpt lat="43.28889604593068" lon="10.811302378002232"><ele>241.0</ele><time>2026-04-19T10:33:36Z</time></trkpt><trkpt lat="43.28886104395989" lon="10.81149585666815"><ele>240.0</ele><time>2026-04-19T10:33:37Z</time></trkpt><trkpt lat="43.28885068736743" lon="10.811645722366023"><ele>239.0</ele><time>2026-04-19T10:33:38Z</time></trkpt><trkpt lat="43.28884441132124" lon="10.811739048422373"><ele>238.0</ele><time>2026-04-19T10:33:39Z</time></trkpt><trkpt lat="43.28889486555381" lon="10.811814861031499"><ele>237.0</ele><time>2026-04-19T10:33:40Z</time></trkpt><trkpt lat="43.28898074908101" lon="10.811835434332767"><ele>234.25</ele><time>2026-04-19T10:33:41Z</time></trkpt><trkpt lat="43.28905512264938" lon="10.811753574508009"><ele>231.5</ele><time>2026-04-19T10:33:42Z</time></trkpt><trkpt lat="43.289123509820726" lon="10.81159571216446"><ele>228.75</ele><time>2026-04-19T10:33:43Z</time></trkpt><trkpt lat="43.28919376826723" lon="10.811385390229345"><ele>226.0</ele><time>2026-04-19T10:33:44Z</time></trkpt><trkpt lat="43.2892717139845" lon="10.811142058034797"><ele>226.25</ele><time>2026-04-19T10:33:45Z</time></trkpt><trkpt lat="43.289346589431275" lon="10.810936407938968"><ele>226.5</ele><time>2026-04-19T10:33:46Z</time></trkpt><trkpt lat="43.289395853769314" lon="10.810795203569535"><ele>226.75</ele><time>2026-04-19T10:33:47Z</time></trkpt><trkpt lat="43.28941407589758" lon="10.81064548044301"><ele>227.0</ele><time>2026-04-19T10:33:48Z</time></trkpt><trkpt lat="43.289376745561135" lon="10.810480502072092"><ele>227.0</ele><time>2026-04-19T10:33:49Z</time></trkpt><trkpt lat="43.289316588860885" lon="10.810324201061821"><ele>227.0</ele><time>2026-04-19T10:33:50Z</time></trkpt><trkpt lat="43.289321830546314" lon="10.810171880792211"><ele>227.0</ele><time>2026-04-19T10:33:51Z</time></trkpt><trkpt lat="43.28943147998485" lon="10.81001431102255"><ele>227.0</ele><time>2026-04-19T10:33:52Z</time></trkpt><trkpt lat="43.28954099805223" lon="10.809839611070268"><ele>227.0</ele><time>2026-04-19T10:33:53Z</time></trkpt><trkpt lat="43.28962649121842" lon="10.809695429750025"><ele>227.0</ele><time>2026-04-19T10:33:54Z</time></trkpt><trkpt lat="43.28971943448394" lon="10.809618677297902"><ele>227.0</ele><time>2026-04-19T10:33:55.001Z</time></trkpt><trkpt lat="43.28982022487413" lon="10.809574795054766"><ele>227.0</ele><time>2026-04-19T10:33:56.001Z</time></trkpt><trkpt lat="43.28990857063629" lon="10.80950657511722"><ele>224.2</ele><time>2026-04-19T10:33:57.001Z</time></trkpt><trkpt lat="43.28996913644375" lon="10.809421352850075"><ele>221.39999999999998</ele><time>2026-04-19T10:33:58.001Z</time></trkpt><trkpt lat="43.29001622121635" lon="10.809287622185545"><ele>218.60000000000002</ele><time>2026-04-19T10:33:59.001Z</time></trkpt><trkpt lat="43.290022268465414" lon="10.809143936348224"><ele>215.8</ele><time>2026-04-19T10:34:00.001Z</time></trkpt><trkpt lat="43.29004493687565" lon="10.809008110260686"><ele>213.0</ele><time>2026-04-19T10:34:01.001Z</time></trkpt><trkpt lat="43.29006633836596" lon="10.808887536809896"><ele>213.0</ele><time>2026-04-19T10:34:02.001Z</time></trkpt><trkpt lat="43.29009299542378" lon="10.808765919815709"><ele>213.0</ele><time>2026-04-19T10:34:03.001Z</time></trkpt><trkpt lat="43.29013142541998" lon="10.808648379784962"><ele>213.0</ele><time>2026-04-19T10:34:04.001Z</time></trkpt><trkpt lat="43.29018039328424" lon="10.80853664070947"><ele>213.0</ele><time>2026-04-19T10:34:05.001Z</time></trkpt><trkpt lat="43.29024448557056" lon="10.808451863176437"><ele>213.0</ele><time>2026-04-19T10:34:06.001Z</time></trkpt><trkpt lat="43.29031837641868" lon="10.808366398132074"><ele>213.2</ele><time>2026-04-19T10:34:07.001Z</time></trkpt><trkpt lat="43.290388251498385" lon="10.808259478773586"><ele>213.4</ele><time>2026-04-19T10:34:08.001Z</time></trkpt><trkpt lat="43.29046526726156" lon="10.808155557428773"><ele>213.59999999999997</ele><time>2026-04-19T10:34:09.001Z</time></trkpt><trkpt lat="43.29052845291236" lon="10.80803355311317"><ele>213.79999999999998</ele><time>2026-04-19T10:34:10.001Z</time></trkpt><trkpt lat="43.290573301228335" lon="10.807896581622229"><ele>214.0</ele><time>2026-04-19T10:34:11.001Z</time></trkpt><trkpt lat="43.290602310108106" lon="10.807745538255903"><ele>211.2</ele><time>2026-04-19T10:34:12.001Z</time></trkpt><trkpt lat="43.29063080113681" lon="10.80758804109828"><ele>208.39999999999998</ele><time>2026-04-19T10:34:13.001Z</time></trkpt><trkpt lat="43.29065339792312" lon="10.807442797723443"><ele>205.6</ele><time>2026-04-19T10:34:14.001Z</time></trkpt><trkpt lat="43.29066852175978" lon="10.807318194177357"><ele>202.8</ele><time>2026-04-19T10:34:15.001Z</time></trkpt><trkpt lat="43.29068200246433" lon="10.807209270464446"><ele>200.0</ele><time>2026-04-19T10:34:16.001Z</time></trkpt><trkpt lat="43.2906942150803" lon="10.807102509549704"><ele>200.00000000000003</ele><time>2026-04-19T10:34:17.001Z</time></trkpt><trkpt lat="43.29069319693158" lon="10.807004333491566"><ele>200.0</ele><time>2026-04-19T10:34:18.001Z</time></trkpt><trkpt lat="43.29068414554165" lon="10.806905086102528"><ele>200.0</ele><time>2026-04-19T10:34:19.001Z</time></trkpt><trkpt lat="43.290688890874776" lon="10.806803187642199"><ele>200.0</ele><time>2026-04-19T10:34:20.001Z</time></trkpt><trkpt lat="43.290678286986875" lon="10.806715558010946"><ele>200.00000000000003</ele><time>2026-04-19T10:34:21.001Z</time></trkpt><trkpt lat="43.29066252901519" lon="10.806563921218036"><ele>200.0</ele><time>2026-04-19T10:34:23.001Z</time></trkpt><trkpt lat="43.29069680753885" lon="10.806490917611269"><ele>200.00000000000003</ele><time>2026-04-19T10:34:24.001Z</time></trkpt><trkpt lat="43.29076068744818" lon="10.806445081992571"><ele>200.0</ele><time>2026-04-19T10:34:25.001Z</time></trkpt><trkpt lat="43.29083330619629" lon="10.806471951463228"><ele>200.0</ele><time>2026-04-19T10:34:26.001Z</time></trkpt><trkpt lat="43.29090353289218" lon="10.806517085930793"><ele>200.0</ele><time>2026-04-19T10:34:27.001Z</time></trkpt><trkpt lat="43.29096197178728" lon="10.806652207843783"><ele>200.00000000000003</ele><time>2026-04-19T10:34:28.001Z</time></trkpt><trkpt lat="43.291020183425125" lon="10.806756746759532"><ele>200.0</ele><time>2026-04-19T10:34:29.001Z</time></trkpt><trkpt lat="43.29108327734781" lon="10.806878069881458"><ele>200.0</ele><time>2026-04-19T10:34:30.001Z</time></trkpt><trkpt lat="43.29111836081913" lon="10.80703426308757"><ele>200.0</ele><time>2026-04-19T10:34:31.001Z</time></trkpt><trkpt lat="43.29113242761706" lon="10.807211810858636"><ele>200.0</ele><time>2026-04-19T10:34:32.001Z</time></trkpt><trkpt lat="43.291173701791905" lon="10.807381556783843"><ele>200.0</ele><time>2026-04-19T10:34:33.001Z</time></trkpt><trkpt lat="43.29119812875517" lon="10.807576685050906"><ele>199.0</ele><time>2026-04-19T10:34:34.001Z</time></trkpt><trkpt lat="43.291231943992834" lon="10.807772371094181"><ele>198.0</ele><time>2026-04-19T10:34:35.001Z</time></trkpt><trkpt lat="43.29127188051284" lon="10.807963305603302"><ele>197.0</ele><time>2026-04-19T10:34:36.001Z</time></trkpt><trkpt lat="43.29131786816097" lon="10.8081311047716"><ele>196.0</ele><time>2026-04-19T10:34:37.001Z</time></trkpt><trkpt lat="43.29134781422809" lon="10.808282382190221"><ele>196.0</ele><time>2026-04-19T10:34:38.001Z</time></trkpt><trkpt lat="43.29134084415893" lon="10.808403728037655"><ele>196.0</ele><time>2026-04-19T10:34:39.001Z</time></trkpt><trkpt lat="43.29128431179758" lon="10.808504839596935"><ele>196.0</ele><time>2026-04-19T10:34:40.001Z</time></trkpt><trkpt lat="43.29118345518657" lon="10.808582311986038"><ele>196.0</ele><time>2026-04-19T10:34:41.001Z</time></trkpt><trkpt lat="43.29112883883409" lon="10.808719267616969"><ele>196.0</ele><time>2026-04-19T10:34:42.001Z</time></trkpt><trkpt lat="43.29109673501716" lon="10.808841747164106"><ele>195.16666666666666</ele><time>2026-04-19T10:34:43.001Z</time></trkpt><trkpt lat="43.29107624797753" lon="10.808947363196053"><ele>194.33333333333331</ele><time>2026-04-19T10:34:44.001Z</time></trkpt><trkpt lat="43.29105639797011" lon="10.809044401293542"><ele>193.5</ele><time>2026-04-19T10:34:45.001Z</time></trkpt><trkpt lat="43.291039077737" lon="10.809155784272697"><ele>192.66666666666666</ele><time>2026-04-19T10:34:46.001Z</time></trkpt><trkpt lat="43.291038408478876" lon="10.809263215449187"><ele>191.83333333333331</ele><time>2026-04-19T10:34:47.001Z</time></trkpt><trkpt lat="43.2910520876156" lon="10.809384241873918"><ele>191.0</ele><time>2026-04-19T10:34:48.001Z</time></trkpt><trkpt lat="43.29107322038863" lon="10.80951046503435"><ele>190.8</ele><time>2026-04-19T10:34:49.001Z</time></trkpt><trkpt lat="43.29109159605228" lon="10.809637934640014"><ele>190.60000000000002</ele><time>2026-04-19T10:34:50.001Z</time></trkpt><trkpt lat="43.29111728048523" lon="10.809766586069486"><ele>190.4</ele><time>2026-04-19T10:34:51.001Z</time></trkpt><trkpt lat="43.291172634833984" lon="10.809889152892364"><ele>190.2</ele><time>2026-04-19T10:34:52.001Z</time></trkpt><trkpt lat="43.2912634490921" lon="10.810012381867702"><ele>190.0</ele><time>2026-04-19T10:34:53.001Z</time></trkpt><trkpt lat="43.291370915677824" lon="10.810164704708475"><ele>187.5</ele><time>2026-04-19T10:34:54.001Z</time></trkpt><trkpt lat="43.291441706243035" lon="10.810353486610321"><ele>185.0</ele><time>2026-04-19T10:34:55.001Z</time></trkpt><trkpt lat="43.291529488893566" lon="10.810508132273437"><ele>182.5</ele><time>2026-04-19T10:34:56.001Z</time></trkpt><trkpt lat="43.29159330357969" lon="10.810610887402436"><ele>180.0</ele><time>2026-04-19T10:34:57.001Z</time></trkpt><trkpt lat="43.29164481423696" lon="10.810663642490024"><ele>180.0</ele><time>2026-04-19T10:34:58.001Z</time></trkpt><trkpt lat="43.29174811724831" lon="10.810719831116485"><ele>180.0</ele><time>2026-04-19T10:35:00.001Z</time></trkpt><trkpt lat="43.291815442283706" lon="10.810753988992795"><ele>180.0</ele><time>2026-04-19T10:35:01.001Z</time></trkpt><trkpt lat="43.29189343981725" lon="10.81077725265013"><ele>180.0</ele><time>2026-04-19T10:35:02.001Z</time></trkpt><trkpt lat="43.2919916757881" lon="10.810778877621283"><ele>180.0</ele><time>2026-04-19T10:35:03.001Z</time></trkpt><trkpt lat="43.29211487802366" lon="10.810763824908621"><ele>177.5</ele><time>2026-04-19T10:35:04.001Z</time></trkpt><trkpt lat="43.29226481203885" lon="10.810753309957835"><ele>175.0</ele><time>2026-04-19T10:35:05Z</time></trkpt><trkpt lat="43.29240923277535" lon="10.810760216024981"><ele>172.5</ele><time>2026-04-19T10:35:06Z</time></trkpt><trkpt lat="43.292539635971856" lon="10.810774539810064"><ele>170.0</ele><time>2026-04-19T10:35:07Z</time></trkpt><trkpt lat="43.29265058271349" lon="10.810811121450781"><ele>170.0</ele><time>2026-04-19T10:35:08Z</time></trkpt><trkpt lat="43.29275764875775" lon="10.810866281026662"><ele>170.0</ele><time>2026-04-19T10:35:09Z</time></trkpt><trkpt lat="43.2928684045" lon="10.810916240101932"><ele>170.0</ele><time>2026-04-19T10:35:10Z</time></trkpt><trkpt lat="43.29298037151606" lon="10.81095996046444"><ele>170.0</ele><time>2026-04-19T10:35:11Z</time></trkpt><trkpt lat="43.2930939813743" lon="10.811002019728473"><ele>167.25</ele><time>2026-04-19T10:35:12Z</time></trkpt><trkpt lat="43.29321300741577" lon="10.811041700467415"><ele>164.5</ele><time>2026-04-19T10:35:13Z</time></trkpt><trkpt lat="43.293330838570036" lon="10.811089779698017"><ele>161.75</ele><time>2026-04-19T10:35:14Z</time></trkpt><trkpt lat="43.2934386370437" lon="10.811162981230199"><ele>159.0</ele><time>2026-04-19T10:35:15Z</time></trkpt><trkpt lat="43.29353530386913" lon="10.811249127932491"><ele>159.0</ele><time>2026-04-19T10:35:16Z</time></trkpt><trkpt lat="43.293634620353906" lon="10.811313401019106"><ele>159.0</ele><time>2026-04-19T10:35:17Z</time></trkpt><trkpt lat="43.29374585969717" lon="10.811325597260172"><ele>159.0</ele><time>2026-04-19T10:35:18Z</time></trkpt><trkpt lat="43.29387236437512" lon="10.811301257788974"><ele>159.0</ele><time>2026-04-19T10:35:19Z</time></trkpt><trkpt lat="43.2939881670105" lon="10.81113863539988"><ele>157.4</ele><time>2026-04-19T10:35:20Z</time></trkpt><trkpt lat="43.29408947710053" lon="10.81100444110044"><ele>155.8</ele><time>2026-04-19T10:35:21Z</time></trkpt><trkpt lat="43.294203699119684" lon="10.810955277828805"><ele>154.2</ele><time>2026-04-19T10:35:22Z</time></trkpt><trkpt lat="43.294294593266265" lon="10.810927941574596"><ele>152.6</ele><time>2026-04-19T10:35:23Z</time></trkpt><trkpt lat="43.29436714391138" lon="10.810923286805403"><ele>151.0</ele><time>2026-04-19T10:35:24Z</time></trkpt><trkpt lat="43.29443761560008" lon="10.810925153262273"><ele>151.00000000000003</ele><time>2026-04-19T10:35:25Z</time></trkpt><trkpt lat="43.294507702840534" lon="10.81093224172235"><ele>151.0</ele><time>2026-04-19T10:35:26Z</time></trkpt><trkpt lat="43.294580120122866" lon="10.810939968015223"><ele>151.0</ele><time>2026-04-19T10:35:27Z</time></trkpt><trkpt lat="43.294653305" lon="10.81094895758846"><ele>151.0</ele><time>2026-04-19T10:35:28Z</time></trkpt><trkpt lat="43.29472161081527" lon="10.810957347852817"><ele>151.0</ele><time>2026-04-19T10:35:29Z</time></trkpt><trkpt lat="43.294787363511325" lon="10.810964462841223"><ele>151.00000000000003</ele><time>2026-04-19T10:35:30Z</time></trkpt><trkpt lat="43.29485082270582" lon="10.810970472395041"><ele>151.0</ele><time>2026-04-19T10:35:31Z</time></trkpt><trkpt lat="43.29494349759804" lon="10.810978230767185"><ele>151.0</ele><time>2026-04-19T10:35:33Z</time></trkpt><trkpt lat="43.29504008427838" lon="10.81098538723997"><ele>151.0</ele><time>2026-04-19T10:35:35Z</time></trkpt><trkpt lat="43.29513049226835" lon="10.81099007766625"><ele>151.0</ele><time>2026-04-19T10:35:37Z</time></trkpt><trkpt lat="43.29521440011746" lon="10.810974426550494"><ele>151.0</ele><time>2026-04-19T10:35:39Z</time></trkpt><trkpt lat="43.29530137482085" lon="10.810986301526707"><ele>151.0</ele><time>2026-04-19T10:35:41Z</time></trkpt><trkpt lat="43.29541331267393" lon="10.811013930712477"><ele>151.0</ele><time>2026-04-19T10:35:43Z</time></trkpt><trkpt lat="43.29548549275191" lon="10.811018570865766"><ele>151.0</ele><time>2026-04-19T10:35:44Z</time></trkpt><trkpt lat="43.29556411309162" lon="10.811023625018482"><ele>151.0</ele><time>2026-04-19T10:35:45Z</time></trkpt><trkpt lat="43.295646099418676" lon="10.811026462570025"><ele>151.0</ele><time>2026-04-19T10:35:46.001Z</time></trkpt><trkpt lat="43.295722829467195" lon="10.811025633489784"><ele>151.0</ele><time>2026-04-19T10:35:47.001Z</time></trkpt><trkpt lat="43.29584065164109" lon="10.811007145341897"><ele>151.0</ele><time>2026-04-19T10:35:49.001Z</time></trkpt><trkpt lat="43.2959531806943" lon="10.810973618029662"><ele>150.66666666666669</ele><time>2026-04-19T10:35:51.001Z</time></trkpt><trkpt lat="43.29607424081315" lon="10.810920322638646"><ele>150.33333333333334</ele><time>2026-04-19T10:35:53.001Z</time></trkpt><trkpt lat="43.29614087712065" lon="10.810887568087514"><ele>150.0</ele><time>2026-04-19T10:35:54.001Z</time></trkpt><trkpt lat="43.296210643191195" lon="10.810851206230527"><ele>149.66666666666666</ele><time>2026-04-19T10:35:55.001Z</time></trkpt><trkpt lat="43.29628698360483" lon="10.81081054870232"><ele>149.33333333333331</ele><time>2026-04-19T10:35:56.001Z</time></trkpt><trkpt lat="43.29636285347347" lon="10.810770059268505"><ele>149.0</ele><time>2026-04-19T10:35:57.001Z</time></trkpt><trkpt lat="43.296439543994545" lon="10.8107290270076"><ele>149.0</ele><time>2026-04-19T10:35:58.001Z</time></trkpt><trkpt lat="43.29651162653142" lon="10.810690460253857"><ele>149.0</ele><time>2026-04-19T10:35:59.001Z</time></trkpt><trkpt lat="43.29658776506649" lon="10.810649723374953"><ele>149.0</ele><time>2026-04-19T10:36:00.001Z</time></trkpt><trkpt lat="43.296655576160546" lon="10.81061344189943"><ele>149.0</ele><time>2026-04-19T10:36:01.001Z</time></trkpt><trkpt lat="43.29671786005955" lon="10.81058011779963"><ele>149.0</ele><time>2026-04-19T10:36:02.001Z</time></trkpt><trkpt lat="43.29677924548294" lon="10.810547085975559"><ele>149.0</ele><time>2026-04-19T10:36:03.001Z</time></trkpt><trkpt lat="43.29685509681355" lon="10.810506135892469"><ele>149.0</ele><time>2026-04-19T10:36:04.001Z</time></trkpt><trkpt lat="43.29695863151164" lon="10.810450240308551"><ele>149.0</ele><time>2026-04-19T10:36:05.001Z</time></trkpt><trkpt lat="43.297073853541676" lon="10.81038803512132"><ele>149.0</ele><time>2026-04-19T10:36:06.001Z</time></trkpt><trkpt lat="43.2971988363685" lon="10.810315899947156"><ele>149.0</ele><time>2026-04-19T10:36:07.001Z</time></trkpt><trkpt lat="43.29732812190516" lon="10.810237278449108"><ele>149.0</ele><time>2026-04-19T10:36:08.001Z</time></trkpt><trkpt lat="43.29746580785072" lon="10.810171978558179"><ele>147.25</ele><time>2026-04-19T10:36:09.001Z</time></trkpt><trkpt lat="43.2975981313591" lon="10.810098752093396"><ele>145.5</ele><time>2026-04-19T10:36:10.001Z</time></trkpt><trkpt lat="43.29772846045286" lon="10.810031158614645"><ele>143.75</ele><time>2026-04-19T10:36:11.001Z</time></trkpt><trkpt lat="43.29785901508769" lon="10.809960480782815"><ele>142.0</ele><time>2026-04-19T10:36:12.001Z</time></trkpt><trkpt lat="43.29799187022171" lon="10.809887240931355"><ele>142.25</ele><time>2026-04-19T10:36:13.001Z</time></trkpt><trkpt lat="43.298129104415146" lon="10.809815460349585"><ele>142.5</ele><time>2026-04-19T10:36:14.001Z</time></trkpt><trkpt lat="43.298263895705965" lon="10.809742823389108"><ele>142.75</ele><time>2026-04-19T10:36:15.001Z</time></trkpt><trkpt lat="43.29841117543247" lon="10.809691226528308"><ele>143.0</ele><time>2026-04-19T10:36:16.001Z</time></trkpt><trkpt lat="43.29855966338752" lon="10.809627553236053"><ele>143.0</ele><time>2026-04-19T10:36:17.001Z</time></trkpt><trkpt lat="43.298704109996876" lon="10.809553367540817"><ele>143.0</ele><time>2026-04-19T10:36:18.001Z</time></trkpt><trkpt lat="43.29884905117697" lon="10.80950658910358"><ele>143.0</ele><time>2026-04-19T10:36:19.001Z</time></trkpt><trkpt lat="43.29898274231095" lon="10.809471428558464"><ele>143.0</ele><time>2026-04-19T10:36:20.001Z</time></trkpt><trkpt lat="43.29910920511849" lon="10.809427584133502"><ele>142.8</ele><time>2026-04-19T10:36:21.001Z</time></trkpt><trkpt lat="43.29922889830193" lon="10.809386357749032"><ele>142.60000000000002</ele><time>2026-04-19T10:36:22.001Z</time></trkpt><trkpt lat="43.29934228592415" lon="10.809327009299167"><ele>142.39999999999998</ele><time>2026-04-19T10:36:23.001Z</time></trkpt><trkpt lat="43.2994507373229" lon="10.80932149084608"><ele>142.2</ele><time>2026-04-19T10:36:24.001Z</time></trkpt><trkpt lat="43.2995455871195" lon="10.809300562150007"><ele>142.0</ele><time>2026-04-19T10:36:25.001Z</time></trkpt><trkpt lat="43.29962356154275" lon="10.809396593336926"><ele>142.0</ele><time>2026-04-19T10:36:26.001Z</time></trkpt><trkpt lat="43.29968770937544" lon="10.809529194268688"><ele>142.0</ele><time>2026-04-19T10:36:27.001Z</time></trkpt><trkpt lat="43.299739381073195" lon="10.809724853117133"><ele>142.0</ele><time>2026-04-19T10:36:28.001Z</time></trkpt><trkpt lat="43.299846705920224" lon="10.809956965685648"><ele>139.66666666666669</ele><time>2026-04-19T10:36:29.001Z</time></trkpt><trkpt lat="43.29997709106688" lon="10.81021148513576"><ele>137.33333333333334</ele><time>2026-04-19T10:36:30.001Z</time></trkpt><trkpt lat="43.30005071743286" lon="10.810428185806984"><ele>135.0</ele><time>2026-04-19T10:36:31.001Z</time></trkpt><trkpt lat="43.30011768189517" lon="10.810578648694168"><ele>135.0</ele><time>2026-04-19T10:36:32.001Z</time></trkpt><trkpt lat="43.30016258666409" lon="10.810678979832055"><ele>135.0</ele><time>2026-04-19T10:36:33.001Z</time></trkpt><trkpt lat="43.300222754479975" lon="10.8107740711347"><ele>135.0</ele><time>2026-04-19T10:36:34.001Z</time></trkpt><trkpt lat="43.30029423611744" lon="10.810817267440681"><ele>135.0</ele><time>2026-04-19T10:36:35.001Z</time></trkpt><trkpt lat="43.30037248516578" lon="10.810790527583716"><ele>135.0</ele><time>2026-04-19T10:36:36.001Z</time></trkpt><trkpt lat="43.300438305634984" lon="10.810696868289748"><ele>135.0</ele><time>2026-04-19T10:36:37.001Z</time></trkpt><trkpt lat="43.30046486790381" lon="10.81054421775819"><ele>135.0</ele><time>2026-04-19T10:36:38.001Z</time></trkpt><trkpt lat="43.300446679540165" lon="10.810359725299643"><ele>135.0</ele><time>2026-04-19T10:36:39.001Z</time></trkpt><trkpt lat="43.300469192368524" lon="10.8101660309048"><ele>135.0</ele><time>2026-04-19T10:36:40.001Z</time></trkpt><trkpt lat="43.30050539156224" lon="10.809975108849823"><ele>135.0</ele><time>2026-04-19T10:36:41.001Z</time></trkpt><trkpt lat="43.3005545838529" lon="10.80978835076732"><ele>129.0</ele><time>2026-04-19T10:36:42.001Z</time></trkpt><trkpt lat="43.30064874915551" lon="10.809665102056087"><ele>123.0</ele><time>2026-04-19T10:36:43.001Z</time></trkpt><trkpt lat="43.30075604108644" lon="10.809523453534894"><ele>117.0</ele><time>2026-04-19T10:36:44.001Z</time></trkpt><trkpt lat="43.30088760194346" lon="10.809367954590561"><ele>118.0</ele><time>2026-04-19T10:36:45.001Z</time></trkpt><trkpt lat="43.30101822331761" lon="10.80923942551552"><ele>119.0</ele><time>2026-04-19T10:36:46.001Z</time></trkpt><trkpt lat="43.30113173915922" lon="10.809131932173912"><ele>120.0</ele><time>2026-04-19T10:36:47.001Z</time></trkpt><trkpt lat="43.301205778949004" lon="10.809022682457968"><ele>121.0</ele><time>2026-04-19T10:36:48.001Z</time></trkpt><trkpt lat="43.30125195509745" lon="10.808916132058528"><ele>121.0</ele><time>2026-04-19T10:36:49.001Z</time></trkpt><trkpt lat="43.301255333041865" lon="10.808770387426529"><ele>121.0</ele><time>2026-04-19T10:36:50.001Z</time></trkpt><trkpt lat="43.301222006084366" lon="10.808603904287933"><ele>121.0</ele><time>2026-04-19T10:36:51.001Z</time></trkpt><trkpt lat="43.3011638208688" lon="10.808450448164539"><ele>121.0</ele><time>2026-04-19T10:36:52.001Z</time></trkpt><trkpt lat="43.3011714718388" lon="10.808326431709942"><ele>121.0</ele><time>2026-04-19T10:36:53.001Z</time></trkpt><trkpt lat="43.30125927675611" lon="10.808250933752667"><ele>119.0</ele><time>2026-04-19T10:36:55.001Z</time></trkpt><trkpt lat="43.30134893605648" lon="10.808324736828366"><ele>117.0</ele><time>2026-04-19T10:36:56.001Z</time></trkpt><trkpt lat="43.30143595839641" lon="10.808440476607036"><ele>115.0</ele><time>2026-04-19T10:36:57.001Z</time></trkpt><trkpt lat="43.301557115722645" lon="10.808552059990307"><ele>113.0</ele><time>2026-04-19T10:36:58.001Z</time></trkpt><trkpt lat="43.30167797483863" lon="10.80870161127057"><ele>112.0</ele><time>2026-04-19T10:36:59.001Z</time></trkpt><trkpt lat="43.30179110505539" lon="10.808831309384002"><ele>111.0</ele><time>2026-04-19T10:37:00.001Z</time></trkpt><trkpt lat="43.3018859657759" lon="10.808932803830876"><ele>110.0</ele><time>2026-04-19T10:37:01.001Z</time></trkpt><trkpt lat="43.30196464494884" lon="10.809023402992455"><ele>109.0</ele><time>2026-04-19T10:37:02.001Z</time></trkpt><trkpt lat="43.302040629392025" lon="10.809120815145372"><ele>109.00000000000001</ele><time>2026-04-19T10:37:03.001Z</time></trkpt><trkpt lat="43.3021075222574" lon="10.809217613477466"><ele>109.0</ele><time>2026-04-19T10:37:04.001Z</time></trkpt><trkpt lat="43.302158491671335" lon="10.809296371721048"><ele>109.0</ele><time>2026-04-19T10:37:05.001Z</time></trkpt><trkpt lat="43.302207803587514" lon="10.80937078988236"><ele>109.0</ele><time>2026-04-19T10:37:08.001Z</time></trkpt><trkpt lat="43.302172577474465" lon="10.809501568875435"><ele>109.00000000000001</ele><time>2026-04-19T10:37:09.001Z</time></trkpt><trkpt lat="43.30214799697006" lon="10.809617592295853"><ele>109.0</ele><time>2026-04-19T10:37:10.001Z</time></trkpt><trkpt lat="43.30211274282212" lon="10.809733417444342"><ele>108.0</ele><time>2026-04-19T10:37:11Z</time></trkpt><trkpt lat="43.30207095972338" lon="10.809860820377155"><ele>107.0</ele><time>2026-04-19T10:37:12Z</time></trkpt><trkpt lat="43.302029764932264" lon="10.810008363353004"><ele>106.0</ele><time>2026-04-19T10:37:13Z</time></trkpt><trkpt lat="43.30197729674391" lon="10.810175044858589"><ele>105.0</ele><time>2026-04-19T10:37:14Z</time></trkpt><trkpt lat="43.301904590235935" lon="10.810330293459346"><ele>104.75</ele><time>2026-04-19T10:37:15Z</time></trkpt><trkpt lat="43.30181858479578" lon="10.810455945221284"><ele>104.5</ele><time>2026-04-19T10:37:16Z</time></trkpt><trkpt lat="43.301718543729514" lon="10.81058825877274"><ele>104.25</ele><time>2026-04-19T10:37:17Z</time></trkpt><trkpt lat="43.30160565634552" lon="10.810739330573655"><ele>104.0</ele><time>2026-04-19T10:37:18Z</time></trkpt><trkpt lat="43.3014909172305" lon="10.810891436205578"><ele>105.0</ele><time>2026-04-19T10:37:19Z</time></trkpt><trkpt lat="43.30138270298598" lon="10.811028372110345"><ele>106.0</ele><time>2026-04-19T10:37:20Z</time></trkpt><trkpt lat="43.30129050811876" lon="10.811145900227459"><ele>107.0</ele><time>2026-04-19T10:37:21Z</time></trkpt><trkpt lat="43.30121913164085" lon="10.811265534556314"><ele>108.0</ele><time>2026-04-19T10:37:22Z</time></trkpt><trkpt lat="43.30119512131252" lon="10.811413273054526"><ele>108.0</ele><time>2026-04-19T10:37:23Z</time></trkpt><trkpt lat="43.30122846202279" lon="10.81158459555438"><ele>108.0</ele><time>2026-04-19T10:37:24Z</time></trkpt><trkpt lat="43.301307081710114" lon="10.811765269325923"><ele>108.0</ele><time>2026-04-19T10:37:25Z</time></trkpt><trkpt lat="43.30142224382145" lon="10.811974165412979"><ele>105.66666666666666</ele><time>2026-04-19T10:37:26Z</time></trkpt><trkpt lat="43.30154518672089" lon="10.81219185262857"><ele>103.33333333333333</ele><time>2026-04-19T10:37:27Z</time></trkpt><trkpt lat="43.301625567539595" lon="10.812362417202154"><ele>101.0</ele><time>2026-04-19T10:37:28Z</time></trkpt><trkpt lat="43.30167744971461" lon="10.812499609473186"><ele>101.0</ele><time>2026-04-19T10:37:29Z</time></trkpt><trkpt lat="43.301692098013795" lon="10.812669293817175"><ele>101.0</ele><time>2026-04-19T10:37:30Z</time></trkpt><trkpt lat="43.301642822599376" lon="10.812882368129394"><ele>101.0</ele><time>2026-04-19T10:37:31Z</time></trkpt><trkpt lat="43.30158228301603" lon="10.813117424877346"><ele>101.0</ele><time>2026-04-19T10:37:32Z</time></trkpt><trkpt lat="43.30152520915783" lon="10.813392521543356"><ele>101.0</ele><time>2026-04-19T10:37:33Z</time></trkpt><trkpt lat="43.30144990742582" lon="10.813668736765417"><ele>101.0</ele><time>2026-04-19T10:37:34Z</time></trkpt><trkpt lat="43.30138809690427" lon="10.813929051474455"><ele>101.0</ele><time>2026-04-19T10:37:35Z</time></trkpt><trkpt lat="43.30132407891739" lon="10.814208162106555"><ele>101.0</ele><time>2026-04-19T10:37:36Z</time></trkpt><trkpt lat="43.30125266363879" lon="10.814502536486271"><ele>101.0</ele><time>2026-04-19T10:37:37Z</time></trkpt><trkpt lat="43.30117572877446" lon="10.814799982565141"><ele>101.0</ele><time>2026-04-19T10:37:38Z</time></trkpt><trkpt lat="43.301098897987906" lon="10.815107636321288"><ele>101.0</ele><time>2026-04-19T10:37:39Z</time></trkpt><trkpt lat="43.30102527314154" lon="10.81542635879786"><ele>101.5</ele><time>2026-04-19T10:37:40Z</time></trkpt><trkpt lat="43.30095272979304" lon="10.815753661933899"><ele>102.0</ele><time>2026-04-19T10:37:41Z</time></trkpt><trkpt lat="43.30088272709689" lon="10.816062895670997"><ele>102.0</ele><time>2026-04-19T10:37:42Z</time></trkpt><trkpt lat="43.30081746716546" lon="10.816344993470352"><ele>102.0</ele><time>2026-04-19T10:37:43Z</time></trkpt><trkpt lat="43.300752607079524" lon="10.816604073901619"><ele>102.0</ele><time>2026-04-19T10:37:44Z</time></trkpt><trkpt lat="43.300690846385194" lon="10.816861289876158"><ele>102.66666666666666</ele><time>2026-04-19T10:37:45Z</time></trkpt><trkpt lat="43.300645902054846" lon="10.817135806572695"><ele>103.33333333333333</ele><time>2026-04-19T10:37:46Z</time></trkpt><trkpt lat="43.3006236278342" lon="10.817385685467947"><ele>104.0</ele><time>2026-04-19T10:37:47Z</time></trkpt><trkpt lat="43.300613267818434" lon="10.817600121063242"><ele>105.0</ele><time>2026-04-19T10:37:48Z</time></trkpt><trkpt lat="43.30062282678617" lon="10.817771267364076"><ele>106.0</ele><time>2026-04-19T10:37:49Z</time></trkpt><trkpt lat="43.30066920688867" lon="10.81791161771178"><ele>107.0</ele><time>2026-04-19T10:37:50Z</time></trkpt><trkpt lat="43.30076078836105" lon="10.817996925578571"><ele>108.0</ele><time>2026-04-19T10:37:51Z</time></trkpt><trkpt lat="43.30087916580562" lon="10.81800604054227"><ele>108.0</ele><time>2026-04-19T10:37:52Z</time></trkpt><trkpt lat="43.30100038829166" lon="10.817940081456236"><ele>108.0</ele><time>2026-04-19T10:37:53Z</time></trkpt><trkpt lat="43.30113532807286" lon="10.81783534350662"><ele>108.0</ele><time>2026-04-19T10:37:54Z</time></trkpt><trkpt lat="43.30128968065365" lon="10.81784425975915"><ele>108.0</ele><time>2026-04-19T10:37:55.001Z</time></trkpt><trkpt lat="43.30144311029688" lon="10.817887148348627"><ele>108.66666666666666</ele><time>2026-04-19T10:37:56.001Z</time></trkpt><trkpt lat="43.30160642046654" lon="10.817933698178933"><ele>109.33333333333333</ele><time>2026-04-19T10:37:57.001Z</time></trkpt><trkpt lat="43.301783294948414" lon="10.817964951270845"><ele>110.0</ele><time>2026-04-19T10:37:58.001Z</time></trkpt><trkpt lat="43.30197608267742" lon="10.817922063406437"><ele>110.0</ele><time>2026-04-19T10:37:59.001Z</time></trkpt><trkpt lat="43.302168535461334" lon="10.817801592317197"><ele>110.0</ele><time>2026-04-19T10:38:00.001Z</time></trkpt><trkpt lat="43.30234213642195" lon="10.817701984040816"><ele>110.0</ele><time>2026-04-19T10:38:01.001Z</time></trkpt><trkpt lat="43.302507045428996" lon="10.817661064998966"><ele>108.66666666666666</ele><time>2026-04-19T10:38:02.001Z</time></trkpt><trkpt lat="43.30269707516327" lon="10.817656566008443"><ele>107.33333333333334</ele><time>2026-04-19T10:38:03.001Z</time></trkpt><trkpt lat="43.30290271062326" lon="10.8176299100968"><ele>106.0</ele><time>2026-04-19T10:38:04.001Z</time></trkpt><trkpt lat="43.30312818141034" lon="10.817569449722605"><ele>106.0</ele><time>2026-04-19T10:38:05.001Z</time></trkpt><trkpt lat="43.30332145790416" lon="10.817448251208097"><ele>106.0</ele><time>2026-04-19T10:38:06.001Z</time></trkpt><trkpt lat="43.30346623392933" lon="10.817360481113623"><ele>106.0</ele><time>2026-04-19T10:38:07.001Z</time></trkpt><trkpt lat="43.303607314516285" lon="10.81735884032815"><ele>106.0</ele><time>2026-04-19T10:38:08.001Z</time></trkpt><trkpt lat="43.303750811384326" lon="10.81741058919902"><ele>106.0</ele><time>2026-04-19T10:38:09.001Z</time></trkpt><trkpt lat="43.30391114514258" lon="10.817495507273433"><ele>106.0</ele><time>2026-04-19T10:38:10.001Z</time></trkpt><trkpt lat="43.3040665926676" lon="10.817591279929145"><ele>112.0</ele><time>2026-04-19T10:38:11.001Z</time></trkpt><trkpt lat="43.30422480541389" lon="10.817689073537732"><ele>118.0</ele><time>2026-04-19T10:38:12.001Z</time></trkpt><trkpt lat="43.30450865840141" lon="10.817861079961192"><ele>121.0</ele><time>2026-04-19T10:38:13.001Z</time></trkpt><trkpt lat="43.304755006405685" lon="10.818002609869685"><ele>124.0</ele><time>2026-04-19T10:38:14.001Z</time></trkpt><trkpt lat="43.30497263415964" lon="10.818131810748428"><ele>124.0</ele><time>2026-04-19T10:38:15.001Z</time></trkpt><trkpt lat="43.30514821455889" lon="10.818250413558356"><ele>124.0</ele><time>2026-04-19T10:38:16.001Z</time></trkpt><trkpt lat="43.30530344463215" lon="10.818361551209017"><ele>124.0</ele><time>2026-04-19T10:38:17.001Z</time></trkpt><trkpt lat="43.30543295163107" lon="10.81840856592505"><ele>124.0</ele><time>2026-04-19T10:38:18.001Z</time></trkpt><trkpt lat="43.30556151596965" lon="10.818351228201356"><ele>124.0</ele><time>2026-04-19T10:38:19.001Z</time></trkpt><trkpt lat="43.30567827417261" lon="10.81824883241608"><ele>124.0</ele><time>2026-04-19T10:38:20.001Z</time></trkpt><trkpt lat="43.30578139491829" lon="10.81811919482332"><ele>124.0</ele><time>2026-04-19T10:38:21.001Z</time></trkpt><trkpt lat="43.305828890910746" lon="10.817927708679125"><ele>123.75</ele><time>2026-04-19T10:38:22.001Z</time></trkpt><trkpt lat="43.305865650018205" lon="10.817700489416273"><ele>123.5</ele><time>2026-04-19T10:38:23.001Z</time></trkpt><trkpt lat="43.30591527070127" lon="10.817519154393754"><ele>123.25</ele><time>2026-04-19T10:38:24.001Z</time></trkpt><trkpt lat="43.30602007483602" lon="10.817451055442536"><ele>123.0</ele><time>2026-04-19T10:38:25.001Z</time></trkpt><trkpt lat="43.30617316957846" lon="10.817515889630018"><ele>123.0</ele><time>2026-04-19T10:38:26.001Z</time></trkpt><trkpt lat="43.306361635451175" lon="10.817527637473509"><ele>123.0</ele><time>2026-04-19T10:38:27.001Z</time></trkpt><trkpt lat="43.306568795378894" lon="10.817497725832009"><ele>123.0</ele><time>2026-04-19T10:38:28.001Z</time></trkpt><trkpt lat="43.306752406503506" lon="10.817469702350872"><ele>125.25</ele><time>2026-04-19T10:38:29.001Z</time></trkpt><trkpt lat="43.30690191597991" lon="10.81734966943489"><ele>127.5</ele><time>2026-04-19T10:38:30.001Z</time></trkpt><trkpt lat="43.306975802785246" lon="10.817191273353844"><ele>129.75</ele><time>2026-04-19T10:38:31.001Z</time></trkpt><trkpt lat="43.307042474574025" lon="10.817047775253506"><ele>132.0</ele><time>2026-04-19T10:38:32.001Z</time></trkpt><trkpt lat="43.30712192925283" lon="10.817047437731782"><ele>132.0</ele><time>2026-04-19T10:38:34.001Z</time></trkpt><trkpt lat="43.307125939150936" lon="10.817175692756285"><ele>132.0</ele><time>2026-04-19T10:38:35.001Z</time></trkpt><trkpt lat="43.30706363208244" lon="10.81730987950664"><ele>132.0</ele><time>2026-04-19T10:38:36.001Z</time></trkpt><trkpt lat="43.307025480409365" lon="10.817483453620884"><ele>132.0</ele><time>2026-04-19T10:38:37.001Z</time></trkpt><trkpt lat="43.30696691232453" lon="10.817682976125695"><ele>134.33333333333334</ele><time>2026-04-19T10:38:38.001Z</time></trkpt><trkpt lat="43.30689655159248" lon="10.81788212350721"><ele>136.66666666666669</ele><time>2026-04-19T10:38:39.001Z</time></trkpt><trkpt lat="43.306766587405974" lon="10.818038285010882"><ele>139.0</ele><time>2026-04-19T10:38:40.001Z</time></trkpt><trkpt lat="43.3066625142324" lon="10.818199486607243"><ele>139.0</ele><time>2026-04-19T10:38:41.001Z</time></trkpt><trkpt lat="43.306573414094046" lon="10.818362840701978"><ele>139.0</ele><time>2026-04-19T10:38:42.001Z</time></trkpt><trkpt lat="43.306529342924236" lon="10.818596173088215"><ele>139.0</ele><time>2026-04-19T10:38:43.001Z</time></trkpt><trkpt lat="43.306489933924226" lon="10.818845913472652"><ele>140.33333333333334</ele><time>2026-04-19T10:38:44.001Z</time></trkpt><trkpt lat="43.30643882041044" lon="10.819083563183996"><ele>141.66666666666666</ele><time>2026-04-19T10:38:45.001Z</time></trkpt><trkpt lat="43.30636262986556" lon="10.81929911423157"><ele>143.0</ele><time>2026-04-19T10:38:46.001Z</time></trkpt><trkpt lat="43.30627820503779" lon="10.81950427268296"><ele>147.0</ele><time>2026-04-19T10:38:47.001Z</time></trkpt><trkpt lat="43.30615935811661" lon="10.819686382454593"><ele>151.0</ele><time>2026-04-19T10:38:48.001Z</time></trkpt><trkpt lat="43.306037596941486" lon="10.819834919309784"><ele>155.0</ele><time>2026-04-19T10:38:49.001Z</time></trkpt><trkpt lat="43.305914664435385" lon="10.819922163714358"><ele>155.0</ele><time>2026-04-19T10:38:50.001Z</time></trkpt><trkpt lat="43.30578336124091" lon="10.819948513796938"><ele>155.0</ele><time>2026-04-19T10:38:51.001Z</time></trkpt><trkpt lat="43.305617402901134" lon="10.819911755138428"><ele>155.0</ele><time>2026-04-19T10:38:52.001Z</time></trkpt><trkpt lat="43.305443192754716" lon="10.819915391145296"><ele>154.0</ele><time>2026-04-19T10:38:53.001Z</time></trkpt><trkpt lat="43.30527422037116" lon="10.819959527685292"><ele>153.0</ele><time>2026-04-19T10:38:54.001Z</time></trkpt><trkpt lat="43.30511557300022" lon="10.820024331448293"><ele>152.0</ele><time>2026-04-19T10:38:55.001Z</time></trkpt><trkpt lat="43.30501699032262" lon="10.820163177480413"><ele>153.66666666666666</ele><time>2026-04-19T10:38:56.001Z</time></trkpt><trkpt lat="43.30490881162232" lon="10.820355040285696"><ele>155.33333333333334</ele><time>2026-04-19T10:38:57.001Z</time></trkpt><trkpt lat="43.304787045643806" lon="10.820603665132207"><ele>157.0</ele><time>2026-04-19T10:38:58.001Z</time></trkpt><trkpt lat="43.30460761269615" lon="10.82077524946127"><ele>157.0</ele><time>2026-04-19T10:38:59.001Z</time></trkpt><trkpt lat="43.304438561774674" lon="10.820972979304475"><ele>157.0</ele><time>2026-04-19T10:39:00.001Z</time></trkpt><trkpt lat="43.30429026182162" lon="10.821152493825789"><ele>157.0</ele><time>2026-04-19T10:39:01.001Z</time></trkpt><trkpt lat="43.30419665145346" lon="10.821329465293998"><ele>158.8</ele><time>2026-04-19T10:39:02.001Z</time></trkpt><trkpt lat="43.30412046495653" lon="10.821487374553673"><ele>160.6</ele><time>2026-04-19T10:39:03.001Z</time></trkpt><trkpt lat="43.304059498411" lon="10.821613745169559"><ele>162.4</ele><time>2026-04-19T10:39:04.001Z</time></trkpt><trkpt lat="43.30402161010378" lon="10.821704018957211"><ele>164.20000000000002</ele><time>2026-04-19T10:39:05.001Z</time></trkpt><trkpt lat="43.30406988448346" lon="10.82185552360173"><ele>166.0</ele><time>2026-04-19T10:39:07.001Z</time></trkpt><trkpt lat="43.304140298484796" lon="10.821890227229536"><ele>166.0</ele><time>2026-04-19T10:39:08.001Z</time></trkpt><trkpt lat="43.30428069970803" lon="10.821711416286869"><ele>166.0</ele><time>2026-04-19T10:39:09.001Z</time></trkpt><trkpt lat="43.30441839784158" lon="10.82165620581318"><ele>166.0</ele><time>2026-04-19T10:39:10.001Z</time></trkpt><trkpt lat="43.3046020493871" lon="10.821597319582457"><ele>170.0</ele><time>2026-04-19T10:39:11.001Z</time></trkpt><trkpt lat="43.30474678326588" lon="10.82156642245201"><ele>174.0</ele><time>2026-04-19T10:39:12.001Z</time></trkpt><trkpt lat="43.3049111208895" lon="10.821538929289643"><ele>178.0</ele><time>2026-04-19T10:39:13.001Z</time></trkpt><trkpt lat="43.305102516444265" lon="10.821516044442452"><ele>178.0</ele><time>2026-04-19T10:39:14.001Z</time></trkpt><trkpt lat="43.30529187032347" lon="10.821509386366559"><ele>178.0</ele><time>2026-04-19T10:39:15.001Z</time></trkpt><trkpt lat="43.30547165205212" lon="10.821557333654924"><ele>178.0</ele><time>2026-04-19T10:39:16.001Z</time></trkpt><trkpt lat="43.30565424874244" lon="10.821644224323027"><ele>178.75</ele><time>2026-04-19T10:39:17.001Z</time></trkpt><trkpt lat="43.30579356702161" lon="10.821740893862012"><ele>179.5</ele><time>2026-04-19T10:39:18.001Z</time></trkpt><trkpt lat="43.30584669680597" lon="10.821819866872648"><ele>180.25</ele><time>2026-04-19T10:39:19.001Z</time></trkpt><trkpt lat="43.30578093056118" lon="10.821945091722757"><ele>181.0</ele><time>2026-04-19T10:39:21.001Z</time></trkpt><trkpt lat="43.30565892892255" lon="10.821889985375947"><ele>184.33333333333334</ele><time>2026-04-19T10:39:22.001Z</time></trkpt><trkpt lat="43.30557840516889" lon="10.821949818794556"><ele>187.66666666666666</ele><time>2026-04-19T10:39:23.001Z</time></trkpt><trkpt lat="43.30542925729322" lon="10.822125351341574"><ele>191.0</ele><time>2026-04-19T10:39:24.001Z</time></trkpt><trkpt lat="43.30530313692684" lon="10.82227194139002"><ele>191.0</ele><time>2026-04-19T10:39:25.001Z</time></trkpt><trkpt lat="43.30517514855752" lon="10.822380369403099"><ele>191.0</ele><time>2026-04-19T10:39:26.001Z</time></trkpt><trkpt lat="43.305051918508944" lon="10.822494420102393"><ele>191.0</ele><time>2026-04-19T10:39:27.001Z</time></trkpt><trkpt lat="43.30497319017833" lon="10.822604951372496"><ele>191.0</ele><time>2026-04-19T10:39:28.001Z</time></trkpt><trkpt lat="43.30493912244892" lon="10.822742910256697"><ele>192.33333333333331</ele><time>2026-04-19T10:39:29.001Z</time></trkpt><trkpt lat="43.30492869728993" lon="10.82297218133817"><ele>193.66666666666666</ele><time>2026-04-19T10:39:30.001Z</time></trkpt><trkpt lat="43.30494121945265" lon="10.823226301437067"><ele>195.0</ele><time>2026-04-19T10:39:31.001Z</time></trkpt><trkpt lat="43.30497677118916" lon="10.823484362932236"><ele>195.66666666666669</ele><time>2026-04-19T10:39:32.001Z</time></trkpt><trkpt lat="43.3050400334194" lon="10.823707657997694"><ele>196.33333333333334</ele><time>2026-04-19T10:39:33.001Z</time></trkpt><trkpt lat="43.30510779150467" lon="10.823944117083723"><ele>197.0</ele><time>2026-04-19T10:39:34.001Z</time></trkpt><trkpt lat="43.305159446409334" lon="10.8241551064998"><ele>198.33333333333334</ele><time>2026-04-19T10:39:35.001Z</time></trkpt><trkpt lat="43.30511845292438" lon="10.82433475406955"><ele>199.66666666666669</ele><time>2026-04-19T10:39:36.001Z</time></trkpt><trkpt lat="43.30505071213162" lon="10.824522721187053"><ele>201.0</ele><time>2026-04-19T10:39:37.001Z</time></trkpt><trkpt lat="43.304961569939934" lon="10.82475197807935"><ele>201.0</ele><time>2026-04-19T10:39:38.001Z</time></trkpt><trkpt lat="43.3048597760175" lon="10.824968960990885"><ele>201.0</ele><time>2026-04-19T10:39:39.001Z</time></trkpt><trkpt lat="43.30473049648138" lon="10.825158799713492"><ele>201.0</ele><time>2026-04-19T10:39:40.001Z</time></trkpt><trkpt lat="43.304587329862215" lon="10.825338699133912"><ele>201.0</ele><time>2026-04-19T10:39:41.001Z</time></trkpt><trkpt lat="43.304467186751076" lon="10.825514218629406"><ele>201.0</ele><time>2026-04-19T10:39:42.001Z</time></trkpt><trkpt lat="43.30434909025243" lon="10.825655341054965"><ele>201.0</ele><time>2026-04-19T10:39:43.001Z</time></trkpt><trkpt lat="43.304251876077835" lon="10.825805726400407"><ele>201.0</ele><time>2026-04-19T10:39:44.001Z</time></trkpt><trkpt lat="43.304169188442984" lon="10.825954901611825"><ele>201.0</ele><time>2026-04-19T10:39:45.001Z</time></trkpt><trkpt lat="43.30409674080183" lon="10.826100884791138"><ele>201.0</ele><time>2026-04-19T10:39:46.001Z</time></trkpt><trkpt lat="43.304031981398445" lon="10.826247254100887"><ele>201.0</ele><time>2026-04-19T10:39:47.001Z</time></trkpt><trkpt lat="43.30396012907333" lon="10.826396900790764"><ele>202.0</ele><time>2026-04-19T10:39:48.001Z</time></trkpt><trkpt lat="43.303884972771584" lon="10.826543458381268"><ele>203.0</ele><time>2026-04-19T10:39:49.001Z</time></trkpt><trkpt lat="43.303799323434816" lon="10.826690583405593"><ele>204.0</ele><time>2026-04-19T10:39:50.001Z</time></trkpt><trkpt lat="43.303718946518735" lon="10.826839364682154"><ele>205.0</ele><time>2026-04-19T10:39:51.001Z</time></trkpt><trkpt lat="43.3036348623745" lon="10.826995745134568"><ele>205.6</ele><time>2026-04-19T10:39:52.001Z</time></trkpt><trkpt lat="43.30355994273278" lon="10.827141742507562"><ele>206.2</ele><time>2026-04-19T10:39:53.001Z</time></trkpt><trkpt lat="43.30348486914005" lon="10.827265421208226"><ele>206.8</ele><time>2026-04-19T10:39:54.001Z</time></trkpt><trkpt lat="43.30340383048607" lon="10.827343747939588"><ele>207.4</ele><time>2026-04-19T10:39:55.001Z</time></trkpt><trkpt lat="43.30332778720918" lon="10.827390773131764"><ele>208.0</ele><time>2026-04-19T10:39:56.001Z</time></trkpt><trkpt lat="43.30324749696965" lon="10.827404905240064"><ele>208.0</ele><time>2026-04-19T10:39:57.001Z</time></trkpt><trkpt lat="43.3031354227635" lon="10.82742528250658"><ele>208.0</ele><time>2026-04-19T10:39:58.001Z</time></trkpt><trkpt lat="43.30300778535367" lon="10.82739141238991"><ele>208.0</ele><time>2026-04-19T10:39:59.001Z</time></trkpt><trkpt lat="43.302901841501466" lon="10.827350678232081"><ele>208.0</ele><time>2026-04-19T10:40:00.001Z</time></trkpt><trkpt lat="43.302809248940264" lon="10.827252642770068"><ele>208.0</ele><time>2026-04-19T10:40:01.001Z</time></trkpt><trkpt lat="43.30276157963828" lon="10.827074684208158"><ele>208.0</ele><time>2026-04-19T10:40:02.001Z</time></trkpt><trkpt lat="43.30269240948037" lon="10.82688652338709"><ele>208.0</ele><time>2026-04-19T10:40:03.001Z</time></trkpt><trkpt lat="43.302628154128925" lon="10.82667499245792"><ele>208.0</ele><time>2026-04-19T10:40:04.001Z</time></trkpt><trkpt lat="43.30256308920015" lon="10.826462327867624"><ele>208.0</ele><time>2026-04-19T10:40:05.001Z</time></trkpt><trkpt lat="43.302519947975355" lon="10.826278342764313"><ele>208.0</ele><time>2026-04-19T10:40:06.001Z</time></trkpt><trkpt lat="43.30247235277337" lon="10.826145239363871"><ele>208.0</ele><time>2026-04-19T10:40:07.001Z</time></trkpt><trkpt lat="43.302392773101516" lon="10.826071845011022"><ele>208.0</ele><time>2026-04-19T10:40:08.001Z</time></trkpt><trkpt lat="43.30227811030925" lon="10.826060485922316"><ele>208.0</ele><time>2026-04-19T10:40:09.001Z</time></trkpt><trkpt lat="43.302130768612614" lon="10.826081505675239"><ele>208.0</ele><time>2026-04-19T10:40:10.001Z</time></trkpt><trkpt lat="43.30198164481673" lon="10.826115049622429"><ele>208.0</ele><time>2026-04-19T10:40:11.001Z</time></trkpt><trkpt lat="43.30183995184659" lon="10.826191380994159"><ele>208.66666666666666</ele><time>2026-04-19T10:40:12.001Z</time></trkpt><trkpt lat="43.301707857954895" lon="10.82633877212363"><ele>209.33333333333331</ele><time>2026-04-19T10:40:13.001Z</time></trkpt><trkpt lat="43.30157351108355" lon="10.826527079379254"><ele>210.0</ele><time>2026-04-19T10:40:14.001Z</time></trkpt><trkpt lat="43.30141898260968" lon="10.826695780757799"><ele>213.0</ele><time>2026-04-19T10:40:15.001Z</time></trkpt><trkpt lat="43.30127885525053" lon="10.826885678752983"><ele>216.0</ele><time>2026-04-19T10:40:16.001Z</time></trkpt><trkpt lat="43.30110802133605" lon="10.827059176208767"><ele>219.0</ele><time>2026-04-19T10:40:17.001Z</time></trkpt><trkpt lat="43.300918492449846" lon="10.82719649555934"><ele>219.0</ele><time>2026-04-19T10:40:18.001Z</time></trkpt><trkpt lat="43.30073706173711" lon="10.827333447887673"><ele>219.0</ele><time>2026-04-19T10:40:19.001Z</time></trkpt><trkpt lat="43.30056481682131" lon="10.827435595160122"><ele>219.0</ele><time>2026-04-19T10:40:20.001Z</time></trkpt><trkpt lat="43.30042548125036" lon="10.82754771986076"><ele>219.75</ele><time>2026-04-19T10:40:21.001Z</time></trkpt><trkpt lat="43.30027779814266" lon="10.827624747952287"><ele>220.5</ele><time>2026-04-19T10:40:22.001Z</time></trkpt><trkpt lat="43.300152538447264" lon="10.827705332339624"><ele>221.25</ele><time>2026-04-19T10:40:23.001Z</time></trkpt><trkpt lat="43.30004121434631" lon="10.827781919581502"><ele>222.0</ele><time>2026-04-19T10:40:24.001Z</time></trkpt><trkpt lat="43.29995785801682" lon="10.82787410461776"><ele>222.0</ele><time>2026-04-19T10:40:25.001Z</time></trkpt><trkpt lat="43.29991456403853" lon="10.82801054369795"><ele>222.0</ele><time>2026-04-19T10:40:26.001Z</time></trkpt><trkpt lat="43.29993114326197" lon="10.82817478031154"><ele>222.0</ele><time>2026-04-19T10:40:27.001Z</time></trkpt><trkpt lat="43.299983882439335" lon="10.828352554401958"><ele>222.0</ele><time>2026-04-19T10:40:28.001Z</time></trkpt><trkpt lat="43.29998127052844" lon="10.828527500569605"><ele>223.25</ele><time>2026-04-19T10:40:29.001Z</time></trkpt><trkpt lat="43.29989629368321" lon="10.828723057908029"><ele>224.5</ele><time>2026-04-19T10:40:30.001Z</time></trkpt><trkpt lat="43.29982693454516" lon="10.828900404108714"><ele>225.75</ele><time>2026-04-19T10:40:31.001Z</time></trkpt><trkpt lat="43.29982830858643" lon="10.829066926951908"><ele>227.0</ele><time>2026-04-19T10:40:32.001Z</time></trkpt><trkpt lat="43.299879748677114" lon="10.829245169476732"><ele>227.66666666666669</ele><time>2026-04-19T10:40:33.001Z</time></trkpt><trkpt lat="43.29996137227476" lon="10.82943427115717"><ele>228.33333333333331</ele><time>2026-04-19T10:40:34.001Z</time></trkpt><trkpt lat="43.30003454939359" lon="10.829629476412853"><ele>229.0</ele><time>2026-04-19T10:40:35.001Z</time></trkpt><trkpt lat="43.300097029834745" lon="10.829851041541568"><ele>229.0</ele><time>2026-04-19T10:40:36.001Z</time></trkpt><trkpt lat="43.30015130160966" lon="10.830090082764446"><ele>229.0</ele><time>2026-04-19T10:40:37.001Z</time></trkpt><trkpt lat="43.30018701932572" lon="10.830345657732751"><ele>229.0</ele><time>2026-04-19T10:40:38.001Z</time></trkpt><trkpt lat="43.30018929622881" lon="10.83058847150441"><ele>229.5</ele><time>2026-04-19T10:40:39.001Z</time></trkpt><trkpt lat="43.300142892082945" lon="10.830803483418526"><ele>230.0</ele><time>2026-04-19T10:40:40.001Z</time></trkpt><trkpt lat="43.30012045850952" lon="10.830978995928149"><ele>230.5</ele><time>2026-04-19T10:40:41.001Z</time></trkpt><trkpt lat="43.30010969179587" lon="10.831113613586655"><ele>231.0</ele><time>2026-04-19T10:40:42.001Z</time></trkpt><trkpt lat="43.30015583052655" lon="10.831235018046685"><ele>231.25</ele><time>2026-04-19T10:40:43.001Z</time></trkpt><trkpt lat="43.30024609578778" lon="10.831358320585737"><ele>231.5</ele><time>2026-04-19T10:40:44.001Z</time></trkpt><trkpt lat="43.30036063962571" lon="10.831468624611437"><ele>231.75</ele><time>2026-04-19T10:40:45.001Z</time></trkpt><trkpt lat="43.30047931940002" lon="10.831582754301879"><ele>232.0</ele><time>2026-04-19T10:40:46.001Z</time></trkpt><trkpt lat="43.30056285527535" lon="10.831746500042119"><ele>235.75</ele><time>2026-04-19T10:40:47.001Z</time></trkpt><trkpt lat="43.30061635910294" lon="10.831923442816354"><ele>239.5</ele><time>2026-04-19T10:40:48.001Z</time></trkpt><trkpt lat="43.30063144254955" lon="10.832118539663236"><ele>243.25</ele><time>2026-04-19T10:40:49.001Z</time></trkpt><trkpt lat="43.30064340201155" lon="10.832336863547726"><ele>247.0</ele><time>2026-04-19T10:40:50.001Z</time></trkpt><trkpt lat="43.30059293637329" lon="10.83255794411551"><ele>247.75</ele><time>2026-04-19T10:40:51.001Z</time></trkpt><trkpt lat="43.300568866208984" lon="10.832752957249411"><ele>248.5</ele><time>2026-04-19T10:40:52.001Z</time></trkpt><trkpt lat="43.300557454753076" lon="10.832923889983087"><ele>249.25</ele><time>2026-04-19T10:40:53.001Z</time></trkpt><trkpt lat="43.30060607505894" lon="10.833115267700324"><ele>250.0</ele><time>2026-04-19T10:40:54.001Z</time></trkpt><trkpt lat="43.30069607653136" lon="10.8333050697724"><ele>250.0</ele><time>2026-04-19T10:40:55.001Z</time></trkpt><trkpt lat="43.30079304053597" lon="10.8335172082429"><ele>250.0</ele><time>2026-04-19T10:40:56.001Z</time></trkpt><trkpt lat="43.30082702285638" lon="10.833753659581014"><ele>250.0</ele><time>2026-04-19T10:40:57.001Z</time></trkpt><trkpt lat="43.30085291377944" lon="10.834008478177596"><ele>250.0</ele><time>2026-04-19T10:40:58.001Z</time></trkpt><trkpt lat="43.300893211872065" lon="10.834254238208953"><ele>250.0</ele><time>2026-04-19T10:40:59.002Z</time></trkpt><trkpt lat="43.30093466834886" lon="10.834491351516489"><ele>250.0</ele><time>2026-04-19T10:41:00.002Z</time></trkpt><trkpt lat="43.3009908750418" lon="10.834715792918974"><ele>251.0</ele><time>2026-04-19T10:41:01.002Z</time></trkpt><trkpt lat="43.301024913975844" lon="10.834934452828538"><ele>252.0</ele><time>2026-04-19T10:41:02.002Z</time></trkpt><trkpt lat="43.30100038005645" lon="10.835173145942372"><ele>253.0</ele><time>2026-04-19T10:41:03.002Z</time></trkpt><trkpt lat="43.30095787048352" lon="10.835429734867635"><ele>253.66666666666666</ele><time>2026-04-19T10:41:04.002Z</time></trkpt><trkpt lat="43.300916167989236" lon="10.835716930633254"><ele>254.33333333333331</ele><time>2026-04-19T10:41:05.002Z</time></trkpt><trkpt lat="43.30085385227489" lon="10.836018891193811"><ele>255.0</ele><time>2026-04-19T10:41:06.002Z</time></trkpt><trkpt lat="43.30079581972767" lon="10.836332475437844"><ele>256.6666666666667</ele><time>2026-04-19T10:41:07.002Z</time></trkpt><trkpt lat="43.30073775263859" lon="10.836645178463996"><ele>258.33333333333337</ele><time>2026-04-19T10:41:08.002Z</time></trkpt><trkpt lat="43.30068440279524" lon="10.83691527738388"><ele>260.0</ele><time>2026-04-19T10:41:09.002Z</time></trkpt><trkpt lat="43.300631137870596" lon="10.837157430159108"><ele>261.0</ele><time>2026-04-19T10:41:10.002Z</time></trkpt><trkpt lat="43.30058879627" lon="10.837365794197401"><ele>262.0</ele><time>2026-04-19T10:41:11.002Z</time></trkpt><trkpt lat="43.30057132588665" lon="10.837568508647953"><ele>263.0</ele><time>2026-04-19T10:41:12.002Z</time></trkpt><trkpt lat="43.30060133234147" lon="10.83777843912068"><ele>265.0</ele><time>2026-04-19T10:41:13.002Z</time></trkpt><trkpt lat="43.30066112991568" lon="10.838006005990707"><ele>267.0</ele><time>2026-04-19T10:41:14.002Z</time></trkpt><trkpt lat="43.30073041300103" lon="10.838241155139487"><ele>269.0</ele><time>2026-04-19T10:41:15.002Z</time></trkpt><trkpt lat="43.300810217150485" lon="10.838479653651632"><ele>269.6666666666667</ele><time>2026-04-19T10:41:16.002Z</time></trkpt><trkpt lat="43.30086791948852" lon="10.838711596745416"><ele>270.3333333333333</ele><time>2026-04-19T10:41:17.002Z</time></trkpt><trkpt lat="43.300858798843116" lon="10.838961308847274"><ele>271.0</ele><time>2026-04-19T10:41:18.002Z</time></trkpt><trkpt lat="43.300850597167575" lon="10.839237026661309"><ele>271.3333333333333</ele><time>2026-04-19T10:41:19.002Z</time></trkpt><trkpt lat="43.30086242760207" lon="10.83953224217053"><ele>271.6666666666667</ele><time>2026-04-19T10:41:20.002Z</time></trkpt><trkpt lat="43.30088819703057" lon="10.839825193248512"><ele>272.0</ele><time>2026-04-19T10:41:21.002Z</time></trkpt><trkpt lat="43.30094073912074" lon="10.840074854930258"><ele>271.75</ele><time>2026-04-19T10:41:22.001Z</time></trkpt><trkpt lat="43.30099429107064" lon="10.840277098237687"><ele>271.5</ele><time>2026-04-19T10:41:23.001Z</time></trkpt><trkpt lat="43.3010367326088" lon="10.84046987440259"><ele>271.25</ele><time>2026-04-19T10:41:24.001Z</time></trkpt><trkpt lat="43.301068600269716" lon="10.840646939317324"><ele>271.0</ele><time>2026-04-19T10:41:25.001Z</time></trkpt><trkpt lat="43.301117229217034" lon="10.840838970822189"><ele>271.0</ele><time>2026-04-19T10:41:26.001Z</time></trkpt><trkpt lat="43.3011910145786" lon="10.841035479573348"><ele>271.0</ele><time>2026-04-19T10:41:27.001Z</time></trkpt><trkpt lat="43.30129131967789" lon="10.841239471913822"><ele>271.0</ele><time>2026-04-19T10:41:28.001Z</time></trkpt><trkpt lat="43.30141260895416" lon="10.8414668902304"><ele>270.3333333333333</ele><time>2026-04-19T10:41:29.001Z</time></trkpt><trkpt lat="43.301537790642264" lon="10.841702888636943"><ele>269.6666666666667</ele><time>2026-04-19T10:41:30.001Z</time></trkpt><trkpt lat="43.30167571622098" lon="10.841943038645459"><ele>269.0</ele><time>2026-04-19T10:41:31.001Z</time></trkpt><trkpt lat="43.301829309422835" lon="10.842173661920672"><ele>268.6666666666667</ele><time>2026-04-19T10:41:32.001Z</time></trkpt><trkpt lat="43.30200408465743" lon="10.842378844103802"><ele>268.3333333333333</ele><time>2026-04-19T10:41:33.001Z</time></trkpt><trkpt lat="43.302172204606926" lon="10.842559257224684"><ele>268.0</ele><time>2026-04-19T10:41:34.001Z</time></trkpt><trkpt lat="43.302325467585206" lon="10.842721315132708"><ele>270.3333333333333</ele><time>2026-04-19T10:41:35.001Z</time></trkpt><trkpt lat="43.30245676831979" lon="10.84286866306519"><ele>272.6666666666667</ele><time>2026-04-19T10:41:36.001Z</time></trkpt><trkpt lat="43.30257273874206" lon="10.843015826741457"><ele>275.0</ele><time>2026-04-19T10:41:37.001Z</time></trkpt><trkpt lat="43.30265924813525" lon="10.843198526453442"><ele>275.0</ele><time>2026-04-19T10:41:38.001Z</time></trkpt><trkpt lat="43.302757016703225" lon="10.84337668999908"><ele>275.0</ele><time>2026-04-19T10:41:39.001Z</time></trkpt><trkpt lat="43.30281763832892" lon="10.843581882432611"><ele>275.0</ele><time>2026-04-19T10:41:40.001Z</time></trkpt><trkpt lat="43.30282263401153" lon="10.843780348201374"><ele>276.0</ele><time>2026-04-19T10:41:41.001Z</time></trkpt><trkpt lat="43.302804398848" lon="10.84396631667091"><ele>277.0</ele><time>2026-04-19T10:41:42.001Z</time></trkpt><trkpt lat="43.302779302437806" lon="10.844159439197156"><ele>278.0</ele><time>2026-04-19T10:41:43.001Z</time></trkpt><trkpt lat="43.302700202143264" lon="10.844342214758298"><ele>279.0</ele><time>2026-04-19T10:41:44.001Z</time></trkpt><trkpt lat="43.30261729005884" lon="10.844546289108228"><ele>279.0</ele><time>2026-04-19T10:41:45.001Z</time></trkpt><trkpt lat="43.302560919887775" lon="10.844756935984142"><ele>279.0</ele><time>2026-04-19T10:41:46.001Z</time></trkpt><trkpt lat="43.30254651568364" lon="10.84500847747535"><ele>279.0</ele><time>2026-04-19T10:41:47.001Z</time></trkpt><trkpt lat="43.30254933543382" lon="10.845241184165433"><ele>278.5</ele><time>2026-04-19T10:41:48.001Z</time></trkpt><trkpt lat="43.30254484542532" lon="10.845439051553615"><ele>278.0</ele><time>2026-04-19T10:41:49.001Z</time></trkpt><trkpt lat="43.30255796401307" lon="10.84562192663889"><ele>277.5</ele><time>2026-04-19T10:41:50.001Z</time></trkpt><trkpt lat="43.30259477150917" lon="10.845782461589245"><ele>277.0</ele><time>2026-04-19T10:41:51.001Z</time></trkpt><trkpt lat="43.3026635379755" lon="10.84593420545271"><ele>275.66666666666663</ele><time>2026-04-19T10:41:52.001Z</time></trkpt><trkpt lat="43.30275388243963" lon="10.846097619592511"><ele>274.3333333333333</ele><time>2026-04-19T10:41:53.001Z</time></trkpt><trkpt lat="43.302846930474665" lon="10.846271076573178"><ele>273.0</ele><time>2026-04-19T10:41:54.001Z</time></trkpt><trkpt lat="43.30294249466901" lon="10.846462839667566"><ele>273.0</ele><time>2026-04-19T10:41:55.001Z</time></trkpt><trkpt lat="43.303046286638086" lon="10.846655051352839"><ele>273.0</ele><time>2026-04-19T10:41:56.001Z</time></trkpt><trkpt lat="43.303137572716935" lon="10.846832663046946"><ele>273.0</ele><time>2026-04-19T10:41:57.001Z</time></trkpt><trkpt lat="43.30322363107014" lon="10.847005779672669"><ele>274.3333333333333</ele><time>2026-04-19T10:41:58.001Z</time></trkpt><trkpt lat="43.303313233080424" lon="10.847195324389011"><ele>275.66666666666663</ele><time>2026-04-19T10:41:59.001Z</time></trkpt><trkpt lat="43.303395776964685" lon="10.847403282833545"><ele>277.0</ele><time>2026-04-19T10:42:00.001Z</time></trkpt><trkpt lat="43.30346719958475" lon="10.847609137042973"><ele>276.66666666666663</ele><time>2026-04-19T10:42:01.001Z</time></trkpt><trkpt lat="43.3035296310202" lon="10.847814244202327"><ele>276.3333333333333</ele><time>2026-04-19T10:42:02.001Z</time></trkpt><trkpt lat="43.30358506423989" lon="10.848025651342795"><ele>276.0</ele><time>2026-04-19T10:42:03.001Z</time></trkpt><trkpt lat="43.30362762408727" lon="10.84826397019609"><ele>275.3333333333333</ele><time>2026-04-19T10:42:04.001Z</time></trkpt><trkpt lat="43.30365703475833" lon="10.848539831794909"><ele>274.66666666666663</ele><time>2026-04-19T10:42:05.001Z</time></trkpt><trkpt lat="43.303674762826375" lon="10.848821096870303"><ele>274.0</ele><time>2026-04-19T10:42:06.001Z</time></trkpt><trkpt lat="43.303693762023315" lon="10.849119499201896"><ele>274.0</ele><time>2026-04-19T10:42:07.001Z</time></trkpt><trkpt lat="43.30371298474828" lon="10.849390719325632"><ele>274.0</ele><time>2026-04-19T10:42:08.001Z</time></trkpt><trkpt lat="43.30373181164954" lon="10.849635393016555"><ele>274.0</ele><time>2026-04-19T10:42:09.001Z</time></trkpt><trkpt lat="43.30374785058518" lon="10.849859904280654"><ele>274.0</ele><time>2026-04-19T10:42:10.001Z</time></trkpt><trkpt lat="43.303772048309575" lon="10.850057312350183"><ele>274.0</ele><time>2026-04-19T10:42:11.001Z</time></trkpt><trkpt lat="43.303821054977256" lon="10.850235609314582"><ele>274.0</ele><time>2026-04-19T10:42:12.001Z</time></trkpt><trkpt lat="43.3039003584224" lon="10.850395260807712"><ele>274.0</ele><time>2026-04-19T10:42:13.001Z</time></trkpt><trkpt lat="43.30405835159709" lon="10.850708975190779"><ele>276.0</ele><time>2026-04-19T10:42:15.001Z</time></trkpt><trkpt lat="43.3041107131688" lon="10.850878033804811"><ele>278.0</ele><time>2026-04-19T10:42:16.001Z</time></trkpt><trkpt lat="43.30413280382067" lon="10.851057207140741"><ele>280.0</ele><time>2026-04-19T10:42:17.001Z</time></trkpt><trkpt lat="43.30412523216753" lon="10.851243226667407"><ele>282.0</ele><time>2026-04-19T10:42:18.001Z</time></trkpt><trkpt lat="43.30409673230856" lon="10.85143562734236"><ele>282.6666666666667</ele><time>2026-04-19T10:42:19.001Z</time></trkpt><trkpt lat="43.30407339269177" lon="10.851637984167823"><ele>283.33333333333337</ele><time>2026-04-19T10:42:20.001Z</time></trkpt><trkpt lat="43.30405746220245" lon="10.851853795573206"><ele>284.0</ele><time>2026-04-19T10:42:21.001Z</time></trkpt><trkpt lat="43.3040491422057" lon="10.8520745642731"><ele>284.0</ele><time>2026-04-19T10:42:22.001Z</time></trkpt><trkpt lat="43.304036090909584" lon="10.852283517211639"><ele>284.0</ele><time>2026-04-19T10:42:23.001Z</time></trkpt><trkpt lat="43.30401924474134" lon="10.852494579890383"><ele>284.0</ele><time>2026-04-19T10:42:24.001Z</time></trkpt><trkpt lat="43.30400279793787" lon="10.85269865644349"><ele>283.33333333333337</ele><time>2026-04-19T10:42:25.001Z</time></trkpt><trkpt lat="43.303980582156036" lon="10.852908150420241"><ele>282.6666666666667</ele><time>2026-04-19T10:42:26.001Z</time></trkpt><trkpt lat="43.30393891203574" lon="10.8531207848595"><ele>282.0</ele><time>2026-04-19T10:42:27.001Z</time></trkpt><trkpt lat="43.3038557960867" lon="10.853302922263541"><ele>281.25</ele><time>2026-04-19T10:42:28.001Z</time></trkpt><trkpt lat="43.30378131648038" lon="10.853493205023439"><ele>280.5</ele><time>2026-04-19T10:42:29.001Z</time></trkpt><trkpt lat="43.30366674501244" lon="10.853621045901047"><ele>279.75</ele><time>2026-04-19T10:42:30.001Z</time></trkpt><trkpt lat="43.30358004220857" lon="10.8537390410379"><ele>279.0</ele><time>2026-04-19T10:42:31.001Z</time></trkpt><trkpt lat="43.30349534430073" lon="10.853834641718985"><ele>279.0</ele><time>2026-04-19T10:42:32.001Z</time></trkpt><trkpt lat="43.30345005834015" lon="10.853949327460551"><ele>279.0</ele><time>2026-04-19T10:42:33.001Z</time></trkpt><trkpt lat="43.3034493841516" lon="10.85408038703356"><ele>279.0</ele><time>2026-04-19T10:42:34.001Z</time></trkpt><trkpt lat="43.303482997775724" lon="10.854199413048864"><ele>279.0</ele><time>2026-04-19T10:42:35.001Z</time></trkpt><trkpt lat="43.30351844459831" lon="10.85429166131876"><ele>279.0</ele><time>2026-04-19T10:42:36.001Z</time></trkpt><trkpt lat="43.30359412036117" lon="10.854338124806"><ele>279.0</ele><time>2026-04-19T10:42:40.002Z</time></trkpt><trkpt lat="43.30366399807112" lon="10.854303366589622"><ele>279.0</ele><time>2026-04-19T10:42:41.002Z</time></trkpt><trkpt lat="43.30374179274634" lon="10.85417052368182"><ele>279.0</ele><time>2026-04-19T10:42:42.002Z</time></trkpt><trkpt lat="43.30382134189106" lon="10.854008178024202"><ele>279.0</ele><time>2026-04-19T10:42:43.002Z</time></trkpt><trkpt lat="43.30391637661952" lon="10.853851731099088"><ele>279.0</ele><time>2026-04-19T10:42:44.002Z</time></trkpt><trkpt lat="43.30405338221729" lon="10.853699603979914"><ele>280.0</ele><time>2026-04-19T10:42:45.002Z</time></trkpt><trkpt lat="43.30418960141931" lon="10.853517833509885"><ele>281.0</ele><time>2026-04-19T10:42:46.002Z</time></trkpt><trkpt lat="43.30435453605491" lon="10.853356177259535"><ele>282.0</ele><time>2026-04-19T10:42:47.002Z</time></trkpt><trkpt lat="43.304539015403364" lon="10.853189273909662"><ele>282.0</ele><time>2026-04-19T10:42:48.002Z</time></trkpt><trkpt lat="43.304738906757585" lon="10.853032812444551"><ele>282.0</ele><time>2026-04-19T10:42:49.002Z</time></trkpt><trkpt lat="43.30496193021281" lon="10.852886304435"><ele>278.0</ele><time>2026-04-19T10:42:50.002Z</time></trkpt><trkpt lat="43.305205251025164" lon="10.85275372103351"><ele>274.0</ele><time>2026-04-19T10:42:51.002Z</time></trkpt><trkpt lat="43.30545962434276" lon="10.852668034105575"><ele>275.5</ele><time>2026-04-19T10:42:52.002Z</time></trkpt><trkpt lat="43.305711459618436" lon="10.85254993688285"><ele>277.0</ele><time>2026-04-19T10:42:53.002Z</time></trkpt><trkpt lat="43.30595602005554" lon="10.852454463768737"><ele>277.0</ele><time>2026-04-19T10:42:54.002Z</time></trkpt><trkpt lat="43.30618140277657" lon="10.85234919628746"><ele>277.0</ele><time>2026-04-19T10:42:55.002Z</time></trkpt><trkpt lat="43.30639343873979" lon="10.85223738934359"><ele>274.0</ele><time>2026-04-19T10:42:56.002Z</time></trkpt><trkpt lat="43.306604675418875" lon="10.852114191443027"><ele>271.0</ele><time>2026-04-19T10:42:57.002Z</time></trkpt><trkpt lat="43.30681566595074" lon="10.851975670947223"><ele>271.0</ele><time>2026-04-19T10:42:58.002Z</time></trkpt><trkpt lat="43.30701782321438" lon="10.851826653943158"><ele>271.0</ele><time>2026-04-19T10:42:59.002Z</time></trkpt><trkpt lat="43.30722788433434" lon="10.851671669641485"><ele>271.5</ele><time>2026-04-19T10:43:00.002Z</time></trkpt><trkpt lat="43.30743987216056" lon="10.851516598734605"><ele>272.0</ele><time>2026-04-19T10:43:01.002Z</time></trkpt><trkpt lat="43.30765338693998" lon="10.851357667105148"><ele>272.0</ele><time>2026-04-19T10:43:02.002Z</time></trkpt><trkpt lat="43.30786717808473" lon="10.851194059948428"><ele>272.0</ele><time>2026-04-19T10:43:03.002Z</time></trkpt><trkpt lat="43.30808366465793" lon="10.851025466971524"><ele>273.5</ele><time>2026-04-19T10:43:04.002Z</time></trkpt><trkpt lat="43.308299230897504" lon="10.850857510569831"><ele>275.0</ele><time>2026-04-19T10:43:05.002Z</time></trkpt><trkpt lat="43.30850606288544" lon="10.850694216673556"><ele>275.0</ele><time>2026-04-19T10:43:06.002Z</time></trkpt><trkpt lat="43.30869867432135" lon="10.850544711864728"><ele>275.0</ele><time>2026-04-19T10:43:07.002Z</time></trkpt><trkpt lat="43.30887850698641" lon="10.850397729078482"><ele>275.0</ele><time>2026-04-19T10:43:08.002Z</time></trkpt><trkpt lat="43.30903211454992" lon="10.850220977219722"><ele>276.0</ele><time>2026-04-19T10:43:09.002Z</time></trkpt><trkpt lat="43.30915762918281" lon="10.84998726930226"><ele>277.0</ele><time>2026-04-19T10:43:10.002Z</time></trkpt><trkpt lat="43.30925556240551" lon="10.84972188520684"><ele>278.0</ele><time>2026-04-19T10:43:11.002Z</time></trkpt><trkpt lat="43.30934456246064" lon="10.849453932823149"><ele>277.0</ele><time>2026-04-19T10:43:12.002Z</time></trkpt><trkpt lat="43.30943329879885" lon="10.849206702163915"><ele>276.0</ele><time>2026-04-19T10:43:13.002Z</time></trkpt><trkpt lat="43.30953915581745" lon="10.849016374091127"><ele>275.0</ele><time>2026-04-19T10:43:14.002Z</time></trkpt><trkpt lat="43.309651315927624" lon="10.84885146363655"><ele>276.6666666666667</ele><time>2026-04-19T10:43:15.002Z</time></trkpt><trkpt lat="43.30980273179928" lon="10.848731972096367"><ele>278.3333333333333</ele><time>2026-04-19T10:43:16.002Z</time></trkpt><trkpt lat="43.30998683670847" lon="10.848625365968518"><ele>280.0</ele><time>2026-04-19T10:43:17.002Z</time></trkpt><trkpt lat="43.310156370363806" lon="10.848496299891979"><ele>280.3333333333333</ele><time>2026-04-19T10:43:18.002Z</time></trkpt><trkpt lat="43.31032167868677" lon="10.848328171255972"><ele>280.6666666666667</ele><time>2026-04-19T10:43:19.002Z</time></trkpt><trkpt lat="43.31047725039426" lon="10.848132690679787"><ele>281.0</ele><time>2026-04-19T10:43:20.002Z</time></trkpt><trkpt lat="43.31064582192684" lon="10.847935593694894"><ele>281.0</ele><time>2026-04-19T10:43:21.002Z</time></trkpt><trkpt lat="43.3108064887513" lon="10.847756235247257"><ele>281.0</ele><time>2026-04-19T10:43:22.002Z</time></trkpt><trkpt lat="43.31094911753976" lon="10.847627143125662"><ele>281.0</ele><time>2026-04-19T10:43:23.002Z</time></trkpt><trkpt lat="43.311072432079094" lon="10.84749852268873"><ele>279.0</ele><time>2026-04-19T10:43:24.002Z</time></trkpt><trkpt lat="43.31118869029475" lon="10.847390511908003"><ele>277.0</ele><time>2026-04-19T10:43:25.002Z</time></trkpt><trkpt lat="43.31131139162799" lon="10.84733073292679"><ele>275.0</ele><time>2026-04-19T10:43:26.002Z</time></trkpt><trkpt lat="43.311431989532444" lon="10.847291738682445"><ele>273.0</ele><time>2026-04-19T10:43:27.002Z</time></trkpt><trkpt lat="43.31156015255452" lon="10.847350814480984"><ele>272.75</ele><time>2026-04-19T10:43:28.001Z</time></trkpt><trkpt lat="43.31166623329806" lon="10.847466433387751"><ele>272.5</ele><time>2026-04-19T10:43:29.001Z</time></trkpt><trkpt lat="43.31176687126555" lon="10.84759060990898"><ele>272.25</ele><time>2026-04-19T10:43:30.001Z</time></trkpt><trkpt lat="43.31184949819637" lon="10.847763508057044"><ele>272.0</ele><time>2026-04-19T10:43:31.001Z</time></trkpt><trkpt lat="43.31194344962584" lon="10.847904978435718"><ele>272.25</ele><time>2026-04-19T10:43:32.001Z</time></trkpt><trkpt lat="43.31206429269763" lon="10.84799766467509"><ele>272.5</ele><time>2026-04-19T10:43:33.001Z</time></trkpt><trkpt lat="43.312212051909746" lon="10.84803414341735"><ele>272.75</ele><time>2026-04-19T10:43:34.001Z</time></trkpt><trkpt lat="43.31236652160141" lon="10.84802808268981"><ele>273.0</ele><time>2026-04-19T10:43:35.001Z</time></trkpt><trkpt lat="43.31251603694202" lon="10.847979307702401"><ele>273.0</ele><time>2026-04-19T10:43:36.001Z</time></trkpt><trkpt lat="43.31265952528807" lon="10.847897370989706"><ele>273.0</ele><time>2026-04-19T10:43:37.001Z</time></trkpt><trkpt lat="43.31279737219762" lon="10.847849683795502"><ele>273.0</ele><time>2026-04-19T10:43:38.001Z</time></trkpt><trkpt lat="43.31292060308674" lon="10.84783712276045"><ele>273.0</ele><time>2026-04-19T10:43:39.001Z</time></trkpt><trkpt lat="43.313035970028885" lon="10.847908437042738"><ele>271.75</ele><time>2026-04-19T10:43:40.001Z</time></trkpt><trkpt lat="43.31314105575229" lon="10.848011832482682"><ele>270.5</ele><time>2026-04-19T10:43:41.001Z</time></trkpt><trkpt lat="43.31323584231488" lon="10.848143465259199"><ele>269.25</ele><time>2026-04-19T10:43:42.001Z</time></trkpt><trkpt lat="43.31337517962685" lon="10.84819271794528"><ele>268.0</ele><time>2026-04-19T10:43:43.001Z</time></trkpt><trkpt lat="43.31353549951048" lon="10.848180983623445"><ele>268.0</ele><time>2026-04-19T10:43:44.001Z</time></trkpt><trkpt lat="43.313695345379756" lon="10.848111410264119"><ele>268.0</ele><time>2026-04-19T10:43:45.001Z</time></trkpt><trkpt lat="43.313856374600775" lon="10.848018236365697"><ele>268.0</ele><time>2026-04-19T10:43:46.001Z</time></trkpt><trkpt lat="43.31402047533661" lon="10.847928590782374"><ele>268.0</ele><time>2026-04-19T10:43:47.001Z</time></trkpt><trkpt lat="43.31418739927966" lon="10.847878816226963"><ele>268.0</ele><time>2026-04-19T10:43:48.001Z</time></trkpt><trkpt lat="43.31434062018534" lon="10.847799941870917"><ele>268.0</ele><time>2026-04-19T10:43:49.001Z</time></trkpt><trkpt lat="43.3144908445742" lon="10.847799425400401"><ele>268.0</ele><time>2026-04-19T10:43:50.001Z</time></trkpt><trkpt lat="43.314627420483156" lon="10.847833433259007"><ele>268.0</ele><time>2026-04-19T10:43:51.001Z</time></trkpt><trkpt lat="43.31477361706769" lon="10.847899576322583"><ele>268.0</ele><time>2026-04-19T10:43:52.001Z</time></trkpt><trkpt lat="43.31490214737804" lon="10.847963077660664"><ele>268.0</ele><time>2026-04-19T10:43:53.001Z</time></trkpt><trkpt lat="43.31502639666668" lon="10.847993076893811"><ele>266.5</ele><time>2026-04-19T10:43:54.001Z</time></trkpt><trkpt lat="43.315151991486175" lon="10.847943885403934"><ele>265.0</ele><time>2026-04-19T10:43:55.001Z</time></trkpt><trkpt lat="43.31526355911408" lon="10.847848559870265"><ele>263.5</ele><time>2026-04-19T10:43:56.001Z</time></trkpt><trkpt lat="43.31536726100518" lon="10.847764214039962"><ele>262.0</ele><time>2026-04-19T10:43:57.001Z</time></trkpt><trkpt lat="43.31547613123978" lon="10.847677301444605"><ele>261.0</ele><time>2026-04-19T10:43:58.001Z</time></trkpt><trkpt lat="43.315588321690036" lon="10.847613835557882"><ele>260.0</ele><time>2026-04-19T10:43:59.001Z</time></trkpt><trkpt lat="43.315724887160286" lon="10.847644390365893"><ele>259.0</ele><time>2026-04-19T10:44:00.001Z</time></trkpt><trkpt lat="43.315869884313955" lon="10.847686254641854"><ele>258.0</ele><time>2026-04-19T10:44:01.001Z</time></trkpt><trkpt lat="43.31602463773504" lon="10.847715162890427"><ele>256.3333333333333</ele><time>2026-04-19T10:44:02.001Z</time></trkpt><trkpt lat="43.316185361684724" lon="10.847737030746748"><ele>254.66666666666666</ele><time>2026-04-19T10:44:03.001Z</time></trkpt><trkpt lat="43.316356971811985" lon="10.847770192018885"><ele>253.0</ele><time>2026-04-19T10:44:04.001Z</time></trkpt><trkpt lat="43.31653029909643" lon="10.847804438095208"><ele>249.66666666666666</ele><time>2026-04-19T10:44:05.001Z</time></trkpt><trkpt lat="43.31671021914955" lon="10.847836371342684"><ele>246.33333333333331</ele><time>2026-04-19T10:44:06.001Z</time></trkpt><trkpt lat="43.3168944854161" lon="10.847869056708689"><ele>243.0</ele><time>2026-04-19T10:44:07.001Z</time></trkpt><trkpt lat="43.31707886415602" lon="10.847903601993236"><ele>242.0</ele><time>2026-04-19T10:44:08.001Z</time></trkpt><trkpt lat="43.31725439391767" lon="10.847935141892705"><ele>241.0</ele><time>2026-04-19T10:44:09.001Z</time></trkpt><trkpt lat="43.31742898451519" lon="10.847970363561593"><ele>240.0</ele><time>2026-04-19T10:44:10.001Z</time></trkpt><trkpt lat="43.317596071044676" lon="10.847987506589833"><ele>240.0</ele><time>2026-04-19T10:44:11.001Z</time></trkpt><trkpt lat="43.317762927245255" lon="10.847962479885464"><ele>240.0</ele><time>2026-04-19T10:44:12.001Z</time></trkpt><trkpt lat="43.31793143789903" lon="10.847897942249697"><ele>240.0</ele><time>2026-04-19T10:44:13.001Z</time></trkpt><trkpt lat="43.318097290955826" lon="10.847798045657472"><ele>240.66666666666669</ele><time>2026-04-19T10:44:14.001Z</time></trkpt><trkpt lat="43.31824704436627" lon="10.847666663775792"><ele>241.33333333333334</ele><time>2026-04-19T10:44:15.001Z</time></trkpt><trkpt lat="43.31838945324852" lon="10.847507756431288"><ele>242.0</ele><time>2026-04-19T10:44:16.001Z</time></trkpt><trkpt lat="43.318520005161496" lon="10.84735081184073"><ele>242.0</ele><time>2026-04-19T10:44:17.001Z</time></trkpt><trkpt lat="43.31864220488848" lon="10.847211057107371"><ele>242.0</ele><time>2026-04-19T10:44:18.001Z</time></trkpt><trkpt lat="43.31875362654621" lon="10.847089744027297"><ele>242.0</ele><time>2026-04-19T10:44:19.001Z</time></trkpt><trkpt lat="43.31886093861426" lon="10.847008183632795"><ele>242.0</ele><time>2026-04-19T10:44:20.001Z</time></trkpt><trkpt lat="43.31897417200144" lon="10.846989664005738"><ele>238.75</ele><time>2026-04-19T10:44:21.001Z</time></trkpt><trkpt lat="43.319074467175085" lon="10.847042872320436"><ele>235.5</ele><time>2026-04-19T10:44:22.001Z</time></trkpt><trkpt lat="43.31914345092543" lon="10.8471809621978"><ele>232.25</ele><time>2026-04-19T10:44:23.001Z</time></trkpt><trkpt lat="43.31916714560932" lon="10.84737064153467"><ele>229.0</ele><time>2026-04-19T10:44:24.001Z</time></trkpt><trkpt lat="43.31914687271761" lon="10.847588013256761"><ele>228.33333333333331</ele><time>2026-04-19T10:44:25.001Z</time></trkpt><trkpt lat="43.31910936063451" lon="10.847821635924943"><ele>227.66666666666669</ele><time>2026-04-19T10:44:26.001Z</time></trkpt><trkpt lat="43.31910451075413" lon="10.84806146092265"><ele>227.0</ele><time>2026-04-19T10:44:27.001Z</time></trkpt><trkpt lat="43.31914724795553" lon="10.84832235549152"><ele>227.33333333333334</ele><time>2026-04-19T10:44:28.001Z</time></trkpt><trkpt lat="43.319223603366574" lon="10.848600177685837"><ele>227.66666666666669</ele><time>2026-04-19T10:44:29.001Z</time></trkpt><trkpt lat="43.31931983419728" lon="10.848874532671116"><ele>228.0</ele><time>2026-04-19T10:44:30.001Z</time></trkpt><trkpt lat="43.31943065842001" lon="10.849145128362563"><ele>226.33333333333331</ele><time>2026-04-19T10:44:31.001Z</time></trkpt><trkpt lat="43.319550465371584" lon="10.849413386076174"><ele>224.66666666666666</ele><time>2026-04-19T10:44:32.001Z</time></trkpt><trkpt lat="43.3196611321246" lon="10.849663979960331"><ele>223.0</ele><time>2026-04-19T10:44:33.001Z</time></trkpt><trkpt lat="43.31976558984565" lon="10.849905962204655"><ele>218.66666666666666</ele><time>2026-04-19T10:44:34.001Z</time></trkpt><trkpt lat="43.31986471373984" lon="10.850138913045733"><ele>214.33333333333331</ele><time>2026-04-19T10:44:35.001Z</time></trkpt><trkpt lat="43.3199642417324" lon="10.850368803119753"><ele>210.0</ele><time>2026-04-19T10:44:36.001Z</time></trkpt><trkpt lat="43.32005640474408" lon="10.850587370961215"><ele>210.0</ele><time>2026-04-19T10:44:37.001Z</time></trkpt><trkpt lat="43.320147622098304" lon="10.850800900361971"><ele>210.0</ele><time>2026-04-19T10:44:38.001Z</time></trkpt><trkpt lat="43.32024120420313" lon="10.851012369302552"><ele>210.0</ele><time>2026-04-19T10:44:39.001Z</time></trkpt><trkpt lat="43.32034213059307" lon="10.851209484934044"><ele>207.66666666666669</ele><time>2026-04-19T10:44:40.001Z</time></trkpt><trkpt lat="43.32044924116555" lon="10.851387639083029"><ele>205.33333333333334</ele><time>2026-04-19T10:44:41.001Z</time></trkpt><trkpt lat="43.32056729548759" lon="10.851559296683444"><ele>203.0</ele><time>2026-04-19T10:44:42.001Z</time></trkpt><trkpt lat="43.320690076711244" lon="10.851732694059288"><ele>201.0</ele><time>2026-04-19T10:44:43.001Z</time></trkpt><trkpt lat="43.320814944962926" lon="10.851922423068007"><ele>199.0</ele><time>2026-04-19T10:44:44.001Z</time></trkpt><trkpt lat="43.32093913069631" lon="10.852119818156323"><ele>197.0</ele><time>2026-04-19T10:44:45.001Z</time></trkpt><trkpt lat="43.32107178319948" lon="10.852319833326806"><ele>197.0</ele><time>2026-04-19T10:44:46.001Z</time></trkpt><trkpt lat="43.32120935757041" lon="10.852521274211584"><ele>197.0</ele><time>2026-04-19T10:44:47.001Z</time></trkpt><trkpt lat="43.32135070975338" lon="10.85273202658589"><ele>197.0</ele><time>2026-04-19T10:44:48Z</time></trkpt><trkpt lat="43.321493845155096" lon="10.852949701325299"><ele>196.33333333333334</ele><time>2026-04-19T10:44:49Z</time></trkpt><trkpt lat="43.32163828868311" lon="10.853167336399133"><ele>195.66666666666669</ele><time>2026-04-19T10:44:50Z</time></trkpt><trkpt lat="43.32178530868052" lon="10.853389001329651"><ele>195.0</ele><time>2026-04-19T10:44:51Z</time></trkpt><trkpt lat="43.3219316602137" lon="10.853612624664622"><ele>194.66666666666669</ele><time>2026-04-19T10:44:52Z</time></trkpt><trkpt lat="43.3220693076088" lon="10.853821721274182"><ele>194.33333333333334</ele><time>2026-04-19T10:44:53Z</time></trkpt><trkpt lat="43.32220527299828" lon="10.85402065101818"><ele>194.0</ele><time>2026-04-19T10:44:54Z</time></trkpt><trkpt lat="43.32233447228134" lon="10.854208457686568"><ele>192.0</ele><time>2026-04-19T10:44:55Z</time></trkpt><trkpt lat="43.32245448179692" lon="10.854403179964471"><ele>190.0</ele><time>2026-04-19T10:44:56Z</time></trkpt><trkpt lat="43.32254949179107" lon="10.854620905431172"><ele>188.0</ele><time>2026-04-19T10:44:57.001Z</time></trkpt><trkpt lat="43.322613582171996" lon="10.85487083953057"><ele>186.0</ele><time>2026-04-19T10:44:58.001Z</time></trkpt><trkpt lat="43.32265090921964" lon="10.855141017650558"><ele>184.0</ele><time>2026-04-19T10:44:59.001Z</time></trkpt><trkpt lat="43.322682994767604" lon="10.855420986841146"><ele>182.0</ele><time>2026-04-19T10:45:00.001Z</time></trkpt><trkpt lat="43.32272635621516" lon="10.855689622800256"><ele>182.0</ele><time>2026-04-19T10:45:01.001Z</time></trkpt><trkpt lat="43.322792375353345" lon="10.855929846314028"><ele>182.0</ele><time>2026-04-19T10:45:02.001Z</time></trkpt><trkpt lat="43.32290126756119" lon="10.856119506928234"><ele>182.0</ele><time>2026-04-19T10:45:03.001Z</time></trkpt><trkpt lat="43.32305770584406" lon="10.856268297349724"><ele>180.0</ele><time>2026-04-19T10:45:04.001Z</time></trkpt><trkpt lat="43.32323684609508" lon="10.856384659401707"><ele>178.0</ele><time>2026-04-19T10:45:05.001Z</time></trkpt><trkpt lat="43.32341097056393" lon="10.85649980221984"><ele>176.0</ele><time>2026-04-19T10:45:06.001Z</time></trkpt><trkpt lat="43.32357011185371" lon="10.85661827564527"><ele>176.0</ele><time>2026-04-19T10:45:07.001Z</time></trkpt><trkpt lat="43.323720058743" lon="10.85673408057806"><ele>176.0</ele><time>2026-04-19T10:45:08.001Z</time></trkpt><trkpt lat="43.323867215069676" lon="10.85683838457368"><ele>176.0</ele><time>2026-04-19T10:45:09.001Z</time></trkpt><trkpt lat="43.324017649244105" lon="10.856931528633798"><ele>174.75</ele><time>2026-04-19T10:45:10.001Z</time></trkpt><trkpt lat="43.32416372419634" lon="10.856977259147463"><ele>173.5</ele><time>2026-04-19T10:45:11.001Z</time></trkpt><trkpt lat="43.3243100245775" lon="10.856956703716227"><ele>172.25</ele><time>2026-04-19T10:45:12.001Z</time></trkpt><trkpt lat="43.32443634121087" lon="10.85685575005015"><ele>171.0</ele><time>2026-04-19T10:45:13.001Z</time></trkpt><trkpt lat="43.324523787354515" lon="10.856677214011116"><ele>171.0</ele><time>2026-04-19T10:45:14.001Z</time></trkpt><trkpt lat="43.32453626022674" lon="10.856446373322822"><ele>171.0</ele><time>2026-04-19T10:45:15.001Z</time></trkpt><trkpt lat="43.324488128752975" lon="10.856208675528114"><ele>171.0</ele><time>2026-04-19T10:45:16.001Z</time></trkpt><trkpt lat="43.32436292563056" lon="10.856022265071406"><ele>169.66666666666666</ele><time>2026-04-19T10:45:17.001Z</time></trkpt><trkpt lat="43.32421097102971" lon="10.855845891898685"><ele>168.33333333333331</ele><time>2026-04-19T10:45:18.001Z</time></trkpt><trkpt lat="43.3241201401009" lon="10.85564514895672"><ele>167.0</ele><time>2026-04-19T10:45:19.001Z</time></trkpt><trkpt lat="43.32407251216784" lon="10.855389330387249"><ele>167.0</ele><time>2026-04-19T10:45:20.001Z</time></trkpt><trkpt lat="43.32406206693127" lon="10.855122150153779"><ele>167.0</ele><time>2026-04-19T10:45:21.001Z</time></trkpt><trkpt lat="43.324047216535845" lon="10.854860386816044"><ele>167.0</ele><time>2026-04-19T10:45:22.001Z</time></trkpt><trkpt lat="43.32400618098784" lon="10.854603855917311"><ele>165.0</ele><time>2026-04-19T10:45:23.001Z</time></trkpt><trkpt lat="43.32398072796936" lon="10.854401668074912"><ele>163.0</ele><time>2026-04-19T10:45:24.001Z</time></trkpt><trkpt lat="43.32397393525686" lon="10.854191853112617"><ele>161.0</ele><time>2026-04-19T10:45:25.001Z</time></trkpt><trkpt lat="43.32401628676271" lon="10.853978983263655"><ele>159.33333333333331</ele><time>2026-04-19T10:45:26.001Z</time></trkpt><trkpt lat="43.32409719405976" lon="10.853762381830483"><ele>157.66666666666666</ele><time>2026-04-19T10:45:27.001Z</time></trkpt><trkpt lat="43.32419889420574" lon="10.85360726717103"><ele>156.0</ele><time>2026-04-19T10:45:28.001Z</time></trkpt><trkpt lat="43.324326734127375" lon="10.853494885705707"><ele>155.66666666666666</ele><time>2026-04-19T10:45:29.001Z</time></trkpt><trkpt lat="43.32448609746329" lon="10.853450668196581"><ele>155.33333333333331</ele><time>2026-04-19T10:45:30.001Z</time></trkpt><trkpt lat="43.324662031246724" lon="10.853442007616822"><ele>155.0</ele><time>2026-04-19T10:45:31.001Z</time></trkpt><trkpt lat="43.32484891262898" lon="10.853432753716056"><ele>152.0</ele><time>2026-04-19T10:45:32.001Z</time></trkpt><trkpt lat="43.32504109213682" lon="10.853459344144744"><ele>149.0</ele><time>2026-04-19T10:45:33.001Z</time></trkpt><trkpt lat="43.32523563559093" lon="10.853496033180884"><ele>146.0</ele><time>2026-04-19T10:45:34Z</time></trkpt><trkpt lat="43.32543092094765" lon="10.853552912779053"><ele>144.33333333333331</ele><time>2026-04-19T10:45:35Z</time></trkpt><trkpt lat="43.325628292693416" lon="10.853633661946787"><ele>142.66666666666666</ele><time>2026-04-19T10:45:36Z</time></trkpt><trkpt lat="43.32582490945017" lon="10.853736336232958"><ele>141.0</ele><time>2026-04-19T10:45:37Z</time></trkpt><trkpt lat="43.32601438813562" lon="10.853857002431221"><ele>141.0</ele><time>2026-04-19T10:45:38Z</time></trkpt><trkpt lat="43.32619241029242" lon="10.854003229869956"><ele>141.0</ele><time>2026-04-19T10:45:39Z</time></trkpt><trkpt lat="43.326357755854396" lon="10.854172375926334"><ele>141.0</ele><time>2026-04-19T10:45:40Z</time></trkpt><trkpt lat="43.3265128024767" lon="10.854357235310095"><ele>138.66666666666666</ele><time>2026-04-19T10:45:41Z</time></trkpt><trkpt lat="43.32665529949924" lon="10.854552142155292"><ele>136.33333333333331</ele><time>2026-04-19T10:45:42Z</time></trkpt><trkpt lat="43.32678734982346" lon="10.854755157246217"><ele>134.0</ele><time>2026-04-19T10:45:43Z</time></trkpt><trkpt lat="43.326915200437746" lon="10.854958153063668"><ele>134.66666666666666</ele><time>2026-04-19T10:45:44Z</time></trkpt><trkpt lat="43.327028092344705" lon="10.855164857215392"><ele>135.33333333333334</ele><time>2026-04-19T10:45:45Z</time></trkpt><trkpt lat="43.32711066587444" lon="10.855384030419968"><ele>136.0</ele><time>2026-04-19T10:45:46Z</time></trkpt><trkpt lat="43.32717156534165" lon="10.855612136924394"><ele>135.33333333333334</ele><time>2026-04-19T10:45:47Z</time></trkpt><trkpt lat="43.327259260665784" lon="10.855837155338044"><ele>134.66666666666666</ele><time>2026-04-19T10:45:48Z</time></trkpt><trkpt lat="43.327393966400315" lon="10.85602738714985"><ele>134.0</ele><time>2026-04-19T10:45:49Z</time></trkpt><trkpt lat="43.32756097307981" lon="10.856192824519027"><ele>134.0</ele><time>2026-04-19T10:45:50Z</time></trkpt><trkpt lat="43.32773064539101" lon="10.856348415858683"><ele>134.0</ele><time>2026-04-19T10:45:51Z</time></trkpt><trkpt lat="43.32790396203769" lon="10.856506990980899"><ele>134.0</ele><time>2026-04-19T10:45:52Z</time></trkpt><trkpt lat="43.3280937936388" lon="10.856645030202753"><ele>133.0</ele><time>2026-04-19T10:45:53Z</time></trkpt><trkpt lat="43.32830310215149" lon="10.856761048766737"><ele>132.0</ele><time>2026-04-19T10:45:54Z</time></trkpt><trkpt lat="43.32850494263862" lon="10.856859138398558"><ele>131.0</ele><time>2026-04-19T10:45:55Z</time></trkpt><trkpt lat="43.328704361470336" lon="10.85695022131975"><ele>126.33333333333333</ele><time>2026-04-19T10:45:56Z</time></trkpt><trkpt lat="43.32889783325711" lon="10.857026006445134"><ele>121.66666666666666</ele><time>2026-04-19T10:45:57Z</time></trkpt><trkpt lat="43.3290837464539" lon="10.857067500835752"><ele>117.0</ele><time>2026-04-19T10:45:58Z</time></trkpt><trkpt lat="43.329251135729685" lon="10.857065634989848"><ele>117.0</ele><time>2026-04-19T10:45:59Z</time></trkpt><trkpt lat="43.329407184153645" lon="10.857069704457864"><ele>117.0</ele><time>2026-04-19T10:46:00Z</time></trkpt><trkpt lat="43.32954376558887" lon="10.857150518581841"><ele>117.0</ele><time>2026-04-19T10:46:01Z</time></trkpt><trkpt lat="43.32964960525097" lon="10.857314794814403"><ele>117.0</ele><time>2026-04-19T10:46:02Z</time></trkpt><trkpt lat="43.32968148234843" lon="10.85754802069556"><ele>117.0</ele><time>2026-04-19T10:46:03Z</time></trkpt><trkpt lat="43.329707566698964" lon="10.85780102712206"><ele>117.0</ele><time>2026-04-19T10:46:04Z</time></trkpt><trkpt lat="43.32973404844432" lon="10.858065607752142"><ele>110.33333333333334</ele><time>2026-04-19T10:46:05Z</time></trkpt><trkpt lat="43.32975269029246" lon="10.858315184035986"><ele>103.66666666666667</ele><time>2026-04-19T10:46:06Z</time></trkpt><trkpt lat="43.329787245623386" lon="10.85854074309954"><ele>97.0</ele><time>2026-04-19T10:46:07Z</time></trkpt><trkpt lat="43.32985195097923" lon="10.858743689377762"><ele>97.0</ele><time>2026-04-19T10:46:08Z</time></trkpt><trkpt lat="43.32995271471992" lon="10.858919657982911"><ele>97.0</ele><time>2026-04-19T10:46:09Z</time></trkpt><trkpt lat="43.33009219221698" lon="10.859042288523094"><ele>97.0</ele><time>2026-04-19T10:46:10Z</time></trkpt><trkpt lat="43.3302744201884" lon="10.859088696894048"><ele>97.0</ele><time>2026-04-19T10:46:11Z</time></trkpt><trkpt lat="43.33048505625051" lon="10.859069262197426"><ele>97.0</ele><time>2026-04-19T10:46:12Z</time></trkpt><trkpt lat="43.330685940788655" lon="10.85902793226868"><ele>97.0</ele><time>2026-04-19T10:46:13Z</time></trkpt><trkpt lat="43.33088293747164" lon="10.858997284593256"><ele>94.0</ele><time>2026-04-19T10:46:14Z</time></trkpt><trkpt lat="43.33109011067288" lon="10.85897861643046"><ele>91.0</ele><time>2026-04-19T10:46:15Z</time></trkpt><trkpt lat="43.33130196247948" lon="10.858962756821239"><ele>88.0</ele><time>2026-04-19T10:46:16Z</time></trkpt><trkpt lat="43.33151935665392" lon="10.858943181369844"><ele>87.33333333333333</ele><time>2026-04-19T10:46:17Z</time></trkpt><trkpt lat="43.331738633184706" lon="10.858926150639661"><ele>86.66666666666667</ele><time>2026-04-19T10:46:18Z</time></trkpt><trkpt lat="43.33196731359209" lon="10.85891542842438"><ele>86.0</ele><time>2026-04-19T10:46:19Z</time></trkpt><trkpt lat="43.33218442793311" lon="10.858906120395302"><ele>85.0</ele><time>2026-04-19T10:46:20Z</time></trkpt><trkpt lat="43.332389343610714" lon="10.858886595639303"><ele>84.0</ele><time>2026-04-19T10:46:21Z</time></trkpt><trkpt lat="43.33257629099235" lon="10.858865763303656"><ele>83.0</ele><time>2026-04-19T10:46:22Z</time></trkpt><trkpt lat="43.33276441546297" lon="10.858847142227487"><ele>83.0</ele><time>2026-04-19T10:46:23Z</time></trkpt><trkpt lat="43.33295528903822" lon="10.858816756554987"><ele>83.0</ele><time>2026-04-19T10:46:24Z</time></trkpt><trkpt lat="43.33314986374766" lon="10.858754579846906"><ele>83.0</ele><time>2026-04-19T10:46:25Z</time></trkpt><trkpt lat="43.33334597589959" lon="10.858664589874243"><ele>83.0</ele><time>2026-04-19T10:46:26Z</time></trkpt><trkpt lat="43.333535650865045" lon="10.858562120775842"><ele>83.0</ele><time>2026-04-19T10:46:27Z</time></trkpt><trkpt lat="43.33372398595447" lon="10.858453626995354"><ele>83.0</ele><time>2026-04-19T10:46:28Z</time></trkpt><trkpt lat="43.33391431646835" lon="10.858332261668917"><ele>83.0</ele><time>2026-04-19T10:46:29Z</time></trkpt><trkpt lat="43.334103414658266" lon="10.858192501105151"><ele>83.0</ele><time>2026-04-19T10:46:30Z</time></trkpt><trkpt lat="43.33428304413854" lon="10.858039369903455"><ele>83.0</ele><time>2026-04-19T10:46:31Z</time></trkpt><trkpt lat="43.33445681153428" lon="10.857870492298758"><ele>83.0</ele><time>2026-04-19T10:46:32Z</time></trkpt><trkpt lat="43.334622126587064" lon="10.857683494919423"><ele>83.0</ele><time>2026-04-19T10:46:33Z</time></trkpt><trkpt lat="43.33477602252686" lon="10.857484784818023"><ele>83.0</ele><time>2026-04-19T10:46:34Z</time></trkpt><trkpt lat="43.33492120285507" lon="10.857278972043035"><ele>83.33333333333334</ele><time>2026-04-19T10:46:35Z</time></trkpt><trkpt lat="43.33505901067054" lon="10.857067293682835"><ele>83.66666666666667</ele><time>2026-04-19T10:46:36Z</time></trkpt><trkpt lat="43.33518411666335" lon="10.856850847332296"><ele>84.0</ele><time>2026-04-19T10:46:37Z</time></trkpt><trkpt lat="43.3353014479193" lon="10.856616207127555"><ele>84.0</ele><time>2026-04-19T10:46:38Z</time></trkpt><trkpt lat="43.33540323319239" lon="10.856369418606215"><ele>84.0</ele><time>2026-04-19T10:46:39Z</time></trkpt><trkpt lat="43.33549927071131" lon="10.856107405760177"><ele>84.0</ele><time>2026-04-19T10:46:40Z</time></trkpt><trkpt lat="43.335594023809776" lon="10.855842487015329"><ele>85.66666666666667</ele><time>2026-04-19T10:46:41Z</time></trkpt><trkpt lat="43.33569538573255" lon="10.855584623341409"><ele>87.33333333333334</ele><time>2026-04-19T10:46:42Z</time></trkpt><trkpt lat="43.33580421511258" lon="10.855328956452576"><ele>89.0</ele><time>2026-04-19T10:46:43Z</time></trkpt><trkpt lat="43.335938066716594" lon="10.855100059556294"><ele>89.0</ele><time>2026-04-19T10:46:44Z</time></trkpt><trkpt lat="43.33607031800191" lon="10.854871032237831"><ele>89.0</ele><time>2026-04-19T10:46:45Z</time></trkpt><trkpt lat="43.33619663671578" lon="10.854631883723494"><ele>89.0</ele><time>2026-04-19T10:46:46Z</time></trkpt><trkpt lat="43.33632059223651" lon="10.854425654899376"><ele>90.66666666666667</ele><time>2026-04-19T10:46:47Z</time></trkpt><trkpt lat="43.33643067193701" lon="10.854205313935463"><ele>92.33333333333333</ele><time>2026-04-19T10:46:48Z</time></trkpt><trkpt lat="43.336499363182874" lon="10.853957517031056"><ele>94.0</ele><time>2026-04-19T10:46:49Z</time></trkpt><trkpt lat="43.336531887789846" lon="10.853671758886424"><ele>92.33333333333333</ele><time>2026-04-19T10:46:50Z</time></trkpt><trkpt lat="43.33657304460799" lon="10.853394463291332"><ele>90.66666666666667</ele><time>2026-04-19T10:46:51Z</time></trkpt><trkpt lat="43.33665368377853" lon="10.85313382116855"><ele>89.0</ele><time>2026-04-19T10:46:52Z</time></trkpt><trkpt lat="43.336739817761256" lon="10.852861556753792"><ele>87.66666666666667</ele><time>2026-04-19T10:46:53Z</time></trkpt><trkpt lat="43.336805859290386" lon="10.852599329259384"><ele>86.33333333333333</ele><time>2026-04-19T10:46:54Z</time></trkpt><trkpt lat="43.33688810551321" lon="10.852330737077887"><ele>85.0</ele><time>2026-04-19T10:46:55Z</time></trkpt><trkpt lat="43.33696694747231" lon="10.852061008303517"><ele>85.0</ele><time>2026-04-19T10:46:56Z</time></trkpt><trkpt lat="43.33707120223643" lon="10.85180997419938"><ele>85.0</ele><time>2026-04-19T10:46:57Z</time></trkpt><trkpt lat="43.33717096032311" lon="10.851551623304541"><ele>85.0</ele><time>2026-04-19T10:46:58Z</time></trkpt><trkpt lat="43.33727330037032" lon="10.8513051301834"><ele>84.66666666666666</ele><time>2026-04-19T10:46:59Z</time></trkpt><trkpt lat="43.33736533844139" lon="10.85104504807756"><ele>84.33333333333333</ele><time>2026-04-19T10:47:00Z</time></trkpt><trkpt lat="43.33747624575018" lon="10.85079751201544"><ele>84.0</ele><time>2026-04-19T10:47:01Z</time></trkpt><trkpt lat="43.33758248178053" lon="10.850546119359255"><ele>84.0</ele><time>2026-04-19T10:47:02Z</time></trkpt><trkpt lat="43.33769020312106" lon="10.8502934642048"><ele>84.0</ele><time>2026-04-19T10:47:03Z</time></trkpt><trkpt lat="43.33779806574698" lon="10.850038029901373"><ele>84.0</ele><time>2026-04-19T10:47:04Z</time></trkpt><trkpt lat="43.3379058403038" lon="10.849784737929506"><ele>83.66666666666667</ele><time>2026-04-19T10:47:05Z</time></trkpt><trkpt lat="43.338013576783176" lon="10.849529055199952"><ele>83.33333333333334</ele><time>2026-04-19T10:47:06.001Z</time></trkpt><trkpt lat="43.338125130552804" lon="10.84926946973491"><ele>83.0</ele><time>2026-04-19T10:47:07.001Z</time></trkpt><trkpt lat="43.33823649999845" lon="10.849015878645808"><ele>83.0</ele><time>2026-04-19T10:47:08.001Z</time></trkpt><trkpt lat="43.33834664876722" lon="10.848764956613158"><ele>83.0</ele><time>2026-04-19T10:47:09.001Z</time></trkpt><trkpt lat="43.338457244145985" lon="10.848510238117944"><ele>83.0</ele><time>2026-04-19T10:47:10.001Z</time></trkpt><trkpt lat="43.338565506438435" lon="10.84825623578447"><ele>83.0</ele><time>2026-04-19T10:47:11.001Z</time></trkpt><trkpt lat="43.33867054749538" lon="10.848005526388802"><ele>83.0</ele><time>2026-04-19T10:47:12.001Z</time></trkpt><trkpt lat="43.33877823723443" lon="10.84774728331909"><ele>83.0</ele><time>2026-04-19T10:47:13.001Z</time></trkpt><trkpt lat="43.33888553603424" lon="10.847497205397435"><ele>83.66666666666667</ele><time>2026-04-19T10:47:14.001Z</time></trkpt><trkpt lat="43.338999762179846" lon="10.847253057812047"><ele>84.33333333333333</ele><time>2026-04-19T10:47:15.001Z</time></trkpt><trkpt lat="43.33912678784298" lon="10.847016672433055"><ele>85.0</ele><time>2026-04-19T10:47:16.001Z</time></trkpt><trkpt lat="43.33926379469894" lon="10.84678997842214"><ele>85.0</ele><time>2026-04-19T10:47:17.001Z</time></trkpt><trkpt lat="43.33940513928197" lon="10.846570391381665"><ele>85.0</ele><time>2026-04-19T10:47:18.001Z</time></trkpt><trkpt lat="43.339544851216026" lon="10.846341945802648"><ele>85.0</ele><time>2026-04-19T10:47:19.001Z</time></trkpt><trkpt lat="43.33968113671731" lon="10.846110739749328"><ele>85.33333333333333</ele><time>2026-04-19T10:47:20.001Z</time></trkpt><trkpt lat="43.339808926080785" lon="10.845891680309355"><ele>85.66666666666667</ele><time>2026-04-19T10:47:21.001Z</time></trkpt><trkpt lat="43.339934531799415" lon="10.845690744699484"><ele>86.0</ele><time>2026-04-19T10:47:22.001Z</time></trkpt><trkpt lat="43.34007483382472" lon="10.8455168735907"><ele>86.0</ele><time>2026-04-19T10:47:23.001Z</time></trkpt><trkpt lat="43.340245806081114" lon="10.845370650421788"><ele>86.0</ele><time>2026-04-19T10:47:24.001Z</time></trkpt><trkpt lat="43.3404337040588" lon="10.845235350155747"><ele>86.0</ele><time>2026-04-19T10:47:25.001Z</time></trkpt><trkpt lat="43.340621687152" lon="10.845099628862682"><ele>85.0</ele><time>2026-04-19T10:47:26.001Z</time></trkpt><trkpt lat="43.34081751798954" lon="10.844955421468327"><ele>84.0</ele><time>2026-04-19T10:47:27.001Z</time></trkpt><trkpt lat="43.3410190241778" lon="10.8448038417008"><ele>84.0</ele><time>2026-04-19T10:47:28.001Z</time></trkpt><trkpt lat="43.34121813094108" lon="10.844649866334365"><ele>84.0</ele><time>2026-04-19T10:47:29.001Z</time></trkpt><trkpt lat="43.341424135852996" lon="10.844490095575667"><ele>83.0</ele><time>2026-04-19T10:47:30.001Z</time></trkpt><trkpt lat="43.341628930756826" lon="10.844337649733633"><ele>82.0</ele><time>2026-04-19T10:47:31.001Z</time></trkpt><trkpt lat="43.34182181532258" lon="10.844196246582564"><ele>82.0</ele><time>2026-04-19T10:47:32.001Z</time></trkpt><trkpt lat="43.34201194076498" lon="10.844057930639195"><ele>82.0</ele><time>2026-04-19T10:47:33.001Z</time></trkpt><trkpt lat="43.34219423997837" lon="10.84391415955245"><ele>82.0</ele><time>2026-04-19T10:47:34.001Z</time></trkpt><trkpt lat="43.34235777611987" lon="10.843742741806105"><ele>82.33333333333333</ele><time>2026-04-19T10:47:35.001Z</time></trkpt><trkpt lat="43.34250103343034" lon="10.843524098092702"><ele>82.66666666666667</ele><time>2026-04-19T10:47:36.001Z</time></trkpt><trkpt lat="43.34263010339923" lon="10.843264854231517"><ele>83.0</ele><time>2026-04-19T10:47:37.001Z</time></trkpt><trkpt lat="43.3427498690026" lon="10.84299384998268"><ele>83.0</ele><time>2026-04-19T10:47:38.001Z</time></trkpt><trkpt lat="43.34288059522772" lon="10.842717724900224"><ele>83.0</ele><time>2026-04-19T10:47:39.001Z</time></trkpt><trkpt lat="43.343020198284385" lon="10.842433003789704"><ele>85.0</ele><time>2026-04-19T10:47:40Z</time></trkpt><trkpt lat="43.34316198807438" lon="10.842138620884356"><ele>87.0</ele><time>2026-04-19T10:47:41Z</time></trkpt><trkpt lat="43.3433084891372" lon="10.841834264678122"><ele>84.5</ele><time>2026-04-19T10:47:42Z</time></trkpt><trkpt lat="43.34345512222412" lon="10.841528013901124"><ele>82.0</ele><time>2026-04-19T10:47:43Z</time></trkpt><trkpt lat="43.343602214062074" lon="10.841221680323848"><ele>83.5</ele><time>2026-04-19T10:47:44Z</time></trkpt><trkpt lat="43.34374592628271" lon="10.840919674267013"><ele>85.0</ele><time>2026-04-19T10:47:45Z</time></trkpt><trkpt lat="43.34388770721987" lon="10.840621752095432"><ele>85.0</ele><time>2026-04-19T10:47:46Z</time></trkpt><trkpt lat="43.34402186992643" lon="10.840344004193323"><ele>85.0</ele><time>2026-04-19T10:47:47Z</time></trkpt><trkpt lat="43.34414681919112" lon="10.84007964356912"><ele>83.66666666666666</ele><time>2026-04-19T10:47:48Z</time></trkpt><trkpt lat="43.34426456677685" lon="10.83983550539909"><ele>82.33333333333333</ele><time>2026-04-19T10:47:49Z</time></trkpt><trkpt lat="43.34437493587521" lon="10.839608232026876"><ele>81.0</ele><time>2026-04-19T10:47:50Z</time></trkpt><trkpt lat="43.344485212852156" lon="10.839398333288926"><ele>81.66666666666667</ele><time>2026-04-19T10:47:51Z</time></trkpt><trkpt lat="43.344611091701815" lon="10.839212086712585"><ele>82.33333333333334</ele><time>2026-04-19T10:47:52Z</time></trkpt><trkpt lat="43.34476884499789" lon="10.839077843815849"><ele>83.0</ele><time>2026-04-19T10:47:53Z</time></trkpt><trkpt lat="43.34495662490516" lon="10.838974506534306"><ele>83.0</ele><time>2026-04-19T10:47:54Z</time></trkpt><trkpt lat="43.34515320042445" lon="10.838876493930222"><ele>83.0</ele><time>2026-04-19T10:47:55Z</time></trkpt><trkpt lat="43.34533930526754" lon="10.838742492160923"><ele>83.0</ele><time>2026-04-19T10:47:56Z</time></trkpt><trkpt lat="43.34551646741193" lon="10.838572795551153"><ele>82.33333333333334</ele><time>2026-04-19T10:47:57Z</time></trkpt><trkpt lat="43.345683375853646" lon="10.838388244178574"><ele>81.66666666666667</ele><time>2026-04-19T10:47:58Z</time></trkpt><trkpt lat="43.34583987372008" lon="10.838205835325125"><ele>81.0</ele><time>2026-04-19T10:47:59Z</time></trkpt><trkpt lat="43.34598786347206" lon="10.837995679414773"><ele>81.0</ele><time>2026-04-19T10:48:00Z</time></trkpt><trkpt lat="43.34610640557943" lon="10.837750257375355"><ele>81.0</ele><time>2026-04-19T10:48:01Z</time></trkpt><trkpt lat="43.34619355137583" lon="10.837475815199484"><ele>81.0</ele><time>2026-04-19T10:48:02Z</time></trkpt><trkpt lat="43.34626286972025" lon="10.83718078929379"><ele>79.66666666666667</ele><time>2026-04-19T10:48:03Z</time></trkpt><trkpt lat="43.34632732073492" lon="10.836883938335985"><ele>78.33333333333334</ele><time>2026-04-19T10:48:04Z</time></trkpt><trkpt lat="43.34639679737509" lon="10.836591097990222"><ele>77.0</ele><time>2026-04-19T10:48:05Z</time></trkpt><trkpt lat="43.34646856367017" lon="10.836298415090667"><ele>79.5</ele><time>2026-04-19T10:48:06Z</time></trkpt><trkpt lat="43.346541889253764" lon="10.836005445228588"><ele>82.0</ele><time>2026-04-19T10:48:07Z</time></trkpt><trkpt lat="43.34662261494105" lon="10.835712231332414"><ele>82.0</ele><time>2026-04-19T10:48:08Z</time></trkpt><trkpt lat="43.34671510834456" lon="10.835410811500575"><ele>82.0</ele><time>2026-04-19T10:48:09Z</time></trkpt><trkpt lat="43.34681210081556" lon="10.835114856480896"><ele>79.0</ele><time>2026-04-19T10:48:10Z</time></trkpt><trkpt lat="43.34690909596286" lon="10.834806435224875"><ele>76.0</ele><time>2026-04-19T10:48:11Z</time></trkpt><trkpt lat="43.34699515929939" lon="10.834499698232294"><ele>75.0</ele><time>2026-04-19T10:48:12Z</time></trkpt><trkpt lat="43.347077413498916" lon="10.834182058458019"><ele>74.0</ele><time>2026-04-19T10:48:13Z</time></trkpt><trkpt lat="43.34715870574056" lon="10.83387167341455"><ele>76.0</ele><time>2026-04-19T10:48:14Z</time></trkpt><trkpt lat="43.34723193651156" lon="10.83358581078702"><ele>78.0</ele><time>2026-04-19T10:48:15Z</time></trkpt><trkpt lat="43.34730609044712" lon="10.833301909994201"><ele>80.0</ele><time>2026-04-19T10:48:16Z</time></trkpt><trkpt lat="43.34737960747091" lon="10.833016842618703"><ele>80.0</ele><time>2026-04-19T10:48:17Z</time></trkpt><trkpt lat="43.34744821227012" lon="10.832752727709758"><ele>80.0</ele><time>2026-04-19T10:48:18Z</time></trkpt><trkpt lat="43.34753422030841" lon="10.832510699432927"><ele>80.0</ele><time>2026-04-19T10:48:19Z</time></trkpt><trkpt lat="43.34762980047985" lon="10.832282722399082"><ele>80.0</ele><time>2026-04-19T10:48:20Z</time></trkpt><trkpt lat="43.34775000239972" lon="10.832062934892415"><ele>80.0</ele><time>2026-04-19T10:48:21Z</time></trkpt><trkpt lat="43.34788036061855" lon="10.83183117394007"><ele>80.0</ele><time>2026-04-19T10:48:22Z</time></trkpt><trkpt lat="43.34802983500252" lon="10.831617210985526"><ele>86.0</ele><time>2026-04-19T10:48:23Z</time></trkpt><trkpt lat="43.34818054474434" lon="10.83139574368267"><ele>92.0</ele><time>2026-04-19T10:48:24Z</time></trkpt><trkpt lat="43.34834267892029" lon="10.831151423650429"><ele>88.5</ele><time>2026-04-19T10:48:25Z</time></trkpt><trkpt lat="43.348509743240676" lon="10.830899162006569"><ele>85.0</ele><time>2026-04-19T10:48:26Z</time></trkpt><trkpt lat="43.348687675074515" lon="10.830636424327578"><ele>85.0</ele><time>2026-04-19T10:48:27Z</time></trkpt><trkpt lat="43.34886805914895" lon="10.83036833012696"><ele>85.0</ele><time>2026-04-19T10:48:28Z</time></trkpt><trkpt lat="43.349033877923446" lon="10.830105943164172"><ele>91.5</ele><time>2026-04-19T10:48:29Z</time></trkpt><trkpt lat="43.34918696620826" lon="10.829832149159625"><ele>98.0</ele><time>2026-04-19T10:48:30Z</time></trkpt><trkpt lat="43.34932826502934" lon="10.829555018421733"><ele>98.0</ele><time>2026-04-19T10:48:31Z</time></trkpt><trkpt lat="43.34950427539538" lon="10.829316977344348"><ele>98.0</ele><time>2026-04-19T10:48:32Z</time></trkpt><trkpt lat="43.349690302554606" lon="10.829108839665604"><ele>103.0</ele><time>2026-04-19T10:48:33Z</time></trkpt><trkpt lat="43.349874330045665" lon="10.828884507880057"><ele>108.0</ele><time>2026-04-19T10:48:34Z</time></trkpt><trkpt lat="43.35006715114754" lon="10.828690346516941"><ele>108.0</ele><time>2026-04-19T10:48:35Z</time></trkpt><trkpt lat="43.35025419977523" lon="10.828495576046608"><ele>108.0</ele><time>2026-04-19T10:48:36Z</time></trkpt><trkpt lat="43.35042906089792" lon="10.828298419917779"><ele>111.5</ele><time>2026-04-19T10:48:37Z</time></trkpt><trkpt lat="43.35058260297662" lon="10.828059574081"><ele>115.0</ele><time>2026-04-19T10:48:38Z</time></trkpt><trkpt lat="43.35069427122615" lon="10.827790722545727"><ele>116.33333333333334</ele><time>2026-04-19T10:48:39Z</time></trkpt><trkpt lat="43.35077767193684" lon="10.827520433312097"><ele>117.66666666666666</ele><time>2026-04-19T10:48:40Z</time></trkpt><trkpt lat="43.35085450269369" lon="10.827287683991841"><ele>119.0</ele><time>2026-04-19T10:48:41Z</time></trkpt><trkpt lat="43.350961492638994" lon="10.827083979381179"><ele>119.0</ele><time>2026-04-19T10:48:42Z</time></trkpt><trkpt lat="43.35110650308999" lon="10.826933396665915"><ele>119.0</ele><time>2026-04-19T10:48:43Z</time></trkpt><trkpt lat="43.35122814016332" lon="10.82677377339096"><ele>119.0</ele><time>2026-04-19T10:48:44Z</time></trkpt><trkpt lat="43.351356314391275" lon="10.826652953554534"><ele>122.66666666666666</ele><time>2026-04-19T10:48:45Z</time></trkpt><trkpt lat="43.351467285363434" lon="10.826522608606984"><ele>126.33333333333334</ele><time>2026-04-19T10:48:46Z</time></trkpt><trkpt lat="43.351573383193454" lon="10.826374751398681"><ele>130.0</ele><time>2026-04-19T10:48:47Z</time></trkpt><trkpt lat="43.35165491990458" lon="10.826194537323655"><ele>130.0</ele><time>2026-04-19T10:48:48Z</time></trkpt><trkpt lat="43.35170551932425" lon="10.82597993960269"><ele>130.0</ele><time>2026-04-19T10:48:49Z</time></trkpt><trkpt lat="43.35174306920402" lon="10.825745852820939"><ele>130.0</ele><time>2026-04-19T10:48:50Z</time></trkpt><trkpt lat="43.35182459204767" lon="10.825535084126972"><ele>128.66666666666669</ele><time>2026-04-19T10:48:51Z</time></trkpt><trkpt lat="43.35192335303861" lon="10.825350615990311"><ele>127.33333333333334</ele><time>2026-04-19T10:48:52Z</time></trkpt><trkpt lat="43.35204591333469" lon="10.825203564659576"><ele>126.0</ele><time>2026-04-19T10:48:53Z</time></trkpt><trkpt lat="43.352179586739794" lon="10.825075480508707"><ele>128.33333333333334</ele><time>2026-04-19T10:48:54Z</time></trkpt><trkpt lat="43.35234762928235" lon="10.825038530722887"><ele>130.66666666666669</ele><time>2026-04-19T10:48:55Z</time></trkpt><trkpt lat="43.35249496393403" lon="10.824975863515114"><ele>133.0</ele><time>2026-04-19T10:48:56Z</time></trkpt><trkpt lat="43.35263755015484" lon="10.824931349678247"><ele>133.0</ele><time>2026-04-19T10:48:57Z</time></trkpt><trkpt lat="43.35277529593307" lon="10.824849364446688"><ele>133.0</ele><time>2026-04-19T10:48:58Z</time></trkpt><trkpt lat="43.35289923768311" lon="10.824734635403477"><ele>133.0</ele><time>2026-04-19T10:48:59Z</time></trkpt><trkpt lat="43.35300074980207" lon="10.824595727635126"><ele>133.0</ele><time>2026-04-19T10:49:00Z</time></trkpt><trkpt lat="43.35308652064612" lon="10.82442655438418"><ele>134.0</ele><time>2026-04-19T10:49:01Z</time></trkpt><trkpt lat="43.35314252223633" lon="10.82423215922807"><ele>135.0</ele><time>2026-04-19T10:49:02Z</time></trkpt><trkpt lat="43.35316370061858" lon="10.824030380265102"><ele>136.0</ele><time>2026-04-19T10:49:03Z</time></trkpt><trkpt lat="43.35316229863669" lon="10.823819372018459"><ele>136.0</ele><time>2026-04-19T10:49:04Z</time></trkpt><trkpt lat="43.35314555013349" lon="10.823614869691513"><ele>136.0</ele><time>2026-04-19T10:49:05Z</time></trkpt><trkpt lat="43.353146770213385" lon="10.823394626706468"><ele>136.0</ele><time>2026-04-19T10:49:06Z</time></trkpt><trkpt lat="43.35311030602911" lon="10.823190409600594"><ele>135.0</ele><time>2026-04-19T10:49:07Z</time></trkpt><trkpt lat="43.353103763473804" lon="10.822974153783674"><ele>134.0</ele><time>2026-04-19T10:49:08Z</time></trkpt><trkpt lat="43.35313337142272" lon="10.822767953595147"><ele>133.0</ele><time>2026-04-19T10:49:09Z</time></trkpt><trkpt lat="43.353198193320004" lon="10.822556484879257"><ele>132.33333333333334</ele><time>2026-04-19T10:49:10Z</time></trkpt><trkpt lat="43.353286807210765" lon="10.822341414883368"><ele>131.66666666666666</ele><time>2026-04-19T10:49:11Z</time></trkpt><trkpt lat="43.35337995565427" lon="10.822121811502681"><ele>131.0</ele><time>2026-04-19T10:49:12Z</time></trkpt><trkpt lat="43.353463877966284" lon="10.821910016279062"><ele>130.33333333333331</ele><time>2026-04-19T10:49:13Z</time></trkpt><trkpt lat="43.35353331592277" lon="10.821699271864182"><ele>129.66666666666666</ele><time>2026-04-19T10:49:14Z</time></trkpt><trkpt lat="43.35357826293597" lon="10.821481781878354"><ele>129.0</ele><time>2026-04-19T10:49:15Z</time></trkpt><trkpt lat="43.35358860816019" lon="10.821265435918273"><ele>129.0</ele><time>2026-04-19T10:49:16Z</time></trkpt><trkpt lat="43.35356963993685" lon="10.82104237941513"><ele>129.0</ele><time>2026-04-19T10:49:17Z</time></trkpt><trkpt lat="43.35353076251232" lon="10.820818431859124"><ele>129.0</ele><time>2026-04-19T10:49:18Z</time></trkpt><trkpt lat="43.35348357018888" lon="10.82059126231137"><ele>128.66666666666666</ele><time>2026-04-19T10:49:19Z</time></trkpt><trkpt lat="43.353439394368166" lon="10.82036269870074"><ele>128.33333333333331</ele><time>2026-04-19T10:49:20Z</time></trkpt><trkpt lat="43.35339892194196" lon="10.820139526714577"><ele>128.0</ele><time>2026-04-19T10:49:21Z</time></trkpt><trkpt lat="43.35336563051143" lon="10.819921680272454"><ele>128.33333333333331</ele><time>2026-04-19T10:49:22Z</time></trkpt><trkpt lat="43.35335187884625" lon="10.819701967655904"><ele>128.66666666666666</ele><time>2026-04-19T10:49:23Z</time></trkpt><trkpt lat="43.35337230371666" lon="10.819487154885245"><ele>129.0</ele><time>2026-04-19T10:49:24Z</time></trkpt><trkpt lat="43.353419412371366" lon="10.819259704192971"><ele>129.0</ele><time>2026-04-19T10:49:25Z</time></trkpt><trkpt lat="43.35348898369563" lon="10.819037824337427"><ele>129.0</ele><time>2026-04-19T10:49:26Z</time></trkpt><trkpt lat="43.353565448272114" lon="10.818825111912934"><ele>129.0</ele><time>2026-04-19T10:49:27Z</time></trkpt><trkpt lat="43.35364215478627" lon="10.81862065400387"><ele>128.25</ele><time>2026-04-19T10:49:28.001Z</time></trkpt><trkpt lat="43.35370975800019" lon="10.818443069089797"><ele>127.5</ele><time>2026-04-19T10:49:29.001Z</time></trkpt><trkpt lat="43.3537833344711" lon="10.818275442819756"><ele>126.75</ele><time>2026-04-19T10:49:30.001Z</time></trkpt><trkpt lat="43.35387955113065" lon="10.818140666891436"><ele>126.0</ele><time>2026-04-19T10:49:31.001Z</time></trkpt><trkpt lat="43.354012540588286" lon="10.818035759019082"><ele>125.66666666666666</ele><time>2026-04-19T10:49:32.001Z</time></trkpt><trkpt lat="43.35415834542529" lon="10.817988893347914"><ele>125.33333333333333</ele><time>2026-04-19T10:49:33.001Z</time></trkpt><trkpt lat="43.354313435134856" lon="10.81795669179452"><ele>125.0</ele><time>2026-04-19T10:49:34.001Z</time></trkpt><trkpt lat="43.35445905421766" lon="10.817897996276802"><ele>125.0</ele><time>2026-04-19T10:49:35.001Z</time></trkpt><trkpt lat="43.35459719391253" lon="10.817792237317112"><ele>125.0</ele><time>2026-04-19T10:49:36.001Z</time></trkpt><trkpt lat="43.354724878752094" lon="10.8176491361415"><ele>125.0</ele><time>2026-04-19T10:49:37.001Z</time></trkpt><trkpt lat="43.35483505926308" lon="10.817484242234082"><ele>124.33333333333333</ele><time>2026-04-19T10:49:38.001Z</time></trkpt><trkpt lat="43.354925783202305" lon="10.817296568522565"><ele>123.66666666666666</ele><time>2026-04-19T10:49:39.001Z</time></trkpt><trkpt lat="43.354991395779784" lon="10.817085980340439"><ele>123.0</ele><time>2026-04-19T10:49:40.001Z</time></trkpt><trkpt lat="43.35504372151701" lon="10.81686954758289"><ele>124.33333333333334</ele><time>2026-04-19T10:49:41.001Z</time></trkpt><trkpt lat="43.355096553331926" lon="10.816653116908558"><ele>125.66666666666667</ele><time>2026-04-19T10:49:42.001Z</time></trkpt><trkpt lat="43.355152465572196" lon="10.816438319435981"><ele>127.0</ele><time>2026-04-19T10:49:43.001Z</time></trkpt><trkpt lat="43.355208180750424" lon="10.816232051275021"><ele>127.0</ele><time>2026-04-19T10:49:44.001Z</time></trkpt><trkpt lat="43.35526683344376" lon="10.816014549697805"><ele>127.0</ele><time>2026-04-19T10:49:45.001Z</time></trkpt><trkpt lat="43.35532086089224" lon="10.81580618975479"><ele>127.0</ele><time>2026-04-19T10:49:46Z</time></trkpt><trkpt lat="43.3553708301201" lon="10.815606913338488"><ele>128.33333333333334</ele><time>2026-04-19T10:49:47Z</time></trkpt><trkpt lat="43.35541882562521" lon="10.815407113293222"><ele>129.66666666666666</ele><time>2026-04-19T10:49:48Z</time></trkpt><trkpt lat="43.35546982634034" lon="10.815211891570927"><ele>131.0</ele><time>2026-04-19T10:49:49Z</time></trkpt><trkpt lat="43.355522652148" lon="10.815022854872247"><ele>128.0</ele><time>2026-04-19T10:49:50Z</time></trkpt><trkpt lat="43.35556735759049" lon="10.814847045750923"><ele>125.0</ele><time>2026-04-19T10:49:51Z</time></trkpt><trkpt lat="43.35561201030645" lon="10.814670757785404"><ele>122.0</ele><time>2026-04-19T10:49:52Z</time></trkpt><trkpt lat="43.355672799641" lon="10.814517211365656"><ele>119.0</ele><time>2026-04-19T10:49:53Z</time></trkpt><trkpt lat="43.355777454163025" lon="10.814403574332067"><ele>119.75</ele><time>2026-04-19T10:49:54Z</time></trkpt><trkpt lat="43.355911247903826" lon="10.814321268366564"><ele>120.5</ele><time>2026-04-19T10:49:55Z</time></trkpt><trkpt lat="43.356054940103654" lon="10.814260034934627"><ele>121.25</ele><time>2026-04-19T10:49:56Z</time></trkpt><trkpt lat="43.35620045386241" lon="10.814197901297078"><ele>122.0</ele><time>2026-04-19T10:49:57Z</time></trkpt><trkpt lat="43.35635069850158" lon="10.814123624049675"><ele>119.25</ele><time>2026-04-19T10:49:58Z</time></trkpt><trkpt lat="43.35648564399852" lon="10.814027717023047"><ele>116.5</ele><time>2026-04-19T10:49:59Z</time></trkpt><trkpt lat="43.35660610308631" lon="10.813906762478652"><ele>113.75</ele><time>2026-04-19T10:50:00Z</time></trkpt><trkpt lat="43.3567135257347" lon="10.813766984666591"><ele>111.0</ele><time>2026-04-19T10:50:01Z</time></trkpt><trkpt lat="43.35680567064502" lon="10.813614150487256"><ele>111.66666666666666</ele><time>2026-04-19T10:50:02Z</time></trkpt><trkpt lat="43.35690346230043" lon="10.813450340628798"><ele>112.33333333333333</ele><time>2026-04-19T10:50:03Z</time></trkpt><trkpt lat="43.357009653115774" lon="10.81328228699787"><ele>113.0</ele><time>2026-04-19T10:50:04Z</time></trkpt><trkpt lat="43.35711373007708" lon="10.81312420794987"><ele>110.75</ele><time>2026-04-19T10:50:05Z</time></trkpt><trkpt lat="43.35721237259074" lon="10.812980569591211"><ele>108.5</ele><time>2026-04-19T10:50:06Z</time></trkpt><trkpt lat="43.35729696210054" lon="10.812853893818858"><ele>106.25</ele><time>2026-04-19T10:50:07Z</time></trkpt><trkpt lat="43.35737459316789" lon="10.812742046488797"><ele>104.0</ele><time>2026-04-19T10:50:08Z</time></trkpt><trkpt lat="43.35745472885797" lon="10.812657396633846"><ele>104.80000000000001</ele><time>2026-04-19T10:50:09Z</time></trkpt><trkpt lat="43.35754972379609" lon="10.812609030381225"><ele>105.60000000000001</ele><time>2026-04-19T10:50:10Z</time></trkpt><trkpt lat="43.35765963654213" lon="10.812639353344476"><ele>106.4</ele><time>2026-04-19T10:50:11Z</time></trkpt><trkpt lat="43.35776840958286" lon="10.812631294972334"><ele>107.2</ele><time>2026-04-19T10:50:12Z</time></trkpt><trkpt lat="43.35788295819422" lon="10.812647770261352"><ele>108.0</ele><time>2026-04-19T10:50:13Z</time></trkpt><trkpt lat="43.35799520405209" lon="10.812654792231346"><ele>105.0</ele><time>2026-04-19T10:50:14Z</time></trkpt><trkpt lat="43.358099980678" lon="10.812666171199062"><ele>102.00000000000001</ele><time>2026-04-19T10:50:15Z</time></trkpt><trkpt lat="43.35819280244345" lon="10.812713182158912"><ele>99.0</ele><time>2026-04-19T10:50:16Z</time></trkpt><trkpt lat="43.358254063748895" lon="10.812807064827028"><ele>96.0</ele><time>2026-04-19T10:50:17Z</time></trkpt><trkpt lat="43.358277744264875" lon="10.81293372221733"><ele>93.0</ele><time>2026-04-19T10:50:18Z</time></trkpt><trkpt lat="43.35826373204982" lon="10.813068774508569"><ele>93.0</ele><time>2026-04-19T10:50:19Z</time></trkpt><trkpt lat="43.35821621713185" lon="10.813199643001578"><ele>93.0</ele><time>2026-04-19T10:50:20Z</time></trkpt><trkpt lat="43.358132494132555" lon="10.813311702385658"><ele>93.0</ele><time>2026-04-19T10:50:21Z</time></trkpt><trkpt lat="43.35805938911422" lon="10.813444648142136"><ele>93.0</ele><time>2026-04-19T10:50:22Z</time></trkpt><trkpt lat="43.35796411002871" lon="10.813568446191073"><ele>93.25</ele><time>2026-04-19T10:50:23Z</time></trkpt><trkpt lat="43.357873015691396" lon="10.813694036586025"><ele>93.5</ele><time>2026-04-19T10:50:24Z</time></trkpt><trkpt lat="43.35778029706007" lon="10.81383076479931"><ele>93.75</ele><time>2026-04-19T10:50:25Z</time></trkpt><trkpt lat="43.357682200668464" lon="10.813982423006422"><ele>94.0</ele><time>2026-04-19T10:50:26Z</time></trkpt><trkpt lat="43.35758082441756" lon="10.814123887597313"><ele>94.0</ele><time>2026-04-19T10:50:27Z</time></trkpt><trkpt lat="43.357492313707844" lon="10.814246810843272"><ele>94.0</ele><time>2026-04-19T10:50:28Z</time></trkpt><trkpt lat="43.3574204061894" lon="10.814347605932687"><ele>94.0</ele><time>2026-04-19T10:50:29Z</time></trkpt><trkpt lat="43.35736566580934" lon="10.814432198285054"><ele>94.0</ele><time>2026-04-19T10:50:30Z</time></trkpt><trkpt lat="43.357328067789446" lon="10.814525511727433"><ele>94.0</ele><time>2026-04-19T10:50:31Z</time></trkpt><trkpt lat="43.35734859376143" lon="10.814640335065212"><ele>92.25</ele><time>2026-04-19T10:50:32Z</time></trkpt><trkpt lat="43.35743176345552" lon="10.814742107497125"><ele>90.5</ele><time>2026-04-19T10:50:33Z</time></trkpt><trkpt lat="43.35754371490891" lon="10.814762287833913"><ele>88.75</ele><time>2026-04-19T10:50:34Z</time></trkpt><trkpt lat="43.35765345192962" lon="10.814714620917496"><ele>87.0</ele><time>2026-04-19T10:50:35Z</time></trkpt><trkpt lat="43.35776000686091" lon="10.814651214113166"><ele>87.0</ele><time>2026-04-19T10:50:36Z</time></trkpt><trkpt lat="43.357862424519695" lon="10.814598029970332"><ele>87.0</ele><time>2026-04-19T10:50:37Z</time></trkpt><trkpt lat="43.35796432340749" lon="10.81455341756708"><ele>87.0</ele><time>2026-04-19T10:50:38Z</time></trkpt><trkpt lat="43.35806232940917" lon="10.814509082166897"><ele>87.0</ele><time>2026-04-19T10:50:39Z</time></trkpt><trkpt lat="43.35815984695915" lon="10.814467688868078"><ele>87.0</ele><time>2026-04-19T10:50:40Z</time></trkpt><trkpt lat="43.3582605575385" lon="10.814433146989902"><ele>86.8</ele><time>2026-04-19T10:50:41Z</time></trkpt><trkpt lat="43.35835961570743" lon="10.814399988518531"><ele>86.6</ele><time>2026-04-19T10:50:42Z</time></trkpt><trkpt lat="43.35845981986635" lon="10.814355268561112"><ele>86.39999999999999</ele><time>2026-04-19T10:50:43Z</time></trkpt><trkpt lat="43.35856603636314" lon="10.814308371517704"><ele>86.19999999999999</ele><time>2026-04-19T10:50:44Z</time></trkpt><trkpt lat="43.35867233663227" lon="10.814262910630601"><ele>86.0</ele><time>2026-04-19T10:50:45Z</time></trkpt><trkpt lat="43.358781291656584" lon="10.814214124993745"><ele>83.5</ele><time>2026-04-19T10:50:46Z</time></trkpt><trkpt lat="43.35888423388828" lon="10.814134467590273"><ele>81.0</ele><time>2026-04-19T10:50:47Z</time></trkpt><trkpt lat="43.35897454070737" lon="10.81401047752874"><ele>78.5</ele><time>2026-04-19T10:50:48Z</time></trkpt><trkpt lat="43.35906833177529" lon="10.813868267706514"><ele>76.0</ele><time>2026-04-19T10:50:49Z</time></trkpt><trkpt lat="43.35917695685636" lon="10.813749793288771"><ele>76.0</ele><time>2026-04-19T10:50:50Z</time></trkpt><trkpt lat="43.35925648179965" lon="10.813612410061122"><ele>76.0</ele><time>2026-04-19T10:50:51Z</time></trkpt><trkpt lat="43.35934278339071" lon="10.813502799242752"><ele>76.0</ele><time>2026-04-19T10:50:52Z</time></trkpt><trkpt lat="43.35942541078929" lon="10.813397620562906"><ele>76.0</ele><time>2026-04-19T10:50:53Z</time></trkpt><trkpt lat="43.3595046986166" lon="10.813293082148046"><ele>75.66666666666666</ele><time>2026-04-19T10:50:54Z</time></trkpt><trkpt lat="43.35957203796036" lon="10.813192581613247"><ele>75.33333333333333</ele><time>2026-04-19T10:50:55Z</time></trkpt><trkpt lat="43.35964006239889" lon="10.813096911918374"><ele>75.0</ele><time>2026-04-19T10:50:56Z</time></trkpt><trkpt lat="43.35970198856729" lon="10.813019972903273"><ele>74.66666666666667</ele><time>2026-04-19T10:50:57Z</time></trkpt><trkpt lat="43.35974678873354" lon="10.812943963608447"><ele>74.33333333333334</ele><time>2026-04-19T10:50:58Z</time></trkpt><trkpt lat="43.35980878549454" lon="10.812885539598422"><ele>74.0</ele><time>2026-04-19T10:51:00Z</time></trkpt><trkpt lat="43.35985507124313" lon="10.812819339124754"><ele>74.0</ele><time>2026-04-19T10:51:04Z</time></trkpt><trkpt lat="43.35991104830794" lon="10.812749227680904"><ele>74.0</ele><time>2026-04-19T10:51:14Z</time></trkpt><trkpt lat="43.35996995168773" lon="10.812679582234614"><ele>74.0</ele><time>2026-04-19T10:52:00Z</time></trkpt><trkpt lat="43.36005904957838" lon="10.812567077834766"><ele>74.0</ele><time>2026-04-19T10:52:02Z</time></trkpt><trkpt lat="43.36010851527563" lon="10.812511275877517"><ele>74.0</ele><time>2026-04-19T10:52:03Z</time></trkpt><trkpt lat="43.36015291777621" lon="10.812438898208145"><ele>74.0</ele><time>2026-04-19T10:52:04Z</time></trkpt><trkpt lat="43.3602139008526" lon="10.812369282276114"><ele>73.83333333333334</ele><time>2026-04-19T10:52:05Z</time></trkpt><trkpt lat="43.36027206262707" lon="10.812318033478439"><ele>73.66666666666667</ele><time>2026-04-19T10:52:06Z</time></trkpt><trkpt lat="43.36033540016627" lon="10.812280393044073"><ele>73.5</ele><time>2026-04-19T10:52:07Z</time></trkpt><trkpt lat="43.360398686077204" lon="10.81224140899774"><ele>73.33333333333333</ele><time>2026-04-19T10:52:08Z</time></trkpt><trkpt lat="43.360477878213416" lon="10.812250856427278"><ele>73.16666666666666</ele><time>2026-04-19T10:52:09Z</time></trkpt><trkpt lat="43.36057182623947" lon="10.812293608782342"><ele>73.0</ele><time>2026-04-19T10:52:10Z</time></trkpt><trkpt lat="43.36067775971234" lon="10.812336852499573"><ele>73.0</ele><time>2026-04-19T10:52:11Z</time></trkpt><trkpt lat="43.36079273116093" lon="10.812366767776968"><ele>73.0</ele><time>2026-04-19T10:52:12Z</time></trkpt><trkpt lat="43.36093061011496" lon="10.812371569120138"><ele>73.0</ele><time>2026-04-19T10:52:13Z</time></trkpt><trkpt lat="43.36104931970691" lon="10.81233888725338"><ele>73.0</ele><time>2026-04-19T10:52:14Z</time></trkpt><trkpt lat="43.36112857666695" lon="10.812302645815532"><ele>73.0</ele><time>2026-04-19T10:52:15Z</time></trkpt><trkpt lat="43.36121794052057" lon="10.812257016504098"><ele>73.0</ele><time>2026-04-19T10:52:17Z</time></trkpt><trkpt lat="43.361294198721765" lon="10.812234799984552"><ele>73.0</ele><time>2026-04-19T10:52:21Z</time></trkpt><trkpt lat="43.36143156808832" lon="10.81233991979381"><ele>73.0</ele><time>2026-04-19T10:52:23Z</time></trkpt><trkpt lat="43.36153897863485" lon="10.812413344904554"><ele>73.75</ele><time>2026-04-19T10:52:24Z</time></trkpt><trkpt lat="43.361656897361534" lon="10.81248730102667"><ele>74.5</ele><time>2026-04-19T10:52:25Z</time></trkpt><trkpt lat="43.36177957032878" lon="10.812553086327805"><ele>75.25</ele><time>2026-04-19T10:52:26Z</time></trkpt><trkpt lat="43.361910997576715" lon="10.812600559648057"><ele>76.0</ele><time>2026-04-19T10:52:27Z</time></trkpt><trkpt lat="43.36202789080126" lon="10.812629447200992"><ele>76.0</ele><time>2026-04-19T10:52:28Z</time></trkpt><trkpt lat="43.36212161229672" lon="10.81264701063432"><ele>76.0</ele><time>2026-04-19T10:52:29Z</time></trkpt><trkpt lat="43.3622169363539" lon="10.812662452501758"><ele>76.0</ele><time>2026-04-19T10:52:30Z</time></trkpt><trkpt lat="43.36230493293502" lon="10.812670363516245"><ele>76.0</ele><time>2026-04-19T10:52:31Z</time></trkpt><trkpt lat="43.36239122842048" lon="10.81266629671564"><ele>76.0</ele><time>2026-04-19T10:52:32Z</time></trkpt><trkpt lat="43.36247780170506" lon="10.81265867751182"><ele>76.5</ele><time>2026-04-19T10:52:33Z</time></trkpt><trkpt lat="43.362564344607854" lon="10.812655124585287"><ele>77.0</ele><time>2026-04-19T10:52:34Z</time></trkpt><trkpt lat="43.36264636447844" lon="10.812655765897308"><ele>77.5</ele><time>2026-04-19T10:52:35Z</time></trkpt><trkpt lat="43.36271723532172" lon="10.81267812195572"><ele>78.0</ele><time>2026-04-19T10:52:36Z</time></trkpt><trkpt lat="43.362799035562986" lon="10.812678121956177"><ele>78.5</ele><time>2026-04-19T10:52:37Z</time></trkpt><trkpt lat="43.36289507111117" lon="10.812659640763814"><ele>79.0</ele><time>2026-04-19T10:52:38Z</time></trkpt><trkpt lat="43.36301286110001" lon="10.812660001633779"><ele>77.75</ele><time>2026-04-19T10:52:39Z</time></trkpt><trkpt lat="43.363151318929745" lon="10.812663432628005"><ele>76.5</ele><time>2026-04-19T10:52:40Z</time></trkpt><trkpt lat="43.363309867456024" lon="10.812665590597184"><ele>75.25</ele><time>2026-04-19T10:52:41Z</time></trkpt><trkpt lat="43.363451490753114" lon="10.812673330838216"><ele>74.0</ele><time>2026-04-19T10:52:42Z</time></trkpt><trkpt lat="43.36356221643318" lon="10.81268032859379"><ele>74.0</ele><time>2026-04-19T10:52:43Z</time></trkpt><trkpt lat="43.363661296189726" lon="10.81269837600241"><ele>74.0</ele><time>2026-04-19T10:52:44Z</time></trkpt><trkpt lat="43.363750738643276" lon="10.812730037517193"><ele>74.0</ele><time>2026-04-19T10:52:45Z</time></trkpt><trkpt lat="43.36384459783366" lon="10.812790217421066"><ele>74.0</ele><time>2026-04-19T10:52:46Z</time></trkpt><trkpt lat="43.36393015478364" lon="10.812874159382071"><ele>74.0</ele><time>2026-04-19T10:52:47Z</time></trkpt><trkpt lat="43.36401861934537" lon="10.812966409869322"><ele>75.0</ele><time>2026-04-19T10:52:48Z</time></trkpt><trkpt lat="43.36412180084922" lon="10.813062213941878"><ele>76.0</ele><time>2026-04-19T10:52:49Z</time></trkpt><trkpt lat="43.364231037534175" lon="10.81316271574424"><ele>77.0</ele><time>2026-04-19T10:52:50Z</time></trkpt><trkpt lat="43.36434324542553" lon="10.813273692014551"><ele>78.0</ele><time>2026-04-19T10:52:51Z</time></trkpt><trkpt lat="43.364458488890605" lon="10.813386008966447"><ele>78.25</ele><time>2026-04-19T10:52:52Z</time></trkpt><trkpt lat="43.36457420582132" lon="10.813496969555723"><ele>78.5</ele><time>2026-04-19T10:52:53Z</time></trkpt><trkpt lat="43.36468704174727" lon="10.81360406712155"><ele>78.75</ele><time>2026-04-19T10:52:54Z</time></trkpt><trkpt lat="43.36479802809175" lon="10.813704452255056"><ele>79.0</ele><time>2026-04-19T10:52:55Z</time></trkpt><trkpt lat="43.36490225315338" lon="10.813803253242588"><ele>79.0</ele><time>2026-04-19T10:52:56Z</time></trkpt><trkpt lat="43.36500678547773" lon="10.81390594057589"><ele>79.0</ele><time>2026-04-19T10:52:57Z</time></trkpt><trkpt lat="43.3651086947251" lon="10.813997379674484"><ele>79.0</ele><time>2026-04-19T10:52:58Z</time></trkpt><trkpt lat="43.36522064486266" lon="10.814104567984925"><ele>79.0</ele><time>2026-04-19T10:52:59Z</time></trkpt><trkpt lat="43.36534259788681" lon="10.814219481907989"><ele>78.0</ele><time>2026-04-19T10:53:00Z</time></trkpt><trkpt lat="43.36547827450072" lon="10.814340529541989"><ele>77.0</ele><time>2026-04-19T10:53:01Z</time></trkpt><trkpt lat="43.36562347701413" lon="10.814470990544576"><ele>76.0</ele><time>2026-04-19T10:53:02Z</time></trkpt><trkpt lat="43.36577648945429" lon="10.814609500622012"><ele>78.33333333333333</ele><time>2026-04-19T10:53:03Z</time></trkpt><trkpt lat="43.36593409455103" lon="10.81473720799984"><ele>80.66666666666667</ele><time>2026-04-19T10:53:04Z</time></trkpt><trkpt lat="43.36610341086713" lon="10.814847585827895"><ele>83.0</ele><time>2026-04-19T10:53:05Z</time></trkpt><trkpt lat="43.366290318911" lon="10.814941018919894"><ele>86.0</ele><time>2026-04-19T10:53:06Z</time></trkpt><trkpt lat="43.36648254060117" lon="10.815022798165943"><ele>89.0</ele><time>2026-04-19T10:53:07Z</time></trkpt><trkpt lat="43.3666644800077" lon="10.815103276870142"><ele>92.0</ele><time>2026-04-19T10:53:08Z</time></trkpt><trkpt lat="43.36683193576827" lon="10.815163820959437"><ele>92.0</ele><time>2026-04-19T10:53:09Z</time></trkpt><trkpt lat="43.366993240144424" lon="10.815170757067811"><ele>92.0</ele><time>2026-04-19T10:53:10Z</time></trkpt><trkpt lat="43.36717268402759" lon="10.81512004507816"><ele>92.0</ele><time>2026-04-19T10:53:11Z</time></trkpt><trkpt lat="43.36735638470834" lon="10.815026976358144"><ele>92.66666666666667</ele><time>2026-04-19T10:53:12Z</time></trkpt><trkpt lat="43.367540336382405" lon="10.814930274653769"><ele>93.33333333333333</ele><time>2026-04-19T10:53:13Z</time></trkpt><trkpt lat="43.367714442411895" lon="10.814850736984827"><ele>94.0</ele><time>2026-04-19T10:53:14Z</time></trkpt><trkpt lat="43.367866000651276" lon="10.814794820738058"><ele>94.0</ele><time>2026-04-19T10:53:15Z</time></trkpt><trkpt lat="43.3679932409833" lon="10.81476751826595"><ele>94.0</ele><time>2026-04-19T10:53:16Z</time></trkpt><trkpt lat="43.36810197166795" lon="10.814767012819647"><ele>94.0</ele><time>2026-04-19T10:53:17Z</time></trkpt><trkpt lat="43.36819895309276" lon="10.814776722506336"><ele>94.0</ele><time>2026-04-19T10:53:18Z</time></trkpt><trkpt lat="43.368282739539936" lon="10.814808146386701"><ele>94.0</ele><time>2026-04-19T10:53:19Z</time></trkpt><trkpt lat="43.368361125422034" lon="10.814872087659904"><ele>94.4</ele><time>2026-04-19T10:53:20Z</time></trkpt><trkpt lat="43.36842214350442" lon="10.814969578277534"><ele>94.80000000000001</ele><time>2026-04-19T10:53:21Z</time></trkpt><trkpt lat="43.36846136024083" lon="10.815087692211414"><ele>95.19999999999999</ele><time>2026-04-19T10:53:22Z</time></trkpt><trkpt lat="43.36848045142096" lon="10.815218056309604"><ele>95.6</ele><time>2026-04-19T10:53:23Z</time></trkpt><trkpt lat="43.36848807105009" lon="10.815337220320735"><ele>96.0</ele><time>2026-04-19T10:53:24Z</time></trkpt><trkpt lat="43.3684776176792" lon="10.81548406566332"><ele>97.25</ele><time>2026-04-19T10:53:25Z</time></trkpt><trkpt lat="43.36846563252104" lon="10.815687244091233"><ele>98.5</ele><time>2026-04-19T10:53:26Z</time></trkpt><trkpt lat="43.36845544702217" lon="10.815900601059669"><ele>99.75</ele><time>2026-04-19T10:53:27Z</time></trkpt><trkpt lat="43.36846269622646" lon="10.816093023606369"><ele>101.0</ele><time>2026-04-19T10:53:28Z</time></trkpt><trkpt lat="43.368508621376805" lon="10.816245946493256"><ele>101.49999999999999</ele><time>2026-04-19T10:53:29Z</time></trkpt><trkpt lat="43.368573011749845" lon="10.816359317085656"><ele>102.0</ele><time>2026-04-19T10:53:30Z</time></trkpt><trkpt lat="43.36864337638182" lon="10.816433319016966"><ele>102.5</ele><time>2026-04-19T10:53:31Z</time></trkpt><trkpt lat="43.368720640328824" lon="10.816490818246972"><ele>103.0</ele><time>2026-04-19T10:53:32Z</time></trkpt><trkpt lat="43.368795629210496" lon="10.816541606712212"><ele>103.49999999999999</ele><time>2026-04-19T10:53:33Z</time></trkpt><trkpt lat="43.36886297485892" lon="10.816600134834657"><ele>104.0</ele><time>2026-04-19T10:53:34Z</time></trkpt><trkpt lat="43.368924323017445" lon="10.816690615959434"><ele>106.33333333333333</ele><time>2026-04-19T10:53:35Z</time></trkpt><trkpt lat="43.36897663915955" lon="10.816823630915971"><ele>108.66666666666666</ele><time>2026-04-19T10:53:36Z</time></trkpt><trkpt lat="43.3690372647612" lon="10.8170163029026"><ele>111.0</ele><time>2026-04-19T10:53:37Z</time></trkpt><trkpt lat="43.36910397950355" lon="10.817289679900908"><ele>111.0</ele><time>2026-04-19T10:53:38Z</time></trkpt><trkpt lat="43.36920147049704" lon="10.817615214303641"><ele>111.0</ele><time>2026-04-19T10:53:39Z</time></trkpt><trkpt lat="43.36931670709113" lon="10.817964319837378"><ele>115.0</ele><time>2026-04-19T10:53:40Z</time></trkpt><trkpt lat="43.36939255143951" lon="10.818301939801646"><ele>119.0</ele><time>2026-04-19T10:53:41Z</time></trkpt><trkpt lat="43.36947987984126" lon="10.818599263508277"><ele>117.0</ele><time>2026-04-19T10:53:42Z</time></trkpt><trkpt lat="43.36960842493034" lon="10.818871656769007"><ele>115.0</ele><time>2026-04-19T10:53:43Z</time></trkpt><trkpt lat="43.36976954472273" lon="10.819152386313151"><ele>119.0</ele><time>2026-04-19T10:53:44Z</time></trkpt><trkpt lat="43.3699404854178" lon="10.819449838789298"><ele>123.0</ele><time>2026-04-19T10:53:45Z</time></trkpt><trkpt lat="43.37010064739165" lon="10.819737181111163"><ele>123.0</ele><time>2026-04-19T10:53:46Z</time></trkpt><trkpt lat="43.370251981934835" lon="10.819992161285358"><ele>123.0</ele><time>2026-04-19T10:53:47Z</time></trkpt><trkpt lat="43.37040479176734" lon="10.820206854110955"><ele>123.0</ele><time>2026-04-19T10:53:48Z</time></trkpt><trkpt lat="43.37059272692342" lon="10.820393796985078"><ele>123.0</ele><time>2026-04-19T10:53:49Z</time></trkpt><trkpt lat="43.3708038036105" lon="10.820564207348358"><ele>123.0</ele><time>2026-04-19T10:53:50Z</time></trkpt><trkpt lat="43.37102950509687" lon="10.820750157226689"><ele>123.0</ele><time>2026-04-19T10:53:51Z</time></trkpt><trkpt lat="43.37126506378518" lon="10.820953404443562"><ele>123.5</ele><time>2026-04-19T10:53:52Z</time></trkpt><trkpt lat="43.37151305110939" lon="10.821173703014463"><ele>124.0</ele><time>2026-04-19T10:53:53Z</time></trkpt><trkpt lat="43.37173331353884" lon="10.821374462939188"><ele>124.0</ele><time>2026-04-19T10:53:54Z</time></trkpt><trkpt lat="43.37192130162189" lon="10.821546669172811"><ele>124.0</ele><time>2026-04-19T10:53:55Z</time></trkpt><trkpt lat="43.37209422780485" lon="10.821696223281814"><ele>124.0</ele><time>2026-04-19T10:53:56.001Z</time></trkpt><trkpt lat="43.37226582974257" lon="10.82180953202887"><ele>124.0</ele><time>2026-04-19T10:53:57.001Z</time></trkpt><trkpt lat="43.372451373977874" lon="10.82183533118344"><ele>124.0</ele><time>2026-04-19T10:53:58Z</time></trkpt><trkpt lat="43.37266053686829" lon="10.821784485611632"><ele>124.0</ele><time>2026-04-19T10:53:59Z</time></trkpt><trkpt lat="43.37286090762447" lon="10.821777913353351"><ele>124.66666666666667</ele><time>2026-04-19T10:54:00Z</time></trkpt><trkpt lat="43.373015392117345" lon="10.82194289413697"><ele>125.33333333333334</ele><time>2026-04-19T10:54:01Z</time></trkpt><trkpt lat="43.3731593743594" lon="10.822153661130859"><ele>126.0</ele><time>2026-04-19T10:54:02Z</time></trkpt><trkpt lat="43.373291917112304" lon="10.822349682100464"><ele>126.0</ele><time>2026-04-19T10:54:03Z</time></trkpt><trkpt lat="43.37342873458363" lon="10.822492588605725"><ele>126.0</ele><time>2026-04-19T10:54:04Z</time></trkpt><trkpt lat="43.373615849117236" lon="10.82257108433792"><ele>126.0</ele><time>2026-04-19T10:54:05Z</time></trkpt><trkpt lat="43.3738517317407" lon="10.822568457295072"><ele>129.5</ele><time>2026-04-19T10:54:06Z</time></trkpt><trkpt lat="43.374104588965864" lon="10.822539061018793"><ele>133.0</ele><time>2026-04-19T10:54:07Z</time></trkpt><trkpt lat="43.37435411779664" lon="10.822442725381306"><ele>133.0</ele><time>2026-04-19T10:54:08Z</time></trkpt><trkpt lat="43.37458167188776" lon="10.822304954136946"><ele>133.0</ele><time>2026-04-19T10:54:09Z</time></trkpt><trkpt lat="43.37475522722438" lon="10.822223086903147"><ele>133.0</ele><time>2026-04-19T10:54:10Z</time></trkpt><trkpt lat="43.37491591152589" lon="10.82217619077515"><ele>133.0</ele><time>2026-04-19T10:54:11Z</time></trkpt><trkpt lat="43.37509570509932" lon="10.822197355086413"><ele>133.0</ele><time>2026-04-19T10:54:12Z</time></trkpt><trkpt lat="43.375314882232" lon="10.822270537688304"><ele>133.0</ele><time>2026-04-19T10:54:13Z</time></trkpt><trkpt lat="43.37557832431458" lon="10.822325522880291"><ele>131.0</ele><time>2026-04-19T10:54:14Z</time></trkpt><trkpt lat="43.37585204548449" lon="10.822378955737477"><ele>129.0</ele><time>2026-04-19T10:54:15Z</time></trkpt><trkpt lat="43.37614008665157" lon="10.822410038614796"><ele>129.0</ele><time>2026-04-19T10:54:16Z</time></trkpt><trkpt lat="43.376461474429874" lon="10.822429750027299"><ele>129.0</ele><time>2026-04-19T10:54:17Z</time></trkpt><trkpt lat="43.376768854927946" lon="10.822475119504434"><ele>129.0</ele><time>2026-04-19T10:54:18Z</time></trkpt><trkpt lat="43.37705016307643" lon="10.82249800513084"><ele>129.0</ele><time>2026-04-19T10:54:19Z</time></trkpt><trkpt lat="43.37728022340942" lon="10.822542857994756"><ele>129.66666666666666</ele><time>2026-04-19T10:54:20Z</time></trkpt><trkpt lat="43.377457426706314" lon="10.822652253925753"><ele>130.33333333333331</ele><time>2026-04-19T10:54:21Z</time></trkpt><trkpt lat="43.37759258406539" lon="10.822834882639835"><ele>131.0</ele><time>2026-04-19T10:54:22Z</time></trkpt><trkpt lat="43.377709371676495" lon="10.823091828260655"><ele>131.0</ele><time>2026-04-19T10:54:23Z</time></trkpt><trkpt lat="43.37783366220876" lon="10.823345161778754"><ele>131.0</ele><time>2026-04-19T10:54:24Z</time></trkpt><trkpt lat="43.377961820210096" lon="10.823535846841763"><ele>131.0</ele><time>2026-04-19T10:54:25Z</time></trkpt><trkpt lat="43.37813805800679" lon="10.823643174364378"><ele>134.0</ele><time>2026-04-19T10:54:26Z</time></trkpt><trkpt lat="43.37835895584646" lon="10.823705700346624"><ele>137.0</ele><time>2026-04-19T10:54:27Z</time></trkpt><trkpt lat="43.37859426138367" lon="10.823761542259048"><ele>137.0</ele><time>2026-04-19T10:54:28Z</time></trkpt><trkpt lat="43.37881687599714" lon="10.82384754049303"><ele>137.0</ele><time>2026-04-19T10:54:29Z</time></trkpt><trkpt lat="43.37899935501614" lon="10.824045261295645"><ele>140.5</ele><time>2026-04-19T10:54:30Z</time></trkpt><trkpt lat="43.37919959449526" lon="10.824268639568764"><ele>144.0</ele><time>2026-04-19T10:54:31Z</time></trkpt><trkpt lat="43.37939572356018" lon="10.824495804324538"><ele>147.0</ele><time>2026-04-19T10:54:32Z</time></trkpt><trkpt lat="43.37962704681726" lon="10.82466890529672"><ele>150.0</ele><time>2026-04-19T10:54:33Z</time></trkpt><trkpt lat="43.37985883713053" lon="10.82478656553307"><ele>151.0</ele><time>2026-04-19T10:54:34Z</time></trkpt><trkpt lat="43.38003559017258" lon="10.824900437181734"><ele>152.0</ele><time>2026-04-19T10:54:35Z</time></trkpt><trkpt lat="43.38014652732913" lon="10.825058659475992"><ele>153.0</ele><time>2026-04-19T10:54:36Z</time></trkpt><trkpt lat="43.380244884126476" lon="10.825223932044695"><ele>154.66666666666666</ele><time>2026-04-19T10:54:37Z</time></trkpt><trkpt lat="43.38028851239728" lon="10.82546794090826"><ele>156.33333333333331</ele><time>2026-04-19T10:54:38Z</time></trkpt><trkpt lat="43.3802956604577" lon="10.825753518803637"><ele>158.0</ele><time>2026-04-19T10:54:39Z</time></trkpt><trkpt lat="43.38028813720534" lon="10.826011489972622"><ele>158.0</ele><time>2026-04-19T10:54:40Z</time></trkpt><trkpt lat="43.38028673861631" lon="10.826264353929812"><ele>158.0</ele><time>2026-04-19T10:54:41Z</time></trkpt><trkpt lat="43.38029502019978" lon="10.826487266523221"><ele>158.0</ele><time>2026-04-19T10:54:42Z</time></trkpt><trkpt lat="43.38031466978671" lon="10.826677259913756"><ele>158.25</ele><time>2026-04-19T10:54:43Z</time></trkpt><trkpt lat="43.380364606197084" lon="10.826843473992689"><ele>158.5</ele><time>2026-04-19T10:54:44Z</time></trkpt><trkpt lat="43.38045530972531" lon="10.826963547684915"><ele>158.75</ele><time>2026-04-19T10:54:45Z</time></trkpt><trkpt lat="43.38055924105638" lon="10.827048955798613"><ele>159.0</ele><time>2026-04-19T10:54:46Z</time></trkpt><trkpt lat="43.38065873656024" lon="10.827118646000823"><ele>159.75</ele><time>2026-04-19T10:54:47Z</time></trkpt><trkpt lat="43.380749435394" lon="10.827194920842912"><ele>160.5</ele><time>2026-04-19T10:54:48Z</time></trkpt><trkpt lat="43.38083026148602" lon="10.827301977983238"><ele>161.25</ele><time>2026-04-19T10:54:49Z</time></trkpt><trkpt lat="43.380898104787306" lon="10.827459089799468"><ele>162.0</ele><time>2026-04-19T10:54:50Z</time></trkpt><trkpt lat="43.38094888001411" lon="10.827655662397628"><ele>162.0</ele><time>2026-04-19T10:54:51Z</time></trkpt><trkpt lat="43.3809890466106" lon="10.82785422622129"><ele>162.0</ele><time>2026-04-19T10:54:52Z</time></trkpt><trkpt lat="43.38102420339096" lon="10.828041651450222"><ele>162.0</ele><time>2026-04-19T10:54:53Z</time></trkpt><trkpt lat="43.381042515366296" lon="10.828227051561026"><ele>162.0</ele><time>2026-04-19T10:54:54Z</time></trkpt><trkpt lat="43.38103505930599" lon="10.828437845332825"><ele>160.0</ele><time>2026-04-19T10:54:55Z</time></trkpt><trkpt lat="43.381008024054566" lon="10.828724552079972"><ele>158.0</ele><time>2026-04-19T10:54:56Z</time></trkpt><trkpt lat="43.380968500512736" lon="10.829090016154161"><ele>159.0</ele><time>2026-04-19T10:54:57Z</time></trkpt><trkpt lat="43.380922024144304" lon="10.829529110597113"><ele>160.0</ele><time>2026-04-19T10:54:58Z</time></trkpt><trkpt lat="43.38085793257594" lon="10.830008655990845"><ele>160.5</ele><time>2026-04-19T10:54:59Z</time></trkpt><trkpt lat="43.3807893659873" lon="10.830438061801697"><ele>161.0</ele><time>2026-04-19T10:55:00Z</time></trkpt><trkpt lat="43.38074686319219" lon="10.830793757547466"><ele>163.0</ele><time>2026-04-19T10:55:01Z</time></trkpt><trkpt lat="43.38073687793316" lon="10.831110594264887"><ele>165.0</ele><time>2026-04-19T10:55:02Z</time></trkpt><trkpt lat="43.380771864970654" lon="10.831438225688952"><ele>165.0</ele><time>2026-04-19T10:55:03Z</time></trkpt><trkpt lat="43.38085047011104" lon="10.831783344848159"><ele>165.0</ele><time>2026-04-19T10:55:04Z</time></trkpt><trkpt lat="43.38094314717734" lon="10.832134150474323"><ele>165.0</ele><time>2026-04-19T10:55:05Z</time></trkpt><trkpt lat="43.381051736861515" lon="10.832488698210138"><ele>165.0</ele><time>2026-04-19T10:55:06Z</time></trkpt><trkpt lat="43.38119952154696" lon="10.832837611493451"><ele>166.5</ele><time>2026-04-19T10:55:07Z</time></trkpt><trkpt lat="43.381382783385845" lon="10.833194806393712"><ele>168.0</ele><time>2026-04-19T10:55:08Z</time></trkpt><trkpt lat="43.38158768598352" lon="10.833547425066664"><ele>171.5</ele><time>2026-04-19T10:55:09Z</time></trkpt><trkpt lat="43.381796916996564" lon="10.833900341211454"><ele>175.0</ele><time>2026-04-19T10:55:10Z</time></trkpt><trkpt lat="43.3820034641673" lon="10.834252525415936"><ele>176.0</ele><time>2026-04-19T10:55:11Z</time></trkpt><trkpt lat="43.382212703885706" lon="10.834595349711172"><ele>177.0</ele><time>2026-04-19T10:55:12Z</time></trkpt><trkpt lat="43.38242524878246" lon="10.8349146469475"><ele>176.5</ele><time>2026-04-19T10:55:13Z</time></trkpt><trkpt lat="43.382638867272945" lon="10.835210256628491"><ele>176.0</ele><time>2026-04-19T10:55:14Z</time></trkpt><trkpt lat="43.382837073828064" lon="10.83547760253607"><ele>176.0</ele><time>2026-04-19T10:55:15Z</time></trkpt><trkpt lat="43.38301105157189" lon="10.835717890694939"><ele>176.0</ele><time>2026-04-19T10:55:16Z</time></trkpt><trkpt lat="43.38316627576522" lon="10.83592949886407"><ele>177.0</ele><time>2026-04-19T10:55:17Z</time></trkpt><trkpt lat="43.38333571136878" lon="10.836135754503104"><ele>178.0</ele><time>2026-04-19T10:55:18Z</time></trkpt><trkpt lat="43.38351612679207" lon="10.83633917962097"><ele>178.0</ele><time>2026-04-19T10:55:19Z</time></trkpt><trkpt lat="43.383704434575186" lon="10.836545019113588"><ele>178.0</ele><time>2026-04-19T10:55:20Z</time></trkpt><trkpt lat="43.383891428926155" lon="10.836753791275898"><ele>178.66666666666669</ele><time>2026-04-19T10:55:21Z</time></trkpt><trkpt lat="43.38406222624471" lon="10.836953690099195"><ele>179.33333333333334</ele><time>2026-04-19T10:55:22Z</time></trkpt><trkpt lat="43.3842178439903" lon="10.837138019991384"><ele>180.0</ele><time>2026-04-19T10:55:23Z</time></trkpt><trkpt lat="43.38437293369428" lon="10.83731428481305"><ele>180.0</ele><time>2026-04-19T10:55:24Z</time></trkpt><trkpt lat="43.38451454210848" lon="10.837472596578866"><ele>180.0</ele><time>2026-04-19T10:55:25Z</time></trkpt><trkpt lat="43.38466756043497" lon="10.837610703513215"><ele>180.0</ele><time>2026-04-19T10:55:26Z</time></trkpt><trkpt lat="43.38485180960069" lon="10.837678703112243"><ele>183.33333333333334</ele><time>2026-04-19T10:55:27Z</time></trkpt><trkpt lat="43.385071175793605" lon="10.8376817952253"><ele>186.66666666666669</ele><time>2026-04-19T10:55:28Z</time></trkpt><trkpt lat="43.385292583548996" lon="10.83767213113056"><ele>190.0</ele><time>2026-04-19T10:55:29Z</time></trkpt><trkpt lat="43.385511000249444" lon="10.837683685330244"><ele>194.0</ele><time>2026-04-19T10:55:30Z</time></trkpt><trkpt lat="43.38572772451821" lon="10.837743933512007"><ele>198.0</ele><time>2026-04-19T10:55:31Z</time></trkpt><trkpt lat="43.385944158909034" lon="10.837856123320492"><ele>198.0</ele><time>2026-04-19T10:55:32Z</time></trkpt><trkpt lat="43.38616163373864" lon="10.83798240858827"><ele>198.0</ele><time>2026-04-19T10:55:33Z</time></trkpt><trkpt lat="43.38638500264084" lon="10.838113572470903"><ele>199.33333333333331</ele><time>2026-04-19T10:55:34Z</time></trkpt><trkpt lat="43.38658527820458" lon="10.838243681139332"><ele>200.66666666666666</ele><time>2026-04-19T10:55:35Z</time></trkpt><trkpt lat="43.3867606976439" lon="10.838365927507073"><ele>202.0</ele><time>2026-04-19T10:55:36Z</time></trkpt><trkpt lat="43.3869157513422" lon="10.838487451641102"><ele>205.33333333333331</ele><time>2026-04-19T10:55:37Z</time></trkpt><trkpt lat="43.3870357634942" lon="10.838657350111074"><ele>208.66666666666669</ele><time>2026-04-19T10:55:38Z</time></trkpt><trkpt lat="43.38710980352784" lon="10.838903896374221"><ele>212.0</ele><time>2026-04-19T10:55:39Z</time></trkpt><trkpt lat="43.38716330453888" lon="10.83913787488542"><ele>214.0</ele><time>2026-04-19T10:55:40Z</time></trkpt><trkpt lat="43.38726450630174" lon="10.839323311373393"><ele>216.0</ele><time>2026-04-19T10:55:41Z</time></trkpt><trkpt lat="43.387437877887926" lon="10.83947835855577"><ele>218.0</ele><time>2026-04-19T10:55:42Z</time></trkpt><trkpt lat="43.3876374483643" lon="10.839644691127512"><ele>218.0</ele><time>2026-04-19T10:55:43Z</time></trkpt><trkpt lat="43.387828821454136" lon="10.839865026488798"><ele>218.0</ele><time>2026-04-19T10:55:44Z</time></trkpt><trkpt lat="43.388017374527976" lon="10.84010771201183"><ele>219.5</ele><time>2026-04-19T10:55:45Z</time></trkpt><trkpt lat="43.388217191097944" lon="10.840348662685667"><ele>221.0</ele><time>2026-04-19T10:55:46Z</time></trkpt><trkpt lat="43.38841435189884" lon="10.840599736516838"><ele>221.0</ele><time>2026-04-19T10:55:47Z</time></trkpt><trkpt lat="43.38858335762662" lon="10.840844775841852"><ele>221.0</ele><time>2026-04-19T10:55:48Z</time></trkpt><trkpt lat="43.38873363028513" lon="10.841062847489757"><ele>222.66666666666669</ele><time>2026-04-19T10:55:49Z</time></trkpt><trkpt lat="43.38885069935682" lon="10.841266753912732"><ele>224.33333333333331</ele><time>2026-04-19T10:55:50Z</time></trkpt><trkpt lat="43.388923436386406" lon="10.841473028159898"><ele>226.0</ele><time>2026-04-19T10:55:51Z</time></trkpt><trkpt lat="43.38899174354646" lon="10.841655116350164"><ele>226.0</ele><time>2026-04-19T10:55:52Z</time></trkpt><trkpt lat="43.38911230706558" lon="10.841776634747921"><ele>226.0</ele><time>2026-04-19T10:55:53Z</time></trkpt><trkpt lat="43.389300531150425" lon="10.84182176369601"><ele>226.0</ele><time>2026-04-19T10:55:54Z</time></trkpt><trkpt lat="43.389484450548856" lon="10.841816695466198"><ele>226.66666666666666</ele><time>2026-04-19T10:55:55Z</time></trkpt><trkpt lat="43.38969746682173" lon="10.841796172218013"><ele>227.33333333333331</ele><time>2026-04-19T10:55:56Z</time></trkpt><trkpt lat="43.38991276979544" lon="10.841782358027661"><ele>228.0</ele><time>2026-04-19T10:55:57Z</time></trkpt><trkpt lat="43.39013805146472" lon="10.841768202343069"><ele>228.0</ele><time>2026-04-19T10:55:58Z</time></trkpt><trkpt lat="43.390364260174564" lon="10.841748673406693"><ele>228.0</ele><time>2026-04-19T10:55:59Z</time></trkpt><trkpt lat="43.39056876887258" lon="10.841769274964697"><ele>228.0</ele><time>2026-04-19T10:56:00Z</time></trkpt><trkpt lat="43.3907474917912" lon="10.841842788463588"><ele>232.33333333333331</ele><time>2026-04-19T10:56:01Z</time></trkpt><trkpt lat="43.39088898604169" lon="10.841996868181344"><ele>236.66666666666666</ele><time>2026-04-19T10:56:02Z</time></trkpt><trkpt lat="43.39104261259451" lon="10.84218578021249"><ele>241.0</ele><time>2026-04-19T10:56:03Z</time></trkpt><trkpt lat="43.391172637507566" lon="10.842359685696929"><ele>241.0</ele><time>2026-04-19T10:56:04Z</time></trkpt><trkpt lat="43.391255018764376" lon="10.8424990262125"><ele>241.00000000000003</ele><time>2026-04-19T10:56:05Z</time></trkpt><trkpt lat="43.39129997200821" lon="10.84261989832209"><ele>241.00000000000003</ele><time>2026-04-19T10:56:06Z</time></trkpt><trkpt lat="43.39124631706246" lon="10.84274888957508"><ele>241.0</ele><time>2026-04-19T10:56:07Z</time></trkpt><trkpt lat="43.39119908619382" lon="10.842826406522207"><ele>241.0</ele><time>2026-04-19T10:56:08Z</time></trkpt><trkpt lat="43.391003582825284" lon="10.842729984220787"><ele>241.0</ele><time>2026-04-19T10:56:09Z</time></trkpt><trkpt lat="43.39087446591528" lon="10.842603147015742"><ele>241.0</ele><time>2026-04-19T10:56:10Z</time></trkpt><trkpt lat="43.39070366805112" lon="10.84248951383901"><ele>241.0</ele><time>2026-04-19T10:56:11Z</time></trkpt><trkpt lat="43.39055160143521" lon="10.842426852740186"><ele>240.66666666666666</ele><time>2026-04-19T10:56:12Z</time></trkpt><trkpt lat="43.39041577958635" lon="10.842483441857478"><ele>240.33333333333331</ele><time>2026-04-19T10:56:13Z</time></trkpt><trkpt lat="43.39029762897625" lon="10.842635365156232"><ele>240.0</ele><time>2026-04-19T10:56:14Z</time></trkpt><trkpt lat="43.39023885439773" lon="10.842823332547116"><ele>245.0</ele><time>2026-04-19T10:56:15Z</time></trkpt><trkpt lat="43.39022602188274" lon="10.843026712675966"><ele>250.0</ele><time>2026-04-19T10:56:16Z</time></trkpt><trkpt lat="43.39026146564828" lon="10.843245806357558"><ele>255.0</ele><time>2026-04-19T10:56:17Z</time></trkpt><trkpt lat="43.390364001685846" lon="10.843445059268765"><ele>256.6666666666667</ele><time>2026-04-19T10:56:18Z</time></trkpt><trkpt lat="43.390528726793015" lon="10.843578217435125"><ele>258.33333333333337</ele><time>2026-04-19T10:56:19Z</time></trkpt><trkpt lat="43.39070223868173" lon="10.843680366200457"><ele>260.0</ele><time>2026-04-19T10:56:20Z</time></trkpt><trkpt lat="43.39085072306924" lon="10.843794946381701"><ele>260.0</ele><time>2026-04-19T10:56:21Z</time></trkpt><trkpt lat="43.39094227132565" lon="10.843909999529338"><ele>260.0</ele><time>2026-04-19T10:56:22Z</time></trkpt><trkpt lat="43.39095417926942" lon="10.844053424584052"><ele>260.0</ele><time>2026-04-19T10:56:23Z</time></trkpt><trkpt lat="43.39094307103789" lon="10.84419172061895"><ele>260.0</ele><time>2026-04-19T10:56:24Z</time></trkpt><trkpt lat="43.39086119458753" lon="10.844312963252893"><ele>260.0</ele><time>2026-04-19T10:56:25Z</time></trkpt><trkpt lat="43.390719592807955" lon="10.844364452145008"><ele>260.0</ele><time>2026-04-19T10:56:26Z</time></trkpt><trkpt lat="43.39054382048398" lon="10.84428493015444"><ele>260.0</ele><time>2026-04-19T10:56:27Z</time></trkpt><trkpt lat="43.39034692007316" lon="10.844228701469955"><ele>261.6666666666667</ele><time>2026-04-19T10:56:28Z</time></trkpt><trkpt lat="43.39013285747142" lon="10.844184434356379"><ele>263.3333333333333</ele><time>2026-04-19T10:56:29Z</time></trkpt><trkpt lat="43.38991845261946" lon="10.844128691933411"><ele>265.0</ele><time>2026-04-19T10:56:30Z</time></trkpt><trkpt lat="43.38970972573743" lon="10.844146603190854"><ele>265.0</ele><time>2026-04-19T10:56:31Z</time></trkpt><trkpt lat="43.38947837279222" lon="10.84422456961112"><ele>265.0</ele><time>2026-04-19T10:56:32Z</time></trkpt><trkpt lat="43.389236849525616" lon="10.844311981099304"><ele>264.3333333333333</ele><time>2026-04-19T10:56:33Z</time></trkpt><trkpt lat="43.38903616447911" lon="10.844379595232688"><ele>263.6666666666667</ele><time>2026-04-19T10:56:34Z</time></trkpt><trkpt lat="43.388884440606944" lon="10.844455571752922"><ele>263.0</ele><time>2026-04-19T10:56:35Z</time></trkpt><trkpt lat="43.38876235031087" lon="10.844599660374907"><ele>263.0</ele><time>2026-04-19T10:56:36Z</time></trkpt><trkpt lat="43.38867157888952" lon="10.844830586249238"><ele>263.0</ele><time>2026-04-19T10:56:37Z</time></trkpt><trkpt lat="43.38862314156619" lon="10.845121684485184"><ele>263.0</ele><time>2026-04-19T10:56:38Z</time></trkpt><trkpt lat="43.388616044601285" lon="10.845435026894537"><ele>263.33333333333337</ele><time>2026-04-19T10:56:39Z</time></trkpt><trkpt lat="43.38863026297936" lon="10.845704261077135"><ele>263.6666666666667</ele><time>2026-04-19T10:56:40Z</time></trkpt><trkpt lat="43.38868268991013" lon="10.845908605283912"><ele>264.0</ele><time>2026-04-19T10:56:41Z</time></trkpt><trkpt lat="43.38880618704129" lon="10.846084462788635"><ele>270.5</ele><time>2026-04-19T10:56:42Z</time></trkpt><trkpt lat="43.38900797174034" lon="10.846217490880193"><ele>277.0</ele><time>2026-04-19T10:56:43Z</time></trkpt><trkpt lat="43.389221907569045" lon="10.846323141395338"><ele>277.0</ele><time>2026-04-19T10:56:44Z</time></trkpt><trkpt lat="43.38942958299958" lon="10.846401979359488"><ele>277.0</ele><time>2026-04-19T10:56:45Z</time></trkpt><trkpt lat="43.38961949738612" lon="10.846405444954836"><ele>277.0</ele><time>2026-04-19T10:56:46Z</time></trkpt><trkpt lat="43.389796273615055" lon="10.846288479347432"><ele>281.3333333333333</ele><time>2026-04-19T10:56:47Z</time></trkpt><trkpt lat="43.38996106071636" lon="10.846109597794188"><ele>285.6666666666667</ele><time>2026-04-19T10:56:48Z</time></trkpt><trkpt lat="43.39013352678143" lon="10.846020112533779"><ele>290.0</ele><time>2026-04-19T10:56:49Z</time></trkpt><trkpt lat="43.390281976503964" lon="10.84598965590408"><ele>290.0</ele><time>2026-04-19T10:56:50Z</time></trkpt><trkpt lat="43.39041782483574" lon="10.846024719010643"><ele>290.0</ele><time>2026-04-19T10:56:51Z</time></trkpt><trkpt lat="43.390540432732564" lon="10.846110006094419"><ele>290.0</ele><time>2026-04-19T10:56:52Z</time></trkpt><trkpt lat="43.39065788396676" lon="10.846261582044082"><ele>290.0</ele><time>2026-04-19T10:56:53Z</time></trkpt><trkpt lat="43.390762368620074" lon="10.846481395972837"><ele>290.33333333333337</ele><time>2026-04-19T10:56:54Z</time></trkpt><trkpt lat="43.3908771292425" lon="10.846732271118523"><ele>290.6666666666667</ele><time>2026-04-19T10:56:55Z</time></trkpt><trkpt lat="43.39098615440953" lon="10.847003858173336"><ele>291.0</ele><time>2026-04-19T10:56:56Z</time></trkpt><trkpt lat="43.391104068055455" lon="10.847278668256982"><ele>291.0</ele><time>2026-04-19T10:56:57Z</time></trkpt><trkpt lat="43.39122368251661" lon="10.847553056226761"><ele>291.0</ele><time>2026-04-19T10:56:58Z</time></trkpt><trkpt lat="43.39135960363186" lon="10.847826413045173"><ele>291.0</ele><time>2026-04-19T10:56:59Z</time></trkpt><trkpt lat="43.391535835412135" lon="10.848073886369107"><ele>291.0</ele><time>2026-04-19T10:57:00Z</time></trkpt><trkpt lat="43.39174506540586" lon="10.84830119716832"><ele>295.0</ele><time>2026-04-19T10:57:01Z</time></trkpt><trkpt lat="43.391962969507055" lon="10.848517185592527"><ele>299.0</ele><time>2026-04-19T10:57:02Z</time></trkpt><trkpt lat="43.39218189387728" lon="10.848736662990763"><ele>299.0</ele><time>2026-04-19T10:57:03Z</time></trkpt><trkpt lat="43.3924039933956" lon="10.848936223042188"><ele>299.0</ele><time>2026-04-19T10:57:04Z</time></trkpt><trkpt lat="43.39264257336332" lon="10.849074138290867"><ele>299.0</ele><time>2026-04-19T10:57:05Z</time></trkpt><trkpt lat="43.392906941901664" lon="10.849145153130259"><ele>299.0</ele><time>2026-04-19T10:57:06Z</time></trkpt><trkpt lat="43.393177872195956" lon="10.849153424176546"><ele>304.5</ele><time>2026-04-19T10:57:07Z</time></trkpt><trkpt lat="43.39343913510936" lon="10.849098275569759"><ele>310.0</ele><time>2026-04-19T10:57:08Z</time></trkpt><trkpt lat="43.39369580354811" lon="10.849047136617699"><ele>311.3333333333333</ele><time>2026-04-19T10:57:09Z</time></trkpt><trkpt lat="43.39393353843936" lon="10.849063403551664"><ele>312.6666666666667</ele><time>2026-04-19T10:57:10Z</time></trkpt><trkpt lat="43.394128296142476" lon="10.8491328527313"><ele>314.0</ele><time>2026-04-19T10:57:11Z</time></trkpt><trkpt lat="43.39428570869777" lon="10.849189654120243"><ele>314.0</ele><time>2026-04-19T10:57:12Z</time></trkpt><trkpt lat="43.394441425167585" lon="10.84917657026693"><ele>314.0</ele><time>2026-04-19T10:57:13Z</time></trkpt><trkpt lat="43.3945814664117" lon="10.849025803697279"><ele>314.0</ele><time>2026-04-19T10:57:14Z</time></trkpt><trkpt lat="43.39469506955839" lon="10.848784275400016"><ele>315.6666666666667</ele><time>2026-04-19T10:57:15Z</time></trkpt><trkpt lat="43.394741054548575" lon="10.84848637872899"><ele>317.3333333333333</ele><time>2026-04-19T10:57:16Z</time></trkpt><trkpt lat="43.39481877548677" lon="10.848282215981794"><ele>319.0</ele><time>2026-04-19T10:57:17Z</time></trkpt><trkpt lat="43.39491175594277" lon="10.848152819518843"><ele>319.0</ele><time>2026-04-19T10:57:18Z</time></trkpt><trkpt lat="43.395032685692584" lon="10.848054069523556"><ele>319.0</ele><time>2026-04-19T10:57:19Z</time></trkpt><trkpt lat="43.39516003554672" lon="10.848050742109663"><ele>319.0</ele><time>2026-04-19T10:57:20Z</time></trkpt><trkpt lat="43.39526357307762" lon="10.848113375807475"><ele>319.0</ele><time>2026-04-19T10:57:21Z</time></trkpt><trkpt lat="43.395310175930064" lon="10.848287904344327"><ele>321.0</ele><time>2026-04-19T10:57:22Z</time></trkpt><trkpt lat="43.395249693700386" lon="10.848473565294825"><ele>323.0</ele><time>2026-04-19T10:57:23Z</time></trkpt><trkpt lat="43.3952016396471" lon="10.848697181889047"><ele>325.0</ele><time>2026-04-19T10:57:24Z</time></trkpt><trkpt lat="43.39512679954604" lon="10.848948821214607"><ele>325.0</ele><time>2026-04-19T10:57:25Z</time></trkpt><trkpt lat="43.39505659787919" lon="10.849237373019902"><ele>325.0</ele><time>2026-04-19T10:57:26Z</time></trkpt><trkpt lat="43.394971967821746" lon="10.849537510339447"><ele>327.66666666666663</ele><time>2026-04-19T10:57:27Z</time></trkpt><trkpt lat="43.39487648572381" lon="10.849823586547595"><ele>330.3333333333333</ele><time>2026-04-19T10:57:28Z</time></trkpt><trkpt lat="43.39478657671027" lon="10.850055132861565"><ele>333.0</ele><time>2026-04-19T10:57:29Z</time></trkpt><trkpt lat="43.39472161689012" lon="10.850238970035761"><ele>333.0</ele><time>2026-04-19T10:57:30Z</time></trkpt><trkpt lat="43.39468653434455" lon="10.850378137136314"><ele>333.0</ele><time>2026-04-19T10:57:31Z</time></trkpt><trkpt lat="43.394699103452325" lon="10.850495910657932"><ele>333.0</ele><time>2026-04-19T10:57:32Z</time></trkpt><trkpt lat="43.394782346535735" lon="10.850577518629699"><ele>333.0</ele><time>2026-04-19T10:57:33Z</time></trkpt><trkpt lat="43.39489852903531" lon="10.85055495116721"><ele>333.0</ele><time>2026-04-19T10:57:34Z</time></trkpt><trkpt lat="43.39497834596838" lon="10.850411783080313"><ele>333.0</ele><time>2026-04-19T10:57:35Z</time></trkpt><trkpt lat="43.39500607595512" lon="10.850198877761658"><ele>333.0</ele><time>2026-04-19T10:57:36Z</time></trkpt><trkpt lat="43.3950836758948" lon="10.849994139644894"><ele>333.0</ele><time>2026-04-19T10:57:37Z</time></trkpt><trkpt lat="43.395207539264916" lon="10.849822147629592"><ele>333.3333333333333</ele><time>2026-04-19T10:57:38Z</time></trkpt><trkpt lat="43.39537277322548" lon="10.849665087401942"><ele>333.66666666666663</ele><time>2026-04-19T10:57:39Z</time></trkpt><trkpt lat="43.39556254787039" lon="10.849488598253041"><ele>334.0</ele><time>2026-04-19T10:57:40Z</time></trkpt><trkpt lat="43.3957576196618" lon="10.849330623644319"><ele>336.0</ele><time>2026-04-19T10:57:41Z</time></trkpt><trkpt lat="43.39597729249913" lon="10.849203330693303"><ele>338.0</ele><time>2026-04-19T10:57:42Z</time></trkpt><trkpt lat="43.39618785604578" lon="10.8491146013282"><ele>342.0</ele><time>2026-04-19T10:57:43Z</time></trkpt><trkpt lat="43.396368497378965" lon="10.848983344644056"><ele>346.0</ele><time>2026-04-19T10:57:44Z</time></trkpt><trkpt lat="43.396554752777995" lon="10.84884049913077"><ele>350.0</ele><time>2026-04-19T10:57:45Z</time></trkpt><trkpt lat="43.396703686403974" lon="10.848623939021133"><ele>348.5</ele><time>2026-04-19T10:57:46Z</time></trkpt><trkpt lat="43.39682673471608" lon="10.848442810863277"><ele>347.0</ele><time>2026-04-19T10:57:47Z</time></trkpt><trkpt lat="43.39693597185941" lon="10.848318814058965"><ele>345.5</ele><time>2026-04-19T10:57:48Z</time></trkpt><trkpt lat="43.39703950934992" lon="10.848252596437591"><ele>344.0</ele><time>2026-04-19T10:57:49Z</time></trkpt><trkpt lat="43.39714515911771" lon="10.848264888068805"><ele>345.5</ele><time>2026-04-19T10:57:50Z</time></trkpt><trkpt lat="43.397235266387725" lon="10.848379713186608"><ele>347.0</ele><time>2026-04-19T10:57:51Z</time></trkpt><trkpt lat="43.39725835397503" lon="10.848565751456517"><ele>348.5</ele><time>2026-04-19T10:57:52Z</time></trkpt><trkpt lat="43.397194735363584" lon="10.84876963471448"><ele>350.0</ele><time>2026-04-19T10:57:53Z</time></trkpt><trkpt lat="43.397086382674956" lon="10.848978588390102"><ele>350.0</ele><time>2026-04-19T10:57:54Z</time></trkpt><trkpt lat="43.39696654749199" lon="10.849201275806962"><ele>350.0</ele><time>2026-04-19T10:57:55Z</time></trkpt><trkpt lat="43.396853616294415" lon="10.849449362987706"><ele>350.0</ele><time>2026-04-19T10:57:56Z</time></trkpt><trkpt lat="43.39673600440767" lon="10.849725048995431"><ele>355.0</ele><time>2026-04-19T10:57:57Z</time></trkpt><trkpt lat="43.39662575321385" lon="10.850020183382588"><ele>360.0</ele><time>2026-04-19T10:57:58Z</time></trkpt><trkpt lat="43.39653656205549" lon="10.85035976529613"><ele>364.0</ele><time>2026-04-19T10:57:59Z</time></trkpt><trkpt lat="43.396463118573415" lon="10.850744812496423"><ele>368.0</ele><time>2026-04-19T10:58:00Z</time></trkpt><trkpt lat="43.39639794120449" lon="10.851133730044372"><ele>366.0</ele><time>2026-04-19T10:58:01Z</time></trkpt><trkpt lat="43.39634147343262" lon="10.851527990145472"><ele>364.0</ele><time>2026-04-19T10:58:02Z</time></trkpt><trkpt lat="43.3963085981063" lon="10.851872163367029"><ele>364.0</ele><time>2026-04-19T10:58:03Z</time></trkpt><trkpt lat="43.396284798117925" lon="10.852178241702708"><ele>364.0</ele><time>2026-04-19T10:58:04Z</time></trkpt><trkpt lat="43.396237527123255" lon="10.852448688512798"><ele>364.0</ele><time>2026-04-19T10:58:05Z</time></trkpt><trkpt lat="43.396155348983854" lon="10.852681873666674"><ele>366.66666666666663</ele><time>2026-04-19T10:58:06Z</time></trkpt><trkpt lat="43.396031180133555" lon="10.852862352403767"><ele>369.3333333333333</ele><time>2026-04-19T10:58:07Z</time></trkpt><trkpt lat="43.39589011283843" lon="10.852957895902648"><ele>372.0</ele><time>2026-04-19T10:58:08Z</time></trkpt><trkpt lat="43.39577230176056" lon="10.853011348852467"><ele>372.00000000000006</ele><time>2026-04-19T10:58:09Z</time></trkpt><trkpt lat="43.395702911227126" lon="10.85308112967316"><ele>372.0</ele><time>2026-04-19T10:58:10Z</time></trkpt><trkpt lat="43.395666145963034" lon="10.85317806305918"><ele>372.0</ele><time>2026-04-19T10:58:11Z</time></trkpt><trkpt lat="43.39564441162456" lon="10.853278227452027"><ele>372.0</ele><time>2026-04-19T10:58:12Z</time></trkpt><trkpt lat="43.39564762131711" lon="10.853370381526288"><ele>372.0</ele><time>2026-04-19T10:58:13Z</time></trkpt><trkpt lat="43.39567680136002" lon="10.85345356114199"><ele>372.00000000000006</ele><time>2026-04-19T10:58:14Z</time></trkpt><trkpt lat="43.39572902744801" lon="10.853525595630321"><ele>372.0</ele><time>2026-04-19T10:58:15Z</time></trkpt><trkpt lat="43.395807201163215" lon="10.853551677588623"><ele>372.0</ele><time>2026-04-19T10:58:16Z</time></trkpt><trkpt lat="43.39589497345044" lon="10.853500440068162"><ele>372.0</ele><time>2026-04-19T10:58:17Z</time></trkpt><trkpt lat="43.395980072075396" lon="10.853385806083308"><ele>372.0</ele><time>2026-04-19T10:58:18Z</time></trkpt><trkpt lat="43.396080746210195" lon="10.853261397889126"><ele>372.0</ele><time>2026-04-19T10:58:19Z</time></trkpt><trkpt lat="43.39623470459446" lon="10.85314877436376"><ele>377.33333333333337</ele><time>2026-04-19T10:58:20Z</time></trkpt><trkpt lat="43.39641221974028" lon="10.853044112158917"><ele>382.6666666666667</ele><time>2026-04-19T10:58:21Z</time></trkpt><trkpt lat="43.396577452603026" lon="10.852925582117509"><ele>388.0</ele><time>2026-04-19T10:58:22Z</time></trkpt><trkpt lat="43.396746746746985" lon="10.852784283499467"><ele>386.0</ele><time>2026-04-19T10:58:23Z</time></trkpt><trkpt lat="43.39691783701014" lon="10.852606900990446"><ele>384.0</ele><time>2026-04-19T10:58:24Z</time></trkpt><trkpt lat="43.397071767227814" lon="10.852385285812218"><ele>382.0</ele><time>2026-04-19T10:58:25Z</time></trkpt><trkpt lat="43.39719982964213" lon="10.852136317920104"><ele>384.0</ele><time>2026-04-19T10:58:26Z</time></trkpt><trkpt lat="43.39731338905268" lon="10.851916528420153"><ele>386.0</ele><time>2026-04-19T10:58:27Z</time></trkpt><trkpt lat="43.39742770998493" lon="10.851738540078385"><ele>388.0</ele><time>2026-04-19T10:58:28Z</time></trkpt><trkpt lat="43.39755506702262" lon="10.851588417445475"><ele>388.0</ele><time>2026-04-19T10:58:29Z</time></trkpt><trkpt lat="43.397705307494036" lon="10.851465655907184"><ele>388.0</ele><time>2026-04-19T10:58:30Z</time></trkpt><trkpt lat="43.3978711539087" lon="10.851359948922314"><ele>388.0</ele><time>2026-04-19T10:58:31Z</time></trkpt><trkpt lat="43.39801729980805" lon="10.85126671648048"><ele>390.5</ele><time>2026-04-19T10:58:32Z</time></trkpt><trkpt lat="43.39813431568719" lon="10.851183421407285"><ele>393.0</ele><time>2026-04-19T10:58:33Z</time></trkpt><trkpt lat="43.39823547927857" lon="10.851146643921654"><ele>395.5</ele><time>2026-04-19T10:58:34Z</time></trkpt><trkpt lat="43.39833336378233" lon="10.851193259035478"><ele>398.0</ele><time>2026-04-19T10:58:35Z</time></trkpt><trkpt lat="43.398429489579634" lon="10.851314314279367"><ele>398.0</ele><time>2026-04-19T10:58:36Z</time></trkpt><trkpt lat="43.398506639950035" lon="10.851492946095183"><ele>398.0</ele><time>2026-04-19T10:58:37Z</time></trkpt><trkpt lat="43.398545782799616" lon="10.851721819783496"><ele>398.0</ele><time>2026-04-19T10:58:38Z</time></trkpt><trkpt lat="43.39860247289419" lon="10.85197594856983"><ele>399.66666666666663</ele><time>2026-04-19T10:58:39Z</time></trkpt><trkpt lat="43.39865962716711" lon="10.85224455427769"><ele>401.33333333333337</ele><time>2026-04-19T10:58:40Z</time></trkpt><trkpt lat="43.398744580364074" lon="10.852476471835104"><ele>403.0</ele><time>2026-04-19T10:58:41Z</time></trkpt><trkpt lat="43.398889828893466" lon="10.852670921237523"><ele>405.33333333333337</ele><time>2026-04-19T10:58:42Z</time></trkpt><trkpt lat="43.39906258368468" lon="10.852848234487219"><ele>407.66666666666663</ele><time>2026-04-19T10:58:43Z</time></trkpt><trkpt lat="43.399210829921586" lon="10.85301494741803"><ele>410.0</ele><time>2026-04-19T10:58:44Z</time></trkpt><trkpt lat="43.39932630146873" lon="10.853143128520014"><ele>410.0</ele><time>2026-04-19T10:58:45Z</time></trkpt><trkpt lat="43.399436838746105" lon="10.853195688700723"><ele>410.0</ele><time>2026-04-19T10:58:46Z</time></trkpt><trkpt lat="43.39957554802705" lon="10.853166644834706"><ele>410.0</ele><time>2026-04-19T10:58:47Z</time></trkpt><trkpt lat="43.39969968129874" lon="10.853040105796076"><ele>410.0</ele><time>2026-04-19T10:58:48Z</time></trkpt><trkpt lat="43.399795488912694" lon="10.852842675245508"><ele>410.3333333333333</ele><time>2026-04-19T10:58:49Z</time></trkpt><trkpt lat="43.39990823474341" lon="10.852628909395602"><ele>410.66666666666663</ele><time>2026-04-19T10:58:50Z</time></trkpt><trkpt lat="43.40004571498712" lon="10.852447755639368"><ele>411.0</ele><time>2026-04-19T10:58:51Z</time></trkpt><trkpt lat="43.40019993237143" lon="10.852307444870481"><ele>411.0</ele><time>2026-04-19T10:58:52Z</time></trkpt><trkpt lat="43.400364193452944" lon="10.85216545770013"><ele>411.0</ele><time>2026-04-19T10:58:53Z</time></trkpt><trkpt lat="43.40052911204812" lon="10.85199819288797"><ele>411.0</ele><time>2026-04-19T10:58:54Z</time></trkpt><trkpt lat="43.40068943734558" lon="10.85185266633994"><ele>411.66666666666663</ele><time>2026-04-19T10:58:55Z</time></trkpt><trkpt lat="43.4008470603448" lon="10.85173601851942"><ele>412.3333333333333</ele><time>2026-04-19T10:58:56Z</time></trkpt><trkpt lat="43.40099718752051" lon="10.851647146638033"><ele>413.0</ele><time>2026-04-19T10:58:57Z</time></trkpt><trkpt lat="43.40116456974712" lon="10.851580426895524"><ele>417.3333333333333</ele><time>2026-04-19T10:58:58Z</time></trkpt><trkpt lat="43.4013638797536" lon="10.851506599666923"><ele>421.66666666666663</ele><time>2026-04-19T10:58:59Z</time></trkpt><trkpt lat="43.40157227246113" lon="10.851410873791517"><ele>426.0</ele><time>2026-04-19T10:59:00Z</time></trkpt><trkpt lat="43.401756298924404" lon="10.851337264698975"><ele>426.0</ele><time>2026-04-19T10:59:01Z</time></trkpt><trkpt lat="43.401881910113424" lon="10.85131527812352"><ele>426.0</ele><time>2026-04-19T10:59:02Z</time></trkpt><trkpt lat="43.401962902101275" lon="10.851293162835862"><ele>426.0</ele><time>2026-04-19T10:59:03Z</time></trkpt><trkpt lat="43.40201886275418" lon="10.851379386110239"><ele>426.0</ele><time>2026-04-19T10:59:04Z</time></trkpt><trkpt lat="43.402003689896084" lon="10.851515827100473"><ele>426.0</ele><time>2026-04-19T10:59:05Z</time></trkpt><trkpt lat="43.40192465341578" lon="10.851615513847626"><ele>426.0</ele><time>2026-04-19T10:59:06Z</time></trkpt><trkpt lat="43.401799494651804" lon="10.85168292590642"><ele>426.0</ele><time>2026-04-19T10:59:07Z</time></trkpt><trkpt lat="43.40165577527574" lon="10.851738004876454"><ele>426.0</ele><time>2026-04-19T10:59:08Z</time></trkpt><trkpt lat="43.40149190971479" lon="10.851853345986127"><ele>425.0</ele><time>2026-04-19T10:59:09Z</time></trkpt><trkpt lat="43.4013334377395" lon="10.851993369583427"><ele>424.0</ele><time>2026-04-19T10:59:10Z</time></trkpt><trkpt lat="43.40118892149067" lon="10.852166784647295"><ele>423.0</ele><time>2026-04-19T10:59:11Z</time></trkpt><trkpt lat="43.4010603361484" lon="10.852357001557376"><ele>423.0</ele><time>2026-04-19T10:59:12Z</time></trkpt><trkpt lat="43.40097739747085" lon="10.852537191454939"><ele>423.0</ele><time>2026-04-19T10:59:13Z</time></trkpt><trkpt lat="43.400957351849094" lon="10.852739865569225"><ele>423.0</ele><time>2026-04-19T10:59:14Z</time></trkpt><trkpt lat="43.40096117722146" lon="10.85296828401226"><ele>425.66666666666663</ele><time>2026-04-19T10:59:15Z</time></trkpt><trkpt lat="43.400938554142535" lon="10.853199437701743"><ele>428.3333333333333</ele><time>2026-04-19T10:59:16Z</time></trkpt><trkpt lat="43.40086914086776" lon="10.853432213272175"><ele>431.0</ele><time>2026-04-19T10:59:17Z</time></trkpt><trkpt lat="43.40077975694596" lon="10.85363111036977"><ele>433.0</ele><time>2026-04-19T10:59:18Z</time></trkpt><trkpt lat="43.4007072841301" lon="10.853801894332943"><ele>435.0</ele><time>2026-04-19T10:59:19Z</time></trkpt><trkpt lat="43.40066743611067" lon="10.853959208256184"><ele>437.0</ele><time>2026-04-19T10:59:20Z</time></trkpt><trkpt lat="43.40065632545804" lon="10.854117043264008"><ele>439.0</ele><time>2026-04-19T10:59:21Z</time></trkpt><trkpt lat="43.400651382259824" lon="10.854261785303738"><ele>439.25</ele><time>2026-04-19T10:59:22Z</time></trkpt><trkpt lat="43.40063372258986" lon="10.854402621553074"><ele>439.5</ele><time>2026-04-19T10:59:23Z</time></trkpt><trkpt lat="43.40059214764975" lon="10.854550615348"><ele>439.75</ele><time>2026-04-19T10:59:24Z</time></trkpt><trkpt lat="43.40052423351322" lon="10.854688007400377"><ele>440.0</ele><time>2026-04-19T10:59:25Z</time></trkpt><trkpt lat="43.400428390238304" lon="10.854814594693101"><ele>440.0</ele><time>2026-04-19T10:59:26Z</time></trkpt><trkpt lat="43.4003110344291" lon="10.854926583858681"><ele>440.0</ele><time>2026-04-19T10:59:27Z</time></trkpt><trkpt lat="43.4001806354875" lon="10.855018915348897"><ele>440.0</ele><time>2026-04-19T10:59:28Z</time></trkpt><trkpt lat="43.400046744374535" lon="10.855102816985065"><ele>440.0</ele><time>2026-04-19T10:59:29Z</time></trkpt><trkpt lat="43.3999097580686" lon="10.855196521760055"><ele>444.0</ele><time>2026-04-19T10:59:30Z</time></trkpt><trkpt lat="43.39977723871558" lon="10.855297026835853"><ele>448.0</ele><time>2026-04-19T10:59:31Z</time></trkpt><trkpt lat="43.399640917483545" lon="10.855393787167895"><ele>452.0</ele><time>2026-04-19T10:59:32Z</time></trkpt><trkpt lat="43.39950056945786" lon="10.855463209359085"><ele>452.0</ele><time>2026-04-19T10:59:33Z</time></trkpt><trkpt lat="43.39936120872413" lon="10.855492473800867"><ele>452.0</ele><time>2026-04-19T10:59:34Z</time></trkpt><trkpt lat="43.39922166313206" lon="10.855502136100785"><ele>452.0</ele><time>2026-04-19T10:59:35Z</time></trkpt><trkpt lat="43.39909234849215" lon="10.85551828831208"><ele>452.0</ele><time>2026-04-19T10:59:36Z</time></trkpt><trkpt lat="43.398979420019195" lon="10.855545442630937"><ele>452.0</ele><time>2026-04-19T10:59:37Z</time></trkpt><trkpt lat="43.398882552228955" lon="10.85560488801056"><ele>452.0</ele><time>2026-04-19T10:59:38Z</time></trkpt><trkpt lat="43.398819657514274" lon="10.85572195771405"><ele>452.0</ele><time>2026-04-19T10:59:39Z</time></trkpt><trkpt lat="43.39878844333496" lon="10.855882314056334"><ele>452.0</ele><time>2026-04-19T10:59:40Z</time></trkpt><trkpt lat="43.39878183839544" lon="10.85605759720911"><ele>451.0</ele><time>2026-04-19T10:59:41Z</time></trkpt><trkpt lat="43.398780852319085" lon="10.85622903116014"><ele>450.0</ele><time>2026-04-19T10:59:42Z</time></trkpt><trkpt lat="43.3987707847049" lon="10.856396280593861"><ele>449.0</ele><time>2026-04-19T10:59:43Z</time></trkpt><trkpt lat="43.398759224062545" lon="10.856558711439778"><ele>448.0</ele><time>2026-04-19T10:59:44Z</time></trkpt><trkpt lat="43.39876161197958" lon="10.856721519872329"><ele>449.5</ele><time>2026-04-19T10:59:45Z</time></trkpt><trkpt lat="43.39876635403328" lon="10.856894509811243"><ele>451.0</ele><time>2026-04-19T10:59:46Z</time></trkpt><trkpt lat="43.398774503247445" lon="10.857069554422376"><ele>452.5</ele><time>2026-04-19T10:59:47Z</time></trkpt><trkpt lat="43.39876585029159" lon="10.85725580858264"><ele>454.0</ele><time>2026-04-19T10:59:48Z</time></trkpt><trkpt lat="43.39871052316141" lon="10.857424337076969"><ele>454.0</ele><time>2026-04-19T10:59:49Z</time></trkpt><trkpt lat="43.398656489038835" lon="10.857587800658257"><ele>454.0</ele><time>2026-04-19T10:59:50Z</time></trkpt><trkpt lat="43.398605820793705" lon="10.857758932350416"><ele>454.0</ele><time>2026-04-19T10:59:51Z</time></trkpt><trkpt lat="43.398549142217746" lon="10.857909378595322"><ele>454.0</ele><time>2026-04-19T10:59:52Z</time></trkpt><trkpt lat="43.39850398500621" lon="10.858064784712715"><ele>454.5</ele><time>2026-04-19T10:59:53Z</time></trkpt><trkpt lat="43.398493491734165" lon="10.858231967731394"><ele>455.0</ele><time>2026-04-19T10:59:54Z</time></trkpt><trkpt lat="43.39852044022279" lon="10.858405260083513"><ele>455.5</ele><time>2026-04-19T10:59:55Z</time></trkpt><trkpt lat="43.39855362318765" lon="10.858579045490979"><ele>456.0</ele><time>2026-04-19T10:59:56Z</time></trkpt><trkpt lat="43.39857218039175" lon="10.858759161544116"><ele>456.33333333333337</ele><time>2026-04-19T10:59:57Z</time></trkpt><trkpt lat="43.39858856669946" lon="10.859125046276928"><ele>456.6666666666667</ele><time>2026-04-19T10:59:59Z</time></trkpt><trkpt lat="43.3985866878277" lon="10.859273526768026"><ele>457.0</ele><time>2026-04-19T11:00:00Z</time></trkpt><trkpt lat="43.39860646221215" lon="10.859381903198866"><ele>457.6</ele><time>2026-04-19T11:00:01Z</time></trkpt><trkpt lat="43.39867504801791" lon="10.859436222430432"><ele>458.20000000000005</ele><time>2026-04-19T11:00:02Z</time></trkpt><trkpt lat="43.398751506149914" lon="10.859454720309259"><ele>458.8</ele><time>2026-04-19T11:00:03Z</time></trkpt><trkpt lat="43.398835546612965" lon="10.859315703951191"><ele>459.4</ele><time>2026-04-19T11:00:04Z</time></trkpt><trkpt lat="43.3988745136138" lon="10.859171924348425"><ele>460.0</ele><time>2026-04-19T11:00:05Z</time></trkpt><trkpt lat="43.398911980482964" lon="10.859034002981037"><ele>464.0</ele><time>2026-04-19T11:00:06Z</time></trkpt><trkpt lat="43.398962806133476" lon="10.858906215585218"><ele>468.0</ele><time>2026-04-19T11:00:07Z</time></trkpt><trkpt lat="43.39902462303405" lon="10.858787774679826"><ele>472.0</ele><time>2026-04-19T11:00:08Z</time></trkpt><trkpt lat="43.399094402410896" lon="10.858684690441466"><ele>476.0</ele><time>2026-04-19T11:00:09Z</time></trkpt><trkpt lat="43.39916502328949" lon="10.858600750187962"><ele>480.0</ele><time>2026-04-19T11:00:10Z</time></trkpt><trkpt lat="43.39923767976531" lon="10.858533729985282"><ele>480.0</ele><time>2026-04-19T11:00:11Z</time></trkpt><trkpt lat="43.399311822666675" lon="10.858476071420403"><ele>480.0</ele><time>2026-04-19T11:00:12Z</time></trkpt><trkpt lat="43.39938213499828" lon="10.858431692509539"><ele>480.0</ele><time>2026-04-19T11:00:13Z</time></trkpt><trkpt lat="43.39945291121354" lon="10.858396593274815"><ele>480.0</ele><time>2026-04-19T11:00:14Z</time></trkpt><trkpt lat="43.399519418901875" lon="10.85836833551069"><ele>480.0</ele><time>2026-04-19T11:00:15Z</time></trkpt><trkpt lat="43.39959733653799" lon="10.858341372313955"><ele>480.0</ele><time>2026-04-19T11:00:16Z</time></trkpt><trkpt lat="43.39969210682961" lon="10.858308019123445"><ele>481.5</ele><time>2026-04-19T11:00:17Z</time></trkpt><trkpt lat="43.39980492563849" lon="10.858264711955497"><ele>483.0</ele><time>2026-04-19T11:00:18Z</time></trkpt><trkpt lat="43.399944080060116" lon="10.858213698086212"><ele>484.5</ele><time>2026-04-19T11:00:19Z</time></trkpt><trkpt lat="43.40009657526827" lon="10.858146453851106"><ele>486.0</ele><time>2026-04-19T11:00:20Z</time></trkpt><trkpt lat="43.4002243275716" lon="10.85808715363634"><ele>486.0</ele><time>2026-04-19T11:00:21Z</time></trkpt><trkpt lat="43.40031301735486" lon="10.858045109560493"><ele>486.0</ele><time>2026-04-19T11:00:22Z</time></trkpt><trkpt lat="43.400413254397634" lon="10.858075760536561"><ele>486.0</ele><time>2026-04-19T11:00:24Z</time></trkpt><trkpt lat="43.40043080793738" lon="10.858169698514867"><ele>486.0</ele><time>2026-04-19T11:00:25Z</time></trkpt><trkpt lat="43.40039714454934" lon="10.858273776260068"><ele>486.0</ele><time>2026-04-19T11:00:26Z</time></trkpt><trkpt lat="43.40032947870432" lon="10.858382640676492"><ele>489.25</ele><time>2026-04-19T11:00:27Z</time></trkpt><trkpt lat="43.40023934705432" lon="10.858499549421582"><ele>492.5</ele><time>2026-04-19T11:00:28Z</time></trkpt><trkpt lat="43.40014442333734" lon="10.858622150968044"><ele>495.75</ele><time>2026-04-19T11:00:29Z</time></trkpt><trkpt lat="43.40005076516936" lon="10.858749769281909"><ele>499.0</ele><time>2026-04-19T11:00:30Z</time></trkpt><trkpt lat="43.39995118948729" lon="10.858886548697896"><ele>499.0</ele><time>2026-04-19T11:00:31Z</time></trkpt><trkpt lat="43.399850938511456" lon="10.859025113381467"><ele>499.0</ele><time>2026-04-19T11:00:32Z</time></trkpt><trkpt lat="43.39974658215869" lon="10.859159353725378"><ele>499.0</ele><time>2026-04-19T11:00:33Z</time></trkpt><trkpt lat="43.39965093368995" lon="10.859284589794601"><ele>499.0</ele><time>2026-04-19T11:00:34Z</time></trkpt><trkpt lat="43.39956745412463" lon="10.859409633522908"><ele>496.75</ele><time>2026-04-19T11:00:35Z</time></trkpt><trkpt lat="43.3995137733563" lon="10.859560204452809"><ele>494.5</ele><time>2026-04-19T11:00:36Z</time></trkpt><trkpt lat="43.39949825386173" lon="10.859748687296653"><ele>492.25</ele><time>2026-04-19T11:00:37Z</time></trkpt><trkpt lat="43.399499293048066" lon="10.859955055315666"><ele>490.0</ele><time>2026-04-19T11:00:38Z</time></trkpt><trkpt lat="43.39949161075098" lon="10.860164151305433"><ele>490.0</ele><time>2026-04-19T11:00:39Z</time></trkpt><trkpt lat="43.39947465774471" lon="10.860377284328358"><ele>490.0</ele><time>2026-04-19T11:00:40Z</time></trkpt><trkpt lat="43.399459458359786" lon="10.860598183107186"><ele>490.0</ele><time>2026-04-19T11:00:41Z</time></trkpt><trkpt lat="43.39944560948134" lon="10.86083083952489"><ele>491.6666666666667</ele><time>2026-04-19T11:00:42Z</time></trkpt><trkpt lat="43.39942955322202" lon="10.861089175583956"><ele>493.33333333333337</ele><time>2026-04-19T11:00:43Z</time></trkpt><trkpt lat="43.39941267240779" lon="10.86135580585521"><ele>495.0</ele><time>2026-04-19T11:00:44Z</time></trkpt><trkpt lat="43.399391862109084" lon="10.861629468842837"><ele>497.66666666666663</ele><time>2026-04-19T11:00:45Z</time></trkpt><trkpt lat="43.39937302347484" lon="10.861897241707023"><ele>500.3333333333333</ele><time>2026-04-19T11:00:46Z</time></trkpt><trkpt lat="43.399352719381596" lon="10.862174634395396"><ele>503.0</ele><time>2026-04-19T11:00:47Z</time></trkpt><trkpt lat="43.39933491845968" lon="10.862428381214317"><ele>505.3333333333333</ele><time>2026-04-19T11:00:48Z</time></trkpt><trkpt lat="43.399319880198135" lon="10.86265664851301"><ele>507.66666666666663</ele><time>2026-04-19T11:00:49Z</time></trkpt><trkpt lat="43.39930636868952" lon="10.862870296535121"><ele>510.0</ele><time>2026-04-19T11:00:50Z</time></trkpt><trkpt lat="43.39929102276566" lon="10.863081377953504"><ele>510.0</ele><time>2026-04-19T11:00:51Z</time></trkpt><trkpt lat="43.39927560141442" lon="10.863267699761499"><ele>510.0</ele><time>2026-04-19T11:00:52Z</time></trkpt><trkpt lat="43.39926113578298" lon="10.86343861915322"><ele>510.0</ele><time>2026-04-19T11:00:53Z</time></trkpt><trkpt lat="43.39925004734496" lon="10.86360024674856"><ele>510.0</ele><time>2026-04-19T11:00:54Z</time></trkpt><trkpt lat="43.39923794629964" lon="10.86376479963998"><ele>511.25</ele><time>2026-04-19T11:00:55Z</time></trkpt><trkpt lat="43.39922476148156" lon="10.863932461190556"><ele>512.5</ele><time>2026-04-19T11:00:56Z</time></trkpt><trkpt lat="43.39921151042559" lon="10.864107340572389"><ele>513.75</ele><time>2026-04-19T11:00:57Z</time></trkpt><trkpt lat="43.39919744780459" lon="10.86428315412077"><ele>515.0</ele><time>2026-04-19T11:00:58Z</time></trkpt><trkpt lat="43.399183349647274" lon="10.864467856364616"><ele>515.5</ele><time>2026-04-19T11:00:59Z</time></trkpt><trkpt lat="43.39917149053213" lon="10.864659344039516"><ele>516.0</ele><time>2026-04-19T11:01:00Z</time></trkpt><trkpt lat="43.3991631462682" lon="10.864849512698534"><ele>516.5</ele><time>2026-04-19T11:01:01Z</time></trkpt><trkpt lat="43.399148501380274" lon="10.865039655983132"><ele>517.0</ele><time>2026-04-19T11:01:02Z</time></trkpt><trkpt lat="43.399133188569586" lon="10.86519538876311"><ele>517.2</ele><time>2026-04-19T11:01:03Z</time></trkpt><trkpt lat="43.399129561293215" lon="10.865325156933585"><ele>517.4000000000001</ele><time>2026-04-19T11:01:04Z</time></trkpt><trkpt lat="43.39913284428659" lon="10.865419627458214"><ele>517.5999999999999</ele><time>2026-04-19T11:01:05Z</time></trkpt><trkpt lat="43.39916426138459" lon="10.865540072325599"><ele>517.8</ele><time>2026-04-19T11:01:08Z</time></trkpt><trkpt lat="43.399319617516156" lon="10.865477263730172"><ele>518.0</ele><time>2026-04-19T11:01:12Z</time></trkpt><trkpt lat="43.39933582405277" lon="10.865366573167183"><ele>518.0</ele><time>2026-04-19T11:01:13Z</time></trkpt><trkpt lat="43.399362259976215" lon="10.865228857641519"><ele>518.0</ele><time>2026-04-19T11:01:14Z</time></trkpt><trkpt lat="43.39938751158931" lon="10.865082769720459"><ele>518.0</ele><time>2026-04-19T11:01:15Z</time></trkpt><trkpt lat="43.39941511776071" lon="10.864917311589373"><ele>518.0</ele><time>2026-04-19T11:01:16Z</time></trkpt><trkpt lat="43.39944718966792" lon="10.864722100735237"><ele>517.6666666666666</ele><time>2026-04-19T11:01:17Z</time></trkpt><trkpt lat="43.399480758132555" lon="10.864515417913317"><ele>517.3333333333334</ele><time>2026-04-19T11:01:18Z</time></trkpt><trkpt lat="43.39951684264639" lon="10.864300747925439"><ele>517.0</ele><time>2026-04-19T11:01:19Z</time></trkpt><trkpt lat="43.399555724996084" lon="10.86406753476157"><ele>516.3333333333334</ele><time>2026-04-19T11:01:20Z</time></trkpt><trkpt lat="43.399594012882446" lon="10.863813152433067"><ele>515.6666666666666</ele><time>2026-04-19T11:01:21Z</time></trkpt><trkpt lat="43.399623150676945" lon="10.86355917911038"><ele>515.0</ele><time>2026-04-19T11:01:22Z</time></trkpt><trkpt lat="43.399653569262" lon="10.863324527987066"><ele>524.0</ele><time>2026-04-19T11:01:23Z</time></trkpt><trkpt lat="43.39968117706332" lon="10.863104312715938"><ele>533.0</ele><time>2026-04-19T11:01:24Z</time></trkpt><trkpt lat="43.39970296971662" lon="10.862898469265806"><ele>542.0</ele><time>2026-04-19T11:01:25Z</time></trkpt><trkpt lat="43.39972063950962" lon="10.862701914793398"><ele>541.0</ele><time>2026-04-19T11:01:26Z</time></trkpt><trkpt lat="43.39973609607617" lon="10.862497977940764"><ele>540.0</ele><time>2026-04-19T11:01:27Z</time></trkpt><trkpt lat="43.39975820547954" lon="10.862279787418133"><ele>539.0</ele><time>2026-04-19T11:01:28Z</time></trkpt><trkpt lat="43.39979804890606" lon="10.862058481559508"><ele>539.0</ele><time>2026-04-19T11:01:29Z</time></trkpt><trkpt lat="43.39981039242936" lon="10.861829612597031"><ele>539.0</ele><time>2026-04-19T11:01:30Z</time></trkpt><trkpt lat="43.39985536841988" lon="10.86158981747622"><ele>539.0</ele><time>2026-04-19T11:01:31Z</time></trkpt><trkpt lat="43.39988720512251" lon="10.861339014064212"><ele>537.6666666666666</ele><time>2026-04-19T11:01:32Z</time></trkpt><trkpt lat="43.39991388535342" lon="10.861095041657183"><ele>536.3333333333334</ele><time>2026-04-19T11:01:33Z</time></trkpt><trkpt lat="43.39993572488181" lon="10.860874509093719"><ele>535.0</ele><time>2026-04-19T11:01:34Z</time></trkpt><trkpt lat="43.39996090824116" lon="10.860672988607103"><ele>533.5</ele><time>2026-04-19T11:01:35Z</time></trkpt><trkpt lat="43.39999053839452" lon="10.860491360547806"><ele>532.0</ele><time>2026-04-19T11:01:36Z</time></trkpt><trkpt lat="43.400036656348924" lon="10.860328145827864"><ele>530.5</ele><time>2026-04-19T11:01:37Z</time></trkpt><trkpt lat="43.40010503638155" lon="10.860196949838155"><ele>529.0</ele><time>2026-04-19T11:01:38Z</time></trkpt><trkpt lat="43.400172640127785" lon="10.860060935265365"><ele>525.8</ele><time>2026-04-19T11:01:39Z</time></trkpt><trkpt lat="43.400238556031596" lon="10.85992901906122"><ele>522.5999999999999</ele><time>2026-04-19T11:01:40Z</time></trkpt><trkpt lat="43.40030107131037" lon="10.85980394360287"><ele>519.4</ele><time>2026-04-19T11:01:41Z</time></trkpt><trkpt lat="43.40034336411291" lon="10.859683018933817"><ele>516.1999999999999</ele><time>2026-04-19T11:01:42Z</time></trkpt><trkpt lat="43.40039241836653" lon="10.859592604215145"><ele>513.0</ele><time>2026-04-19T11:01:43Z</time></trkpt><trkpt lat="43.40043195076889" lon="10.859506610443727"><ele>513.0</ele><time>2026-04-19T11:01:44Z</time></trkpt><trkpt lat="43.400471098148294" lon="10.859433533070344"><ele>513.0</ele><time>2026-04-19T11:01:45Z</time></trkpt><trkpt lat="43.40054270315449" lon="10.859296038040004"><ele>513.0</ele><time>2026-04-19T11:01:47Z</time></trkpt><trkpt lat="43.40058178419372" lon="10.85922581891373"><ele>513.0</ele><time>2026-04-19T11:01:48Z</time></trkpt><trkpt lat="43.40065755472961" lon="10.859133321730338"><ele>513.0</ele><time>2026-04-19T11:01:50Z</time></trkpt><trkpt lat="43.40072427646548" lon="10.859074795766787"><ele>513.0</ele><time>2026-04-19T11:01:53Z</time></trkpt><trkpt lat="43.4008011197281" lon="10.859030532095899"><ele>514.5714285714287</ele><time>2026-04-19T11:01:57Z</time></trkpt><trkpt lat="43.400878769339485" lon="10.859040712124221"><ele>516.1428571428571</ele><time>2026-04-19T11:02:00Z</time></trkpt><trkpt lat="43.40091816043229" lon="10.859113922582608"><ele>517.7142857142858</ele><time>2026-04-19T11:02:03Z</time></trkpt><trkpt lat="43.40095937204758" lon="10.859181733649493"><ele>519.2857142857143</ele><time>2026-04-19T11:02:06Z</time></trkpt><trkpt lat="43.40100347038179" lon="10.859267286708608"><ele>520.8571428571429</ele><time>2026-04-19T11:02:09Z</time></trkpt><trkpt lat="43.40104655003971" lon="10.859363047583848"><ele>522.4285714285714</ele><time>2026-04-19T11:02:12Z</time></trkpt><trkpt lat="43.401082872773024" lon="10.859444494517955"><ele>524.0</ele><time>2026-04-19T11:02:16Z</time></trkpt><trkpt lat="43.40113449884344" lon="10.85950748430584"><ele>538.0</ele><time>2026-04-19T11:02:22Z</time></trkpt><trkpt lat="43.401177506999375" lon="10.85958951547222"><ele>538.0</ele><time>2026-04-19T11:02:26Z</time></trkpt><trkpt lat="43.40121865419696" lon="10.859675668315493"><ele>538.0</ele><time>2026-04-19T11:02:31Z</time></trkpt><trkpt lat="43.40119287332564" lon="10.859576478624511"><ele>538.0</ele><time>2026-04-19T11:02:44Z</time></trkpt><trkpt lat="43.401143769819925" lon="10.859508039551606"><ele>538.0</ele><time>2026-04-19T11:02:47Z</time></trkpt></trkseg></trk></gpx>